<?xml version="1.0" encoding="UTF-8" standalone="no" ?>
<gpx xmlns="http://www.topografix.com/GPX/1/1" xmlns:xsi="http://www.w3.org/2001/XMLSchema-instance" xsi:schemaLocation="http://www.topografix.com/GPX/1/1 http://www.topografix.com/GPX/1/1/gpx.xsd" version="1.1" creator="VisuGPX - https://www.visugpx.com">
  <metadata>
    <name>Rando improvisé du 21 11 10 </name>
    <desc><![CDATA[Pas mal de difficultés]]></desc>
  </metadata>
  <trk>
    <name><![CDATA[NOV-21-10 11:25:04]]></name>
    <trkseg>
      <trkpt lat="47.361" lon="-0.0348">
        <ele>148.66</ele>
        <time>2010-11-21T07:55:25Z</time>
      </trkpt>
      <trkpt lat="47.36102" lon="-0.03504">
        <ele>148.18</ele>
        <time>2010-11-21T08:05:23Z</time>
      </trkpt>
      <trkpt lat="47.36098" lon="-0.03486">
        <ele>148.18</ele>
        <time>2010-11-21T08:05:56Z</time>
      </trkpt>
      <trkpt lat="47.36098" lon="-0.03486">
        <ele>144.34</ele>
        <time>2010-11-21T08:05:57Z</time>
      </trkpt>
      <trkpt lat="47.36098" lon="-0.03485">
        <ele>147.22</ele>
        <time>2010-11-21T08:05:58Z</time>
      </trkpt>
      <trkpt lat="47.36098" lon="-0.03485">
        <ele>76.08</ele>
        <time>2010-11-21T08:12:06Z</time>
      </trkpt>
      <trkpt lat="47.36098" lon="-0.03485">
        <ele>136.16</ele>
        <time>2010-11-21T08:12:07Z</time>
      </trkpt>
      <trkpt lat="47.36098" lon="-0.03485">
        <ele>136.16</ele>
        <time>2010-11-21T08:12:08Z</time>
      </trkpt>
      <trkpt lat="47.36098" lon="-0.03485">
        <ele>137.61</ele>
        <time>2010-11-21T08:12:09Z</time>
      </trkpt>
      <trkpt lat="47.36197" lon="-0.03778">
        <ele>136.16</ele>
        <time>2010-11-21T08:12:14Z</time>
      </trkpt>
      <trkpt lat="47.36192" lon="-0.0375">
        <ele>137.13</ele>
        <time>2010-11-21T08:12:20Z</time>
      </trkpt>
      <trkpt lat="47.36192" lon="-0.03749">
        <ele>136.16</ele>
        <time>2010-11-21T08:12:22Z</time>
      </trkpt>
      <trkpt lat="47.36191" lon="-0.03749">
        <ele>137.13</ele>
        <time>2010-11-21T08:12:24Z</time>
      </trkpt>
      <trkpt lat="47.36192" lon="-0.03725">
        <ele>136.64</ele>
        <time>2010-11-21T08:12:31Z</time>
      </trkpt>
      <trkpt lat="47.36184" lon="-0.03714">
        <ele>137.13</ele>
        <time>2010-11-21T08:12:37Z</time>
      </trkpt>
      <trkpt lat="47.3618" lon="-0.03688">
        <ele>136.64</ele>
        <time>2010-11-21T08:12:44Z</time>
      </trkpt>
      <trkpt lat="47.36179" lon="-0.03685">
        <ele>137.61</ele>
        <time>2010-11-21T08:12:45Z</time>
      </trkpt>
      <trkpt lat="47.36175" lon="-0.03682">
        <ele>138.09</ele>
        <time>2010-11-21T08:12:47Z</time>
      </trkpt>
      <trkpt lat="47.36159" lon="-0.03688">
        <ele>139.05</ele>
        <time>2010-11-21T08:12:54Z</time>
      </trkpt>
      <trkpt lat="47.36147" lon="-0.03692">
        <ele>140.01</ele>
        <time>2010-11-21T08:12:58Z</time>
      </trkpt>
      <trkpt lat="47.36135" lon="-0.03689">
        <ele>140.01</ele>
        <time>2010-11-21T08:13:02Z</time>
      </trkpt>
      <trkpt lat="47.36126" lon="-0.03692">
        <ele>141.45</ele>
        <time>2010-11-21T08:13:05Z</time>
      </trkpt>
      <trkpt lat="47.36124" lon="-0.03694">
        <ele>142.41</ele>
        <time>2010-11-21T08:13:06Z</time>
      </trkpt>
      <trkpt lat="47.36123" lon="-0.03696">
        <ele>142.89</ele>
        <time>2010-11-21T08:13:07Z</time>
      </trkpt>
      <trkpt lat="47.36121" lon="-0.03696">
        <ele>142.41</ele>
        <time>2010-11-21T08:13:08Z</time>
      </trkpt>
      <trkpt lat="47.36119" lon="-0.03694">
        <ele>142.41</ele>
        <time>2010-11-21T08:13:09Z</time>
      </trkpt>
      <trkpt lat="47.36123" lon="-0.03658">
        <ele>142.89</ele>
        <time>2010-11-21T08:13:18Z</time>
      </trkpt>
      <trkpt lat="47.36125" lon="-0.03644">
        <ele>142.89</ele>
        <time>2010-11-21T08:13:21Z</time>
      </trkpt>
      <trkpt lat="47.36128" lon="-0.03602">
        <ele>143.85</ele>
        <time>2010-11-21T08:13:29Z</time>
      </trkpt>
      <trkpt lat="47.36129" lon="-0.03545">
        <ele>142.89</ele>
        <time>2010-11-21T08:13:39Z</time>
      </trkpt>
      <trkpt lat="47.3613" lon="-0.03533">
        <ele>137.61</ele>
        <time>2010-11-21T08:13:41Z</time>
      </trkpt>
      <trkpt lat="47.3613" lon="-0.03522">
        <ele>132.8</ele>
        <time>2010-11-21T08:13:43Z</time>
      </trkpt>
      <trkpt lat="47.36131" lon="-0.0351">
        <ele>129.43</ele>
        <time>2010-11-21T08:13:45Z</time>
      </trkpt>
      <trkpt lat="47.36132" lon="-0.03499">
        <ele>125.59</ele>
        <time>2010-11-21T08:13:47Z</time>
      </trkpt>
      <trkpt lat="47.36133" lon="-0.03487">
        <ele>122.22</ele>
        <time>2010-11-21T08:13:49Z</time>
      </trkpt>
      <trkpt lat="47.36134" lon="-0.03476">
        <ele>118.86</ele>
        <time>2010-11-21T08:13:51Z</time>
      </trkpt>
      <trkpt lat="47.36135" lon="-0.0346">
        <ele>114.53</ele>
        <time>2010-11-21T08:13:54Z</time>
      </trkpt>
      <trkpt lat="47.36133" lon="-0.0345">
        <ele>111.17</ele>
        <time>2010-11-21T08:13:56Z</time>
      </trkpt>
      <trkpt lat="47.36125" lon="-0.03441">
        <ele>107.81</ele>
        <time>2010-11-21T08:13:59Z</time>
      </trkpt>
      <trkpt lat="47.36114" lon="-0.03439">
        <ele>103.96</ele>
        <time>2010-11-21T08:14:02Z</time>
      </trkpt>
      <trkpt lat="47.36111" lon="-0.03439">
        <ele>104.92</ele>
        <time>2010-11-21T08:14:03Z</time>
      </trkpt>
      <trkpt lat="47.361" lon="-0.03438">
        <ele>101.56</ele>
        <time>2010-11-21T08:14:06Z</time>
      </trkpt>
      <trkpt lat="47.3609" lon="-0.03437">
        <ele>99.15</ele>
        <time>2010-11-21T08:14:09Z</time>
      </trkpt>
      <trkpt lat="47.3607" lon="-0.03431">
        <ele>95.31</ele>
        <time>2010-11-21T08:14:15Z</time>
      </trkpt>
      <trkpt lat="47.36063" lon="-0.03416">
        <ele>94.83</ele>
        <time>2010-11-21T08:14:19Z</time>
      </trkpt>
      <trkpt lat="47.36063" lon="-0.03399">
        <ele>91.94</ele>
        <time>2010-11-21T08:14:23Z</time>
      </trkpt>
      <trkpt lat="47.36063" lon="-0.03394">
        <ele>91.94</ele>
        <time>2010-11-21T08:14:24Z</time>
      </trkpt>
      <trkpt lat="47.36066" lon="-0.03363">
        <ele>90.02</ele>
        <time>2010-11-21T08:14:30Z</time>
      </trkpt>
      <trkpt lat="47.36075" lon="-0.03329">
        <ele>89.54</ele>
        <time>2010-11-21T08:14:36Z</time>
      </trkpt>
      <trkpt lat="47.36079" lon="-0.03318">
        <ele>89.06</ele>
        <time>2010-11-21T08:14:38Z</time>
      </trkpt>
      <trkpt lat="47.36081" lon="-0.03312">
        <ele>88.58</ele>
        <time>2010-11-21T08:14:39Z</time>
      </trkpt>
      <trkpt lat="47.36082" lon="-0.03307">
        <ele>87.62</ele>
        <time>2010-11-21T08:14:40Z</time>
      </trkpt>
      <trkpt lat="47.36083" lon="-0.03301">
        <ele>88.1</ele>
        <time>2010-11-21T08:14:41Z</time>
      </trkpt>
      <trkpt lat="47.36085" lon="-0.03296">
        <ele>88.58</ele>
        <time>2010-11-21T08:14:42Z</time>
      </trkpt>
      <trkpt lat="47.36086" lon="-0.0329">
        <ele>87.62</ele>
        <time>2010-11-21T08:14:43Z</time>
      </trkpt>
      <trkpt lat="47.36095" lon="-0.03259">
        <ele>87.62</ele>
        <time>2010-11-21T08:14:49Z</time>
      </trkpt>
      <trkpt lat="47.36099" lon="-0.03224">
        <ele>87.62</ele>
        <time>2010-11-21T08:14:55Z</time>
      </trkpt>
      <trkpt lat="47.36099" lon="-0.03218">
        <ele>86.66</ele>
        <time>2010-11-21T08:14:56Z</time>
      </trkpt>
      <trkpt lat="47.36103" lon="-0.03203">
        <ele>87.14</ele>
        <time>2010-11-21T08:14:59Z</time>
      </trkpt>
      <trkpt lat="47.36102" lon="-0.03188">
        <ele>87.62</ele>
        <time>2010-11-21T08:15:02Z</time>
      </trkpt>
      <trkpt lat="47.36096" lon="-0.0317">
        <ele>86.18</ele>
        <time>2010-11-21T08:15:06Z</time>
      </trkpt>
      <trkpt lat="47.36093" lon="-0.03165">
        <ele>85.69</ele>
        <time>2010-11-21T08:15:07Z</time>
      </trkpt>
      <trkpt lat="47.36079" lon="-0.03122">
        <ele>84.25</ele>
        <time>2010-11-21T08:15:15Z</time>
      </trkpt>
      <trkpt lat="47.36066" lon="-0.03084">
        <ele>84.25</ele>
        <time>2010-11-21T08:15:23Z</time>
      </trkpt>
      <trkpt lat="47.36059" lon="-0.03056">
        <ele>84.25</ele>
        <time>2010-11-21T08:15:29Z</time>
      </trkpt>
      <trkpt lat="47.36049" lon="-0.03026">
        <ele>85.21</ele>
        <time>2010-11-21T08:15:36Z</time>
      </trkpt>
      <trkpt lat="47.3604" lon="-0.02998">
        <ele>87.14</ele>
        <time>2010-11-21T08:15:43Z</time>
      </trkpt>
      <trkpt lat="47.3603" lon="-0.02972">
        <ele>88.1</ele>
        <time>2010-11-21T08:15:49Z</time>
      </trkpt>
      <trkpt lat="47.36012" lon="-0.02948">
        <ele>89.54</ele>
        <time>2010-11-21T08:15:56Z</time>
      </trkpt>
      <trkpt lat="47.36001" lon="-0.02926">
        <ele>90.98</ele>
        <time>2010-11-21T08:16:02Z</time>
      </trkpt>
      <trkpt lat="47.35996" lon="-0.02915">
        <ele>90.5</ele>
        <time>2010-11-21T08:16:05Z</time>
      </trkpt>
      <trkpt lat="47.3599" lon="-0.02901">
        <ele>91.94</ele>
        <time>2010-11-21T08:16:09Z</time>
      </trkpt>
      <trkpt lat="47.35982" lon="-0.02883">
        <ele>93.87</ele>
        <time>2010-11-21T08:16:15Z</time>
      </trkpt>
      <trkpt lat="47.3597" lon="-0.02869">
        <ele>93.87</ele>
        <time>2010-11-21T08:16:20Z</time>
      </trkpt>
      <trkpt lat="47.35962" lon="-0.02862">
        <ele>94.35</ele>
        <time>2010-11-21T08:16:23Z</time>
      </trkpt>
      <trkpt lat="47.35951" lon="-0.02849">
        <ele>94.83</ele>
        <time>2010-11-21T08:16:28Z</time>
      </trkpt>
      <trkpt lat="47.35947" lon="-0.02848">
        <ele>94.83</ele>
        <time>2010-11-21T08:16:29Z</time>
      </trkpt>
      <trkpt lat="47.35943" lon="-0.02846">
        <ele>96.27</ele>
        <time>2010-11-21T08:16:30Z</time>
      </trkpt>
      <trkpt lat="47.35924" lon="-0.02838">
        <ele>95.79</ele>
        <time>2010-11-21T08:16:35Z</time>
      </trkpt>
      <trkpt lat="47.35906" lon="-0.02828">
        <ele>95.31</ele>
        <time>2010-11-21T08:16:41Z</time>
      </trkpt>
      <trkpt lat="47.35904" lon="-0.02827">
        <ele>97.23</ele>
        <time>2010-11-21T08:16:42Z</time>
      </trkpt>
      <trkpt lat="47.35888" lon="-0.02819">
        <ele>96.75</ele>
        <time>2010-11-21T08:16:48Z</time>
      </trkpt>
      <trkpt lat="47.35868" lon="-0.0281">
        <ele>97.71</ele>
        <time>2010-11-21T08:16:54Z</time>
      </trkpt>
      <trkpt lat="47.35863" lon="-0.02809">
        <ele>97.71</ele>
        <time>2010-11-21T08:16:55Z</time>
      </trkpt>
      <trkpt lat="47.35855" lon="-0.02805">
        <ele>97.23</ele>
        <time>2010-11-21T08:16:57Z</time>
      </trkpt>
      <trkpt lat="47.35847" lon="-0.028">
        <ele>98.19</ele>
        <time>2010-11-21T08:16:59Z</time>
      </trkpt>
      <trkpt lat="47.35835" lon="-0.0279">
        <ele>95.79</ele>
        <time>2010-11-21T08:17:02Z</time>
      </trkpt>
      <trkpt lat="47.35804" lon="-0.02798">
        <ele>95.79</ele>
        <time>2010-11-21T08:17:03Z</time>
      </trkpt>
      <trkpt lat="47.35769" lon="-0.02778">
        <ele>97.71</ele>
        <time>2010-11-21T08:17:10Z</time>
      </trkpt>
      <trkpt lat="47.35766" lon="-0.02774">
        <ele>97.23</ele>
        <time>2010-11-21T08:17:11Z</time>
      </trkpt>
      <trkpt lat="47.35739" lon="-0.02745">
        <ele>97.23</ele>
        <time>2010-11-21T08:17:19Z</time>
      </trkpt>
      <trkpt lat="47.35737" lon="-0.0274">
        <ele>97.23</ele>
        <time>2010-11-21T08:17:20Z</time>
      </trkpt>
      <trkpt lat="47.3573" lon="-0.02723">
        <ele>97.23</ele>
        <time>2010-11-21T08:17:23Z</time>
      </trkpt>
      <trkpt lat="47.35718" lon="-0.02668">
        <ele>98.67</ele>
        <time>2010-11-21T08:17:32Z</time>
      </trkpt>
      <trkpt lat="47.35713" lon="-0.02623">
        <ele>101.08</ele>
        <time>2010-11-21T08:17:40Z</time>
      </trkpt>
      <trkpt lat="47.3571" lon="-0.02576">
        <ele>102.04</ele>
        <time>2010-11-21T08:17:48Z</time>
      </trkpt>
      <trkpt lat="47.3571" lon="-0.02541">
        <ele>102.52</ele>
        <time>2010-11-21T08:17:54Z</time>
      </trkpt>
      <trkpt lat="47.35705" lon="-0.02497">
        <ele>103.96</ele>
        <time>2010-11-21T08:18:02Z</time>
      </trkpt>
      <trkpt lat="47.35705" lon="-0.02491">
        <ele>103.96</ele>
        <time>2010-11-21T08:18:03Z</time>
      </trkpt>
      <trkpt lat="47.35704" lon="-0.02466">
        <ele>104.92</ele>
        <time>2010-11-21T08:18:07Z</time>
      </trkpt>
      <trkpt lat="47.35704" lon="-0.02461">
        <ele>104.92</ele>
        <time>2010-11-21T08:18:08Z</time>
      </trkpt>
      <trkpt lat="47.35703" lon="-0.02449">
        <ele>104.44</ele>
        <time>2010-11-21T08:18:10Z</time>
      </trkpt>
      <trkpt lat="47.35701" lon="-0.02437">
        <ele>104.92</ele>
        <time>2010-11-21T08:18:12Z</time>
      </trkpt>
      <trkpt lat="47.35701" lon="-0.02431">
        <ele>105.88</ele>
        <time>2010-11-21T08:18:13Z</time>
      </trkpt>
      <trkpt lat="47.35701" lon="-0.0242">
        <ele>104.92</ele>
        <time>2010-11-21T08:18:15Z</time>
      </trkpt>
      <trkpt lat="47.357" lon="-0.02401">
        <ele>105.4</ele>
        <time>2010-11-21T08:18:18Z</time>
      </trkpt>
      <trkpt lat="47.357" lon="-0.02395">
        <ele>104.92</ele>
        <time>2010-11-21T08:18:19Z</time>
      </trkpt>
      <trkpt lat="47.35699" lon="-0.02389">
        <ele>104.92</ele>
        <time>2010-11-21T08:18:20Z</time>
      </trkpt>
      <trkpt lat="47.35698" lon="-0.02371">
        <ele>106.36</ele>
        <time>2010-11-21T08:18:23Z</time>
      </trkpt>
      <trkpt lat="47.35698" lon="-0.02365">
        <ele>104.92</ele>
        <time>2010-11-21T08:18:24Z</time>
      </trkpt>
      <trkpt lat="47.35697" lon="-0.02345">
        <ele>106.36</ele>
        <time>2010-11-21T08:18:27Z</time>
      </trkpt>
      <trkpt lat="47.35698" lon="-0.02309">
        <ele>105.88</ele>
        <time>2010-11-21T08:18:33Z</time>
      </trkpt>
      <trkpt lat="47.35699" lon="-0.02277">
        <ele>107.32</ele>
        <time>2010-11-21T08:18:38Z</time>
      </trkpt>
      <trkpt lat="47.35695" lon="-0.0224">
        <ele>107.32</ele>
        <time>2010-11-21T08:18:44Z</time>
      </trkpt>
      <trkpt lat="47.35694" lon="-0.02234">
        <ele>108.29</ele>
        <time>2010-11-21T08:18:45Z</time>
      </trkpt>
      <trkpt lat="47.35693" lon="-0.02228">
        <ele>107.32</ele>
        <time>2010-11-21T08:18:46Z</time>
      </trkpt>
      <trkpt lat="47.35684" lon="-0.02188">
        <ele>108.29</ele>
        <time>2010-11-21T08:18:53Z</time>
      </trkpt>
      <trkpt lat="47.35682" lon="-0.02181">
        <ele>108.29</ele>
        <time>2010-11-21T08:18:54Z</time>
      </trkpt>
      <trkpt lat="47.35681" lon="-0.02176">
        <ele>108.29</ele>
        <time>2010-11-21T08:18:55Z</time>
      </trkpt>
      <trkpt lat="47.35671" lon="-0.02134">
        <ele>109.25</ele>
        <time>2010-11-21T08:19:02Z</time>
      </trkpt>
      <trkpt lat="47.3567" lon="-0.02128">
        <ele>109.25</ele>
        <time>2010-11-21T08:19:03Z</time>
      </trkpt>
      <trkpt lat="47.35663" lon="-0.02092">
        <ele>110.21</ele>
        <time>2010-11-21T08:19:09Z</time>
      </trkpt>
      <trkpt lat="47.35661" lon="-0.02079">
        <ele>109.25</ele>
        <time>2010-11-21T08:19:11Z</time>
      </trkpt>
      <trkpt lat="47.3566" lon="-0.02073">
        <ele>109.73</ele>
        <time>2010-11-21T08:19:12Z</time>
      </trkpt>
      <trkpt lat="47.35648" lon="-0.02024">
        <ele>110.21</ele>
        <time>2010-11-21T08:19:20Z</time>
      </trkpt>
      <trkpt lat="47.35634" lon="-0.01985">
        <ele>110.21</ele>
        <time>2010-11-21T08:19:27Z</time>
      </trkpt>
      <trkpt lat="47.35631" lon="-0.01981">
        <ele>109.25</ele>
        <time>2010-11-21T08:19:28Z</time>
      </trkpt>
      <trkpt lat="47.35628" lon="-0.01978">
        <ele>109.25</ele>
        <time>2010-11-21T08:19:29Z</time>
      </trkpt>
      <trkpt lat="47.35624" lon="-0.01976">
        <ele>109.73</ele>
        <time>2010-11-21T08:19:30Z</time>
      </trkpt>
      <trkpt lat="47.3562" lon="-0.01974">
        <ele>109.73</ele>
        <time>2010-11-21T08:19:31Z</time>
      </trkpt>
      <trkpt lat="47.35616" lon="-0.01972">
        <ele>109.73</ele>
        <time>2010-11-21T08:19:32Z</time>
      </trkpt>
      <trkpt lat="47.35605" lon="-0.01971">
        <ele>108.77</ele>
        <time>2010-11-21T08:19:35Z</time>
      </trkpt>
      <trkpt lat="47.356" lon="-0.0197">
        <ele>108.29</ele>
        <time>2010-11-21T08:19:36Z</time>
      </trkpt>
      <trkpt lat="47.35596" lon="-0.01969">
        <ele>108.77</ele>
        <time>2010-11-21T08:19:37Z</time>
      </trkpt>
      <trkpt lat="47.35592" lon="-0.01968">
        <ele>109.25</ele>
        <time>2010-11-21T08:19:38Z</time>
      </trkpt>
      <trkpt lat="47.35589" lon="-0.01967">
        <ele>108.29</ele>
        <time>2010-11-21T08:19:39Z</time>
      </trkpt>
      <trkpt lat="47.35585" lon="-0.01967">
        <ele>108.77</ele>
        <time>2010-11-21T08:19:40Z</time>
      </trkpt>
      <trkpt lat="47.35568" lon="-0.01961">
        <ele>108.29</ele>
        <time>2010-11-21T08:19:45Z</time>
      </trkpt>
      <trkpt lat="47.35541" lon="-0.01956">
        <ele>108.77</ele>
        <time>2010-11-21T08:19:51Z</time>
      </trkpt>
      <trkpt lat="47.35537" lon="-0.01955">
        <ele>108.77</ele>
        <time>2010-11-21T08:19:52Z</time>
      </trkpt>
      <trkpt lat="47.35507" lon="-0.01946">
        <ele>108.29</ele>
        <time>2010-11-21T08:19:59Z</time>
      </trkpt>
      <trkpt lat="47.35476" lon="-0.01943">
        <ele>106.84</ele>
        <time>2010-11-21T08:20:06Z</time>
      </trkpt>
      <trkpt lat="47.35462" lon="-0.01935">
        <ele>106.36</ele>
        <time>2010-11-21T08:20:11Z</time>
      </trkpt>
      <trkpt lat="47.35461" lon="-0.01934">
        <ele>106.36</ele>
        <time>2010-11-21T08:20:12Z</time>
      </trkpt>
      <trkpt lat="47.3546" lon="-0.01931">
        <ele>106.84</ele>
        <time>2010-11-21T08:20:13Z</time>
      </trkpt>
      <trkpt lat="47.3546" lon="-0.01928">
        <ele>106.84</ele>
        <time>2010-11-21T08:20:14Z</time>
      </trkpt>
      <trkpt lat="47.35459" lon="-0.01925">
        <ele>105.88</ele>
        <time>2010-11-21T08:20:15Z</time>
      </trkpt>
      <trkpt lat="47.35459" lon="-0.0192">
        <ele>106.36</ele>
        <time>2010-11-21T08:20:16Z</time>
      </trkpt>
      <trkpt lat="47.35457" lon="-0.01897">
        <ele>105.88</ele>
        <time>2010-11-21T08:20:21Z</time>
      </trkpt>
      <trkpt lat="47.35454" lon="-0.01867">
        <ele>106.36</ele>
        <time>2010-11-21T08:20:27Z</time>
      </trkpt>
      <trkpt lat="47.35451" lon="-0.01835">
        <ele>107.32</ele>
        <time>2010-11-21T08:20:33Z</time>
      </trkpt>
      <trkpt lat="47.35449" lon="-0.01807">
        <ele>107.32</ele>
        <time>2010-11-21T08:20:38Z</time>
      </trkpt>
      <trkpt lat="47.35445" lon="-0.01787">
        <ele>107.81</ele>
        <time>2010-11-21T08:20:42Z</time>
      </trkpt>
      <trkpt lat="47.35444" lon="-0.01782">
        <ele>107.81</ele>
        <time>2010-11-21T08:20:43Z</time>
      </trkpt>
      <trkpt lat="47.35443" lon="-0.01778">
        <ele>108.29</ele>
        <time>2010-11-21T08:20:44Z</time>
      </trkpt>
      <trkpt lat="47.35442" lon="-0.01772">
        <ele>108.77</ele>
        <time>2010-11-21T08:20:45Z</time>
      </trkpt>
      <trkpt lat="47.35442" lon="-0.01768">
        <ele>109.25</ele>
        <time>2010-11-21T08:20:46Z</time>
      </trkpt>
      <trkpt lat="47.35441" lon="-0.01763">
        <ele>108.77</ele>
        <time>2010-11-21T08:20:47Z</time>
      </trkpt>
      <trkpt lat="47.35439" lon="-0.0173">
        <ele>108.29</ele>
        <time>2010-11-21T08:20:53Z</time>
      </trkpt>
      <trkpt lat="47.35438" lon="-0.0171">
        <ele>109.73</ele>
        <time>2010-11-21T08:20:57Z</time>
      </trkpt>
      <trkpt lat="47.35435" lon="-0.01692">
        <ele>108.77</ele>
        <time>2010-11-21T08:21:01Z</time>
      </trkpt>
      <trkpt lat="47.35433" lon="-0.0166">
        <ele>109.73</ele>
        <time>2010-11-21T08:21:07Z</time>
      </trkpt>
      <trkpt lat="47.35431" lon="-0.01634">
        <ele>109.25</ele>
        <time>2010-11-21T08:21:12Z</time>
      </trkpt>
      <trkpt lat="47.35429" lon="-0.01608">
        <ele>109.25</ele>
        <time>2010-11-21T08:21:17Z</time>
      </trkpt>
      <trkpt lat="47.35428" lon="-0.01569">
        <ele>108.77</ele>
        <time>2010-11-21T08:21:24Z</time>
      </trkpt>
      <trkpt lat="47.35429" lon="-0.0153">
        <ele>108.29</ele>
        <time>2010-11-21T08:21:31Z</time>
      </trkpt>
      <trkpt lat="47.35426" lon="-0.01523">
        <ele>108.77</ele>
        <time>2010-11-21T08:21:33Z</time>
      </trkpt>
      <trkpt lat="47.35423" lon="-0.01522">
        <ele>108.77</ele>
        <time>2010-11-21T08:21:34Z</time>
      </trkpt>
      <trkpt lat="47.3542" lon="-0.01521">
        <ele>109.25</ele>
        <time>2010-11-21T08:21:35Z</time>
      </trkpt>
      <trkpt lat="47.35397" lon="-0.01508">
        <ele>108.77</ele>
        <time>2010-11-21T08:21:42Z</time>
      </trkpt>
      <trkpt lat="47.35376" lon="-0.01495">
        <ele>108.77</ele>
        <time>2010-11-21T08:21:48Z</time>
      </trkpt>
      <trkpt lat="47.35371" lon="-0.01492">
        <ele>107.81</ele>
        <time>2010-11-21T08:21:49Z</time>
      </trkpt>
      <trkpt lat="47.35367" lon="-0.01488">
        <ele>108.29</ele>
        <time>2010-11-21T08:21:50Z</time>
      </trkpt>
      <trkpt lat="47.35352" lon="-0.01469">
        <ele>106.36</ele>
        <time>2010-11-21T08:21:54Z</time>
      </trkpt>
      <trkpt lat="47.35337" lon="-0.01455">
        <ele>105.4</ele>
        <time>2010-11-21T08:21:58Z</time>
      </trkpt>
      <trkpt lat="47.35333" lon="-0.01452">
        <ele>105.88</ele>
        <time>2010-11-21T08:21:59Z</time>
      </trkpt>
      <trkpt lat="47.35329" lon="-0.01449">
        <ele>105.88</ele>
        <time>2010-11-21T08:22:00Z</time>
      </trkpt>
      <trkpt lat="47.35325" lon="-0.01446">
        <ele>105.4</ele>
        <time>2010-11-21T08:22:01Z</time>
      </trkpt>
      <trkpt lat="47.3532" lon="-0.01444">
        <ele>106.36</ele>
        <time>2010-11-21T08:22:02Z</time>
      </trkpt>
      <trkpt lat="47.35315" lon="-0.01441">
        <ele>104.44</ele>
        <time>2010-11-21T08:22:03Z</time>
      </trkpt>
      <trkpt lat="47.35309" lon="-0.01437">
        <ele>103.96</ele>
        <time>2010-11-21T08:22:04Z</time>
      </trkpt>
      <trkpt lat="47.35304" lon="-0.01432">
        <ele>102.52</ele>
        <time>2010-11-21T08:22:05Z</time>
      </trkpt>
      <trkpt lat="47.35297" lon="-0.01428">
        <ele>103</ele>
        <time>2010-11-21T08:22:06Z</time>
      </trkpt>
      <trkpt lat="47.35291" lon="-0.01422">
        <ele>101.56</ele>
        <time>2010-11-21T08:22:07Z</time>
      </trkpt>
      <trkpt lat="47.35277" lon="-0.01411">
        <ele>100.6</ele>
        <time>2010-11-21T08:22:09Z</time>
      </trkpt>
      <trkpt lat="47.35271" lon="-0.01406">
        <ele>99.15</ele>
        <time>2010-11-21T08:22:10Z</time>
      </trkpt>
      <trkpt lat="47.35264" lon="-0.014">
        <ele>99.15</ele>
        <time>2010-11-21T08:22:11Z</time>
      </trkpt>
      <trkpt lat="47.35258" lon="-0.01393">
        <ele>98.67</ele>
        <time>2010-11-21T08:22:12Z</time>
      </trkpt>
      <trkpt lat="47.35251" lon="-0.01385">
        <ele>96.75</ele>
        <time>2010-11-21T08:22:13Z</time>
      </trkpt>
      <trkpt lat="47.35243" lon="-0.01377">
        <ele>96.75</ele>
        <time>2010-11-21T08:22:14Z</time>
      </trkpt>
      <trkpt lat="47.35214" lon="-0.01345">
        <ele>93.39</ele>
        <time>2010-11-21T08:22:18Z</time>
      </trkpt>
      <trkpt lat="47.35207" lon="-0.01338">
        <ele>92.42</ele>
        <time>2010-11-21T08:22:19Z</time>
      </trkpt>
      <trkpt lat="47.35193" lon="-0.01325">
        <ele>90.5</ele>
        <time>2010-11-21T08:22:21Z</time>
      </trkpt>
      <trkpt lat="47.35185" lon="-0.01319">
        <ele>89.06</ele>
        <time>2010-11-21T08:22:22Z</time>
      </trkpt>
      <trkpt lat="47.35169" lon="-0.01307">
        <ele>86.66</ele>
        <time>2010-11-21T08:22:24Z</time>
      </trkpt>
      <trkpt lat="47.3516" lon="-0.01299">
        <ele>85.21</ele>
        <time>2010-11-21T08:22:25Z</time>
      </trkpt>
      <trkpt lat="47.35152" lon="-0.01292">
        <ele>83.77</ele>
        <time>2010-11-21T08:22:26Z</time>
      </trkpt>
      <trkpt lat="47.35128" lon="-0.01272">
        <ele>78.97</ele>
        <time>2010-11-21T08:22:29Z</time>
      </trkpt>
      <trkpt lat="47.35121" lon="-0.01264">
        <ele>78.48</ele>
        <time>2010-11-21T08:22:30Z</time>
      </trkpt>
      <trkpt lat="47.351" lon="-0.01241">
        <ele>75.12</ele>
        <time>2010-11-21T08:22:33Z</time>
      </trkpt>
      <trkpt lat="47.35087" lon="-0.01223">
        <ele>72.72</ele>
        <time>2010-11-21T08:22:36Z</time>
      </trkpt>
      <trkpt lat="47.35086" lon="-0.01217">
        <ele>71.76</ele>
        <time>2010-11-21T08:22:37Z</time>
      </trkpt>
      <trkpt lat="47.35086" lon="-0.01213">
        <ele>72.24</ele>
        <time>2010-11-21T08:22:38Z</time>
      </trkpt>
      <trkpt lat="47.35088" lon="-0.01208">
        <ele>72.24</ele>
        <time>2010-11-21T08:22:39Z</time>
      </trkpt>
      <trkpt lat="47.35091" lon="-0.01204">
        <ele>73.2</ele>
        <time>2010-11-21T08:22:40Z</time>
      </trkpt>
      <trkpt lat="47.35093" lon="-0.01199">
        <ele>72.72</ele>
        <time>2010-11-21T08:22:41Z</time>
      </trkpt>
      <trkpt lat="47.35098" lon="-0.0119">
        <ele>72.24</ele>
        <time>2010-11-21T08:22:43Z</time>
      </trkpt>
      <trkpt lat="47.35102" lon="-0.01179">
        <ele>72.24</ele>
        <time>2010-11-21T08:22:45Z</time>
      </trkpt>
      <trkpt lat="47.35104" lon="-0.01172">
        <ele>72.72</ele>
        <time>2010-11-21T08:22:46Z</time>
      </trkpt>
      <trkpt lat="47.35113" lon="-0.01147">
        <ele>71.76</ele>
        <time>2010-11-21T08:22:50Z</time>
      </trkpt>
      <trkpt lat="47.35132" lon="-0.01092">
        <ele>70.79</ele>
        <time>2010-11-21T08:22:58Z</time>
      </trkpt>
      <trkpt lat="47.35153" lon="-0.01054">
        <ele>72.24</ele>
        <time>2010-11-21T08:23:06Z</time>
      </trkpt>
      <trkpt lat="47.35156" lon="-0.01052">
        <ele>73.2</ele>
        <time>2010-11-21T08:23:07Z</time>
      </trkpt>
      <trkpt lat="47.35159" lon="-0.01052">
        <ele>74.16</ele>
        <time>2010-11-21T08:23:08Z</time>
      </trkpt>
      <trkpt lat="47.35161" lon="-0.01053">
        <ele>73.68</ele>
        <time>2010-11-21T08:23:09Z</time>
      </trkpt>
      <trkpt lat="47.35164" lon="-0.01055">
        <ele>74.16</ele>
        <time>2010-11-21T08:23:10Z</time>
      </trkpt>
      <trkpt lat="47.35166" lon="-0.01056">
        <ele>74.64</ele>
        <time>2010-11-21T08:23:11Z</time>
      </trkpt>
      <trkpt lat="47.35167" lon="-0.01056">
        <ele>75.12</ele>
        <time>2010-11-21T08:23:12Z</time>
      </trkpt>
      <trkpt lat="47.35179" lon="-0.01062">
        <ele>75.12</ele>
        <time>2010-11-21T08:23:17Z</time>
      </trkpt>
      <trkpt lat="47.35183" lon="-0.01063">
        <ele>74.64</ele>
        <time>2010-11-21T08:23:18Z</time>
      </trkpt>
      <trkpt lat="47.35185" lon="-0.01065">
        <ele>76.08</ele>
        <time>2010-11-21T08:23:19Z</time>
      </trkpt>
      <trkpt lat="47.35187" lon="-0.01068">
        <ele>76.08</ele>
        <time>2010-11-21T08:23:20Z</time>
      </trkpt>
      <trkpt lat="47.35188" lon="-0.0107">
        <ele>77.04</ele>
        <time>2010-11-21T08:23:21Z</time>
      </trkpt>
      <trkpt lat="47.3519" lon="-0.01072">
        <ele>76.56</ele>
        <time>2010-11-21T08:23:22Z</time>
      </trkpt>
      <trkpt lat="47.35193" lon="-0.01074">
        <ele>76.08</ele>
        <time>2010-11-21T08:23:23Z</time>
      </trkpt>
      <trkpt lat="47.35196" lon="-0.01075">
        <ele>77.04</ele>
        <time>2010-11-21T08:23:24Z</time>
      </trkpt>
      <trkpt lat="47.35199" lon="-0.01077">
        <ele>77.04</ele>
        <time>2010-11-21T08:23:25Z</time>
      </trkpt>
      <trkpt lat="47.35202" lon="-0.01079">
        <ele>77.04</ele>
        <time>2010-11-21T08:23:26Z</time>
      </trkpt>
      <trkpt lat="47.35204" lon="-0.01081">
        <ele>77.04</ele>
        <time>2010-11-21T08:23:27Z</time>
      </trkpt>
      <trkpt lat="47.35207" lon="-0.01083">
        <ele>78</ele>
        <time>2010-11-21T08:23:28Z</time>
      </trkpt>
      <trkpt lat="47.35211" lon="-0.01085">
        <ele>77.52</ele>
        <time>2010-11-21T08:23:29Z</time>
      </trkpt>
      <trkpt lat="47.35221" lon="-0.01088">
        <ele>78.48</ele>
        <time>2010-11-21T08:23:32Z</time>
      </trkpt>
      <trkpt lat="47.35225" lon="-0.01088">
        <ele>78.97</ele>
        <time>2010-11-21T08:23:33Z</time>
      </trkpt>
      <trkpt lat="47.35228" lon="-0.0109">
        <ele>78.48</ele>
        <time>2010-11-21T08:23:34Z</time>
      </trkpt>
      <trkpt lat="47.35231" lon="-0.01092">
        <ele>79.45</ele>
        <time>2010-11-21T08:23:35Z</time>
      </trkpt>
      <trkpt lat="47.35234" lon="-0.01095">
        <ele>79.45</ele>
        <time>2010-11-21T08:23:36Z</time>
      </trkpt>
      <trkpt lat="47.35236" lon="-0.01099">
        <ele>79.45</ele>
        <time>2010-11-21T08:23:37Z</time>
      </trkpt>
      <trkpt lat="47.35251" lon="-0.01112">
        <ele>81.37</ele>
        <time>2010-11-21T08:23:43Z</time>
      </trkpt>
      <trkpt lat="47.35254" lon="-0.01113">
        <ele>81.85</ele>
        <time>2010-11-21T08:23:44Z</time>
      </trkpt>
      <trkpt lat="47.35256" lon="-0.01114">
        <ele>80.89</ele>
        <time>2010-11-21T08:23:45Z</time>
      </trkpt>
      <trkpt lat="47.35258" lon="-0.01115">
        <ele>81.85</ele>
        <time>2010-11-21T08:23:46Z</time>
      </trkpt>
      <trkpt lat="47.35263" lon="-0.01119">
        <ele>82.33</ele>
        <time>2010-11-21T08:23:48Z</time>
      </trkpt>
      <trkpt lat="47.35265" lon="-0.01121">
        <ele>82.33</ele>
        <time>2010-11-21T08:23:49Z</time>
      </trkpt>
      <trkpt lat="47.35267" lon="-0.01123">
        <ele>82.81</ele>
        <time>2010-11-21T08:23:50Z</time>
      </trkpt>
      <trkpt lat="47.35276" lon="-0.01135">
        <ele>83.77</ele>
        <time>2010-11-21T08:23:54Z</time>
      </trkpt>
      <trkpt lat="47.35279" lon="-0.01138">
        <ele>83.77</ele>
        <time>2010-11-21T08:23:55Z</time>
      </trkpt>
      <trkpt lat="47.35282" lon="-0.01142">
        <ele>84.73</ele>
        <time>2010-11-21T08:23:57Z</time>
      </trkpt>
      <trkpt lat="47.35288" lon="-0.0114">
        <ele>85.21</ele>
        <time>2010-11-21T08:24:01Z</time>
      </trkpt>
      <trkpt lat="47.35291" lon="-0.01143">
        <ele>86.18</ele>
        <time>2010-11-21T08:24:03Z</time>
      </trkpt>
      <trkpt lat="47.35303" lon="-0.01148">
        <ele>89.06</ele>
        <time>2010-11-21T08:24:10Z</time>
      </trkpt>
      <trkpt lat="47.35305" lon="-0.0115">
        <ele>89.54</ele>
        <time>2010-11-21T08:24:12Z</time>
      </trkpt>
      <trkpt lat="47.35309" lon="-0.01151">
        <ele>89.06</ele>
        <time>2010-11-21T08:24:14Z</time>
      </trkpt>
      <trkpt lat="47.35315" lon="-0.01158">
        <ele>90.02</ele>
        <time>2010-11-21T08:24:20Z</time>
      </trkpt>
      <trkpt lat="47.3532" lon="-0.0116">
        <ele>90.98</ele>
        <time>2010-11-21T08:24:24Z</time>
      </trkpt>
      <trkpt lat="47.35328" lon="-0.01164">
        <ele>92.42</ele>
        <time>2010-11-21T08:24:29Z</time>
      </trkpt>
      <trkpt lat="47.35332" lon="-0.01164">
        <ele>93.39</ele>
        <time>2010-11-21T08:24:33Z</time>
      </trkpt>
      <trkpt lat="47.35336" lon="-0.01162">
        <ele>93.87</ele>
        <time>2010-11-21T08:24:36Z</time>
      </trkpt>
      <trkpt lat="47.35341" lon="-0.01159">
        <ele>95.79</ele>
        <time>2010-11-21T08:24:39Z</time>
      </trkpt>
      <trkpt lat="47.35343" lon="-0.01159">
        <ele>95.79</ele>
        <time>2010-11-21T08:24:42Z</time>
      </trkpt>
      <trkpt lat="47.35351" lon="-0.01155">
        <ele>96.27</ele>
        <time>2010-11-21T08:24:49Z</time>
      </trkpt>
      <trkpt lat="47.35359" lon="-0.0115">
        <ele>97.23</ele>
        <time>2010-11-21T08:24:54Z</time>
      </trkpt>
      <trkpt lat="47.35363" lon="-0.01142">
        <ele>98.67</ele>
        <time>2010-11-21T08:24:58Z</time>
      </trkpt>
      <trkpt lat="47.35364" lon="-0.0113">
        <ele>97.71</ele>
        <time>2010-11-21T08:25:02Z</time>
      </trkpt>
      <trkpt lat="47.35366" lon="-0.01125">
        <ele>97.71</ele>
        <time>2010-11-21T08:25:04Z</time>
      </trkpt>
      <trkpt lat="47.35374" lon="-0.01101">
        <ele>98.67</ele>
        <time>2010-11-21T08:25:11Z</time>
      </trkpt>
      <trkpt lat="47.3538" lon="-0.01084">
        <ele>99.15</ele>
        <time>2010-11-21T08:25:17Z</time>
      </trkpt>
      <trkpt lat="47.3539" lon="-0.01072">
        <ele>99.15</ele>
        <time>2010-11-21T08:25:22Z</time>
      </trkpt>
      <trkpt lat="47.35397" lon="-0.01066">
        <ele>100.11</ele>
        <time>2010-11-21T08:25:27Z</time>
      </trkpt>
      <trkpt lat="47.35414" lon="-0.0106">
        <ele>100.6</ele>
        <time>2010-11-21T08:25:32Z</time>
      </trkpt>
      <trkpt lat="47.35431" lon="-0.01056">
        <ele>100.11</ele>
        <time>2010-11-21T08:25:38Z</time>
      </trkpt>
      <trkpt lat="47.35442" lon="-0.01039">
        <ele>99.63</ele>
        <time>2010-11-21T08:25:44Z</time>
      </trkpt>
      <trkpt lat="47.35445" lon="-0.01037">
        <ele>100.6</ele>
        <time>2010-11-21T08:25:45Z</time>
      </trkpt>
      <trkpt lat="47.35462" lon="-0.01029">
        <ele>100.6</ele>
        <time>2010-11-21T08:25:50Z</time>
      </trkpt>
      <trkpt lat="47.35473" lon="-0.01024">
        <ele>100.11</ele>
        <time>2010-11-21T08:25:54Z</time>
      </trkpt>
      <trkpt lat="47.35484" lon="-0.01014">
        <ele>100.11</ele>
        <time>2010-11-21T08:26:00Z</time>
      </trkpt>
      <trkpt lat="47.35486" lon="-0.01014">
        <ele>99.63</ele>
        <time>2010-11-21T08:26:01Z</time>
      </trkpt>
      <trkpt lat="47.3551" lon="-0.00999">
        <ele>98.67</ele>
        <time>2010-11-21T08:26:07Z</time>
      </trkpt>
      <trkpt lat="47.35523" lon="-0.00979">
        <ele>95.31</ele>
        <time>2010-11-21T08:26:12Z</time>
      </trkpt>
      <trkpt lat="47.35527" lon="-0.00976">
        <ele>95.31</ele>
        <time>2010-11-21T08:26:13Z</time>
      </trkpt>
      <trkpt lat="47.35536" lon="-0.0097">
        <ele>92.9</ele>
        <time>2010-11-21T08:26:15Z</time>
      </trkpt>
      <trkpt lat="47.35559" lon="-0.00937">
        <ele>90.5</ele>
        <time>2010-11-21T08:26:21Z</time>
      </trkpt>
      <trkpt lat="47.35559" lon="-0.00928">
        <ele>90.5</ele>
        <time>2010-11-21T08:26:22Z</time>
      </trkpt>
      <trkpt lat="47.35559" lon="-0.0092">
        <ele>89.54</ele>
        <time>2010-11-21T08:26:23Z</time>
      </trkpt>
      <trkpt lat="47.35558" lon="-0.00911">
        <ele>87.62</ele>
        <time>2010-11-21T08:26:24Z</time>
      </trkpt>
      <trkpt lat="47.35557" lon="-0.00901">
        <ele>87.14</ele>
        <time>2010-11-21T08:26:25Z</time>
      </trkpt>
      <trkpt lat="47.35557" lon="-0.0089">
        <ele>86.66</ele>
        <time>2010-11-21T08:26:26Z</time>
      </trkpt>
      <trkpt lat="47.35556" lon="-0.00879">
        <ele>85.21</ele>
        <time>2010-11-21T08:26:27Z</time>
      </trkpt>
      <trkpt lat="47.35553" lon="-0.00867">
        <ele>84.73</ele>
        <time>2010-11-21T08:26:28Z</time>
      </trkpt>
      <trkpt lat="47.3555" lon="-0.00858">
        <ele>83.29</ele>
        <time>2010-11-21T08:26:29Z</time>
      </trkpt>
      <trkpt lat="47.35545" lon="-0.0085">
        <ele>82.33</ele>
        <time>2010-11-21T08:26:30Z</time>
      </trkpt>
      <trkpt lat="47.35541" lon="-0.00842">
        <ele>82.33</ele>
        <time>2010-11-21T08:26:31Z</time>
      </trkpt>
      <trkpt lat="47.35536" lon="-0.00835">
        <ele>82.33</ele>
        <time>2010-11-21T08:26:32Z</time>
      </trkpt>
      <trkpt lat="47.35532" lon="-0.00828">
        <ele>81.37</ele>
        <time>2010-11-21T08:26:33Z</time>
      </trkpt>
      <trkpt lat="47.3553" lon="-0.00819">
        <ele>80.89</ele>
        <time>2010-11-21T08:26:34Z</time>
      </trkpt>
      <trkpt lat="47.35528" lon="-0.00809">
        <ele>79.45</ele>
        <time>2010-11-21T08:26:35Z</time>
      </trkpt>
      <trkpt lat="47.35528" lon="-0.00797">
        <ele>78.48</ele>
        <time>2010-11-21T08:26:36Z</time>
      </trkpt>
      <trkpt lat="47.35526" lon="-0.00786">
        <ele>77.04</ele>
        <time>2010-11-21T08:26:37Z</time>
      </trkpt>
      <trkpt lat="47.35523" lon="-0.00775">
        <ele>77.04</ele>
        <time>2010-11-21T08:26:38Z</time>
      </trkpt>
      <trkpt lat="47.3552" lon="-0.00766">
        <ele>77.04</ele>
        <time>2010-11-21T08:26:39Z</time>
      </trkpt>
      <trkpt lat="47.35516" lon="-0.0076">
        <ele>76.08</ele>
        <time>2010-11-21T08:26:40Z</time>
      </trkpt>
      <trkpt lat="47.35511" lon="-0.00753">
        <ele>76.08</ele>
        <time>2010-11-21T08:26:41Z</time>
      </trkpt>
      <trkpt lat="47.35507" lon="-0.00748">
        <ele>75.6</ele>
        <time>2010-11-21T08:26:42Z</time>
      </trkpt>
      <trkpt lat="47.35501" lon="-0.00736">
        <ele>75.12</ele>
        <time>2010-11-21T08:26:44Z</time>
      </trkpt>
      <trkpt lat="47.35498" lon="-0.0073">
        <ele>74.64</ele>
        <time>2010-11-21T08:26:45Z</time>
      </trkpt>
      <trkpt lat="47.35497" lon="-0.00725">
        <ele>74.64</ele>
        <time>2010-11-21T08:26:46Z</time>
      </trkpt>
      <trkpt lat="47.35485" lon="-0.00695">
        <ele>74.16</ele>
        <time>2010-11-21T08:26:53Z</time>
      </trkpt>
      <trkpt lat="47.35478" lon="-0.00683">
        <ele>73.2</ele>
        <time>2010-11-21T08:26:56Z</time>
      </trkpt>
      <trkpt lat="47.35475" lon="-0.00679">
        <ele>72.72</ele>
        <time>2010-11-21T08:26:57Z</time>
      </trkpt>
      <trkpt lat="47.35471" lon="-0.00675">
        <ele>72.72</ele>
        <time>2010-11-21T08:26:58Z</time>
      </trkpt>
      <trkpt lat="47.35468" lon="-0.00672">
        <ele>72.24</ele>
        <time>2010-11-21T08:26:59Z</time>
      </trkpt>
      <trkpt lat="47.35464" lon="-0.00667">
        <ele>72.72</ele>
        <time>2010-11-21T08:27:00Z</time>
      </trkpt>
      <trkpt lat="47.3546" lon="-0.00662">
        <ele>72.24</ele>
        <time>2010-11-21T08:27:01Z</time>
      </trkpt>
      <trkpt lat="47.35442" lon="-0.00635">
        <ele>71.76</ele>
        <time>2010-11-21T08:27:06Z</time>
      </trkpt>
      <trkpt lat="47.35438" lon="-0.00629">
        <ele>70.79</ele>
        <time>2010-11-21T08:27:07Z</time>
      </trkpt>
      <trkpt lat="47.35435" lon="-0.00624">
        <ele>71.27</ele>
        <time>2010-11-21T08:27:08Z</time>
      </trkpt>
      <trkpt lat="47.35432" lon="-0.00618">
        <ele>70.79</ele>
        <time>2010-11-21T08:27:09Z</time>
      </trkpt>
      <trkpt lat="47.35428" lon="-0.00612">
        <ele>70.31</ele>
        <time>2010-11-21T08:27:10Z</time>
      </trkpt>
      <trkpt lat="47.35424" lon="-0.00608">
        <ele>70.31</ele>
        <time>2010-11-21T08:27:11Z</time>
      </trkpt>
      <trkpt lat="47.35419" lon="-0.00603">
        <ele>70.31</ele>
        <time>2010-11-21T08:27:12Z</time>
      </trkpt>
      <trkpt lat="47.35415" lon="-0.00599">
        <ele>69.83</ele>
        <time>2010-11-21T08:27:13Z</time>
      </trkpt>
      <trkpt lat="47.35409" lon="-0.00596">
        <ele>70.31</ele>
        <time>2010-11-21T08:27:14Z</time>
      </trkpt>
      <trkpt lat="47.35405" lon="-0.0059">
        <ele>70.31</ele>
        <time>2010-11-21T08:27:15Z</time>
      </trkpt>
      <trkpt lat="47.35401" lon="-0.00585">
        <ele>69.35</ele>
        <time>2010-11-21T08:27:16Z</time>
      </trkpt>
      <trkpt lat="47.35397" lon="-0.0058">
        <ele>68.87</ele>
        <time>2010-11-21T08:27:17Z</time>
      </trkpt>
      <trkpt lat="47.35392" lon="-0.00576">
        <ele>69.35</ele>
        <time>2010-11-21T08:27:18Z</time>
      </trkpt>
      <trkpt lat="47.35388" lon="-0.0057">
        <ele>68.87</ele>
        <time>2010-11-21T08:27:19Z</time>
      </trkpt>
      <trkpt lat="47.35383" lon="-0.00566">
        <ele>68.87</ele>
        <time>2010-11-21T08:27:20Z</time>
      </trkpt>
      <trkpt lat="47.35378" lon="-0.00562">
        <ele>68.87</ele>
        <time>2010-11-21T08:27:21Z</time>
      </trkpt>
      <trkpt lat="47.35354" lon="-0.00548">
        <ele>68.39</ele>
        <time>2010-11-21T08:27:25Z</time>
      </trkpt>
      <trkpt lat="47.35341" lon="-0.0054">
        <ele>67.91</ele>
        <time>2010-11-21T08:27:27Z</time>
      </trkpt>
      <trkpt lat="47.3533" lon="-0.00531">
        <ele>67.91</ele>
        <time>2010-11-21T08:27:29Z</time>
      </trkpt>
      <trkpt lat="47.35319" lon="-0.00522">
        <ele>66.95</ele>
        <time>2010-11-21T08:27:31Z</time>
      </trkpt>
      <trkpt lat="47.35307" lon="-0.00517">
        <ele>67.43</ele>
        <time>2010-11-21T08:27:33Z</time>
      </trkpt>
      <trkpt lat="47.35301" lon="-0.00515">
        <ele>66.95</ele>
        <time>2010-11-21T08:27:34Z</time>
      </trkpt>
      <trkpt lat="47.35276" lon="-0.00494">
        <ele>65.99</ele>
        <time>2010-11-21T08:27:39Z</time>
      </trkpt>
      <trkpt lat="47.35273" lon="-0.00489">
        <ele>65.99</ele>
        <time>2010-11-21T08:27:40Z</time>
      </trkpt>
      <trkpt lat="47.35269" lon="-0.00485">
        <ele>65.03</ele>
        <time>2010-11-21T08:27:41Z</time>
      </trkpt>
      <trkpt lat="47.35264" lon="-0.00481">
        <ele>65.51</ele>
        <time>2010-11-21T08:27:42Z</time>
      </trkpt>
      <trkpt lat="47.35259" lon="-0.00478">
        <ele>65.03</ele>
        <time>2010-11-21T08:27:43Z</time>
      </trkpt>
      <trkpt lat="47.35244" lon="-0.00468">
        <ele>65.03</ele>
        <time>2010-11-21T08:27:46Z</time>
      </trkpt>
      <trkpt lat="47.35239" lon="-0.00464">
        <ele>65.51</ele>
        <time>2010-11-21T08:27:47Z</time>
      </trkpt>
      <trkpt lat="47.35221" lon="-0.0045">
        <ele>64.55</ele>
        <time>2010-11-21T08:27:51Z</time>
      </trkpt>
      <trkpt lat="47.35217" lon="-0.00446">
        <ele>64.55</ele>
        <time>2010-11-21T08:27:52Z</time>
      </trkpt>
      <trkpt lat="47.35208" lon="-0.00437">
        <ele>63.58</ele>
        <time>2010-11-21T08:27:54Z</time>
      </trkpt>
      <trkpt lat="47.35204" lon="-0.00433">
        <ele>64.55</ele>
        <time>2010-11-21T08:27:55Z</time>
      </trkpt>
      <trkpt lat="47.35185" lon="-0.00417">
        <ele>63.1</ele>
        <time>2010-11-21T08:27:59Z</time>
      </trkpt>
      <trkpt lat="47.35181" lon="-0.00415">
        <ele>63.58</ele>
        <time>2010-11-21T08:28:00Z</time>
      </trkpt>
      <trkpt lat="47.35179" lon="-0.00413">
        <ele>62.62</ele>
        <time>2010-11-21T08:28:01Z</time>
      </trkpt>
      <trkpt lat="47.35175" lon="-0.00409">
        <ele>63.1</ele>
        <time>2010-11-21T08:28:06Z</time>
      </trkpt>
      <trkpt lat="47.35176" lon="-0.00406">
        <ele>63.58</ele>
        <time>2010-11-21T08:28:14Z</time>
      </trkpt>
      <trkpt lat="47.35181" lon="-0.00401">
        <ele>63.58</ele>
        <time>2010-11-21T08:29:25Z</time>
      </trkpt>
      <trkpt lat="47.35187" lon="-0.00395">
        <ele>64.55</ele>
        <time>2010-11-21T08:29:31Z</time>
      </trkpt>
      <trkpt lat="47.3519" lon="-0.00394">
        <ele>64.55</ele>
        <time>2010-11-21T08:29:33Z</time>
      </trkpt>
      <trkpt lat="47.35192" lon="-0.00393">
        <ele>64.07</ele>
        <time>2010-11-21T08:29:34Z</time>
      </trkpt>
      <trkpt lat="47.35195" lon="-0.00393">
        <ele>64.07</ele>
        <time>2010-11-21T08:29:35Z</time>
      </trkpt>
      <trkpt lat="47.35197" lon="-0.00392">
        <ele>65.03</ele>
        <time>2010-11-21T08:29:36Z</time>
      </trkpt>
      <trkpt lat="47.352" lon="-0.00391">
        <ele>64.55</ele>
        <time>2010-11-21T08:29:37Z</time>
      </trkpt>
      <trkpt lat="47.35203" lon="-0.00389">
        <ele>64.07</ele>
        <time>2010-11-21T08:29:38Z</time>
      </trkpt>
      <trkpt lat="47.35205" lon="-0.00388">
        <ele>65.03</ele>
        <time>2010-11-21T08:29:39Z</time>
      </trkpt>
      <trkpt lat="47.35208" lon="-0.00387">
        <ele>65.51</ele>
        <time>2010-11-21T08:29:40Z</time>
      </trkpt>
      <trkpt lat="47.35211" lon="-0.00386">
        <ele>65.51</ele>
        <time>2010-11-21T08:29:41Z</time>
      </trkpt>
      <trkpt lat="47.35213" lon="-0.00384">
        <ele>65.51</ele>
        <time>2010-11-21T08:29:42Z</time>
      </trkpt>
      <trkpt lat="47.35215" lon="-0.00382">
        <ele>65.99</ele>
        <time>2010-11-21T08:29:43Z</time>
      </trkpt>
      <trkpt lat="47.35219" lon="-0.00379">
        <ele>65.99</ele>
        <time>2010-11-21T08:29:45Z</time>
      </trkpt>
      <trkpt lat="47.35222" lon="-0.00377">
        <ele>65.51</ele>
        <time>2010-11-21T08:29:46Z</time>
      </trkpt>
      <trkpt lat="47.35223" lon="-0.00376">
        <ele>65.99</ele>
        <time>2010-11-21T08:29:47Z</time>
      </trkpt>
      <trkpt lat="47.35226" lon="-0.00373">
        <ele>66.47</ele>
        <time>2010-11-21T08:29:48Z</time>
      </trkpt>
      <trkpt lat="47.35228" lon="-0.0037">
        <ele>66.95</ele>
        <time>2010-11-21T08:29:49Z</time>
      </trkpt>
      <trkpt lat="47.35232" lon="-0.00366">
        <ele>66.47</ele>
        <time>2010-11-21T08:29:50Z</time>
      </trkpt>
      <trkpt lat="47.35245" lon="-0.00356">
        <ele>67.43</ele>
        <time>2010-11-21T08:29:56Z</time>
      </trkpt>
      <trkpt lat="47.35254" lon="-0.00342">
        <ele>68.39</ele>
        <time>2010-11-21T08:30:01Z</time>
      </trkpt>
      <trkpt lat="47.35263" lon="-0.0033">
        <ele>70.31</ele>
        <time>2010-11-21T08:30:09Z</time>
      </trkpt>
      <trkpt lat="47.35267" lon="-0.00321">
        <ele>71.27</ele>
        <time>2010-11-21T08:30:15Z</time>
      </trkpt>
      <trkpt lat="47.35276" lon="-0.00311">
        <ele>72.24</ele>
        <time>2010-11-21T08:30:21Z</time>
      </trkpt>
      <trkpt lat="47.35277" lon="-0.00309">
        <ele>72.72</ele>
        <time>2010-11-21T08:30:22Z</time>
      </trkpt>
      <trkpt lat="47.3528" lon="-0.00304">
        <ele>72.72</ele>
        <time>2010-11-21T08:30:24Z</time>
      </trkpt>
      <trkpt lat="47.35285" lon="-0.00297">
        <ele>73.2</ele>
        <time>2010-11-21T08:30:28Z</time>
      </trkpt>
      <trkpt lat="47.35288" lon="-0.00295">
        <ele>74.16</ele>
        <time>2010-11-21T08:30:29Z</time>
      </trkpt>
      <trkpt lat="47.35302" lon="-0.00281">
        <ele>74.16</ele>
        <time>2010-11-21T08:30:33Z</time>
      </trkpt>
      <trkpt lat="47.35306" lon="-0.00276">
        <ele>74.64</ele>
        <time>2010-11-21T08:30:34Z</time>
      </trkpt>
      <trkpt lat="47.35332" lon="-0.00258">
        <ele>75.12</ele>
        <time>2010-11-21T08:30:37Z</time>
      </trkpt>
      <trkpt lat="47.35336" lon="-0.00254">
        <ele>74.64</ele>
        <time>2010-11-21T08:30:38Z</time>
      </trkpt>
      <trkpt lat="47.3534" lon="-0.0025">
        <ele>75.6</ele>
        <time>2010-11-21T08:30:39Z</time>
      </trkpt>
      <trkpt lat="47.35344" lon="-0.00247">
        <ele>75.12</ele>
        <time>2010-11-21T08:30:40Z</time>
      </trkpt>
      <trkpt lat="47.35346" lon="-0.00244">
        <ele>75.12</ele>
        <time>2010-11-21T08:30:41Z</time>
      </trkpt>
      <trkpt lat="47.35349" lon="-0.00242">
        <ele>75.6</ele>
        <time>2010-11-21T08:30:42Z</time>
      </trkpt>
      <trkpt lat="47.35351" lon="-0.0024">
        <ele>76.08</ele>
        <time>2010-11-21T08:30:43Z</time>
      </trkpt>
      <trkpt lat="47.35353" lon="-0.00236">
        <ele>75.6</ele>
        <time>2010-11-21T08:30:44Z</time>
      </trkpt>
      <trkpt lat="47.35354" lon="-0.00232">
        <ele>76.08</ele>
        <time>2010-11-21T08:30:45Z</time>
      </trkpt>
      <trkpt lat="47.35356" lon="-0.00228">
        <ele>75.6</ele>
        <time>2010-11-21T08:30:46Z</time>
      </trkpt>
      <trkpt lat="47.35357" lon="-0.00225">
        <ele>75.6</ele>
        <time>2010-11-21T08:30:47Z</time>
      </trkpt>
      <trkpt lat="47.35358" lon="-0.00221">
        <ele>76.08</ele>
        <time>2010-11-21T08:30:48Z</time>
      </trkpt>
      <trkpt lat="47.35359" lon="-0.00216">
        <ele>76.56</ele>
        <time>2010-11-21T08:30:49Z</time>
      </trkpt>
      <trkpt lat="47.35365" lon="-0.00185">
        <ele>77.52</ele>
        <time>2010-11-21T08:30:55Z</time>
      </trkpt>
      <trkpt lat="47.3537" lon="-0.00165">
        <ele>77.04</ele>
        <time>2010-11-21T08:30:59Z</time>
      </trkpt>
      <trkpt lat="47.35371" lon="-0.0016">
        <ele>77.52</ele>
        <time>2010-11-21T08:31:00Z</time>
      </trkpt>
      <trkpt lat="47.3538" lon="-0.00131">
        <ele>77.52</ele>
        <time>2010-11-21T08:31:06Z</time>
      </trkpt>
      <trkpt lat="47.35386" lon="-0.00113">
        <ele>77.52</ele>
        <time>2010-11-21T08:31:09Z</time>
      </trkpt>
      <trkpt lat="47.35388" lon="-0.00109">
        <ele>78</ele>
        <time>2010-11-21T08:31:10Z</time>
      </trkpt>
      <trkpt lat="47.35389" lon="-0.00104">
        <ele>77.52</ele>
        <time>2010-11-21T08:31:11Z</time>
      </trkpt>
      <trkpt lat="47.35391" lon="-0.00099">
        <ele>77.52</ele>
        <time>2010-11-21T08:31:12Z</time>
      </trkpt>
      <trkpt lat="47.35393" lon="-0.00094">
        <ele>77.52</ele>
        <time>2010-11-21T08:31:13Z</time>
      </trkpt>
      <trkpt lat="47.35396" lon="-0.0009">
        <ele>78.48</ele>
        <time>2010-11-21T08:31:14Z</time>
      </trkpt>
      <trkpt lat="47.35397" lon="-0.00086">
        <ele>78</ele>
        <time>2010-11-21T08:31:15Z</time>
      </trkpt>
      <trkpt lat="47.35399" lon="-0.00081">
        <ele>78</ele>
        <time>2010-11-21T08:31:16Z</time>
      </trkpt>
      <trkpt lat="47.354" lon="-0.00077">
        <ele>78</ele>
        <time>2010-11-21T08:31:17Z</time>
      </trkpt>
      <trkpt lat="47.35402" lon="-0.00073">
        <ele>78.48</ele>
        <time>2010-11-21T08:31:18Z</time>
      </trkpt>
      <trkpt lat="47.35404" lon="-0.00068">
        <ele>78.48</ele>
        <time>2010-11-21T08:31:19Z</time>
      </trkpt>
      <trkpt lat="47.35406" lon="-0.00063">
        <ele>78</ele>
        <time>2010-11-21T08:31:20Z</time>
      </trkpt>
      <trkpt lat="47.35408" lon="-0.00058">
        <ele>78</ele>
        <time>2010-11-21T08:31:21Z</time>
      </trkpt>
      <trkpt lat="47.35411" lon="-0.00054">
        <ele>78.48</ele>
        <time>2010-11-21T08:31:22Z</time>
      </trkpt>
      <trkpt lat="47.35413" lon="-0.00051">
        <ele>78.97</ele>
        <time>2010-11-21T08:31:23Z</time>
      </trkpt>
      <trkpt lat="47.35416" lon="-0.00047">
        <ele>78.97</ele>
        <time>2010-11-21T08:31:24Z</time>
      </trkpt>
      <trkpt lat="47.35418" lon="-0.00044">
        <ele>78</ele>
        <time>2010-11-21T08:31:25Z</time>
      </trkpt>
      <trkpt lat="47.3542" lon="-0.00039">
        <ele>78</ele>
        <time>2010-11-21T08:31:26Z</time>
      </trkpt>
      <trkpt lat="47.35423" lon="-0.00035">
        <ele>78.48</ele>
        <time>2010-11-21T08:31:27Z</time>
      </trkpt>
      <trkpt lat="47.35425" lon="-0.0003">
        <ele>78.48</ele>
        <time>2010-11-21T08:31:28Z</time>
      </trkpt>
      <trkpt lat="47.35428" lon="-0.00025">
        <ele>78.48</ele>
        <time>2010-11-21T08:31:29Z</time>
      </trkpt>
      <trkpt lat="47.35431" lon="-0.00021">
        <ele>78</ele>
        <time>2010-11-21T08:31:30Z</time>
      </trkpt>
      <trkpt lat="47.35436" lon="-0.00014">
        <ele>78</ele>
        <time>2010-11-21T08:31:32Z</time>
      </trkpt>
      <trkpt lat="47.35438" lon="-0.0001">
        <ele>78.48</ele>
        <time>2010-11-21T08:31:33Z</time>
      </trkpt>
      <trkpt lat="47.3544" lon="-7.0E-5">
        <ele>78</ele>
        <time>2010-11-21T08:31:34Z</time>
      </trkpt>
      <trkpt lat="47.35441" lon="-3.0E-5">
        <ele>78.48</ele>
        <time>2010-11-21T08:31:35Z</time>
      </trkpt>
      <trkpt lat="47.35451" lon="0.00011">
        <ele>78</ele>
        <time>2010-11-21T08:31:38Z</time>
      </trkpt>
      <trkpt lat="47.35463" lon="0.00031">
        <ele>78.48</ele>
        <time>2010-11-21T08:31:43Z</time>
      </trkpt>
      <trkpt lat="47.35475" lon="0.0005">
        <ele>78.48</ele>
        <time>2010-11-21T08:31:47Z</time>
      </trkpt>
      <trkpt lat="47.35497" lon="0.00076">
        <ele>78.48</ele>
        <time>2010-11-21T08:31:53Z</time>
      </trkpt>
      <trkpt lat="47.35533" lon="0.00105">
        <ele>78.48</ele>
        <time>2010-11-21T08:32:00Z</time>
      </trkpt>
      <trkpt lat="47.35569" lon="0.00131">
        <ele>78.48</ele>
        <time>2010-11-21T08:32:07Z</time>
      </trkpt>
      <trkpt lat="47.35591" lon="0.00157">
        <ele>78</ele>
        <time>2010-11-21T08:32:14Z</time>
      </trkpt>
      <trkpt lat="47.35611" lon="0.00178">
        <ele>78</ele>
        <time>2010-11-21T08:32:20Z</time>
      </trkpt>
      <trkpt lat="47.3562" lon="0.00189">
        <ele>78</ele>
        <time>2010-11-21T08:32:23Z</time>
      </trkpt>
      <trkpt lat="47.35625" lon="0.00194">
        <ele>77.52</ele>
        <time>2010-11-21T08:32:24Z</time>
      </trkpt>
      <trkpt lat="47.35644" lon="0.00221">
        <ele>78</ele>
        <time>2010-11-21T08:32:30Z</time>
      </trkpt>
      <trkpt lat="47.35655" lon="0.00239">
        <ele>78</ele>
        <time>2010-11-21T08:32:34Z</time>
      </trkpt>
      <trkpt lat="47.3567" lon="0.00267">
        <ele>78.97</ele>
        <time>2010-11-21T08:32:40Z</time>
      </trkpt>
      <trkpt lat="47.35673" lon="0.00272">
        <ele>78.97</ele>
        <time>2010-11-21T08:32:41Z</time>
      </trkpt>
      <trkpt lat="47.35676" lon="0.00277">
        <ele>78.97</ele>
        <time>2010-11-21T08:32:42Z</time>
      </trkpt>
      <trkpt lat="47.35678" lon="0.00282">
        <ele>79.45</ele>
        <time>2010-11-21T08:32:43Z</time>
      </trkpt>
      <trkpt lat="47.3568" lon="0.00287">
        <ele>78.97</ele>
        <time>2010-11-21T08:32:44Z</time>
      </trkpt>
      <trkpt lat="47.35682" lon="0.00291">
        <ele>79.45</ele>
        <time>2010-11-21T08:32:45Z</time>
      </trkpt>
      <trkpt lat="47.35684" lon="0.00297">
        <ele>79.93</ele>
        <time>2010-11-21T08:32:46Z</time>
      </trkpt>
      <trkpt lat="47.35695" lon="0.00319">
        <ele>80.41</ele>
        <time>2010-11-21T08:32:51Z</time>
      </trkpt>
      <trkpt lat="47.35704" lon="0.0034">
        <ele>80.41</ele>
        <time>2010-11-21T08:32:56Z</time>
      </trkpt>
      <trkpt lat="47.35706" lon="0.00344">
        <ele>80.89</ele>
        <time>2010-11-21T08:32:57Z</time>
      </trkpt>
      <trkpt lat="47.35707" lon="0.00348">
        <ele>80.89</ele>
        <time>2010-11-21T08:32:58Z</time>
      </trkpt>
      <trkpt lat="47.35709" lon="0.00351">
        <ele>81.37</ele>
        <time>2010-11-21T08:32:59Z</time>
      </trkpt>
      <trkpt lat="47.35711" lon="0.00354">
        <ele>81.85</ele>
        <time>2010-11-21T08:33:00Z</time>
      </trkpt>
      <trkpt lat="47.35713" lon="0.00358">
        <ele>82.81</ele>
        <time>2010-11-21T08:33:01Z</time>
      </trkpt>
      <trkpt lat="47.35715" lon="0.00362">
        <ele>82.33</ele>
        <time>2010-11-21T08:33:02Z</time>
      </trkpt>
      <trkpt lat="47.35717" lon="0.00366">
        <ele>82.33</ele>
        <time>2010-11-21T08:33:03Z</time>
      </trkpt>
      <trkpt lat="47.35718" lon="0.0037">
        <ele>82.81</ele>
        <time>2010-11-21T08:33:04Z</time>
      </trkpt>
      <trkpt lat="47.3572" lon="0.00374">
        <ele>83.29</ele>
        <time>2010-11-21T08:33:05Z</time>
      </trkpt>
      <trkpt lat="47.35721" lon="0.00377">
        <ele>83.29</ele>
        <time>2010-11-21T08:33:06Z</time>
      </trkpt>
      <trkpt lat="47.35723" lon="0.0038">
        <ele>83.29</ele>
        <time>2010-11-21T08:33:07Z</time>
      </trkpt>
      <trkpt lat="47.35725" lon="0.00383">
        <ele>82.81</ele>
        <time>2010-11-21T08:33:08Z</time>
      </trkpt>
      <trkpt lat="47.35727" lon="0.00387">
        <ele>84.25</ele>
        <time>2010-11-21T08:33:09Z</time>
      </trkpt>
      <trkpt lat="47.35729" lon="0.00391">
        <ele>84.25</ele>
        <time>2010-11-21T08:33:10Z</time>
      </trkpt>
      <trkpt lat="47.3573" lon="0.00396">
        <ele>84.25</ele>
        <time>2010-11-21T08:33:11Z</time>
      </trkpt>
      <trkpt lat="47.35735" lon="0.0041">
        <ele>84.25</ele>
        <time>2010-11-21T08:33:16Z</time>
      </trkpt>
      <trkpt lat="47.35744" lon="0.00423">
        <ele>85.21</ele>
        <time>2010-11-21T08:33:21Z</time>
      </trkpt>
      <trkpt lat="47.35749" lon="0.00429">
        <ele>84.73</ele>
        <time>2010-11-21T08:33:24Z</time>
      </trkpt>
      <trkpt lat="47.35764" lon="0.00436">
        <ele>85.69</ele>
        <time>2010-11-21T08:33:31Z</time>
      </trkpt>
      <trkpt lat="47.35781" lon="0.00447">
        <ele>87.62</ele>
        <time>2010-11-21T08:33:37Z</time>
      </trkpt>
      <trkpt lat="47.35811" lon="0.00457">
        <ele>88.1</ele>
        <time>2010-11-21T08:33:40Z</time>
      </trkpt>
      <trkpt lat="47.35817" lon="0.00457">
        <ele>88.58</ele>
        <time>2010-11-21T08:33:41Z</time>
      </trkpt>
      <trkpt lat="47.35824" lon="0.00458">
        <ele>88.1</ele>
        <time>2010-11-21T08:33:43Z</time>
      </trkpt>
      <trkpt lat="47.35828" lon="0.0046">
        <ele>89.06</ele>
        <time>2010-11-21T08:33:44Z</time>
      </trkpt>
      <trkpt lat="47.35831" lon="0.00461">
        <ele>89.06</ele>
        <time>2010-11-21T08:33:45Z</time>
      </trkpt>
      <trkpt lat="47.35834" lon="0.0046">
        <ele>89.06</ele>
        <time>2010-11-21T08:33:46Z</time>
      </trkpt>
      <trkpt lat="47.35836" lon="0.0046">
        <ele>89.06</ele>
        <time>2010-11-21T08:33:47Z</time>
      </trkpt>
      <trkpt lat="47.35839" lon="0.0046">
        <ele>89.54</ele>
        <time>2010-11-21T08:33:48Z</time>
      </trkpt>
      <trkpt lat="47.35854" lon="0.00464">
        <ele>89.06</ele>
        <time>2010-11-21T08:33:53Z</time>
      </trkpt>
      <trkpt lat="47.3587" lon="0.00479">
        <ele>87.14</ele>
        <time>2010-11-21T08:33:59Z</time>
      </trkpt>
      <trkpt lat="47.35872" lon="0.00486">
        <ele>87.14</ele>
        <time>2010-11-21T08:34:00Z</time>
      </trkpt>
      <trkpt lat="47.35876" lon="0.00499">
        <ele>86.18</ele>
        <time>2010-11-21T08:34:02Z</time>
      </trkpt>
      <trkpt lat="47.35878" lon="0.00513">
        <ele>85.69</ele>
        <time>2010-11-21T08:34:04Z</time>
      </trkpt>
      <trkpt lat="47.35876" lon="0.00545">
        <ele>84.73</ele>
        <time>2010-11-21T08:34:08Z</time>
      </trkpt>
      <trkpt lat="47.35877" lon="0.00552">
        <ele>83.29</ele>
        <time>2010-11-21T08:34:09Z</time>
      </trkpt>
      <trkpt lat="47.35877" lon="0.00559">
        <ele>83.29</ele>
        <time>2010-11-21T08:34:10Z</time>
      </trkpt>
      <trkpt lat="47.35879" lon="0.00566">
        <ele>83.29</ele>
        <time>2010-11-21T08:34:11Z</time>
      </trkpt>
      <trkpt lat="47.35881" lon="0.00572">
        <ele>82.81</ele>
        <time>2010-11-21T08:34:12Z</time>
      </trkpt>
      <trkpt lat="47.35883" lon="0.00578">
        <ele>83.29</ele>
        <time>2010-11-21T08:34:13Z</time>
      </trkpt>
      <trkpt lat="47.35886" lon="0.00584">
        <ele>83.29</ele>
        <time>2010-11-21T08:34:14Z</time>
      </trkpt>
      <trkpt lat="47.35889" lon="0.00589">
        <ele>83.29</ele>
        <time>2010-11-21T08:34:15Z</time>
      </trkpt>
      <trkpt lat="47.35891" lon="0.00594">
        <ele>82.81</ele>
        <time>2010-11-21T08:34:16Z</time>
      </trkpt>
      <trkpt lat="47.35893" lon="0.00601">
        <ele>83.29</ele>
        <time>2010-11-21T08:34:17Z</time>
      </trkpt>
      <trkpt lat="47.359" lon="0.0062">
        <ele>83.29</ele>
        <time>2010-11-21T08:34:20Z</time>
      </trkpt>
      <trkpt lat="47.35903" lon="0.00634">
        <ele>83.29</ele>
        <time>2010-11-21T08:34:22Z</time>
      </trkpt>
      <trkpt lat="47.35904" lon="0.0064">
        <ele>83.29</ele>
        <time>2010-11-21T08:34:23Z</time>
      </trkpt>
      <trkpt lat="47.35906" lon="0.00647">
        <ele>82.81</ele>
        <time>2010-11-21T08:34:24Z</time>
      </trkpt>
      <trkpt lat="47.35907" lon="0.00653">
        <ele>83.77</ele>
        <time>2010-11-21T08:34:25Z</time>
      </trkpt>
      <trkpt lat="47.35907" lon="0.00659">
        <ele>84.73</ele>
        <time>2010-11-21T08:34:26Z</time>
      </trkpt>
      <trkpt lat="47.35908" lon="0.00667">
        <ele>84.25</ele>
        <time>2010-11-21T08:34:27Z</time>
      </trkpt>
      <trkpt lat="47.35908" lon="0.00708">
        <ele>84.73</ele>
        <time>2010-11-21T08:34:33Z</time>
      </trkpt>
      <trkpt lat="47.35906" lon="0.00727">
        <ele>84.25</ele>
        <time>2010-11-21T08:34:36Z</time>
      </trkpt>
      <trkpt lat="47.35904" lon="0.00734">
        <ele>84.73</ele>
        <time>2010-11-21T08:34:37Z</time>
      </trkpt>
      <trkpt lat="47.35902" lon="0.00741">
        <ele>84.25</ele>
        <time>2010-11-21T08:34:38Z</time>
      </trkpt>
      <trkpt lat="47.359" lon="0.00747">
        <ele>84.73</ele>
        <time>2010-11-21T08:34:39Z</time>
      </trkpt>
      <trkpt lat="47.35898" lon="0.00754">
        <ele>84.25</ele>
        <time>2010-11-21T08:34:40Z</time>
      </trkpt>
      <trkpt lat="47.35896" lon="0.0076">
        <ele>84.73</ele>
        <time>2010-11-21T08:34:41Z</time>
      </trkpt>
      <trkpt lat="47.35892" lon="0.00773">
        <ele>84.73</ele>
        <time>2010-11-21T08:34:43Z</time>
      </trkpt>
      <trkpt lat="47.35889" lon="0.00786">
        <ele>83.77</ele>
        <time>2010-11-21T08:34:45Z</time>
      </trkpt>
      <trkpt lat="47.35886" lon="0.00791">
        <ele>84.25</ele>
        <time>2010-11-21T08:34:46Z</time>
      </trkpt>
      <trkpt lat="47.35884" lon="0.00797">
        <ele>83.29</ele>
        <time>2010-11-21T08:34:47Z</time>
      </trkpt>
      <trkpt lat="47.35882" lon="0.00803">
        <ele>83.77</ele>
        <time>2010-11-21T08:34:48Z</time>
      </trkpt>
      <trkpt lat="47.35879" lon="0.00808">
        <ele>83.77</ele>
        <time>2010-11-21T08:34:49Z</time>
      </trkpt>
      <trkpt lat="47.35877" lon="0.00814">
        <ele>84.25</ele>
        <time>2010-11-21T08:34:50Z</time>
      </trkpt>
      <trkpt lat="47.3587" lon="0.0083">
        <ele>83.77</ele>
        <time>2010-11-21T08:34:53Z</time>
      </trkpt>
      <trkpt lat="47.35865" lon="0.00841">
        <ele>84.25</ele>
        <time>2010-11-21T08:34:55Z</time>
      </trkpt>
      <trkpt lat="47.35856" lon="0.00864">
        <ele>84.25</ele>
        <time>2010-11-21T08:34:59Z</time>
      </trkpt>
      <trkpt lat="47.35843" lon="0.00892">
        <ele>83.29</ele>
        <time>2010-11-21T08:35:04Z</time>
      </trkpt>
      <trkpt lat="47.35838" lon="0.00905">
        <ele>83.77</ele>
        <time>2010-11-21T08:35:09Z</time>
      </trkpt>
      <trkpt lat="47.35834" lon="0.00924">
        <ele>84.25</ele>
        <time>2010-11-21T08:35:14Z</time>
      </trkpt>
      <trkpt lat="47.35823" lon="0.00942">
        <ele>84.73</ele>
        <time>2010-11-21T08:35:19Z</time>
      </trkpt>
      <trkpt lat="47.35814" lon="0.00953">
        <ele>83.29</ele>
        <time>2010-11-21T08:35:22Z</time>
      </trkpt>
      <trkpt lat="47.3581" lon="0.00956">
        <ele>84.25</ele>
        <time>2010-11-21T08:35:23Z</time>
      </trkpt>
      <trkpt lat="47.35805" lon="0.0096">
        <ele>83.77</ele>
        <time>2010-11-21T08:35:24Z</time>
      </trkpt>
      <trkpt lat="47.35801" lon="0.00965">
        <ele>83.77</ele>
        <time>2010-11-21T08:35:25Z</time>
      </trkpt>
      <trkpt lat="47.35798" lon="0.00971">
        <ele>83.77</ele>
        <time>2010-11-21T08:35:26Z</time>
      </trkpt>
      <trkpt lat="47.35795" lon="0.00976">
        <ele>83.29</ele>
        <time>2010-11-21T08:35:27Z</time>
      </trkpt>
      <trkpt lat="47.35793" lon="0.00982">
        <ele>82.81</ele>
        <time>2010-11-21T08:35:28Z</time>
      </trkpt>
      <trkpt lat="47.35791" lon="0.00987">
        <ele>83.77</ele>
        <time>2010-11-21T08:35:29Z</time>
      </trkpt>
      <trkpt lat="47.35789" lon="0.00992">
        <ele>83.29</ele>
        <time>2010-11-21T08:35:30Z</time>
      </trkpt>
      <trkpt lat="47.35786" lon="0.00998">
        <ele>82.81</ele>
        <time>2010-11-21T08:35:31Z</time>
      </trkpt>
      <trkpt lat="47.35781" lon="0.01009">
        <ele>82.81</ele>
        <time>2010-11-21T08:35:33Z</time>
      </trkpt>
      <trkpt lat="47.35779" lon="0.01016">
        <ele>82.81</ele>
        <time>2010-11-21T08:35:34Z</time>
      </trkpt>
      <trkpt lat="47.35778" lon="0.01023">
        <ele>83.29</ele>
        <time>2010-11-21T08:35:35Z</time>
      </trkpt>
      <trkpt lat="47.35777" lon="0.01031">
        <ele>83.77</ele>
        <time>2010-11-21T08:35:36Z</time>
      </trkpt>
      <trkpt lat="47.35776" lon="0.01037">
        <ele>82.33</ele>
        <time>2010-11-21T08:35:37Z</time>
      </trkpt>
      <trkpt lat="47.35775" lon="0.01044">
        <ele>82.81</ele>
        <time>2010-11-21T08:35:38Z</time>
      </trkpt>
      <trkpt lat="47.35775" lon="0.01049">
        <ele>83.29</ele>
        <time>2010-11-21T08:35:39Z</time>
      </trkpt>
      <trkpt lat="47.35774" lon="0.01053">
        <ele>82.81</ele>
        <time>2010-11-21T08:35:40Z</time>
      </trkpt>
      <trkpt lat="47.35773" lon="0.01057">
        <ele>83.29</ele>
        <time>2010-11-21T08:35:41Z</time>
      </trkpt>
      <trkpt lat="47.35772" lon="0.01059">
        <ele>83.29</ele>
        <time>2010-11-21T08:35:42Z</time>
      </trkpt>
      <trkpt lat="47.35766" lon="0.01066">
        <ele>83.29</ele>
        <time>2010-11-21T08:35:46Z</time>
      </trkpt>
      <trkpt lat="47.35766" lon="0.01067">
        <ele>82.81</ele>
        <time>2010-11-21T08:35:47Z</time>
      </trkpt>
      <trkpt lat="47.35765" lon="0.01078">
        <ele>83.29</ele>
        <time>2010-11-21T08:35:51Z</time>
      </trkpt>
      <trkpt lat="47.35767" lon="0.01082">
        <ele>82.81</ele>
        <time>2010-11-21T08:35:53Z</time>
      </trkpt>
      <trkpt lat="47.3577" lon="0.01092">
        <ele>84.73</ele>
        <time>2010-11-21T08:35:56Z</time>
      </trkpt>
      <trkpt lat="47.3577" lon="0.01098">
        <ele>85.21</ele>
        <time>2010-11-21T08:35:57Z</time>
      </trkpt>
      <trkpt lat="47.35772" lon="0.01109">
        <ele>85.69</ele>
        <time>2010-11-21T08:36:00Z</time>
      </trkpt>
      <trkpt lat="47.35773" lon="0.01116">
        <ele>86.18</ele>
        <time>2010-11-21T08:36:03Z</time>
      </trkpt>
      <trkpt lat="47.35777" lon="0.0112">
        <ele>87.14</ele>
        <time>2010-11-21T08:36:08Z</time>
      </trkpt>
      <trkpt lat="47.3578" lon="0.01123">
        <ele>88.1</ele>
        <time>2010-11-21T08:36:13Z</time>
      </trkpt>
      <trkpt lat="47.35782" lon="0.01124">
        <ele>88.58</ele>
        <time>2010-11-21T08:36:15Z</time>
      </trkpt>
      <trkpt lat="47.35785" lon="0.01131">
        <ele>89.54</ele>
        <time>2010-11-21T08:36:20Z</time>
      </trkpt>
      <trkpt lat="47.35795" lon="0.01141">
        <ele>92.42</ele>
        <time>2010-11-21T08:36:28Z</time>
      </trkpt>
      <trkpt lat="47.358" lon="0.01145">
        <ele>93.39</ele>
        <time>2010-11-21T08:36:32Z</time>
      </trkpt>
      <trkpt lat="47.35805" lon="0.01151">
        <ele>95.31</ele>
        <time>2010-11-21T08:36:39Z</time>
      </trkpt>
      <trkpt lat="47.35813" lon="0.01159">
        <ele>96.75</ele>
        <time>2010-11-21T08:36:44Z</time>
      </trkpt>
      <trkpt lat="47.35814" lon="0.0116">
        <ele>98.19</ele>
        <time>2010-11-21T08:36:46Z</time>
      </trkpt>
      <trkpt lat="47.35819" lon="0.01168">
        <ele>98.19</ele>
        <time>2010-11-21T08:36:50Z</time>
      </trkpt>
      <trkpt lat="47.35826" lon="0.01176">
        <ele>99.15</ele>
        <time>2010-11-21T08:36:54Z</time>
      </trkpt>
      <trkpt lat="47.35831" lon="0.01188">
        <ele>98.67</ele>
        <time>2010-11-21T08:36:59Z</time>
      </trkpt>
      <trkpt lat="47.35832" lon="0.01193">
        <ele>100.11</ele>
        <time>2010-11-21T08:37:01Z</time>
      </trkpt>
      <trkpt lat="47.35837" lon="0.012">
        <ele>100.11</ele>
        <time>2010-11-21T08:37:04Z</time>
      </trkpt>
      <trkpt lat="47.35844" lon="0.01215">
        <ele>101.08</ele>
        <time>2010-11-21T08:37:10Z</time>
      </trkpt>
      <trkpt lat="47.35849" lon="0.01221">
        <ele>101.56</ele>
        <time>2010-11-21T08:37:13Z</time>
      </trkpt>
      <trkpt lat="47.35859" lon="0.01225">
        <ele>102.04</ele>
        <time>2010-11-21T08:37:19Z</time>
      </trkpt>
      <trkpt lat="47.35862" lon="0.01223">
        <ele>103</ele>
        <time>2010-11-21T08:37:21Z</time>
      </trkpt>
      <trkpt lat="47.35871" lon="0.01221">
        <ele>103</ele>
        <time>2010-11-21T08:37:25Z</time>
      </trkpt>
      <trkpt lat="47.35876" lon="0.01217">
        <ele>103.48</ele>
        <time>2010-11-21T08:37:31Z</time>
      </trkpt>
      <trkpt lat="47.35885" lon="0.01216">
        <ele>104.44</ele>
        <time>2010-11-21T08:37:36Z</time>
      </trkpt>
      <trkpt lat="47.35894" lon="0.01212">
        <ele>103.96</ele>
        <time>2010-11-21T08:37:42Z</time>
      </trkpt>
      <trkpt lat="47.35902" lon="0.01208">
        <ele>104.44</ele>
        <time>2010-11-21T08:37:46Z</time>
      </trkpt>
      <trkpt lat="47.35913" lon="0.01208">
        <ele>104.44</ele>
        <time>2010-11-21T08:37:51Z</time>
      </trkpt>
      <trkpt lat="47.35926" lon="0.01213">
        <ele>105.4</ele>
        <time>2010-11-21T08:37:59Z</time>
      </trkpt>
      <trkpt lat="47.35935" lon="0.01219">
        <ele>106.36</ele>
        <time>2010-11-21T08:38:03Z</time>
      </trkpt>
      <trkpt lat="47.35954" lon="0.01233">
        <ele>106.84</ele>
        <time>2010-11-21T08:38:12Z</time>
      </trkpt>
      <trkpt lat="47.35957" lon="0.01235">
        <ele>107.32</ele>
        <time>2010-11-21T08:38:13Z</time>
      </trkpt>
      <trkpt lat="47.35965" lon="0.01241">
        <ele>106.84</ele>
        <time>2010-11-21T08:38:18Z</time>
      </trkpt>
      <trkpt lat="47.35976" lon="0.01243">
        <ele>107.81</ele>
        <time>2010-11-21T08:38:21Z</time>
      </trkpt>
      <trkpt lat="47.35998" lon="0.01255">
        <ele>108.29</ele>
        <time>2010-11-21T08:38:26Z</time>
      </trkpt>
      <trkpt lat="47.3601" lon="0.01267">
        <ele>107.32</ele>
        <time>2010-11-21T08:38:31Z</time>
      </trkpt>
      <trkpt lat="47.36011" lon="0.01274">
        <ele>107.81</ele>
        <time>2010-11-21T08:38:33Z</time>
      </trkpt>
      <trkpt lat="47.36006" lon="0.01298">
        <ele>108.29</ele>
        <time>2010-11-21T08:38:40Z</time>
      </trkpt>
      <trkpt lat="47.35996" lon="0.01317">
        <ele>107.81</ele>
        <time>2010-11-21T08:38:45Z</time>
      </trkpt>
      <trkpt lat="47.35985" lon="0.01336">
        <ele>107.32</ele>
        <time>2010-11-21T08:38:50Z</time>
      </trkpt>
      <trkpt lat="47.3597" lon="0.01366">
        <ele>107.32</ele>
        <time>2010-11-21T08:38:57Z</time>
      </trkpt>
      <trkpt lat="47.35956" lon="0.01386">
        <ele>107.32</ele>
        <time>2010-11-21T08:39:03Z</time>
      </trkpt>
      <trkpt lat="47.35943" lon="0.01401">
        <ele>105.88</ele>
        <time>2010-11-21T08:39:08Z</time>
      </trkpt>
      <trkpt lat="47.35941" lon="0.01405">
        <ele>105.88</ele>
        <time>2010-11-21T08:39:09Z</time>
      </trkpt>
      <trkpt lat="47.35933" lon="0.01419">
        <ele>103.48</ele>
        <time>2010-11-21T08:39:14Z</time>
      </trkpt>
      <trkpt lat="47.35933" lon="0.01419">
        <ele>103</ele>
        <time>2010-11-21T08:39:50Z</time>
      </trkpt>
      <trkpt lat="47.35933" lon="0.01421">
        <ele>103</ele>
        <time>2010-11-21T08:39:51Z</time>
      </trkpt>
      <trkpt lat="47.35931" lon="0.01427">
        <ele>103</ele>
        <time>2010-11-21T08:39:54Z</time>
      </trkpt>
      <trkpt lat="47.35924" lon="0.01438">
        <ele>104.44</ele>
        <time>2010-11-21T08:40:00Z</time>
      </trkpt>
      <trkpt lat="47.35923" lon="0.0144">
        <ele>104.92</ele>
        <time>2010-11-21T08:40:01Z</time>
      </trkpt>
      <trkpt lat="47.35921" lon="0.01442">
        <ele>104.92</ele>
        <time>2010-11-21T08:40:02Z</time>
      </trkpt>
      <trkpt lat="47.35915" lon="0.0145">
        <ele>105.88</ele>
        <time>2010-11-21T08:40:07Z</time>
      </trkpt>
      <trkpt lat="47.35906" lon="0.01463">
        <ele>107.32</ele>
        <time>2010-11-21T08:40:12Z</time>
      </trkpt>
      <trkpt lat="47.35899" lon="0.01485">
        <ele>107.32</ele>
        <time>2010-11-21T08:40:18Z</time>
      </trkpt>
      <trkpt lat="47.35897" lon="0.01489">
        <ele>107.32</ele>
        <time>2010-11-21T08:40:19Z</time>
      </trkpt>
      <trkpt lat="47.35885" lon="0.01508">
        <ele>108.29</ele>
        <time>2010-11-21T08:40:25Z</time>
      </trkpt>
      <trkpt lat="47.35876" lon="0.01522">
        <ele>109.25</ele>
        <time>2010-11-21T08:40:29Z</time>
      </trkpt>
      <trkpt lat="47.35858" lon="0.01545">
        <ele>108.29</ele>
        <time>2010-11-21T08:40:35Z</time>
      </trkpt>
      <trkpt lat="47.35845" lon="0.01568">
        <ele>107.81</ele>
        <time>2010-11-21T08:40:40Z</time>
      </trkpt>
      <trkpt lat="47.35841" lon="0.01572">
        <ele>107.32</ele>
        <time>2010-11-21T08:40:42Z</time>
      </trkpt>
      <trkpt lat="47.35839" lon="0.01572">
        <ele>107.81</ele>
        <time>2010-11-21T08:40:43Z</time>
      </trkpt>
      <trkpt lat="47.35837" lon="0.0157">
        <ele>108.29</ele>
        <time>2010-11-21T08:40:45Z</time>
      </trkpt>
      <trkpt lat="47.35837" lon="0.01569">
        <ele>106.84</ele>
        <time>2010-11-21T08:40:49Z</time>
      </trkpt>
      <trkpt lat="47.35837" lon="0.01569">
        <ele>107.32</ele>
        <time>2010-11-21T08:40:52Z</time>
      </trkpt>
      <trkpt lat="47.35837" lon="0.0157">
        <ele>106.84</ele>
        <time>2010-11-21T08:40:58Z</time>
      </trkpt>
      <trkpt lat="47.35832" lon="0.0157">
        <ele>105.4</ele>
        <time>2010-11-21T08:41:03Z</time>
      </trkpt>
      <trkpt lat="47.35831" lon="0.01574">
        <ele>104.44</ele>
        <time>2010-11-21T08:41:06Z</time>
      </trkpt>
      <trkpt lat="47.35831" lon="0.01579">
        <ele>102.52</ele>
        <time>2010-11-21T08:41:09Z</time>
      </trkpt>
      <trkpt lat="47.35836" lon="0.01595">
        <ele>99.15</ele>
        <time>2010-11-21T08:41:14Z</time>
      </trkpt>
      <trkpt lat="47.35837" lon="0.01599">
        <ele>99.15</ele>
        <time>2010-11-21T08:41:15Z</time>
      </trkpt>
      <trkpt lat="47.3584" lon="0.01613">
        <ele>95.79</ele>
        <time>2010-11-21T08:41:19Z</time>
      </trkpt>
      <trkpt lat="47.35843" lon="0.01623">
        <ele>94.35</ele>
        <time>2010-11-21T08:41:22Z</time>
      </trkpt>
      <trkpt lat="47.35824" lon="0.0157">
        <ele>93.87</ele>
        <time>2010-11-21T08:41:23Z</time>
      </trkpt>
      <trkpt lat="47.35816" lon="0.01557">
        <ele>93.87</ele>
        <time>2010-11-21T08:41:25Z</time>
      </trkpt>
      <trkpt lat="47.35811" lon="0.01549">
        <ele>94.35</ele>
        <time>2010-11-21T08:41:26Z</time>
      </trkpt>
      <trkpt lat="47.35807" lon="0.0154">
        <ele>93.39</ele>
        <time>2010-11-21T08:41:27Z</time>
      </trkpt>
      <trkpt lat="47.35797" lon="0.01523">
        <ele>92.9</ele>
        <time>2010-11-21T08:41:29Z</time>
      </trkpt>
      <trkpt lat="47.35777" lon="0.01496">
        <ele>92.42</ele>
        <time>2010-11-21T08:41:33Z</time>
      </trkpt>
      <trkpt lat="47.35757" lon="0.01464">
        <ele>91.94</ele>
        <time>2010-11-21T08:41:38Z</time>
      </trkpt>
      <trkpt lat="47.35746" lon="0.01453">
        <ele>90.98</ele>
        <time>2010-11-21T08:41:41Z</time>
      </trkpt>
      <trkpt lat="47.35738" lon="0.01439">
        <ele>90.5</ele>
        <time>2010-11-21T08:41:43Z</time>
      </trkpt>
      <trkpt lat="47.35735" lon="0.01433">
        <ele>90.98</ele>
        <time>2010-11-21T08:41:44Z</time>
      </trkpt>
      <trkpt lat="47.35726" lon="0.01403">
        <ele>88.58</ele>
        <time>2010-11-21T08:41:49Z</time>
      </trkpt>
      <trkpt lat="47.35713" lon="0.0131">
        <ele>90.02</ele>
        <time>2010-11-21T08:41:59Z</time>
      </trkpt>
      <trkpt lat="47.35712" lon="0.01303">
        <ele>89.06</ele>
        <time>2010-11-21T08:42:01Z</time>
      </trkpt>
      <trkpt lat="47.3571" lon="0.01299">
        <ele>89.54</ele>
        <time>2010-11-21T08:42:02Z</time>
      </trkpt>
      <trkpt lat="47.35707" lon="0.01294">
        <ele>89.06</ele>
        <time>2010-11-21T08:42:03Z</time>
      </trkpt>
      <trkpt lat="47.35706" lon="0.01263">
        <ele>89.54</ele>
        <time>2010-11-21T08:42:05Z</time>
      </trkpt>
      <trkpt lat="47.35698" lon="0.01231">
        <ele>88.1</ele>
        <time>2010-11-21T08:42:11Z</time>
      </trkpt>
      <trkpt lat="47.35694" lon="0.01213">
        <ele>88.1</ele>
        <time>2010-11-21T08:42:15Z</time>
      </trkpt>
      <trkpt lat="47.35693" lon="0.0121">
        <ele>87.62</ele>
        <time>2010-11-21T08:42:16Z</time>
      </trkpt>
      <trkpt lat="47.35694" lon="0.012">
        <ele>86.66</ele>
        <time>2010-11-21T08:42:19Z</time>
      </trkpt>
      <trkpt lat="47.35688" lon="0.01177">
        <ele>86.18</ele>
        <time>2010-11-21T08:42:25Z</time>
      </trkpt>
      <trkpt lat="47.35688" lon="0.01174">
        <ele>86.66</ele>
        <time>2010-11-21T08:42:26Z</time>
      </trkpt>
      <trkpt lat="47.3569" lon="0.01153">
        <ele>86.18</ele>
        <time>2010-11-21T08:42:33Z</time>
      </trkpt>
      <trkpt lat="47.35694" lon="0.01142">
        <ele>86.18</ele>
        <time>2010-11-21T08:42:38Z</time>
      </trkpt>
      <trkpt lat="47.35701" lon="0.01129">
        <ele>87.14</ele>
        <time>2010-11-21T08:42:44Z</time>
      </trkpt>
      <trkpt lat="47.35715" lon="0.01113">
        <ele>87.14</ele>
        <time>2010-11-21T08:42:55Z</time>
      </trkpt>
      <trkpt lat="47.35715" lon="0.01113">
        <ele>87.14</ele>
        <time>2010-11-21T08:42:56Z</time>
      </trkpt>
      <trkpt lat="47.35717" lon="0.01114">
        <ele>87.62</ele>
        <time>2010-11-21T08:42:57Z</time>
      </trkpt>
      <trkpt lat="47.35726" lon="0.01122">
        <ele>87.62</ele>
        <time>2010-11-21T08:43:01Z</time>
      </trkpt>
      <trkpt lat="47.35745" lon="0.01149">
        <ele>89.06</ele>
        <time>2010-11-21T08:43:09Z</time>
      </trkpt>
      <trkpt lat="47.35747" lon="0.01151">
        <ele>88.58</ele>
        <time>2010-11-21T08:43:10Z</time>
      </trkpt>
      <trkpt lat="47.35755" lon="0.01151">
        <ele>89.06</ele>
        <time>2010-11-21T08:43:15Z</time>
      </trkpt>
      <trkpt lat="47.35765" lon="0.0114">
        <ele>89.06</ele>
        <time>2010-11-21T08:43:20Z</time>
      </trkpt>
      <trkpt lat="47.35771" lon="0.01125">
        <ele>90.5</ele>
        <time>2010-11-21T08:43:25Z</time>
      </trkpt>
      <trkpt lat="47.35777" lon="0.01118">
        <ele>90.02</ele>
        <time>2010-11-21T08:43:28Z</time>
      </trkpt>
      <trkpt lat="47.35787" lon="0.01104">
        <ele>90.98</ele>
        <time>2010-11-21T08:43:34Z</time>
      </trkpt>
      <trkpt lat="47.35796" lon="0.01099">
        <ele>90.5</ele>
        <time>2010-11-21T08:43:39Z</time>
      </trkpt>
      <trkpt lat="47.35811" lon="0.011">
        <ele>91.46</ele>
        <time>2010-11-21T08:43:45Z</time>
      </trkpt>
      <trkpt lat="47.35823" lon="0.011">
        <ele>92.42</ele>
        <time>2010-11-21T08:43:50Z</time>
      </trkpt>
      <trkpt lat="47.35833" lon="0.01103">
        <ele>94.35</ele>
        <time>2010-11-21T08:43:55Z</time>
      </trkpt>
      <trkpt lat="47.35835" lon="0.01103">
        <ele>94.35</ele>
        <time>2010-11-21T08:43:56Z</time>
      </trkpt>
      <trkpt lat="47.35841" lon="0.01108">
        <ele>95.31</ele>
        <time>2010-11-21T08:44:00Z</time>
      </trkpt>
      <trkpt lat="47.35849" lon="0.01111">
        <ele>97.23</ele>
        <time>2010-11-21T08:44:06Z</time>
      </trkpt>
      <trkpt lat="47.35857" lon="0.01115">
        <ele>97.71</ele>
        <time>2010-11-21T08:44:11Z</time>
      </trkpt>
      <trkpt lat="47.3586" lon="0.01118">
        <ele>98.67</ele>
        <time>2010-11-21T08:44:15Z</time>
      </trkpt>
      <trkpt lat="47.35863" lon="0.01121">
        <ele>100.11</ele>
        <time>2010-11-21T08:44:18Z</time>
      </trkpt>
      <trkpt lat="47.35866" lon="0.01125">
        <ele>100.11</ele>
        <time>2010-11-21T08:44:20Z</time>
      </trkpt>
      <trkpt lat="47.35872" lon="0.01131">
        <ele>100.11</ele>
        <time>2010-11-21T08:44:24Z</time>
      </trkpt>
      <trkpt lat="47.35878" lon="0.01142">
        <ele>101.56</ele>
        <time>2010-11-21T08:44:31Z</time>
      </trkpt>
      <trkpt lat="47.35883" lon="0.01146">
        <ele>102.04</ele>
        <time>2010-11-21T08:44:34Z</time>
      </trkpt>
      <trkpt lat="47.3589" lon="0.01157">
        <ele>102.52</ele>
        <time>2010-11-21T08:44:39Z</time>
      </trkpt>
      <trkpt lat="47.35904" lon="0.01174">
        <ele>102.52</ele>
        <time>2010-11-21T08:44:46Z</time>
      </trkpt>
      <trkpt lat="47.3591" lon="0.01176">
        <ele>103</ele>
        <time>2010-11-21T08:44:53Z</time>
      </trkpt>
      <trkpt lat="47.35913" lon="0.01177">
        <ele>103.48</ele>
        <time>2010-11-21T08:44:55Z</time>
      </trkpt>
      <trkpt lat="47.35925" lon="0.01176">
        <ele>103</ele>
        <time>2010-11-21T08:45:00Z</time>
      </trkpt>
      <trkpt lat="47.3593" lon="0.01177">
        <ele>103.48</ele>
        <time>2010-11-21T08:45:06Z</time>
      </trkpt>
      <trkpt lat="47.3593" lon="0.0118">
        <ele>104.92</ele>
        <time>2010-11-21T08:45:09Z</time>
      </trkpt>
      <trkpt lat="47.35931" lon="0.01184">
        <ele>105.4</ele>
        <time>2010-11-21T08:45:12Z</time>
      </trkpt>
      <trkpt lat="47.35933" lon="0.01184">
        <ele>104.92</ele>
        <time>2010-11-21T08:45:13Z</time>
      </trkpt>
      <trkpt lat="47.3594" lon="0.01183">
        <ele>105.4</ele>
        <time>2010-11-21T08:45:15Z</time>
      </trkpt>
      <trkpt lat="47.35971" lon="0.01183">
        <ele>106.36</ele>
        <time>2010-11-21T08:45:22Z</time>
      </trkpt>
      <trkpt lat="47.35981" lon="0.01191">
        <ele>106.36</ele>
        <time>2010-11-21T08:45:26Z</time>
      </trkpt>
      <trkpt lat="47.35993" lon="0.01193">
        <ele>106.84</ele>
        <time>2010-11-21T08:45:29Z</time>
      </trkpt>
      <trkpt lat="47.36001" lon="0.01196">
        <ele>106.36</ele>
        <time>2010-11-21T08:45:32Z</time>
      </trkpt>
      <trkpt lat="47.36007" lon="0.01199">
        <ele>107.81</ele>
        <time>2010-11-21T08:45:34Z</time>
      </trkpt>
      <trkpt lat="47.36018" lon="0.01206">
        <ele>107.32</ele>
        <time>2010-11-21T08:45:39Z</time>
      </trkpt>
      <trkpt lat="47.36025" lon="0.01213">
        <ele>107.81</ele>
        <time>2010-11-21T08:45:43Z</time>
      </trkpt>
      <trkpt lat="47.36034" lon="0.01217">
        <ele>108.77</ele>
        <time>2010-11-21T08:45:47Z</time>
      </trkpt>
      <trkpt lat="47.3604" lon="0.01228">
        <ele>108.77</ele>
        <time>2010-11-21T08:45:51Z</time>
      </trkpt>
      <trkpt lat="47.36033" lon="0.0124">
        <ele>107.81</ele>
        <time>2010-11-21T08:45:55Z</time>
      </trkpt>
      <trkpt lat="47.36025" lon="0.01265">
        <ele>107.81</ele>
        <time>2010-11-21T08:46:01Z</time>
      </trkpt>
      <trkpt lat="47.36021" lon="0.01273">
        <ele>107.32</ele>
        <time>2010-11-21T08:46:03Z</time>
      </trkpt>
      <trkpt lat="47.36006" lon="0.01303">
        <ele>107.32</ele>
        <time>2010-11-21T08:46:10Z</time>
      </trkpt>
      <trkpt lat="47.35993" lon="0.01323">
        <ele>107.81</ele>
        <time>2010-11-21T08:46:15Z</time>
      </trkpt>
      <trkpt lat="47.35982" lon="0.01343">
        <ele>106.36</ele>
        <time>2010-11-21T08:46:20Z</time>
      </trkpt>
      <trkpt lat="47.35967" lon="0.01365">
        <ele>105.88</ele>
        <time>2010-11-21T08:46:26Z</time>
      </trkpt>
      <trkpt lat="47.35952" lon="0.01392">
        <ele>103.48</ele>
        <time>2010-11-21T08:46:32Z</time>
      </trkpt>
      <trkpt lat="47.35937" lon="0.01417">
        <ele>103.96</ele>
        <time>2010-11-21T08:46:37Z</time>
      </trkpt>
      <trkpt lat="47.35935" lon="0.0142">
        <ele>104.44</ele>
        <time>2010-11-21T08:46:38Z</time>
      </trkpt>
      <trkpt lat="47.35934" lon="0.01423">
        <ele>104.92</ele>
        <time>2010-11-21T08:46:39Z</time>
      </trkpt>
      <trkpt lat="47.35933" lon="0.01426">
        <ele>105.4</ele>
        <time>2010-11-21T08:46:40Z</time>
      </trkpt>
      <trkpt lat="47.35931" lon="0.01428">
        <ele>105.4</ele>
        <time>2010-11-21T08:46:41Z</time>
      </trkpt>
      <trkpt lat="47.35926" lon="0.01436">
        <ele>106.84</ele>
        <time>2010-11-21T08:46:44Z</time>
      </trkpt>
      <trkpt lat="47.35925" lon="0.0144">
        <ele>106.84</ele>
        <time>2010-11-21T08:46:45Z</time>
      </trkpt>
      <trkpt lat="47.35915" lon="0.01463">
        <ele>106.84</ele>
        <time>2010-11-21T08:46:51Z</time>
      </trkpt>
      <trkpt lat="47.35913" lon="0.01467">
        <ele>106.84</ele>
        <time>2010-11-21T08:46:52Z</time>
      </trkpt>
      <trkpt lat="47.35912" lon="0.01471">
        <ele>107.32</ele>
        <time>2010-11-21T08:46:53Z</time>
      </trkpt>
      <trkpt lat="47.3591" lon="0.01476">
        <ele>107.32</ele>
        <time>2010-11-21T08:46:54Z</time>
      </trkpt>
      <trkpt lat="47.35908" lon="0.01479">
        <ele>107.32</ele>
        <time>2010-11-21T08:46:55Z</time>
      </trkpt>
      <trkpt lat="47.35906" lon="0.01482">
        <ele>107.32</ele>
        <time>2010-11-21T08:46:56Z</time>
      </trkpt>
      <trkpt lat="47.35904" lon="0.01486">
        <ele>107.81</ele>
        <time>2010-11-21T08:46:57Z</time>
      </trkpt>
      <trkpt lat="47.35902" lon="0.01489">
        <ele>107.81</ele>
        <time>2010-11-21T08:46:58Z</time>
      </trkpt>
      <trkpt lat="47.35889" lon="0.01512">
        <ele>107.81</ele>
        <time>2010-11-21T08:47:04Z</time>
      </trkpt>
      <trkpt lat="47.35883" lon="0.01524">
        <ele>107.32</ele>
        <time>2010-11-21T08:47:07Z</time>
      </trkpt>
      <trkpt lat="47.35868" lon="0.01548">
        <ele>107.32</ele>
        <time>2010-11-21T08:47:13Z</time>
      </trkpt>
      <trkpt lat="47.35853" lon="0.01573">
        <ele>107.81</ele>
        <time>2010-11-21T08:47:20Z</time>
      </trkpt>
      <trkpt lat="47.35845" lon="0.01585">
        <ele>107.81</ele>
        <time>2010-11-21T08:47:23Z</time>
      </trkpt>
      <trkpt lat="47.35844" lon="0.01588">
        <ele>108.29</ele>
        <time>2010-11-21T08:47:24Z</time>
      </trkpt>
      <trkpt lat="47.35841" lon="0.01593">
        <ele>108.29</ele>
        <time>2010-11-21T08:47:25Z</time>
      </trkpt>
      <trkpt lat="47.35839" lon="0.01596">
        <ele>108.29</ele>
        <time>2010-11-21T08:47:26Z</time>
      </trkpt>
      <trkpt lat="47.35837" lon="0.01599">
        <ele>107.81</ele>
        <time>2010-11-21T08:47:27Z</time>
      </trkpt>
      <trkpt lat="47.35835" lon="0.01602">
        <ele>108.77</ele>
        <time>2010-11-21T08:47:28Z</time>
      </trkpt>
      <trkpt lat="47.35833" lon="0.01606">
        <ele>107.81</ele>
        <time>2010-11-21T08:47:29Z</time>
      </trkpt>
      <trkpt lat="47.35821" lon="0.01633">
        <ele>106.84</ele>
        <time>2010-11-21T08:47:35Z</time>
      </trkpt>
      <trkpt lat="47.35812" lon="0.0165">
        <ele>105.4</ele>
        <time>2010-11-21T08:47:39Z</time>
      </trkpt>
      <trkpt lat="47.3581" lon="0.01655">
        <ele>105.4</ele>
        <time>2010-11-21T08:47:40Z</time>
      </trkpt>
      <trkpt lat="47.35808" lon="0.01659">
        <ele>105.88</ele>
        <time>2010-11-21T08:47:41Z</time>
      </trkpt>
      <trkpt lat="47.35798" lon="0.01673">
        <ele>105.4</ele>
        <time>2010-11-21T08:47:44Z</time>
      </trkpt>
      <trkpt lat="47.35782" lon="0.01692">
        <ele>104.44</ele>
        <time>2010-11-21T08:47:49Z</time>
      </trkpt>
      <trkpt lat="47.35779" lon="0.01697">
        <ele>103.48</ele>
        <time>2010-11-21T08:47:50Z</time>
      </trkpt>
      <trkpt lat="47.3577" lon="0.01714">
        <ele>103.48</ele>
        <time>2010-11-21T08:47:53Z</time>
      </trkpt>
      <trkpt lat="47.35766" lon="0.01722">
        <ele>102.52</ele>
        <time>2010-11-21T08:47:54Z</time>
      </trkpt>
      <trkpt lat="47.35763" lon="0.01727">
        <ele>102.04</ele>
        <time>2010-11-21T08:47:55Z</time>
      </trkpt>
      <trkpt lat="47.35755" lon="0.01741">
        <ele>101.56</ele>
        <time>2010-11-21T08:47:57Z</time>
      </trkpt>
      <trkpt lat="47.35751" lon="0.01748">
        <ele>100.6</ele>
        <time>2010-11-21T08:47:58Z</time>
      </trkpt>
      <trkpt lat="47.35747" lon="0.01755">
        <ele>100.11</ele>
        <time>2010-11-21T08:47:59Z</time>
      </trkpt>
      <trkpt lat="47.35742" lon="0.01763">
        <ele>98.19</ele>
        <time>2010-11-21T08:48:00Z</time>
      </trkpt>
      <trkpt lat="47.35725" lon="0.01791">
        <ele>94.83</ele>
        <time>2010-11-21T08:48:03Z</time>
      </trkpt>
      <trkpt lat="47.3572" lon="0.01801">
        <ele>94.83</ele>
        <time>2010-11-21T08:48:04Z</time>
      </trkpt>
      <trkpt lat="47.35714" lon="0.01812">
        <ele>93.87</ele>
        <time>2010-11-21T08:48:05Z</time>
      </trkpt>
      <trkpt lat="47.35708" lon="0.01822">
        <ele>93.39</ele>
        <time>2010-11-21T08:48:06Z</time>
      </trkpt>
      <trkpt lat="47.35695" lon="0.01842">
        <ele>92.42</ele>
        <time>2010-11-21T08:48:08Z</time>
      </trkpt>
      <trkpt lat="47.35666" lon="0.01887">
        <ele>91.94</ele>
        <time>2010-11-21T08:48:13Z</time>
      </trkpt>
      <trkpt lat="47.35656" lon="0.01901">
        <ele>91.94</ele>
        <time>2010-11-21T08:48:15Z</time>
      </trkpt>
      <trkpt lat="47.35652" lon="0.01908">
        <ele>91.46</ele>
        <time>2010-11-21T08:48:16Z</time>
      </trkpt>
      <trkpt lat="47.35648" lon="0.01915">
        <ele>90.98</ele>
        <time>2010-11-21T08:48:17Z</time>
      </trkpt>
      <trkpt lat="47.35634" lon="0.01932">
        <ele>90.98</ele>
        <time>2010-11-21T08:48:20Z</time>
      </trkpt>
      <trkpt lat="47.35629" lon="0.01935">
        <ele>90.5</ele>
        <time>2010-11-21T08:48:21Z</time>
      </trkpt>
      <trkpt lat="47.35623" lon="0.01939">
        <ele>90.5</ele>
        <time>2010-11-21T08:48:22Z</time>
      </trkpt>
      <trkpt lat="47.35607" lon="0.01946">
        <ele>89.54</ele>
        <time>2010-11-21T08:48:25Z</time>
      </trkpt>
      <trkpt lat="47.35592" lon="0.01951">
        <ele>88.58</ele>
        <time>2010-11-21T08:48:28Z</time>
      </trkpt>
      <trkpt lat="47.35586" lon="0.01953">
        <ele>87.62</ele>
        <time>2010-11-21T08:48:29Z</time>
      </trkpt>
      <trkpt lat="47.35574" lon="0.01959">
        <ele>88.1</ele>
        <time>2010-11-21T08:48:31Z</time>
      </trkpt>
      <trkpt lat="47.35568" lon="0.0196">
        <ele>88.1</ele>
        <time>2010-11-21T08:48:32Z</time>
      </trkpt>
      <trkpt lat="47.35548" lon="0.01966">
        <ele>87.14</ele>
        <time>2010-11-21T08:48:35Z</time>
      </trkpt>
      <trkpt lat="47.35529" lon="0.0197">
        <ele>86.66</ele>
        <time>2010-11-21T08:48:38Z</time>
      </trkpt>
      <trkpt lat="47.35524" lon="0.01973">
        <ele>86.18</ele>
        <time>2010-11-21T08:48:39Z</time>
      </trkpt>
      <trkpt lat="47.3552" lon="0.01978">
        <ele>86.66</ele>
        <time>2010-11-21T08:48:40Z</time>
      </trkpt>
      <trkpt lat="47.35518" lon="0.01983">
        <ele>85.21</ele>
        <time>2010-11-21T08:48:41Z</time>
      </trkpt>
      <trkpt lat="47.35517" lon="0.01989">
        <ele>86.18</ele>
        <time>2010-11-21T08:48:42Z</time>
      </trkpt>
      <trkpt lat="47.35518" lon="0.01995">
        <ele>86.18</ele>
        <time>2010-11-21T08:48:43Z</time>
      </trkpt>
      <trkpt lat="47.35519" lon="0.02001">
        <ele>86.18</ele>
        <time>2010-11-21T08:48:44Z</time>
      </trkpt>
      <trkpt lat="47.3552" lon="0.02006">
        <ele>86.18</ele>
        <time>2010-11-21T08:48:45Z</time>
      </trkpt>
      <trkpt lat="47.35521" lon="0.02011">
        <ele>86.18</ele>
        <time>2010-11-21T08:48:46Z</time>
      </trkpt>
      <trkpt lat="47.35522" lon="0.02017">
        <ele>86.18</ele>
        <time>2010-11-21T08:48:47Z</time>
      </trkpt>
      <trkpt lat="47.35524" lon="0.02029">
        <ele>86.66</ele>
        <time>2010-11-21T08:48:49Z</time>
      </trkpt>
      <trkpt lat="47.35525" lon="0.02036">
        <ele>86.66</ele>
        <time>2010-11-21T08:48:50Z</time>
      </trkpt>
      <trkpt lat="47.35526" lon="0.02042">
        <ele>87.14</ele>
        <time>2010-11-21T08:48:51Z</time>
      </trkpt>
      <trkpt lat="47.35527" lon="0.02047">
        <ele>87.14</ele>
        <time>2010-11-21T08:48:52Z</time>
      </trkpt>
      <trkpt lat="47.35528" lon="0.02052">
        <ele>86.18</ele>
        <time>2010-11-21T08:48:53Z</time>
      </trkpt>
      <trkpt lat="47.3553" lon="0.02059">
        <ele>86.66</ele>
        <time>2010-11-21T08:48:54Z</time>
      </trkpt>
      <trkpt lat="47.35531" lon="0.02065">
        <ele>86.18</ele>
        <time>2010-11-21T08:48:55Z</time>
      </trkpt>
      <trkpt lat="47.35532" lon="0.02071">
        <ele>86.18</ele>
        <time>2010-11-21T08:48:56Z</time>
      </trkpt>
      <trkpt lat="47.35533" lon="0.02078">
        <ele>86.66</ele>
        <time>2010-11-21T08:48:57Z</time>
      </trkpt>
      <trkpt lat="47.35537" lon="0.02101">
        <ele>87.14</ele>
        <time>2010-11-21T08:49:01Z</time>
      </trkpt>
      <trkpt lat="47.35538" lon="0.02108">
        <ele>86.66</ele>
        <time>2010-11-21T08:49:02Z</time>
      </trkpt>
      <trkpt lat="47.35539" lon="0.02114">
        <ele>86.66</ele>
        <time>2010-11-21T08:49:03Z</time>
      </trkpt>
      <trkpt lat="47.35539" lon="0.02134">
        <ele>86.66</ele>
        <time>2010-11-21T08:49:06Z</time>
      </trkpt>
      <trkpt lat="47.35541" lon="0.02163">
        <ele>87.14</ele>
        <time>2010-11-21T08:49:11Z</time>
      </trkpt>
      <trkpt lat="47.35541" lon="0.0219">
        <ele>88.58</ele>
        <time>2010-11-21T08:49:16Z</time>
      </trkpt>
      <trkpt lat="47.35539" lon="0.02201">
        <ele>87.14</ele>
        <time>2010-11-21T08:49:19Z</time>
      </trkpt>
      <trkpt lat="47.35535" lon="0.02212">
        <ele>88.1</ele>
        <time>2010-11-21T08:49:23Z</time>
      </trkpt>
      <trkpt lat="47.35533" lon="0.02214">
        <ele>87.62</ele>
        <time>2010-11-21T08:49:24Z</time>
      </trkpt>
      <trkpt lat="47.35531" lon="0.02217">
        <ele>88.1</ele>
        <time>2010-11-21T08:49:25Z</time>
      </trkpt>
      <trkpt lat="47.35523" lon="0.02233">
        <ele>88.1</ele>
        <time>2010-11-21T08:49:31Z</time>
      </trkpt>
      <trkpt lat="47.35522" lon="0.02237">
        <ele>88.58</ele>
        <time>2010-11-21T08:49:37Z</time>
      </trkpt>
      <trkpt lat="47.35521" lon="0.02238">
        <ele>88.58</ele>
        <time>2010-11-21T08:49:45Z</time>
      </trkpt>
      <trkpt lat="47.3552" lon="0.02241">
        <ele>88.1</ele>
        <time>2010-11-21T08:50:17Z</time>
      </trkpt>
      <trkpt lat="47.35519" lon="0.02242">
        <ele>88.1</ele>
        <time>2010-11-21T08:50:37Z</time>
      </trkpt>
      <trkpt lat="47.3552" lon="0.02243">
        <ele>87.62</ele>
        <time>2010-11-21T08:51:01Z</time>
      </trkpt>
      <trkpt lat="47.3552" lon="0.02243">
        <ele>88.58</ele>
        <time>2010-11-21T08:51:14Z</time>
      </trkpt>
      <trkpt lat="47.3552" lon="0.02243">
        <ele>87.62</ele>
        <time>2010-11-21T08:51:33Z</time>
      </trkpt>
      <trkpt lat="47.35515" lon="0.02251">
        <ele>88.1</ele>
        <time>2010-11-21T08:52:09Z</time>
      </trkpt>
      <trkpt lat="47.35505" lon="0.02271">
        <ele>88.1</ele>
        <time>2010-11-21T08:52:15Z</time>
      </trkpt>
      <trkpt lat="47.35503" lon="0.02274">
        <ele>89.54</ele>
        <time>2010-11-21T08:52:16Z</time>
      </trkpt>
      <trkpt lat="47.35495" lon="0.02295">
        <ele>90.02</ele>
        <time>2010-11-21T08:52:22Z</time>
      </trkpt>
      <trkpt lat="47.35488" lon="0.02313">
        <ele>90.98</ele>
        <time>2010-11-21T08:52:27Z</time>
      </trkpt>
      <trkpt lat="47.35487" lon="0.02316">
        <ele>90.5</ele>
        <time>2010-11-21T08:52:28Z</time>
      </trkpt>
      <trkpt lat="47.3548" lon="0.02334">
        <ele>91.46</ele>
        <time>2010-11-21T08:52:33Z</time>
      </trkpt>
      <trkpt lat="47.35475" lon="0.02346">
        <ele>92.9</ele>
        <time>2010-11-21T08:52:37Z</time>
      </trkpt>
      <trkpt lat="47.35475" lon="0.02349">
        <ele>92.9</ele>
        <time>2010-11-21T08:52:38Z</time>
      </trkpt>
      <trkpt lat="47.35473" lon="0.02351">
        <ele>93.87</ele>
        <time>2010-11-21T08:52:39Z</time>
      </trkpt>
      <trkpt lat="47.3547" lon="0.02356">
        <ele>92.9</ele>
        <time>2010-11-21T08:52:41Z</time>
      </trkpt>
      <trkpt lat="47.3546" lon="0.02379">
        <ele>95.31</ele>
        <time>2010-11-21T08:52:49Z</time>
      </trkpt>
      <trkpt lat="47.35454" lon="0.02398">
        <ele>96.75</ele>
        <time>2010-11-21T08:52:55Z</time>
      </trkpt>
      <trkpt lat="47.35451" lon="0.02402">
        <ele>96.27</ele>
        <time>2010-11-21T08:52:57Z</time>
      </trkpt>
      <trkpt lat="47.35443" lon="0.02422">
        <ele>97.71</ele>
        <time>2010-11-21T08:53:04Z</time>
      </trkpt>
      <trkpt lat="47.35437" lon="0.02443">
        <ele>99.15</ele>
        <time>2010-11-21T08:53:10Z</time>
      </trkpt>
      <trkpt lat="47.3543" lon="0.02465">
        <ele>101.08</ele>
        <time>2010-11-21T08:53:17Z</time>
      </trkpt>
      <trkpt lat="47.35423" lon="0.02481">
        <ele>101.08</ele>
        <time>2010-11-21T08:53:23Z</time>
      </trkpt>
      <trkpt lat="47.35416" lon="0.02501">
        <ele>102.04</ele>
        <time>2010-11-21T08:53:28Z</time>
      </trkpt>
      <trkpt lat="47.35407" lon="0.02523">
        <ele>103</ele>
        <time>2010-11-21T08:53:34Z</time>
      </trkpt>
      <trkpt lat="47.35406" lon="0.02525">
        <ele>103</ele>
        <time>2010-11-21T08:53:35Z</time>
      </trkpt>
      <trkpt lat="47.35398" lon="0.02544">
        <ele>104.92</ele>
        <time>2010-11-21T08:53:41Z</time>
      </trkpt>
      <trkpt lat="47.35393" lon="0.02554">
        <ele>105.4</ele>
        <time>2010-11-21T08:53:45Z</time>
      </trkpt>
      <trkpt lat="47.35391" lon="0.02562">
        <ele>105.4</ele>
        <time>2010-11-21T08:53:48Z</time>
      </trkpt>
      <trkpt lat="47.35391" lon="0.02566">
        <ele>106.36</ele>
        <time>2010-11-21T08:53:50Z</time>
      </trkpt>
      <trkpt lat="47.35384" lon="0.02581">
        <ele>106.84</ele>
        <time>2010-11-21T08:53:56Z</time>
      </trkpt>
      <trkpt lat="47.35378" lon="0.02598">
        <ele>107.81</ele>
        <time>2010-11-21T08:54:03Z</time>
      </trkpt>
      <trkpt lat="47.35374" lon="0.02614">
        <ele>109.73</ele>
        <time>2010-11-21T08:54:09Z</time>
      </trkpt>
      <trkpt lat="47.35373" lon="0.02617">
        <ele>109.25</ele>
        <time>2010-11-21T08:54:10Z</time>
      </trkpt>
      <trkpt lat="47.35372" lon="0.02623">
        <ele>110.21</ele>
        <time>2010-11-21T08:54:12Z</time>
      </trkpt>
      <trkpt lat="47.35364" lon="0.02642">
        <ele>111.17</ele>
        <time>2010-11-21T08:54:20Z</time>
      </trkpt>
      <trkpt lat="47.35358" lon="0.02663">
        <ele>111.65</ele>
        <time>2010-11-21T08:54:27Z</time>
      </trkpt>
      <trkpt lat="47.35351" lon="0.02678">
        <ele>112.13</ele>
        <time>2010-11-21T08:54:33Z</time>
      </trkpt>
      <trkpt lat="47.35344" lon="0.02689">
        <ele>112.13</ele>
        <time>2010-11-21T08:54:38Z</time>
      </trkpt>
      <trkpt lat="47.35334" lon="0.02699">
        <ele>113.57</ele>
        <time>2010-11-21T08:54:43Z</time>
      </trkpt>
      <trkpt lat="47.35323" lon="0.02707">
        <ele>114.53</ele>
        <time>2010-11-21T08:54:49Z</time>
      </trkpt>
      <trkpt lat="47.35319" lon="0.02711">
        <ele>114.53</ele>
        <time>2010-11-21T08:54:52Z</time>
      </trkpt>
      <trkpt lat="47.35315" lon="0.02716">
        <ele>114.05</ele>
        <time>2010-11-21T08:54:59Z</time>
      </trkpt>
      <trkpt lat="47.35314" lon="0.02721">
        <ele>114.53</ele>
        <time>2010-11-21T08:55:07Z</time>
      </trkpt>
      <trkpt lat="47.35313" lon="0.02722">
        <ele>114.53</ele>
        <time>2010-11-21T08:55:12Z</time>
      </trkpt>
      <trkpt lat="47.3531" lon="0.02725">
        <ele>114.53</ele>
        <time>2010-11-21T08:55:18Z</time>
      </trkpt>
      <trkpt lat="47.353" lon="0.02742">
        <ele>114.05</ele>
        <time>2010-11-21T08:55:25Z</time>
      </trkpt>
      <trkpt lat="47.35297" lon="0.0275">
        <ele>115.01</ele>
        <time>2010-11-21T08:55:28Z</time>
      </trkpt>
      <trkpt lat="47.35292" lon="0.02756">
        <ele>114.53</ele>
        <time>2010-11-21T08:55:35Z</time>
      </trkpt>
      <trkpt lat="47.35289" lon="0.02765">
        <ele>114.53</ele>
        <time>2010-11-21T08:55:42Z</time>
      </trkpt>
      <trkpt lat="47.35285" lon="0.02775">
        <ele>114.53</ele>
        <time>2010-11-21T08:55:51Z</time>
      </trkpt>
      <trkpt lat="47.35273" lon="0.02803">
        <ele>114.53</ele>
        <time>2010-11-21T08:55:58Z</time>
      </trkpt>
      <trkpt lat="47.35266" lon="0.02821">
        <ele>114.05</ele>
        <time>2010-11-21T08:56:03Z</time>
      </trkpt>
      <trkpt lat="47.35259" lon="0.02842">
        <ele>114.05</ele>
        <time>2010-11-21T08:56:08Z</time>
      </trkpt>
      <trkpt lat="47.35252" lon="0.02862">
        <ele>114.05</ele>
        <time>2010-11-21T08:56:13Z</time>
      </trkpt>
      <trkpt lat="47.35247" lon="0.02892">
        <ele>113.09</ele>
        <time>2010-11-21T08:56:19Z</time>
      </trkpt>
      <trkpt lat="47.35235" lon="0.02913">
        <ele>113.09</ele>
        <time>2010-11-21T08:56:24Z</time>
      </trkpt>
      <trkpt lat="47.35234" lon="0.02914">
        <ele>113.09</ele>
        <time>2010-11-21T08:56:25Z</time>
      </trkpt>
      <trkpt lat="47.35227" lon="0.02918">
        <ele>113.09</ele>
        <time>2010-11-21T08:56:29Z</time>
      </trkpt>
      <trkpt lat="47.35221" lon="0.02911">
        <ele>113.57</ele>
        <time>2010-11-21T08:56:34Z</time>
      </trkpt>
      <trkpt lat="47.35218" lon="0.02911">
        <ele>113.57</ele>
        <time>2010-11-21T08:56:36Z</time>
      </trkpt>
      <trkpt lat="47.35208" lon="0.02919">
        <ele>114.05</ele>
        <time>2010-11-21T08:56:43Z</time>
      </trkpt>
      <trkpt lat="47.35197" lon="0.02932">
        <ele>113.09</ele>
        <time>2010-11-21T08:56:50Z</time>
      </trkpt>
      <trkpt lat="47.35193" lon="0.02949">
        <ele>113.09</ele>
        <time>2010-11-21T08:56:55Z</time>
      </trkpt>
      <trkpt lat="47.3519" lon="0.02962">
        <ele>113.57</ele>
        <time>2010-11-21T08:57:00Z</time>
      </trkpt>
      <trkpt lat="47.35189" lon="0.02986">
        <ele>112.61</ele>
        <time>2010-11-21T08:57:05Z</time>
      </trkpt>
      <trkpt lat="47.35186" lon="0.0302">
        <ele>112.13</ele>
        <time>2010-11-21T08:57:11Z</time>
      </trkpt>
      <trkpt lat="47.35191" lon="0.03049">
        <ele>111.65</ele>
        <time>2010-11-21T08:57:17Z</time>
      </trkpt>
      <trkpt lat="47.3519" lon="0.03059">
        <ele>111.17</ele>
        <time>2010-11-21T08:57:19Z</time>
      </trkpt>
      <trkpt lat="47.35185" lon="0.03082">
        <ele>111.17</ele>
        <time>2010-11-21T08:57:24Z</time>
      </trkpt>
      <trkpt lat="47.35181" lon="0.031">
        <ele>110.21</ele>
        <time>2010-11-21T08:57:27Z</time>
      </trkpt>
      <trkpt lat="47.35179" lon="0.03106">
        <ele>109.73</ele>
        <time>2010-11-21T08:57:28Z</time>
      </trkpt>
      <trkpt lat="47.35176" lon="0.03119">
        <ele>109.73</ele>
        <time>2010-11-21T08:57:30Z</time>
      </trkpt>
      <trkpt lat="47.35169" lon="0.03141">
        <ele>108.77</ele>
        <time>2010-11-21T08:57:34Z</time>
      </trkpt>
      <trkpt lat="47.35168" lon="0.03151">
        <ele>108.29</ele>
        <time>2010-11-21T08:57:36Z</time>
      </trkpt>
      <trkpt lat="47.35171" lon="0.03164">
        <ele>108.77</ele>
        <time>2010-11-21T08:57:40Z</time>
      </trkpt>
      <trkpt lat="47.35181" lon="0.03173">
        <ele>107.32</ele>
        <time>2010-11-21T08:57:46Z</time>
      </trkpt>
      <trkpt lat="47.35195" lon="0.03182">
        <ele>107.32</ele>
        <time>2010-11-21T08:57:51Z</time>
      </trkpt>
      <trkpt lat="47.35215" lon="0.03192">
        <ele>107.32</ele>
        <time>2010-11-21T08:57:57Z</time>
      </trkpt>
      <trkpt lat="47.35223" lon="0.03211">
        <ele>106.36</ele>
        <time>2010-11-21T08:58:02Z</time>
      </trkpt>
      <trkpt lat="47.35224" lon="0.03215">
        <ele>105.88</ele>
        <time>2010-11-21T08:58:03Z</time>
      </trkpt>
      <trkpt lat="47.35235" lon="0.03234">
        <ele>105.4</ele>
        <time>2010-11-21T08:58:08Z</time>
      </trkpt>
      <trkpt lat="47.35243" lon="0.0325">
        <ele>103.96</ele>
        <time>2010-11-21T08:58:12Z</time>
      </trkpt>
      <trkpt lat="47.3525" lon="0.03302">
        <ele>99.63</ele>
        <time>2010-11-21T08:58:22Z</time>
      </trkpt>
      <trkpt lat="47.35253" lon="0.03307">
        <ele>99.63</ele>
        <time>2010-11-21T08:58:23Z</time>
      </trkpt>
      <trkpt lat="47.35266" lon="0.03336">
        <ele>97.71</ele>
        <time>2010-11-21T08:58:28Z</time>
      </trkpt>
      <trkpt lat="47.35285" lon="0.03358">
        <ele>96.75</ele>
        <time>2010-11-21T08:58:33Z</time>
      </trkpt>
      <trkpt lat="47.3529" lon="0.03361">
        <ele>96.75</ele>
        <time>2010-11-21T08:58:34Z</time>
      </trkpt>
      <trkpt lat="47.35311" lon="0.03385">
        <ele>95.79</ele>
        <time>2010-11-21T08:58:40Z</time>
      </trkpt>
      <trkpt lat="47.35326" lon="0.03407">
        <ele>94.83</ele>
        <time>2010-11-21T08:58:44Z</time>
      </trkpt>
      <trkpt lat="47.35345" lon="0.03426">
        <ele>93.39</ele>
        <time>2010-11-21T08:58:48Z</time>
      </trkpt>
      <trkpt lat="47.35355" lon="0.03437">
        <ele>91.46</ele>
        <time>2010-11-21T08:58:51Z</time>
      </trkpt>
      <trkpt lat="47.35363" lon="0.03443">
        <ele>89.54</ele>
        <time>2010-11-21T08:58:53Z</time>
      </trkpt>
      <trkpt lat="47.3539" lon="0.03471">
        <ele>88.1</ele>
        <time>2010-11-21T08:58:59Z</time>
      </trkpt>
      <trkpt lat="47.35398" lon="0.03483">
        <ele>86.18</ele>
        <time>2010-11-21T08:59:01Z</time>
      </trkpt>
      <trkpt lat="47.35411" lon="0.03507">
        <ele>84.73</ele>
        <time>2010-11-21T08:59:04Z</time>
      </trkpt>
      <trkpt lat="47.35422" lon="0.03532">
        <ele>83.77</ele>
        <time>2010-11-21T08:59:07Z</time>
      </trkpt>
      <trkpt lat="47.35426" lon="0.0354">
        <ele>83.77</ele>
        <time>2010-11-21T08:59:08Z</time>
      </trkpt>
      <trkpt lat="47.3543" lon="0.03546">
        <ele>83.77</ele>
        <time>2010-11-21T08:59:09Z</time>
      </trkpt>
      <trkpt lat="47.35445" lon="0.03572">
        <ele>83.77</ele>
        <time>2010-11-21T08:59:14Z</time>
      </trkpt>
      <trkpt lat="47.35445" lon="0.03576">
        <ele>83.29</ele>
        <time>2010-11-21T08:59:15Z</time>
      </trkpt>
      <trkpt lat="47.35445" lon="0.03579">
        <ele>82.33</ele>
        <time>2010-11-21T08:59:16Z</time>
      </trkpt>
      <trkpt lat="47.35443" lon="0.03584">
        <ele>82.33</ele>
        <time>2010-11-21T08:59:18Z</time>
      </trkpt>
      <trkpt lat="47.35436" lon="0.03591">
        <ele>82.81</ele>
        <time>2010-11-21T08:59:21Z</time>
      </trkpt>
      <trkpt lat="47.35434" lon="0.03593">
        <ele>83.29</ele>
        <time>2010-11-21T08:59:22Z</time>
      </trkpt>
      <trkpt lat="47.3543" lon="0.03595">
        <ele>83.77</ele>
        <time>2010-11-21T08:59:23Z</time>
      </trkpt>
      <trkpt lat="47.35427" lon="0.03598">
        <ele>83.29</ele>
        <time>2010-11-21T08:59:24Z</time>
      </trkpt>
      <trkpt lat="47.35424" lon="0.036">
        <ele>83.77</ele>
        <time>2010-11-21T08:59:25Z</time>
      </trkpt>
      <trkpt lat="47.35421" lon="0.03601">
        <ele>84.25</ele>
        <time>2010-11-21T08:59:26Z</time>
      </trkpt>
      <trkpt lat="47.35417" lon="0.03602">
        <ele>84.25</ele>
        <time>2010-11-21T08:59:27Z</time>
      </trkpt>
      <trkpt lat="47.35413" lon="0.03604">
        <ele>83.77</ele>
        <time>2010-11-21T08:59:28Z</time>
      </trkpt>
      <trkpt lat="47.3539" lon="0.0361">
        <ele>83.77</ele>
        <time>2010-11-21T08:59:34Z</time>
      </trkpt>
      <trkpt lat="47.35372" lon="0.03611">
        <ele>85.21</ele>
        <time>2010-11-21T08:59:39Z</time>
      </trkpt>
      <trkpt lat="47.35352" lon="0.03603">
        <ele>86.18</ele>
        <time>2010-11-21T08:59:45Z</time>
      </trkpt>
      <trkpt lat="47.35334" lon="0.03596">
        <ele>86.66</ele>
        <time>2010-11-21T08:59:51Z</time>
      </trkpt>
      <trkpt lat="47.35315" lon="0.03588">
        <ele>87.62</ele>
        <time>2010-11-21T08:59:57Z</time>
      </trkpt>
      <trkpt lat="47.35284" lon="0.03578">
        <ele>88.1</ele>
        <time>2010-11-21T09:00:06Z</time>
      </trkpt>
      <trkpt lat="47.35262" lon="0.03576">
        <ele>89.06</ele>
        <time>2010-11-21T09:00:13Z</time>
      </trkpt>
      <trkpt lat="47.3524" lon="0.03575">
        <ele>90.98</ele>
        <time>2010-11-21T09:00:21Z</time>
      </trkpt>
      <trkpt lat="47.35226" lon="0.03569">
        <ele>92.9</ele>
        <time>2010-11-21T09:00:28Z</time>
      </trkpt>
      <trkpt lat="47.3521" lon="0.03564">
        <ele>94.35</ele>
        <time>2010-11-21T09:00:36Z</time>
      </trkpt>
      <trkpt lat="47.35194" lon="0.03556">
        <ele>96.27</ele>
        <time>2010-11-21T09:00:43Z</time>
      </trkpt>
      <trkpt lat="47.3518" lon="0.03549">
        <ele>97.23</ele>
        <time>2010-11-21T09:00:50Z</time>
      </trkpt>
      <trkpt lat="47.35165" lon="0.03543">
        <ele>98.19</ele>
        <time>2010-11-21T09:00:57Z</time>
      </trkpt>
      <trkpt lat="47.35151" lon="0.03537">
        <ele>99.15</ele>
        <time>2010-11-21T09:01:04Z</time>
      </trkpt>
      <trkpt lat="47.35135" lon="0.03532">
        <ele>101.08</ele>
        <time>2010-11-21T09:01:12Z</time>
      </trkpt>
      <trkpt lat="47.35121" lon="0.03527">
        <ele>102.52</ele>
        <time>2010-11-21T09:01:18Z</time>
      </trkpt>
      <trkpt lat="47.35106" lon="0.03524">
        <ele>103</ele>
        <time>2010-11-21T09:01:25Z</time>
      </trkpt>
      <trkpt lat="47.35093" lon="0.03521">
        <ele>104.44</ele>
        <time>2010-11-21T09:01:31Z</time>
      </trkpt>
      <trkpt lat="47.35078" lon="0.03517">
        <ele>104.92</ele>
        <time>2010-11-21T09:01:38Z</time>
      </trkpt>
      <trkpt lat="47.35063" lon="0.0351">
        <ele>106.36</ele>
        <time>2010-11-21T09:01:45Z</time>
      </trkpt>
      <trkpt lat="47.35048" lon="0.03505">
        <ele>106.84</ele>
        <time>2010-11-21T09:01:51Z</time>
      </trkpt>
      <trkpt lat="47.35032" lon="0.03502">
        <ele>107.32</ele>
        <time>2010-11-21T09:01:57Z</time>
      </trkpt>
      <trkpt lat="47.35009" lon="0.03495">
        <ele>108.29</ele>
        <time>2010-11-21T09:02:05Z</time>
      </trkpt>
      <trkpt lat="47.34982" lon="0.03485">
        <ele>108.77</ele>
        <time>2010-11-21T09:02:14Z</time>
      </trkpt>
      <trkpt lat="47.34952" lon="0.03467">
        <ele>108.29</ele>
        <time>2010-11-21T09:02:23Z</time>
      </trkpt>
      <trkpt lat="47.34926" lon="0.03453">
        <ele>109.73</ele>
        <time>2010-11-21T09:02:31Z</time>
      </trkpt>
      <trkpt lat="47.34902" lon="0.03442">
        <ele>109.73</ele>
        <time>2010-11-21T09:02:38Z</time>
      </trkpt>
      <trkpt lat="47.34878" lon="0.03428">
        <ele>109.73</ele>
        <time>2010-11-21T09:02:45Z</time>
      </trkpt>
      <trkpt lat="47.34853" lon="0.03412">
        <ele>110.69</ele>
        <time>2010-11-21T09:02:52Z</time>
      </trkpt>
      <trkpt lat="47.34839" lon="0.03403">
        <ele>109.73</ele>
        <time>2010-11-21T09:02:56Z</time>
      </trkpt>
      <trkpt lat="47.34835" lon="0.03402">
        <ele>109.73</ele>
        <time>2010-11-21T09:02:57Z</time>
      </trkpt>
      <trkpt lat="47.34831" lon="0.03401">
        <ele>110.21</ele>
        <time>2010-11-21T09:02:58Z</time>
      </trkpt>
      <trkpt lat="47.34805" lon="0.03387">
        <ele>109.73</ele>
        <time>2010-11-21T09:03:05Z</time>
      </trkpt>
      <trkpt lat="47.34796" lon="0.03381">
        <ele>109.25</ele>
        <time>2010-11-21T09:03:07Z</time>
      </trkpt>
      <trkpt lat="47.34772" lon="0.03365">
        <ele>109.25</ele>
        <time>2010-11-21T09:03:13Z</time>
      </trkpt>
      <trkpt lat="47.34769" lon="0.03363">
        <ele>108.77</ele>
        <time>2010-11-21T09:03:14Z</time>
      </trkpt>
      <trkpt lat="47.34765" lon="0.0336">
        <ele>109.25</ele>
        <time>2010-11-21T09:03:15Z</time>
      </trkpt>
      <trkpt lat="47.3476" lon="0.03358">
        <ele>109.25</ele>
        <time>2010-11-21T09:03:16Z</time>
      </trkpt>
      <trkpt lat="47.34756" lon="0.03356">
        <ele>109.73</ele>
        <time>2010-11-21T09:03:17Z</time>
      </trkpt>
      <trkpt lat="47.34752" lon="0.03354">
        <ele>109.25</ele>
        <time>2010-11-21T09:03:18Z</time>
      </trkpt>
      <trkpt lat="47.34748" lon="0.03352">
        <ele>109.25</ele>
        <time>2010-11-21T09:03:19Z</time>
      </trkpt>
      <trkpt lat="47.34744" lon="0.03349">
        <ele>108.77</ele>
        <time>2010-11-21T09:03:20Z</time>
      </trkpt>
      <trkpt lat="47.34735" lon="0.03345">
        <ele>108.77</ele>
        <time>2010-11-21T09:03:22Z</time>
      </trkpt>
      <trkpt lat="47.34723" lon="0.0334">
        <ele>108.77</ele>
        <time>2010-11-21T09:03:25Z</time>
      </trkpt>
      <trkpt lat="47.34719" lon="0.03339">
        <ele>109.73</ele>
        <time>2010-11-21T09:03:26Z</time>
      </trkpt>
      <trkpt lat="47.34715" lon="0.03337">
        <ele>109.25</ele>
        <time>2010-11-21T09:03:27Z</time>
      </trkpt>
      <trkpt lat="47.34712" lon="0.03334">
        <ele>109.73</ele>
        <time>2010-11-21T09:03:28Z</time>
      </trkpt>
      <trkpt lat="47.34708" lon="0.03331">
        <ele>109.25</ele>
        <time>2010-11-21T09:03:29Z</time>
      </trkpt>
      <trkpt lat="47.34704" lon="0.03329">
        <ele>109.25</ele>
        <time>2010-11-21T09:03:30Z</time>
      </trkpt>
      <trkpt lat="47.34697" lon="0.03324">
        <ele>109.25</ele>
        <time>2010-11-21T09:03:32Z</time>
      </trkpt>
      <trkpt lat="47.34693" lon="0.03323">
        <ele>109.73</ele>
        <time>2010-11-21T09:03:33Z</time>
      </trkpt>
      <trkpt lat="47.34689" lon="0.03321">
        <ele>109.73</ele>
        <time>2010-11-21T09:03:34Z</time>
      </trkpt>
      <trkpt lat="47.3467" lon="0.03315">
        <ele>109.73</ele>
        <time>2010-11-21T09:03:40Z</time>
      </trkpt>
      <trkpt lat="47.34654" lon="0.03306">
        <ele>109.73</ele>
        <time>2010-11-21T09:03:45Z</time>
      </trkpt>
      <trkpt lat="47.34639" lon="0.03296">
        <ele>110.21</ele>
        <time>2010-11-21T09:03:50Z</time>
      </trkpt>
      <trkpt lat="47.34622" lon="0.03284">
        <ele>109.25</ele>
        <time>2010-11-21T09:03:55Z</time>
      </trkpt>
      <trkpt lat="47.34618" lon="0.03282">
        <ele>109.25</ele>
        <time>2010-11-21T09:03:56Z</time>
      </trkpt>
      <trkpt lat="47.34615" lon="0.03279">
        <ele>109.25</ele>
        <time>2010-11-21T09:03:57Z</time>
      </trkpt>
      <trkpt lat="47.34612" lon="0.03281">
        <ele>109.25</ele>
        <time>2010-11-21T09:03:58Z</time>
      </trkpt>
      <trkpt lat="47.34611" lon="0.03283">
        <ele>108.77</ele>
        <time>2010-11-21T09:03:59Z</time>
      </trkpt>
      <trkpt lat="47.3461" lon="0.03285">
        <ele>108.77</ele>
        <time>2010-11-21T09:04:00Z</time>
      </trkpt>
      <trkpt lat="47.34609" lon="0.03288">
        <ele>108.29</ele>
        <time>2010-11-21T09:04:01Z</time>
      </trkpt>
      <trkpt lat="47.34608" lon="0.03289">
        <ele>108.77</ele>
        <time>2010-11-21T09:04:02Z</time>
      </trkpt>
      <trkpt lat="47.34604" lon="0.03299">
        <ele>107.81</ele>
        <time>2010-11-21T09:04:06Z</time>
      </trkpt>
      <trkpt lat="47.34599" lon="0.0331">
        <ele>108.29</ele>
        <time>2010-11-21T09:04:10Z</time>
      </trkpt>
      <trkpt lat="47.34589" lon="0.03334">
        <ele>107.81</ele>
        <time>2010-11-21T09:04:16Z</time>
      </trkpt>
      <trkpt lat="47.34573" lon="0.03364">
        <ele>108.29</ele>
        <time>2010-11-21T09:04:23Z</time>
      </trkpt>
      <trkpt lat="47.34562" lon="0.03394">
        <ele>107.81</ele>
        <time>2010-11-21T09:04:29Z</time>
      </trkpt>
      <trkpt lat="47.34558" lon="0.03403">
        <ele>107.81</ele>
        <time>2010-11-21T09:04:31Z</time>
      </trkpt>
      <trkpt lat="47.34554" lon="0.03407">
        <ele>107.81</ele>
        <time>2010-11-21T09:04:32Z</time>
      </trkpt>
      <trkpt lat="47.34551" lon="0.03411">
        <ele>107.32</ele>
        <time>2010-11-21T09:04:33Z</time>
      </trkpt>
      <trkpt lat="47.34548" lon="0.03415">
        <ele>107.81</ele>
        <time>2010-11-21T09:04:34Z</time>
      </trkpt>
      <trkpt lat="47.34545" lon="0.03419">
        <ele>107.32</ele>
        <time>2010-11-21T09:04:35Z</time>
      </trkpt>
      <trkpt lat="47.34543" lon="0.03421">
        <ele>107.32</ele>
        <time>2010-11-21T09:04:36Z</time>
      </trkpt>
      <trkpt lat="47.34533" lon="0.03442">
        <ele>106.36</ele>
        <time>2010-11-21T09:04:40Z</time>
      </trkpt>
      <trkpt lat="47.34529" lon="0.03446">
        <ele>106.84</ele>
        <time>2010-11-21T09:04:41Z</time>
      </trkpt>
      <trkpt lat="47.34525" lon="0.0345">
        <ele>106.84</ele>
        <time>2010-11-21T09:04:42Z</time>
      </trkpt>
      <trkpt lat="47.34521" lon="0.03453">
        <ele>106.36</ele>
        <time>2010-11-21T09:04:43Z</time>
      </trkpt>
      <trkpt lat="47.34511" lon="0.03456">
        <ele>106.84</ele>
        <time>2010-11-21T09:04:45Z</time>
      </trkpt>
      <trkpt lat="47.34507" lon="0.03458">
        <ele>105.4</ele>
        <time>2010-11-21T09:04:46Z</time>
      </trkpt>
      <trkpt lat="47.34502" lon="0.0346">
        <ele>105.4</ele>
        <time>2010-11-21T09:04:47Z</time>
      </trkpt>
      <trkpt lat="47.34492" lon="0.03464">
        <ele>104.92</ele>
        <time>2010-11-21T09:04:50Z</time>
      </trkpt>
      <trkpt lat="47.3449" lon="0.03468">
        <ele>104.92</ele>
        <time>2010-11-21T09:04:51Z</time>
      </trkpt>
      <trkpt lat="47.34491" lon="0.03472">
        <ele>104.92</ele>
        <time>2010-11-21T09:04:52Z</time>
      </trkpt>
      <trkpt lat="47.34492" lon="0.03474">
        <ele>104.92</ele>
        <time>2010-11-21T09:04:53Z</time>
      </trkpt>
      <trkpt lat="47.34493" lon="0.03477">
        <ele>104.44</ele>
        <time>2010-11-21T09:04:54Z</time>
      </trkpt>
      <trkpt lat="47.345" lon="0.03488">
        <ele>106.84</ele>
        <time>2010-11-21T09:04:59Z</time>
      </trkpt>
      <trkpt lat="47.34513" lon="0.03494">
        <ele>107.32</ele>
        <time>2010-11-21T09:05:03Z</time>
      </trkpt>
      <trkpt lat="47.34526" lon="0.035">
        <ele>108.29</ele>
        <time>2010-11-21T09:05:08Z</time>
      </trkpt>
      <trkpt lat="47.34528" lon="0.03501">
        <ele>107.81</ele>
        <time>2010-11-21T09:05:09Z</time>
      </trkpt>
      <trkpt lat="47.34532" lon="0.03504">
        <ele>107.81</ele>
        <time>2010-11-21T09:05:10Z</time>
      </trkpt>
      <trkpt lat="47.34536" lon="0.03505">
        <ele>107.81</ele>
        <time>2010-11-21T09:05:11Z</time>
      </trkpt>
      <trkpt lat="47.34539" lon="0.03507">
        <ele>108.29</ele>
        <time>2010-11-21T09:05:12Z</time>
      </trkpt>
      <trkpt lat="47.34542" lon="0.0351">
        <ele>108.29</ele>
        <time>2010-11-21T09:05:13Z</time>
      </trkpt>
      <trkpt lat="47.34545" lon="0.03513">
        <ele>108.29</ele>
        <time>2010-11-21T09:05:14Z</time>
      </trkpt>
      <trkpt lat="47.34547" lon="0.03516">
        <ele>107.81</ele>
        <time>2010-11-21T09:05:15Z</time>
      </trkpt>
      <trkpt lat="47.34549" lon="0.0352">
        <ele>108.29</ele>
        <time>2010-11-21T09:05:16Z</time>
      </trkpt>
      <trkpt lat="47.34552" lon="0.03523">
        <ele>108.77</ele>
        <time>2010-11-21T09:05:17Z</time>
      </trkpt>
      <trkpt lat="47.34554" lon="0.03526">
        <ele>107.81</ele>
        <time>2010-11-21T09:05:18Z</time>
      </trkpt>
      <trkpt lat="47.34556" lon="0.0353">
        <ele>108.77</ele>
        <time>2010-11-21T09:05:19Z</time>
      </trkpt>
      <trkpt lat="47.34565" lon="0.03559">
        <ele>108.77</ele>
        <time>2010-11-21T09:05:25Z</time>
      </trkpt>
      <trkpt lat="47.34564" lon="0.03562">
        <ele>107.81</ele>
        <time>2010-11-21T09:05:26Z</time>
      </trkpt>
      <trkpt lat="47.34563" lon="0.03565">
        <ele>107.81</ele>
        <time>2010-11-21T09:05:27Z</time>
      </trkpt>
      <trkpt lat="47.34563" lon="0.0357">
        <ele>107.81</ele>
        <time>2010-11-21T09:05:28Z</time>
      </trkpt>
      <trkpt lat="47.34562" lon="0.03574">
        <ele>107.81</ele>
        <time>2010-11-21T09:05:29Z</time>
      </trkpt>
      <trkpt lat="47.34561" lon="0.03578">
        <ele>108.29</ele>
        <time>2010-11-21T09:05:30Z</time>
      </trkpt>
      <trkpt lat="47.3456" lon="0.03583">
        <ele>108.29</ele>
        <time>2010-11-21T09:05:31Z</time>
      </trkpt>
      <trkpt lat="47.34559" lon="0.03587">
        <ele>107.32</ele>
        <time>2010-11-21T09:05:32Z</time>
      </trkpt>
      <trkpt lat="47.34559" lon="0.0359">
        <ele>108.29</ele>
        <time>2010-11-21T09:05:33Z</time>
      </trkpt>
      <trkpt lat="47.34558" lon="0.03595">
        <ele>107.81</ele>
        <time>2010-11-21T09:05:34Z</time>
      </trkpt>
      <trkpt lat="47.34557" lon="0.036">
        <ele>108.29</ele>
        <time>2010-11-21T09:05:35Z</time>
      </trkpt>
      <trkpt lat="47.34547" lon="0.03625">
        <ele>107.81</ele>
        <time>2010-11-21T09:05:40Z</time>
      </trkpt>
      <trkpt lat="47.34541" lon="0.03646">
        <ele>108.29</ele>
        <time>2010-11-21T09:05:45Z</time>
      </trkpt>
      <trkpt lat="47.34539" lon="0.03661">
        <ele>107.81</ele>
        <time>2010-11-21T09:05:48Z</time>
      </trkpt>
      <trkpt lat="47.34537" lon="0.03665">
        <ele>107.81</ele>
        <time>2010-11-21T09:05:49Z</time>
      </trkpt>
      <trkpt lat="47.34529" lon="0.03684">
        <ele>107.32</ele>
        <time>2010-11-21T09:05:53Z</time>
      </trkpt>
      <trkpt lat="47.34517" lon="0.03733">
        <ele>107.32</ele>
        <time>2010-11-21T09:06:01Z</time>
      </trkpt>
      <trkpt lat="47.34516" lon="0.0377">
        <ele>106.36</ele>
        <time>2010-11-21T09:06:07Z</time>
      </trkpt>
      <trkpt lat="47.34517" lon="0.03778">
        <ele>106.84</ele>
        <time>2010-11-21T09:06:08Z</time>
      </trkpt>
      <trkpt lat="47.34518" lon="0.03783">
        <ele>106.36</ele>
        <time>2010-11-21T09:06:09Z</time>
      </trkpt>
      <trkpt lat="47.34522" lon="0.03804">
        <ele>106.84</ele>
        <time>2010-11-21T09:06:13Z</time>
      </trkpt>
      <trkpt lat="47.34534" lon="0.03844">
        <ele>105.4</ele>
        <time>2010-11-21T09:06:20Z</time>
      </trkpt>
      <trkpt lat="47.34541" lon="0.03873">
        <ele>104.92</ele>
        <time>2010-11-21T09:06:25Z</time>
      </trkpt>
      <trkpt lat="47.34541" lon="0.0389">
        <ele>104.92</ele>
        <time>2010-11-21T09:06:28Z</time>
      </trkpt>
      <trkpt lat="47.34534" lon="0.03927">
        <ele>103</ele>
        <time>2010-11-21T09:06:36Z</time>
      </trkpt>
      <trkpt lat="47.34533" lon="0.03933">
        <ele>102.52</ele>
        <time>2010-11-21T09:06:37Z</time>
      </trkpt>
      <trkpt lat="47.34533" lon="0.0394">
        <ele>102.52</ele>
        <time>2010-11-21T09:06:38Z</time>
      </trkpt>
      <trkpt lat="47.34527" lon="0.03966">
        <ele>102.04</ele>
        <time>2010-11-21T09:06:43Z</time>
      </trkpt>
      <trkpt lat="47.34524" lon="0.03974">
        <ele>101.08</ele>
        <time>2010-11-21T09:06:45Z</time>
      </trkpt>
      <trkpt lat="47.34523" lon="0.0398">
        <ele>101.08</ele>
        <time>2010-11-21T09:06:46Z</time>
      </trkpt>
      <trkpt lat="47.34513" lon="0.04013">
        <ele>100.11</ele>
        <time>2010-11-21T09:06:51Z</time>
      </trkpt>
      <trkpt lat="47.34509" lon="0.04021">
        <ele>99.15</ele>
        <time>2010-11-21T09:06:52Z</time>
      </trkpt>
      <trkpt lat="47.34504" lon="0.04027">
        <ele>99.63</ele>
        <time>2010-11-21T09:06:53Z</time>
      </trkpt>
      <trkpt lat="47.34494" lon="0.04037">
        <ele>97.71</ele>
        <time>2010-11-21T09:06:55Z</time>
      </trkpt>
      <trkpt lat="47.34488" lon="0.04041">
        <ele>97.71</ele>
        <time>2010-11-21T09:06:56Z</time>
      </trkpt>
      <trkpt lat="47.34481" lon="0.04044">
        <ele>97.71</ele>
        <time>2010-11-21T09:06:57Z</time>
      </trkpt>
      <trkpt lat="47.34474" lon="0.04046">
        <ele>96.27</ele>
        <time>2010-11-21T09:06:58Z</time>
      </trkpt>
      <trkpt lat="47.34468" lon="0.04046">
        <ele>96.27</ele>
        <time>2010-11-21T09:06:59Z</time>
      </trkpt>
      <trkpt lat="47.34462" lon="0.04046">
        <ele>95.31</ele>
        <time>2010-11-21T09:07:00Z</time>
      </trkpt>
      <trkpt lat="47.3445" lon="0.04047">
        <ele>92.42</ele>
        <time>2010-11-21T09:07:02Z</time>
      </trkpt>
      <trkpt lat="47.34444" lon="0.04046">
        <ele>92.42</ele>
        <time>2010-11-21T09:07:03Z</time>
      </trkpt>
      <trkpt lat="47.34438" lon="0.04046">
        <ele>91.94</ele>
        <time>2010-11-21T09:07:04Z</time>
      </trkpt>
      <trkpt lat="47.34433" lon="0.04046">
        <ele>90.98</ele>
        <time>2010-11-21T09:07:05Z</time>
      </trkpt>
      <trkpt lat="47.34429" lon="0.04046">
        <ele>90.02</ele>
        <time>2010-11-21T09:07:06Z</time>
      </trkpt>
      <trkpt lat="47.34426" lon="0.04046">
        <ele>89.06</ele>
        <time>2010-11-21T09:07:07Z</time>
      </trkpt>
      <trkpt lat="47.34422" lon="0.04045">
        <ele>88.58</ele>
        <time>2010-11-21T09:07:08Z</time>
      </trkpt>
      <trkpt lat="47.34401" lon="0.04044">
        <ele>84.73</ele>
        <time>2010-11-21T09:07:13Z</time>
      </trkpt>
      <trkpt lat="47.34379" lon="0.04046">
        <ele>82.33</ele>
        <time>2010-11-21T09:07:17Z</time>
      </trkpt>
      <trkpt lat="47.34361" lon="0.04045">
        <ele>78.97</ele>
        <time>2010-11-21T09:07:22Z</time>
      </trkpt>
      <trkpt lat="47.34351" lon="0.04048">
        <ele>77.52</ele>
        <time>2010-11-21T09:07:24Z</time>
      </trkpt>
      <trkpt lat="47.34345" lon="0.04051">
        <ele>78</ele>
        <time>2010-11-21T09:07:25Z</time>
      </trkpt>
      <trkpt lat="47.3434" lon="0.04055">
        <ele>77.04</ele>
        <time>2010-11-21T09:07:26Z</time>
      </trkpt>
      <trkpt lat="47.3433" lon="0.04063">
        <ele>76.08</ele>
        <time>2010-11-21T09:07:28Z</time>
      </trkpt>
      <trkpt lat="47.34325" lon="0.04066">
        <ele>75.6</ele>
        <time>2010-11-21T09:07:29Z</time>
      </trkpt>
      <trkpt lat="47.34319" lon="0.04068">
        <ele>75.12</ele>
        <time>2010-11-21T09:07:30Z</time>
      </trkpt>
      <trkpt lat="47.34312" lon="0.04071">
        <ele>74.64</ele>
        <time>2010-11-21T09:07:31Z</time>
      </trkpt>
      <trkpt lat="47.34307" lon="0.04074">
        <ele>74.64</ele>
        <time>2010-11-21T09:07:32Z</time>
      </trkpt>
      <trkpt lat="47.34298" lon="0.0408">
        <ele>73.2</ele>
        <time>2010-11-21T09:07:34Z</time>
      </trkpt>
      <trkpt lat="47.34289" lon="0.04089">
        <ele>72.24</ele>
        <time>2010-11-21T09:07:36Z</time>
      </trkpt>
      <trkpt lat="47.34284" lon="0.04094">
        <ele>71.76</ele>
        <time>2010-11-21T09:07:37Z</time>
      </trkpt>
      <trkpt lat="47.34279" lon="0.04099">
        <ele>70.31</ele>
        <time>2010-11-21T09:07:38Z</time>
      </trkpt>
      <trkpt lat="47.34274" lon="0.04104">
        <ele>70.31</ele>
        <time>2010-11-21T09:07:39Z</time>
      </trkpt>
      <trkpt lat="47.34269" lon="0.04108">
        <ele>70.79</ele>
        <time>2010-11-21T09:07:40Z</time>
      </trkpt>
      <trkpt lat="47.34264" lon="0.04112">
        <ele>69.83</ele>
        <time>2010-11-21T09:07:41Z</time>
      </trkpt>
      <trkpt lat="47.34249" lon="0.0413">
        <ele>67.43</ele>
        <time>2010-11-21T09:07:44Z</time>
      </trkpt>
      <trkpt lat="47.34244" lon="0.04135">
        <ele>66.95</ele>
        <time>2010-11-21T09:07:45Z</time>
      </trkpt>
      <trkpt lat="47.34238" lon="0.04141">
        <ele>66.47</ele>
        <time>2010-11-21T09:07:46Z</time>
      </trkpt>
      <trkpt lat="47.34232" lon="0.04147">
        <ele>65.99</ele>
        <time>2010-11-21T09:07:47Z</time>
      </trkpt>
      <trkpt lat="47.34225" lon="0.04149">
        <ele>65.51</ele>
        <time>2010-11-21T09:07:48Z</time>
      </trkpt>
      <trkpt lat="47.34219" lon="0.0415">
        <ele>65.03</ele>
        <time>2010-11-21T09:07:49Z</time>
      </trkpt>
      <trkpt lat="47.34212" lon="0.04149">
        <ele>64.07</ele>
        <time>2010-11-21T09:07:50Z</time>
      </trkpt>
      <trkpt lat="47.34205" lon="0.04147">
        <ele>64.07</ele>
        <time>2010-11-21T09:07:51Z</time>
      </trkpt>
      <trkpt lat="47.342" lon="0.04146">
        <ele>63.1</ele>
        <time>2010-11-21T09:07:52Z</time>
      </trkpt>
      <trkpt lat="47.34195" lon="0.04144">
        <ele>63.1</ele>
        <time>2010-11-21T09:07:53Z</time>
      </trkpt>
      <trkpt lat="47.34191" lon="0.0414">
        <ele>62.62</ele>
        <time>2010-11-21T09:07:54Z</time>
      </trkpt>
      <trkpt lat="47.34181" lon="0.04132">
        <ele>61.66</ele>
        <time>2010-11-21T09:07:56Z</time>
      </trkpt>
      <trkpt lat="47.34175" lon="0.04129">
        <ele>60.7</ele>
        <time>2010-11-21T09:07:57Z</time>
      </trkpt>
      <trkpt lat="47.3417" lon="0.04125">
        <ele>60.7</ele>
        <time>2010-11-21T09:07:58Z</time>
      </trkpt>
      <trkpt lat="47.34151" lon="0.04113">
        <ele>59.74</ele>
        <time>2010-11-21T09:08:01Z</time>
      </trkpt>
      <trkpt lat="47.34145" lon="0.04111">
        <ele>59.26</ele>
        <time>2010-11-21T09:08:02Z</time>
      </trkpt>
      <trkpt lat="47.34126" lon="0.04101">
        <ele>58.3</ele>
        <time>2010-11-21T09:08:06Z</time>
      </trkpt>
      <trkpt lat="47.34123" lon="0.04098">
        <ele>57.34</ele>
        <time>2010-11-21T09:08:07Z</time>
      </trkpt>
      <trkpt lat="47.3412" lon="0.04093">
        <ele>57.34</ele>
        <time>2010-11-21T09:08:08Z</time>
      </trkpt>
      <trkpt lat="47.34116" lon="0.04089">
        <ele>56.86</ele>
        <time>2010-11-21T09:08:09Z</time>
      </trkpt>
      <trkpt lat="47.34113" lon="0.04085">
        <ele>56.86</ele>
        <time>2010-11-21T09:08:10Z</time>
      </trkpt>
      <trkpt lat="47.34098" lon="0.04064">
        <ele>56.37</ele>
        <time>2010-11-21T09:08:14Z</time>
      </trkpt>
      <trkpt lat="47.34088" lon="0.04054">
        <ele>55.41</ele>
        <time>2010-11-21T09:08:16Z</time>
      </trkpt>
      <trkpt lat="47.34058" lon="0.04032">
        <ele>53.97</ele>
        <time>2010-11-21T09:08:21Z</time>
      </trkpt>
      <trkpt lat="47.34022" lon="0.04002">
        <ele>52.05</ele>
        <time>2010-11-21T09:08:27Z</time>
      </trkpt>
      <trkpt lat="47.33996" lon="0.03963">
        <ele>50.13</ele>
        <time>2010-11-21T09:08:32Z</time>
      </trkpt>
      <trkpt lat="47.33976" lon="0.03923">
        <ele>49.65</ele>
        <time>2010-11-21T09:08:37Z</time>
      </trkpt>
      <trkpt lat="47.33972" lon="0.03916">
        <ele>49.16</ele>
        <time>2010-11-21T09:08:38Z</time>
      </trkpt>
      <trkpt lat="47.33969" lon="0.03908">
        <ele>49.16</ele>
        <time>2010-11-21T09:08:39Z</time>
      </trkpt>
      <trkpt lat="47.33944" lon="0.03846">
        <ele>48.68</ele>
        <time>2010-11-21T09:08:47Z</time>
      </trkpt>
      <trkpt lat="47.33929" lon="0.03817">
        <ele>47.72</ele>
        <time>2010-11-21T09:08:53Z</time>
      </trkpt>
      <trkpt lat="47.33925" lon="0.03812">
        <ele>48.68</ele>
        <time>2010-11-21T09:08:56Z</time>
      </trkpt>
      <trkpt lat="47.33924" lon="0.03809">
        <ele>48.68</ele>
        <time>2010-11-21T09:08:57Z</time>
      </trkpt>
      <trkpt lat="47.33924" lon="0.03806">
        <ele>48.2</ele>
        <time>2010-11-21T09:08:58Z</time>
      </trkpt>
      <trkpt lat="47.33923" lon="0.03802">
        <ele>48.2</ele>
        <time>2010-11-21T09:08:59Z</time>
      </trkpt>
      <trkpt lat="47.33923" lon="0.03798">
        <ele>48.68</ele>
        <time>2010-11-21T09:09:00Z</time>
      </trkpt>
      <trkpt lat="47.33912" lon="0.03761">
        <ele>48.2</ele>
        <time>2010-11-21T09:09:08Z</time>
      </trkpt>
      <trkpt lat="47.33896" lon="0.03721">
        <ele>48.2</ele>
        <time>2010-11-21T09:09:16Z</time>
      </trkpt>
      <trkpt lat="47.33881" lon="0.03683">
        <ele>49.16</ele>
        <time>2010-11-21T09:09:23Z</time>
      </trkpt>
      <trkpt lat="47.33876" lon="0.03671">
        <ele>49.65</ele>
        <time>2010-11-21T09:09:25Z</time>
      </trkpt>
      <trkpt lat="47.33851" lon="0.03626">
        <ele>49.65</ele>
        <time>2010-11-21T09:09:33Z</time>
      </trkpt>
      <trkpt lat="47.33819" lon="0.03573">
        <ele>48.68</ele>
        <time>2010-11-21T09:09:43Z</time>
      </trkpt>
      <trkpt lat="47.33803" lon="0.03546">
        <ele>48.2</ele>
        <time>2010-11-21T09:09:48Z</time>
      </trkpt>
      <trkpt lat="47.33787" lon="0.0353">
        <ele>48.2</ele>
        <time>2010-11-21T09:09:54Z</time>
      </trkpt>
      <trkpt lat="47.33784" lon="0.03531">
        <ele>47.72</ele>
        <time>2010-11-21T09:09:55Z</time>
      </trkpt>
      <trkpt lat="47.33782" lon="0.03535">
        <ele>47.24</ele>
        <time>2010-11-21T09:09:56Z</time>
      </trkpt>
      <trkpt lat="47.33757" lon="0.03564">
        <ele>46.28</ele>
        <time>2010-11-21T09:10:04Z</time>
      </trkpt>
      <trkpt lat="47.33728" lon="0.03601">
        <ele>45.32</ele>
        <time>2010-11-21T09:10:12Z</time>
      </trkpt>
      <trkpt lat="47.33697" lon="0.0364">
        <ele>45.32</ele>
        <time>2010-11-21T09:10:20Z</time>
      </trkpt>
      <trkpt lat="47.33686" lon="0.03653">
        <ele>45.8</ele>
        <time>2010-11-21T09:10:23Z</time>
      </trkpt>
      <trkpt lat="47.33664" lon="0.03681">
        <ele>48.68</ele>
        <time>2010-11-21T09:10:31Z</time>
      </trkpt>
      <trkpt lat="47.33649" lon="0.03701">
        <ele>50.13</ele>
        <time>2010-11-21T09:10:38Z</time>
      </trkpt>
      <trkpt lat="47.33641" lon="0.03711">
        <ele>51.09</ele>
        <time>2010-11-21T09:10:42Z</time>
      </trkpt>
      <trkpt lat="47.33622" lon="0.03734">
        <ele>53.01</ele>
        <time>2010-11-21T09:10:51Z</time>
      </trkpt>
      <trkpt lat="47.33605" lon="0.03755">
        <ele>54.93</ele>
        <time>2010-11-21T09:10:59Z</time>
      </trkpt>
      <trkpt lat="47.33588" lon="0.03771">
        <ele>56.37</ele>
        <time>2010-11-21T09:11:07Z</time>
      </trkpt>
      <trkpt lat="47.3358" lon="0.03771">
        <ele>55.89</ele>
        <time>2010-11-21T09:11:10Z</time>
      </trkpt>
      <trkpt lat="47.33578" lon="0.03768">
        <ele>56.86</ele>
        <time>2010-11-21T09:11:11Z</time>
      </trkpt>
      <trkpt lat="47.33577" lon="0.03765">
        <ele>56.37</ele>
        <time>2010-11-21T09:11:12Z</time>
      </trkpt>
      <trkpt lat="47.33577" lon="0.0376">
        <ele>56.86</ele>
        <time>2010-11-21T09:11:13Z</time>
      </trkpt>
      <trkpt lat="47.33576" lon="0.03756">
        <ele>56.37</ele>
        <time>2010-11-21T09:11:14Z</time>
      </trkpt>
      <trkpt lat="47.33576" lon="0.03751">
        <ele>56.37</ele>
        <time>2010-11-21T09:11:15Z</time>
      </trkpt>
      <trkpt lat="47.33576" lon="0.03721">
        <ele>54.93</ele>
        <time>2010-11-21T09:11:20Z</time>
      </trkpt>
      <trkpt lat="47.33576" lon="0.03708">
        <ele>54.45</ele>
        <time>2010-11-21T09:11:22Z</time>
      </trkpt>
      <trkpt lat="47.33576" lon="0.03701">
        <ele>54.93</ele>
        <time>2010-11-21T09:11:23Z</time>
      </trkpt>
      <trkpt lat="47.33574" lon="0.03674">
        <ele>54.93</ele>
        <time>2010-11-21T09:11:27Z</time>
      </trkpt>
      <trkpt lat="47.33572" lon="0.03668">
        <ele>53.49</ele>
        <time>2010-11-21T09:11:28Z</time>
      </trkpt>
      <trkpt lat="47.33571" lon="0.03662">
        <ele>53.97</ele>
        <time>2010-11-21T09:11:29Z</time>
      </trkpt>
      <trkpt lat="47.33561" lon="0.03635">
        <ele>53.01</ele>
        <time>2010-11-21T09:11:34Z</time>
      </trkpt>
      <trkpt lat="47.33555" lon="0.03618">
        <ele>53.97</ele>
        <time>2010-11-21T09:11:37Z</time>
      </trkpt>
      <trkpt lat="47.33531" lon="0.03568">
        <ele>53.01</ele>
        <time>2010-11-21T09:11:46Z</time>
      </trkpt>
      <trkpt lat="47.33498" lon="0.03516">
        <ele>53.01</ele>
        <time>2010-11-21T09:11:56Z</time>
      </trkpt>
      <trkpt lat="47.33492" lon="0.03505">
        <ele>53.01</ele>
        <time>2010-11-21T09:11:58Z</time>
      </trkpt>
      <trkpt lat="47.33488" lon="0.035">
        <ele>53.01</ele>
        <time>2010-11-21T09:11:59Z</time>
      </trkpt>
      <trkpt lat="47.33467" lon="0.03465">
        <ele>52.05</ele>
        <time>2010-11-21T09:12:05Z</time>
      </trkpt>
      <trkpt lat="47.33464" lon="0.0346">
        <ele>52.05</ele>
        <time>2010-11-21T09:12:06Z</time>
      </trkpt>
      <trkpt lat="47.33453" lon="0.03447">
        <ele>52.05</ele>
        <time>2010-11-21T09:12:09Z</time>
      </trkpt>
      <trkpt lat="47.33432" lon="0.0341">
        <ele>51.57</ele>
        <time>2010-11-21T09:12:15Z</time>
      </trkpt>
      <trkpt lat="47.33407" lon="0.03362">
        <ele>50.61</ele>
        <time>2010-11-21T09:12:23Z</time>
      </trkpt>
      <trkpt lat="47.33375" lon="0.03312">
        <ele>50.13</ele>
        <time>2010-11-21T09:12:32Z</time>
      </trkpt>
      <trkpt lat="47.33347" lon="0.03266">
        <ele>50.13</ele>
        <time>2010-11-21T09:12:40Z</time>
      </trkpt>
      <trkpt lat="47.33312" lon="0.03212">
        <ele>49.65</ele>
        <time>2010-11-21T09:12:50Z</time>
      </trkpt>
      <trkpt lat="47.33303" lon="0.032">
        <ele>50.13</ele>
        <time>2010-11-21T09:12:53Z</time>
      </trkpt>
      <trkpt lat="47.333" lon="0.03199">
        <ele>50.61</ele>
        <time>2010-11-21T09:12:54Z</time>
      </trkpt>
      <trkpt lat="47.33297" lon="0.032">
        <ele>50.61</ele>
        <time>2010-11-21T09:12:55Z</time>
      </trkpt>
      <trkpt lat="47.33295" lon="0.03202">
        <ele>50.13</ele>
        <time>2010-11-21T09:12:56Z</time>
      </trkpt>
      <trkpt lat="47.33292" lon="0.03204">
        <ele>50.13</ele>
        <time>2010-11-21T09:12:57Z</time>
      </trkpt>
      <trkpt lat="47.3329" lon="0.03208">
        <ele>51.09</ele>
        <time>2010-11-21T09:12:58Z</time>
      </trkpt>
      <trkpt lat="47.33288" lon="0.03211">
        <ele>50.61</ele>
        <time>2010-11-21T09:12:59Z</time>
      </trkpt>
      <trkpt lat="47.33285" lon="0.03215">
        <ele>50.61</ele>
        <time>2010-11-21T09:13:00Z</time>
      </trkpt>
      <trkpt lat="47.33265" lon="0.03242">
        <ele>51.09</ele>
        <time>2010-11-21T09:13:07Z</time>
      </trkpt>
      <trkpt lat="47.33245" lon="0.0327">
        <ele>51.57</ele>
        <time>2010-11-21T09:13:14Z</time>
      </trkpt>
      <trkpt lat="47.33221" lon="0.03307">
        <ele>52.05</ele>
        <time>2010-11-21T09:13:22Z</time>
      </trkpt>
      <trkpt lat="47.33198" lon="0.03342">
        <ele>52.05</ele>
        <time>2010-11-21T09:13:30Z</time>
      </trkpt>
      <trkpt lat="47.33195" lon="0.03346">
        <ele>52.53</ele>
        <time>2010-11-21T09:13:31Z</time>
      </trkpt>
      <trkpt lat="47.33192" lon="0.0335">
        <ele>52.53</ele>
        <time>2010-11-21T09:13:32Z</time>
      </trkpt>
      <trkpt lat="47.33164" lon="0.03393">
        <ele>52.53</ele>
        <time>2010-11-21T09:13:42Z</time>
      </trkpt>
      <trkpt lat="47.33143" lon="0.03428">
        <ele>53.49</ele>
        <time>2010-11-21T09:13:50Z</time>
      </trkpt>
      <trkpt lat="47.33122" lon="0.03465">
        <ele>54.45</ele>
        <time>2010-11-21T09:13:59Z</time>
      </trkpt>
      <trkpt lat="47.33107" lon="0.03497">
        <ele>55.89</ele>
        <time>2010-11-21T09:14:07Z</time>
      </trkpt>
      <trkpt lat="47.33091" lon="0.03537">
        <ele>57.34</ele>
        <time>2010-11-21T09:14:18Z</time>
      </trkpt>
      <trkpt lat="47.33083" lon="0.03553">
        <ele>58.78</ele>
        <time>2010-11-21T09:14:24Z</time>
      </trkpt>
      <trkpt lat="47.33078" lon="0.03562">
        <ele>59.26</ele>
        <time>2010-11-21T09:14:30Z</time>
      </trkpt>
      <trkpt lat="47.33078" lon="0.03563">
        <ele>59.74</ele>
        <time>2010-11-21T09:14:31Z</time>
      </trkpt>
      <trkpt lat="47.33078" lon="0.03565">
        <ele>59.26</ele>
        <time>2010-11-21T09:14:32Z</time>
      </trkpt>
      <trkpt lat="47.33078" lon="0.03568">
        <ele>59.74</ele>
        <time>2010-11-21T09:14:33Z</time>
      </trkpt>
      <trkpt lat="47.33078" lon="0.03576">
        <ele>59.74</ele>
        <time>2010-11-21T09:14:38Z</time>
      </trkpt>
      <trkpt lat="47.33077" lon="0.03578">
        <ele>59.74</ele>
        <time>2010-11-21T09:14:39Z</time>
      </trkpt>
      <trkpt lat="47.33077" lon="0.0358">
        <ele>60.7</ele>
        <time>2010-11-21T09:14:40Z</time>
      </trkpt>
      <trkpt lat="47.33075" lon="0.03591">
        <ele>61.18</ele>
        <time>2010-11-21T09:14:45Z</time>
      </trkpt>
      <trkpt lat="47.33075" lon="0.03594">
        <ele>61.66</ele>
        <time>2010-11-21T09:14:46Z</time>
      </trkpt>
      <trkpt lat="47.33072" lon="0.03603">
        <ele>62.62</ele>
        <time>2010-11-21T09:14:53Z</time>
      </trkpt>
      <trkpt lat="47.33072" lon="0.03607">
        <ele>63.1</ele>
        <time>2010-11-21T09:14:55Z</time>
      </trkpt>
      <trkpt lat="47.3307" lon="0.03618">
        <ele>64.55</ele>
        <time>2010-11-21T09:15:02Z</time>
      </trkpt>
      <trkpt lat="47.33069" lon="0.03627">
        <ele>66.47</ele>
        <time>2010-11-21T09:15:09Z</time>
      </trkpt>
      <trkpt lat="47.33067" lon="0.03634">
        <ele>66.47</ele>
        <time>2010-11-21T09:15:13Z</time>
      </trkpt>
      <trkpt lat="47.33067" lon="0.03641">
        <ele>66.95</ele>
        <time>2010-11-21T09:15:17Z</time>
      </trkpt>
      <trkpt lat="47.33066" lon="0.03648">
        <ele>68.39</ele>
        <time>2010-11-21T09:15:21Z</time>
      </trkpt>
      <trkpt lat="47.33065" lon="0.03654">
        <ele>68.87</ele>
        <time>2010-11-21T09:15:25Z</time>
      </trkpt>
      <trkpt lat="47.33062" lon="0.03666">
        <ele>70.79</ele>
        <time>2010-11-21T09:15:32Z</time>
      </trkpt>
      <trkpt lat="47.3306" lon="0.03674">
        <ele>72.24</ele>
        <time>2010-11-21T09:15:38Z</time>
      </trkpt>
      <trkpt lat="47.33058" lon="0.03685">
        <ele>73.2</ele>
        <time>2010-11-21T09:15:45Z</time>
      </trkpt>
      <trkpt lat="47.33058" lon="0.03688">
        <ele>74.16</ele>
        <time>2010-11-21T09:15:47Z</time>
      </trkpt>
      <trkpt lat="47.33056" lon="0.03701">
        <ele>74.64</ele>
        <time>2010-11-21T09:15:54Z</time>
      </trkpt>
      <trkpt lat="47.33056" lon="0.03702">
        <ele>75.12</ele>
        <time>2010-11-21T09:15:55Z</time>
      </trkpt>
      <trkpt lat="47.33055" lon="0.03704">
        <ele>76.08</ele>
        <time>2010-11-21T09:15:56Z</time>
      </trkpt>
      <trkpt lat="47.33054" lon="0.03705">
        <ele>75.6</ele>
        <time>2010-11-21T09:15:57Z</time>
      </trkpt>
      <trkpt lat="47.33053" lon="0.03713">
        <ele>76.08</ele>
        <time>2010-11-21T09:16:03Z</time>
      </trkpt>
      <trkpt lat="47.33051" lon="0.03725">
        <ele>77.52</ele>
        <time>2010-11-21T09:16:10Z</time>
      </trkpt>
      <trkpt lat="47.33052" lon="0.03732">
        <ele>78.97</ele>
        <time>2010-11-21T09:16:15Z</time>
      </trkpt>
      <trkpt lat="47.33051" lon="0.03738">
        <ele>79.45</ele>
        <time>2010-11-21T09:16:20Z</time>
      </trkpt>
      <trkpt lat="47.33052" lon="0.03742">
        <ele>80.41</ele>
        <time>2010-11-21T09:16:23Z</time>
      </trkpt>
      <trkpt lat="47.33052" lon="0.03744">
        <ele>79.93</ele>
        <time>2010-11-21T09:16:24Z</time>
      </trkpt>
      <trkpt lat="47.33049" lon="0.03755">
        <ele>81.37</ele>
        <time>2010-11-21T09:16:31Z</time>
      </trkpt>
      <trkpt lat="47.33048" lon="0.03766">
        <ele>82.33</ele>
        <time>2010-11-21T09:16:37Z</time>
      </trkpt>
      <trkpt lat="47.33048" lon="0.03768">
        <ele>82.81</ele>
        <time>2010-11-21T09:16:38Z</time>
      </trkpt>
      <trkpt lat="47.33046" lon="0.03775">
        <ele>83.29</ele>
        <time>2010-11-21T09:16:43Z</time>
      </trkpt>
      <trkpt lat="47.33045" lon="0.03786">
        <ele>83.77</ele>
        <time>2010-11-21T09:16:48Z</time>
      </trkpt>
      <trkpt lat="47.33044" lon="0.0379">
        <ele>84.25</ele>
        <time>2010-11-21T09:16:50Z</time>
      </trkpt>
      <trkpt lat="47.33043" lon="0.03792">
        <ele>83.77</ele>
        <time>2010-11-21T09:16:51Z</time>
      </trkpt>
      <trkpt lat="47.33038" lon="0.03802">
        <ele>85.21</ele>
        <time>2010-11-21T09:16:57Z</time>
      </trkpt>
      <trkpt lat="47.33021" lon="0.03799">
        <ele>85.69</ele>
        <time>2010-11-21T09:17:04Z</time>
      </trkpt>
      <trkpt lat="47.33012" lon="0.03797">
        <ele>85.69</ele>
        <time>2010-11-21T09:17:11Z</time>
      </trkpt>
      <trkpt lat="47.33011" lon="0.03797">
        <ele>85.69</ele>
        <time>2010-11-21T09:17:26Z</time>
      </trkpt>
      <trkpt lat="47.3301" lon="0.03797">
        <ele>86.18</ele>
        <time>2010-11-21T09:18:09Z</time>
      </trkpt>
      <trkpt lat="47.3301" lon="0.03796">
        <ele>85.69</ele>
        <time>2010-11-21T09:18:44Z</time>
      </trkpt>
      <trkpt lat="47.33003" lon="0.03792">
        <ele>85.21</ele>
        <time>2010-11-21T09:18:52Z</time>
      </trkpt>
      <trkpt lat="47.32984" lon="0.03784">
        <ele>84.73</ele>
        <time>2010-11-21T09:18:58Z</time>
      </trkpt>
      <trkpt lat="47.32971" lon="0.03778">
        <ele>83.77</ele>
        <time>2010-11-21T09:19:01Z</time>
      </trkpt>
      <trkpt lat="47.32966" lon="0.03778">
        <ele>83.77</ele>
        <time>2010-11-21T09:19:02Z</time>
      </trkpt>
      <trkpt lat="47.3296" lon="0.0378">
        <ele>82.81</ele>
        <time>2010-11-21T09:19:03Z</time>
      </trkpt>
      <trkpt lat="47.32955" lon="0.03781">
        <ele>81.85</ele>
        <time>2010-11-21T09:19:04Z</time>
      </trkpt>
      <trkpt lat="47.3295" lon="0.03781">
        <ele>81.85</ele>
        <time>2010-11-21T09:19:05Z</time>
      </trkpt>
      <trkpt lat="47.32944" lon="0.03779">
        <ele>81.37</ele>
        <time>2010-11-21T09:19:06Z</time>
      </trkpt>
      <trkpt lat="47.32939" lon="0.03777">
        <ele>80.89</ele>
        <time>2010-11-21T09:19:07Z</time>
      </trkpt>
      <trkpt lat="47.32932" lon="0.03776">
        <ele>79.45</ele>
        <time>2010-11-21T09:19:08Z</time>
      </trkpt>
      <trkpt lat="47.32912" lon="0.03771">
        <ele>78</ele>
        <time>2010-11-21T09:19:11Z</time>
      </trkpt>
      <trkpt lat="47.32905" lon="0.03768">
        <ele>77.52</ele>
        <time>2010-11-21T09:19:12Z</time>
      </trkpt>
      <trkpt lat="47.32898" lon="0.03765">
        <ele>77.04</ele>
        <time>2010-11-21T09:19:13Z</time>
      </trkpt>
      <trkpt lat="47.3289" lon="0.03762">
        <ele>76.08</ele>
        <time>2010-11-21T09:19:14Z</time>
      </trkpt>
      <trkpt lat="47.32874" lon="0.03756">
        <ele>74.16</ele>
        <time>2010-11-21T09:19:16Z</time>
      </trkpt>
      <trkpt lat="47.32853" lon="0.03745">
        <ele>71.27</ele>
        <time>2010-11-21T09:19:20Z</time>
      </trkpt>
      <trkpt lat="47.32851" lon="0.03745">
        <ele>71.27</ele>
        <time>2010-11-21T09:19:21Z</time>
      </trkpt>
      <trkpt lat="47.32841" lon="0.03745">
        <ele>70.31</ele>
        <time>2010-11-21T09:19:24Z</time>
      </trkpt>
      <trkpt lat="47.32837" lon="0.03744">
        <ele>68.87</ele>
        <time>2010-11-21T09:19:25Z</time>
      </trkpt>
      <trkpt lat="47.32833" lon="0.03743">
        <ele>68.87</ele>
        <time>2010-11-21T09:19:26Z</time>
      </trkpt>
      <trkpt lat="47.32827" lon="0.03744">
        <ele>69.35</ele>
        <time>2010-11-21T09:19:28Z</time>
      </trkpt>
      <trkpt lat="47.32825" lon="0.03747">
        <ele>70.31</ele>
        <time>2010-11-21T09:19:29Z</time>
      </trkpt>
      <trkpt lat="47.32823" lon="0.03751">
        <ele>69.35</ele>
        <time>2010-11-21T09:19:30Z</time>
      </trkpt>
      <trkpt lat="47.32821" lon="0.03753">
        <ele>69.35</ele>
        <time>2010-11-21T09:19:31Z</time>
      </trkpt>
      <trkpt lat="47.3282" lon="0.03756">
        <ele>69.83</ele>
        <time>2010-11-21T09:19:32Z</time>
      </trkpt>
      <trkpt lat="47.32819" lon="0.03759">
        <ele>69.83</ele>
        <time>2010-11-21T09:19:33Z</time>
      </trkpt>
      <trkpt lat="47.32817" lon="0.03762">
        <ele>69.35</ele>
        <time>2010-11-21T09:19:34Z</time>
      </trkpt>
      <trkpt lat="47.32816" lon="0.03765">
        <ele>69.83</ele>
        <time>2010-11-21T09:19:35Z</time>
      </trkpt>
      <trkpt lat="47.32814" lon="0.03768">
        <ele>69.83</ele>
        <time>2010-11-21T09:19:36Z</time>
      </trkpt>
      <trkpt lat="47.32813" lon="0.03772">
        <ele>69.83</ele>
        <time>2010-11-21T09:19:37Z</time>
      </trkpt>
      <trkpt lat="47.32811" lon="0.03776">
        <ele>69.83</ele>
        <time>2010-11-21T09:19:38Z</time>
      </trkpt>
      <trkpt lat="47.32796" lon="0.03802">
        <ele>71.27</ele>
        <time>2010-11-21T09:19:45Z</time>
      </trkpt>
      <trkpt lat="47.32783" lon="0.03824">
        <ele>72.72</ele>
        <time>2010-11-21T09:19:51Z</time>
      </trkpt>
      <trkpt lat="47.32778" lon="0.03829">
        <ele>72.24</ele>
        <time>2010-11-21T09:19:53Z</time>
      </trkpt>
      <trkpt lat="47.32776" lon="0.03833">
        <ele>72.72</ele>
        <time>2010-11-21T09:19:54Z</time>
      </trkpt>
      <trkpt lat="47.32754" lon="0.03858">
        <ele>74.16</ele>
        <time>2010-11-21T09:20:02Z</time>
      </trkpt>
      <trkpt lat="47.32733" lon="0.03883">
        <ele>74.16</ele>
        <time>2010-11-21T09:20:09Z</time>
      </trkpt>
      <trkpt lat="47.32722" lon="0.03892">
        <ele>73.68</ele>
        <time>2010-11-21T09:20:12Z</time>
      </trkpt>
      <trkpt lat="47.32718" lon="0.03894">
        <ele>73.68</ele>
        <time>2010-11-21T09:20:13Z</time>
      </trkpt>
      <trkpt lat="47.32713" lon="0.03895">
        <ele>73.2</ele>
        <time>2010-11-21T09:20:14Z</time>
      </trkpt>
      <trkpt lat="47.32709" lon="0.03894">
        <ele>73.2</ele>
        <time>2010-11-21T09:20:15Z</time>
      </trkpt>
      <trkpt lat="47.32704" lon="0.03893">
        <ele>73.2</ele>
        <time>2010-11-21T09:20:16Z</time>
      </trkpt>
      <trkpt lat="47.327" lon="0.03891">
        <ele>72.72</ele>
        <time>2010-11-21T09:20:17Z</time>
      </trkpt>
      <trkpt lat="47.3269" lon="0.03886">
        <ele>71.76</ele>
        <time>2010-11-21T09:20:19Z</time>
      </trkpt>
      <trkpt lat="47.3267" lon="0.03874">
        <ele>70.79</ele>
        <time>2010-11-21T09:20:23Z</time>
      </trkpt>
      <trkpt lat="47.32636" lon="0.03855">
        <ele>68.39</ele>
        <time>2010-11-21T09:20:29Z</time>
      </trkpt>
      <trkpt lat="47.32599" lon="0.03828">
        <ele>66.95</ele>
        <time>2010-11-21T09:20:36Z</time>
      </trkpt>
      <trkpt lat="47.32582" lon="0.03816">
        <ele>65.03</ele>
        <time>2010-11-21T09:20:39Z</time>
      </trkpt>
      <trkpt lat="47.32546" lon="0.03786">
        <ele>63.58</ele>
        <time>2010-11-21T09:20:45Z</time>
      </trkpt>
      <trkpt lat="47.32535" lon="0.03776">
        <ele>63.58</ele>
        <time>2010-11-21T09:20:47Z</time>
      </trkpt>
      <trkpt lat="47.32529" lon="0.03773">
        <ele>62.62</ele>
        <time>2010-11-21T09:20:48Z</time>
      </trkpt>
      <trkpt lat="47.32523" lon="0.03768">
        <ele>63.1</ele>
        <time>2010-11-21T09:20:49Z</time>
      </trkpt>
      <trkpt lat="47.32508" lon="0.03756">
        <ele>62.14</ele>
        <time>2010-11-21T09:20:52Z</time>
      </trkpt>
      <trkpt lat="47.32503" lon="0.03754">
        <ele>62.14</ele>
        <time>2010-11-21T09:20:53Z</time>
      </trkpt>
      <trkpt lat="47.325" lon="0.03757">
        <ele>62.14</ele>
        <time>2010-11-21T09:20:54Z</time>
      </trkpt>
      <trkpt lat="47.32497" lon="0.03761">
        <ele>61.66</ele>
        <time>2010-11-21T09:20:55Z</time>
      </trkpt>
      <trkpt lat="47.32495" lon="0.03765">
        <ele>61.66</ele>
        <time>2010-11-21T09:20:56Z</time>
      </trkpt>
      <trkpt lat="47.32494" lon="0.03768">
        <ele>62.62</ele>
        <time>2010-11-21T09:20:57Z</time>
      </trkpt>
      <trkpt lat="47.32493" lon="0.0377">
        <ele>62.62</ele>
        <time>2010-11-21T09:20:58Z</time>
      </trkpt>
      <trkpt lat="47.32492" lon="0.03774">
        <ele>63.1</ele>
        <time>2010-11-21T09:20:59Z</time>
      </trkpt>
      <trkpt lat="47.32491" lon="0.03779">
        <ele>63.1</ele>
        <time>2010-11-21T09:21:00Z</time>
      </trkpt>
      <trkpt lat="47.3249" lon="0.03785">
        <ele>62.62</ele>
        <time>2010-11-21T09:21:01Z</time>
      </trkpt>
      <trkpt lat="47.3249" lon="0.03791">
        <ele>62.62</ele>
        <time>2010-11-21T09:21:02Z</time>
      </trkpt>
      <trkpt lat="47.32489" lon="0.03797">
        <ele>63.1</ele>
        <time>2010-11-21T09:21:03Z</time>
      </trkpt>
      <trkpt lat="47.32488" lon="0.03811">
        <ele>64.07</ele>
        <time>2010-11-21T09:21:06Z</time>
      </trkpt>
      <trkpt lat="47.32487" lon="0.03815">
        <ele>63.58</ele>
        <time>2010-11-21T09:21:07Z</time>
      </trkpt>
      <trkpt lat="47.32487" lon="0.0382">
        <ele>63.58</ele>
        <time>2010-11-21T09:21:08Z</time>
      </trkpt>
      <trkpt lat="47.32487" lon="0.03824">
        <ele>63.58</ele>
        <time>2010-11-21T09:21:09Z</time>
      </trkpt>
      <trkpt lat="47.32486" lon="0.03827">
        <ele>64.07</ele>
        <time>2010-11-21T09:21:10Z</time>
      </trkpt>
      <trkpt lat="47.32484" lon="0.03846">
        <ele>65.51</ele>
        <time>2010-11-21T09:21:15Z</time>
      </trkpt>
      <trkpt lat="47.32483" lon="0.0385">
        <ele>65.51</ele>
        <time>2010-11-21T09:21:16Z</time>
      </trkpt>
      <trkpt lat="47.32482" lon="0.03854">
        <ele>65.51</ele>
        <time>2010-11-21T09:21:17Z</time>
      </trkpt>
      <trkpt lat="47.32483" lon="0.03859">
        <ele>65.51</ele>
        <time>2010-11-21T09:21:18Z</time>
      </trkpt>
      <trkpt lat="47.32484" lon="0.03863">
        <ele>65.99</ele>
        <time>2010-11-21T09:21:19Z</time>
      </trkpt>
      <trkpt lat="47.32484" lon="0.03867">
        <ele>65.99</ele>
        <time>2010-11-21T09:21:20Z</time>
      </trkpt>
      <trkpt lat="47.32484" lon="0.03871">
        <ele>65.99</ele>
        <time>2010-11-21T09:21:21Z</time>
      </trkpt>
      <trkpt lat="47.32484" lon="0.03875">
        <ele>66.47</ele>
        <time>2010-11-21T09:21:22Z</time>
      </trkpt>
      <trkpt lat="47.32483" lon="0.03884">
        <ele>66.95</ele>
        <time>2010-11-21T09:21:24Z</time>
      </trkpt>
      <trkpt lat="47.32482" lon="0.03888">
        <ele>66.95</ele>
        <time>2010-11-21T09:21:25Z</time>
      </trkpt>
      <trkpt lat="47.32481" lon="0.03892">
        <ele>66.95</ele>
        <time>2010-11-21T09:21:26Z</time>
      </trkpt>
      <trkpt lat="47.3248" lon="0.03897">
        <ele>67.43</ele>
        <time>2010-11-21T09:21:27Z</time>
      </trkpt>
      <trkpt lat="47.3248" lon="0.03902">
        <ele>67.43</ele>
        <time>2010-11-21T09:21:28Z</time>
      </trkpt>
      <trkpt lat="47.32479" lon="0.03907">
        <ele>67.43</ele>
        <time>2010-11-21T09:21:29Z</time>
      </trkpt>
      <trkpt lat="47.3248" lon="0.03912">
        <ele>67.91</ele>
        <time>2010-11-21T09:21:30Z</time>
      </trkpt>
      <trkpt lat="47.3248" lon="0.03918">
        <ele>67.43</ele>
        <time>2010-11-21T09:21:31Z</time>
      </trkpt>
      <trkpt lat="47.32479" lon="0.03923">
        <ele>67.91</ele>
        <time>2010-11-21T09:21:32Z</time>
      </trkpt>
      <trkpt lat="47.32479" lon="0.03929">
        <ele>67.91</ele>
        <time>2010-11-21T09:21:33Z</time>
      </trkpt>
      <trkpt lat="47.32479" lon="0.03933">
        <ele>67.91</ele>
        <time>2010-11-21T09:21:34Z</time>
      </trkpt>
      <trkpt lat="47.32478" lon="0.03938">
        <ele>67.91</ele>
        <time>2010-11-21T09:21:35Z</time>
      </trkpt>
      <trkpt lat="47.32477" lon="0.03943">
        <ele>68.87</ele>
        <time>2010-11-21T09:21:36Z</time>
      </trkpt>
      <trkpt lat="47.32476" lon="0.03949">
        <ele>67.91</ele>
        <time>2010-11-21T09:21:37Z</time>
      </trkpt>
      <trkpt lat="47.3247" lon="0.03974">
        <ele>68.87</ele>
        <time>2010-11-21T09:21:42Z</time>
      </trkpt>
      <trkpt lat="47.32469" lon="0.03979">
        <ele>69.35</ele>
        <time>2010-11-21T09:21:43Z</time>
      </trkpt>
      <trkpt lat="47.32467" lon="0.03983">
        <ele>69.35</ele>
        <time>2010-11-21T09:21:44Z</time>
      </trkpt>
      <trkpt lat="47.32465" lon="0.03987">
        <ele>69.35</ele>
        <time>2010-11-21T09:21:45Z</time>
      </trkpt>
      <trkpt lat="47.32464" lon="0.03991">
        <ele>69.35</ele>
        <time>2010-11-21T09:21:46Z</time>
      </trkpt>
      <trkpt lat="47.32455" lon="0.04022">
        <ele>70.31</ele>
        <time>2010-11-21T09:21:52Z</time>
      </trkpt>
      <trkpt lat="47.32448" lon="0.04051">
        <ele>70.79</ele>
        <time>2010-11-21T09:21:58Z</time>
      </trkpt>
      <trkpt lat="47.32443" lon="0.0407">
        <ele>70.79</ele>
        <time>2010-11-21T09:22:02Z</time>
      </trkpt>
      <trkpt lat="47.32431" lon="0.04111">
        <ele>72.24</ele>
        <time>2010-11-21T09:22:10Z</time>
      </trkpt>
      <trkpt lat="47.32424" lon="0.04131">
        <ele>71.76</ele>
        <time>2010-11-21T09:22:15Z</time>
      </trkpt>
      <trkpt lat="47.32413" lon="0.0415">
        <ele>72.72</ele>
        <time>2010-11-21T09:22:20Z</time>
      </trkpt>
      <trkpt lat="47.32404" lon="0.04175">
        <ele>73.2</ele>
        <time>2010-11-21T09:22:25Z</time>
      </trkpt>
      <trkpt lat="47.32402" lon="0.04179">
        <ele>72.72</ele>
        <time>2010-11-21T09:22:26Z</time>
      </trkpt>
      <trkpt lat="47.324" lon="0.04182">
        <ele>72.72</ele>
        <time>2010-11-21T09:22:27Z</time>
      </trkpt>
      <trkpt lat="47.32398" lon="0.04187">
        <ele>72.24</ele>
        <time>2010-11-21T09:22:28Z</time>
      </trkpt>
      <trkpt lat="47.32393" lon="0.04207">
        <ele>73.2</ele>
        <time>2010-11-21T09:22:33Z</time>
      </trkpt>
      <trkpt lat="47.32393" lon="0.04214">
        <ele>74.16</ele>
        <time>2010-11-21T09:22:34Z</time>
      </trkpt>
      <trkpt lat="47.32392" lon="0.0422">
        <ele>73.68</ele>
        <time>2010-11-21T09:22:35Z</time>
      </trkpt>
      <trkpt lat="47.32392" lon="0.04225">
        <ele>73.68</ele>
        <time>2010-11-21T09:22:36Z</time>
      </trkpt>
      <trkpt lat="47.3239" lon="0.0423">
        <ele>73.2</ele>
        <time>2010-11-21T09:22:37Z</time>
      </trkpt>
      <trkpt lat="47.32383" lon="0.04263">
        <ele>73.2</ele>
        <time>2010-11-21T09:22:43Z</time>
      </trkpt>
      <trkpt lat="47.3238" lon="0.04275">
        <ele>73.68</ele>
        <time>2010-11-21T09:22:45Z</time>
      </trkpt>
      <trkpt lat="47.3238" lon="0.04281">
        <ele>73.68</ele>
        <time>2010-11-21T09:22:46Z</time>
      </trkpt>
      <trkpt lat="47.32371" lon="0.04312">
        <ele>73.2</ele>
        <time>2010-11-21T09:22:52Z</time>
      </trkpt>
      <trkpt lat="47.32363" lon="0.04353">
        <ele>72.24</ele>
        <time>2010-11-21T09:22:58Z</time>
      </trkpt>
      <trkpt lat="47.32359" lon="0.04379">
        <ele>71.76</ele>
        <time>2010-11-21T09:23:02Z</time>
      </trkpt>
      <trkpt lat="47.32357" lon="0.04385">
        <ele>71.76</ele>
        <time>2010-11-21T09:23:03Z</time>
      </trkpt>
      <trkpt lat="47.32356" lon="0.04392">
        <ele>71.76</ele>
        <time>2010-11-21T09:23:04Z</time>
      </trkpt>
      <trkpt lat="47.32355" lon="0.04398">
        <ele>71.76</ele>
        <time>2010-11-21T09:23:05Z</time>
      </trkpt>
      <trkpt lat="47.32354" lon="0.04403">
        <ele>71.27</ele>
        <time>2010-11-21T09:23:06Z</time>
      </trkpt>
      <trkpt lat="47.32353" lon="0.04408">
        <ele>71.27</ele>
        <time>2010-11-21T09:23:07Z</time>
      </trkpt>
      <trkpt lat="47.32346" lon="0.04435">
        <ele>70.79</ele>
        <time>2010-11-21T09:23:12Z</time>
      </trkpt>
      <trkpt lat="47.32342" lon="0.04468">
        <ele>71.27</ele>
        <time>2010-11-21T09:23:18Z</time>
      </trkpt>
      <trkpt lat="47.32337" lon="0.045">
        <ele>70.31</ele>
        <time>2010-11-21T09:23:23Z</time>
      </trkpt>
      <trkpt lat="47.32332" lon="0.04526">
        <ele>71.27</ele>
        <time>2010-11-21T09:23:28Z</time>
      </trkpt>
      <trkpt lat="47.32326" lon="0.04554">
        <ele>71.76</ele>
        <time>2010-11-21T09:23:33Z</time>
      </trkpt>
      <trkpt lat="47.3232" lon="0.04588">
        <ele>71.76</ele>
        <time>2010-11-21T09:23:39Z</time>
      </trkpt>
      <trkpt lat="47.32315" lon="0.04616">
        <ele>72.24</ele>
        <time>2010-11-21T09:23:44Z</time>
      </trkpt>
      <trkpt lat="47.32315" lon="0.04644">
        <ele>71.76</ele>
        <time>2010-11-21T09:23:49Z</time>
      </trkpt>
      <trkpt lat="47.32314" lon="0.04673">
        <ele>71.27</ele>
        <time>2010-11-21T09:23:54Z</time>
      </trkpt>
      <trkpt lat="47.32314" lon="0.04697">
        <ele>72.24</ele>
        <time>2010-11-21T09:23:58Z</time>
      </trkpt>
      <trkpt lat="47.32311" lon="0.04734">
        <ele>71.76</ele>
        <time>2010-11-21T09:24:04Z</time>
      </trkpt>
      <trkpt lat="47.32308" lon="0.04762">
        <ele>72.24</ele>
        <time>2010-11-21T09:24:09Z</time>
      </trkpt>
      <trkpt lat="47.32308" lon="0.04776">
        <ele>71.27</ele>
        <time>2010-11-21T09:24:12Z</time>
      </trkpt>
      <trkpt lat="47.32306" lon="0.04782">
        <ele>71.76</ele>
        <time>2010-11-21T09:24:13Z</time>
      </trkpt>
      <trkpt lat="47.32303" lon="0.04791">
        <ele>71.76</ele>
        <time>2010-11-21T09:24:14Z</time>
      </trkpt>
      <trkpt lat="47.32301" lon="0.04797">
        <ele>71.76</ele>
        <time>2010-11-21T09:24:15Z</time>
      </trkpt>
      <trkpt lat="47.32289" lon="0.04844">
        <ele>72.24</ele>
        <time>2010-11-21T09:24:22Z</time>
      </trkpt>
      <trkpt lat="47.32285" lon="0.04857">
        <ele>72.72</ele>
        <time>2010-11-21T09:24:24Z</time>
      </trkpt>
      <trkpt lat="47.32283" lon="0.04863">
        <ele>72.72</ele>
        <time>2010-11-21T09:24:25Z</time>
      </trkpt>
      <trkpt lat="47.32282" lon="0.0487">
        <ele>72.72</ele>
        <time>2010-11-21T09:24:26Z</time>
      </trkpt>
      <trkpt lat="47.32273" lon="0.04905">
        <ele>72.72</ele>
        <time>2010-11-21T09:24:32Z</time>
      </trkpt>
      <trkpt lat="47.32257" lon="0.04943">
        <ele>73.2</ele>
        <time>2010-11-21T09:24:39Z</time>
      </trkpt>
      <trkpt lat="47.32244" lon="0.04966">
        <ele>73.2</ele>
        <time>2010-11-21T09:24:44Z</time>
      </trkpt>
      <trkpt lat="47.32225" lon="0.05001">
        <ele>73.68</ele>
        <time>2010-11-21T09:24:51Z</time>
      </trkpt>
      <trkpt lat="47.32211" lon="0.05031">
        <ele>73.68</ele>
        <time>2010-11-21T09:24:57Z</time>
      </trkpt>
      <trkpt lat="47.32196" lon="0.05076">
        <ele>72.24</ele>
        <time>2010-11-21T09:25:05Z</time>
      </trkpt>
      <trkpt lat="47.32192" lon="0.05089">
        <ele>72.72</ele>
        <time>2010-11-21T09:25:07Z</time>
      </trkpt>
      <trkpt lat="47.3219" lon="0.05095">
        <ele>71.76</ele>
        <time>2010-11-21T09:25:08Z</time>
      </trkpt>
      <trkpt lat="47.32188" lon="0.05101">
        <ele>72.24</ele>
        <time>2010-11-21T09:25:09Z</time>
      </trkpt>
      <trkpt lat="47.3218" lon="0.05119">
        <ele>72.24</ele>
        <time>2010-11-21T09:25:12Z</time>
      </trkpt>
      <trkpt lat="47.32177" lon="0.05125">
        <ele>71.76</ele>
        <time>2010-11-21T09:25:13Z</time>
      </trkpt>
      <trkpt lat="47.32175" lon="0.05131">
        <ele>71.76</ele>
        <time>2010-11-21T09:25:14Z</time>
      </trkpt>
      <trkpt lat="47.32165" lon="0.05155">
        <ele>71.27</ele>
        <time>2010-11-21T09:25:18Z</time>
      </trkpt>
      <trkpt lat="47.32163" lon="0.05162">
        <ele>72.24</ele>
        <time>2010-11-21T09:25:19Z</time>
      </trkpt>
      <trkpt lat="47.32161" lon="0.05168">
        <ele>71.76</ele>
        <time>2010-11-21T09:25:20Z</time>
      </trkpt>
      <trkpt lat="47.32147" lon="0.05213">
        <ele>71.27</ele>
        <time>2010-11-21T09:25:27Z</time>
      </trkpt>
      <trkpt lat="47.32143" lon="0.05225">
        <ele>70.79</ele>
        <time>2010-11-21T09:25:29Z</time>
      </trkpt>
      <trkpt lat="47.3214" lon="0.05231">
        <ele>70.31</ele>
        <time>2010-11-21T09:25:30Z</time>
      </trkpt>
      <trkpt lat="47.32127" lon="0.05275">
        <ele>70.79</ele>
        <time>2010-11-21T09:25:37Z</time>
      </trkpt>
      <trkpt lat="47.32121" lon="0.05297">
        <ele>70.79</ele>
        <time>2010-11-21T09:25:41Z</time>
      </trkpt>
      <trkpt lat="47.3212" lon="0.05304">
        <ele>71.27</ele>
        <time>2010-11-21T09:25:42Z</time>
      </trkpt>
      <trkpt lat="47.32119" lon="0.0531">
        <ele>71.27</ele>
        <time>2010-11-21T09:25:43Z</time>
      </trkpt>
      <trkpt lat="47.32119" lon="0.05317">
        <ele>70.79</ele>
        <time>2010-11-21T09:25:44Z</time>
      </trkpt>
      <trkpt lat="47.32119" lon="0.05323">
        <ele>71.27</ele>
        <time>2010-11-21T09:25:45Z</time>
      </trkpt>
      <trkpt lat="47.32117" lon="0.0535">
        <ele>71.27</ele>
        <time>2010-11-21T09:25:49Z</time>
      </trkpt>
      <trkpt lat="47.32118" lon="0.05357">
        <ele>71.27</ele>
        <time>2010-11-21T09:25:50Z</time>
      </trkpt>
      <trkpt lat="47.32119" lon="0.05363">
        <ele>71.76</ele>
        <time>2010-11-21T09:25:51Z</time>
      </trkpt>
      <trkpt lat="47.32119" lon="0.05369">
        <ele>71.76</ele>
        <time>2010-11-21T09:25:52Z</time>
      </trkpt>
      <trkpt lat="47.32119" lon="0.05375">
        <ele>71.76</ele>
        <time>2010-11-21T09:25:53Z</time>
      </trkpt>
      <trkpt lat="47.3212" lon="0.05381">
        <ele>71.76</ele>
        <time>2010-11-21T09:25:54Z</time>
      </trkpt>
      <trkpt lat="47.32122" lon="0.05387">
        <ele>71.27</ele>
        <time>2010-11-21T09:25:55Z</time>
      </trkpt>
      <trkpt lat="47.32123" lon="0.05393">
        <ele>71.76</ele>
        <time>2010-11-21T09:25:56Z</time>
      </trkpt>
      <trkpt lat="47.32129" lon="0.05412">
        <ele>72.72</ele>
        <time>2010-11-21T09:26:00Z</time>
      </trkpt>
      <trkpt lat="47.32131" lon="0.05421">
        <ele>72.24</ele>
        <time>2010-11-21T09:26:02Z</time>
      </trkpt>
      <trkpt lat="47.32131" lon="0.05426">
        <ele>72.24</ele>
        <time>2010-11-21T09:26:03Z</time>
      </trkpt>
      <trkpt lat="47.32132" lon="0.05431">
        <ele>72.72</ele>
        <time>2010-11-21T09:26:04Z</time>
      </trkpt>
      <trkpt lat="47.32132" lon="0.05436">
        <ele>72.24</ele>
        <time>2010-11-21T09:26:05Z</time>
      </trkpt>
      <trkpt lat="47.32131" lon="0.0544">
        <ele>73.2</ele>
        <time>2010-11-21T09:26:06Z</time>
      </trkpt>
      <trkpt lat="47.32129" lon="0.05443">
        <ele>72.72</ele>
        <time>2010-11-21T09:26:07Z</time>
      </trkpt>
      <trkpt lat="47.32128" lon="0.05446">
        <ele>73.2</ele>
        <time>2010-11-21T09:26:08Z</time>
      </trkpt>
      <trkpt lat="47.32116" lon="0.05472">
        <ele>73.68</ele>
        <time>2010-11-21T09:26:14Z</time>
      </trkpt>
      <trkpt lat="47.32107" lon="0.05494">
        <ele>73.68</ele>
        <time>2010-11-21T09:26:20Z</time>
      </trkpt>
      <trkpt lat="47.321" lon="0.05512">
        <ele>75.6</ele>
        <time>2010-11-21T09:26:26Z</time>
      </trkpt>
      <trkpt lat="47.32098" lon="0.05515">
        <ele>75.6</ele>
        <time>2010-11-21T09:26:27Z</time>
      </trkpt>
      <trkpt lat="47.32097" lon="0.05518">
        <ele>75.12</ele>
        <time>2010-11-21T09:26:28Z</time>
      </trkpt>
      <trkpt lat="47.32095" lon="0.05521">
        <ele>75.6</ele>
        <time>2010-11-21T09:26:29Z</time>
      </trkpt>
      <trkpt lat="47.32094" lon="0.05524">
        <ele>75.6</ele>
        <time>2010-11-21T09:26:30Z</time>
      </trkpt>
      <trkpt lat="47.32093" lon="0.05527">
        <ele>75.6</ele>
        <time>2010-11-21T09:26:31Z</time>
      </trkpt>
      <trkpt lat="47.32092" lon="0.05531">
        <ele>75.6</ele>
        <time>2010-11-21T09:26:32Z</time>
      </trkpt>
      <trkpt lat="47.32091" lon="0.05534">
        <ele>76.08</ele>
        <time>2010-11-21T09:26:33Z</time>
      </trkpt>
      <trkpt lat="47.32089" lon="0.05537">
        <ele>75.6</ele>
        <time>2010-11-21T09:26:34Z</time>
      </trkpt>
      <trkpt lat="47.32088" lon="0.0554">
        <ele>76.56</ele>
        <time>2010-11-21T09:26:35Z</time>
      </trkpt>
      <trkpt lat="47.32086" lon="0.05543">
        <ele>77.04</ele>
        <time>2010-11-21T09:26:36Z</time>
      </trkpt>
      <trkpt lat="47.32084" lon="0.05545">
        <ele>76.56</ele>
        <time>2010-11-21T09:26:37Z</time>
      </trkpt>
      <trkpt lat="47.32082" lon="0.05548">
        <ele>77.04</ele>
        <time>2010-11-21T09:26:38Z</time>
      </trkpt>
      <trkpt lat="47.32078" lon="0.05551">
        <ele>77.04</ele>
        <time>2010-11-21T09:26:40Z</time>
      </trkpt>
      <trkpt lat="47.32062" lon="0.05547">
        <ele>76.56</ele>
        <time>2010-11-21T09:26:47Z</time>
      </trkpt>
      <trkpt lat="47.32044" lon="0.05534">
        <ele>76.08</ele>
        <time>2010-11-21T09:26:53Z</time>
      </trkpt>
      <trkpt lat="47.32026" lon="0.05522">
        <ele>75.6</ele>
        <time>2010-11-21T09:26:58Z</time>
      </trkpt>
      <trkpt lat="47.32008" lon="0.05511">
        <ele>76.08</ele>
        <time>2010-11-21T09:27:03Z</time>
      </trkpt>
      <trkpt lat="47.31986" lon="0.05495">
        <ele>75.6</ele>
        <time>2010-11-21T09:27:09Z</time>
      </trkpt>
      <trkpt lat="47.31969" lon="0.05482">
        <ele>76.08</ele>
        <time>2010-11-21T09:27:14Z</time>
      </trkpt>
      <trkpt lat="47.31956" lon="0.0547">
        <ele>77.52</ele>
        <time>2010-11-21T09:27:18Z</time>
      </trkpt>
      <trkpt lat="47.31941" lon="0.05457">
        <ele>78</ele>
        <time>2010-11-21T09:27:23Z</time>
      </trkpt>
      <trkpt lat="47.31919" lon="0.05439">
        <ele>78.48</ele>
        <time>2010-11-21T09:27:30Z</time>
      </trkpt>
      <trkpt lat="47.31898" lon="0.05421">
        <ele>78.97</ele>
        <time>2010-11-21T09:27:36Z</time>
      </trkpt>
      <trkpt lat="47.31877" lon="0.05411">
        <ele>79.45</ele>
        <time>2010-11-21T09:27:42Z</time>
      </trkpt>
      <trkpt lat="47.31859" lon="0.05403">
        <ele>78.97</ele>
        <time>2010-11-21T09:27:47Z</time>
      </trkpt>
      <trkpt lat="47.31838" lon="0.05397">
        <ele>80.41</ele>
        <time>2010-11-21T09:27:54Z</time>
      </trkpt>
      <trkpt lat="47.31827" lon="0.05393">
        <ele>80.89</ele>
        <time>2010-11-21T09:27:59Z</time>
      </trkpt>
      <trkpt lat="47.31822" lon="0.05392">
        <ele>80.89</ele>
        <time>2010-11-21T09:28:01Z</time>
      </trkpt>
      <trkpt lat="47.31809" lon="0.05379">
        <ele>81.85</ele>
        <time>2010-11-21T09:28:07Z</time>
      </trkpt>
      <trkpt lat="47.31793" lon="0.05362">
        <ele>82.81</ele>
        <time>2010-11-21T09:28:14Z</time>
      </trkpt>
      <trkpt lat="47.31785" lon="0.05338">
        <ele>83.29</ele>
        <time>2010-11-21T09:28:20Z</time>
      </trkpt>
      <trkpt lat="47.31775" lon="0.05314">
        <ele>83.77</ele>
        <time>2010-11-21T09:28:26Z</time>
      </trkpt>
      <trkpt lat="47.31764" lon="0.0529">
        <ele>83.29</ele>
        <time>2010-11-21T09:28:32Z</time>
      </trkpt>
      <trkpt lat="47.31751" lon="0.05267">
        <ele>84.73</ele>
        <time>2010-11-21T09:28:38Z</time>
      </trkpt>
      <trkpt lat="47.31735" lon="0.05237">
        <ele>84.73</ele>
        <time>2010-11-21T09:28:45Z</time>
      </trkpt>
      <trkpt lat="47.31718" lon="0.05205">
        <ele>85.21</ele>
        <time>2010-11-21T09:28:52Z</time>
      </trkpt>
      <trkpt lat="47.31708" lon="0.05186">
        <ele>85.69</ele>
        <time>2010-11-21T09:28:56Z</time>
      </trkpt>
      <trkpt lat="47.31692" lon="0.05155">
        <ele>85.21</ele>
        <time>2010-11-21T09:29:03Z</time>
      </trkpt>
      <trkpt lat="47.3169" lon="0.05151">
        <ele>85.21</ele>
        <time>2010-11-21T09:29:04Z</time>
      </trkpt>
      <trkpt lat="47.31677" lon="0.05128">
        <ele>85.69</ele>
        <time>2010-11-21T09:29:09Z</time>
      </trkpt>
      <trkpt lat="47.31664" lon="0.0511">
        <ele>85.69</ele>
        <time>2010-11-21T09:29:14Z</time>
      </trkpt>
      <trkpt lat="47.3165" lon="0.05088">
        <ele>86.66</ele>
        <time>2010-11-21T09:29:20Z</time>
      </trkpt>
      <trkpt lat="47.3164" lon="0.05066">
        <ele>87.62</ele>
        <time>2010-11-21T09:29:26Z</time>
      </trkpt>
      <trkpt lat="47.31628" lon="0.05042">
        <ele>89.54</ele>
        <time>2010-11-21T09:29:32Z</time>
      </trkpt>
      <trkpt lat="47.31616" lon="0.05018">
        <ele>89.54</ele>
        <time>2010-11-21T09:29:39Z</time>
      </trkpt>
      <trkpt lat="47.31604" lon="0.04996">
        <ele>91.46</ele>
        <time>2010-11-21T09:29:45Z</time>
      </trkpt>
      <trkpt lat="47.31594" lon="0.04977">
        <ele>91.46</ele>
        <time>2010-11-21T09:29:50Z</time>
      </trkpt>
      <trkpt lat="47.31585" lon="0.04964">
        <ele>91.94</ele>
        <time>2010-11-21T09:29:55Z</time>
      </trkpt>
      <trkpt lat="47.31578" lon="0.04951">
        <ele>91.94</ele>
        <time>2010-11-21T09:30:00Z</time>
      </trkpt>
      <trkpt lat="47.31569" lon="0.04935">
        <ele>92.9</ele>
        <time>2010-11-21T09:30:06Z</time>
      </trkpt>
      <trkpt lat="47.31561" lon="0.04919">
        <ele>92.9</ele>
        <time>2010-11-21T09:30:12Z</time>
      </trkpt>
      <trkpt lat="47.31549" lon="0.04897">
        <ele>93.39</ele>
        <time>2010-11-21T09:30:19Z</time>
      </trkpt>
      <trkpt lat="47.31543" lon="0.04887">
        <ele>92.42</ele>
        <time>2010-11-21T09:30:23Z</time>
      </trkpt>
      <trkpt lat="47.31542" lon="0.04884">
        <ele>92.9</ele>
        <time>2010-11-21T09:30:24Z</time>
      </trkpt>
      <trkpt lat="47.3154" lon="0.04881">
        <ele>92.9</ele>
        <time>2010-11-21T09:30:25Z</time>
      </trkpt>
      <trkpt lat="47.31539" lon="0.04878">
        <ele>92.9</ele>
        <time>2010-11-21T09:30:26Z</time>
      </trkpt>
      <trkpt lat="47.31537" lon="0.04874">
        <ele>92.9</ele>
        <time>2010-11-21T09:30:27Z</time>
      </trkpt>
      <trkpt lat="47.31534" lon="0.04869">
        <ele>92.42</ele>
        <time>2010-11-21T09:30:28Z</time>
      </trkpt>
      <trkpt lat="47.31519" lon="0.04848">
        <ele>90.5</ele>
        <time>2010-11-21T09:30:32Z</time>
      </trkpt>
      <trkpt lat="47.3151" lon="0.04836">
        <ele>89.06</ele>
        <time>2010-11-21T09:30:34Z</time>
      </trkpt>
      <trkpt lat="47.31499" lon="0.04823">
        <ele>88.1</ele>
        <time>2010-11-21T09:30:36Z</time>
      </trkpt>
      <trkpt lat="47.31483" lon="0.04806">
        <ele>85.21</ele>
        <time>2010-11-21T09:30:39Z</time>
      </trkpt>
      <trkpt lat="47.31467" lon="0.04789">
        <ele>83.29</ele>
        <time>2010-11-21T09:30:42Z</time>
      </trkpt>
      <trkpt lat="47.31447" lon="0.04771">
        <ele>81.37</ele>
        <time>2010-11-21T09:30:45Z</time>
      </trkpt>
      <trkpt lat="47.31431" lon="0.04756">
        <ele>78.97</ele>
        <time>2010-11-21T09:30:47Z</time>
      </trkpt>
      <trkpt lat="47.31424" lon="0.04749">
        <ele>77.52</ele>
        <time>2010-11-21T09:30:48Z</time>
      </trkpt>
      <trkpt lat="47.31415" lon="0.04742">
        <ele>77.52</ele>
        <time>2010-11-21T09:30:49Z</time>
      </trkpt>
      <trkpt lat="47.31391" lon="0.04718">
        <ele>75.12</ele>
        <time>2010-11-21T09:30:52Z</time>
      </trkpt>
      <trkpt lat="47.31384" lon="0.04709">
        <ele>75.12</ele>
        <time>2010-11-21T09:30:53Z</time>
      </trkpt>
      <trkpt lat="47.31365" lon="0.04684">
        <ele>74.16</ele>
        <time>2010-11-21T09:30:56Z</time>
      </trkpt>
      <trkpt lat="47.3136" lon="0.04676">
        <ele>73.68</ele>
        <time>2010-11-21T09:30:57Z</time>
      </trkpt>
      <trkpt lat="47.31355" lon="0.04668">
        <ele>73.2</ele>
        <time>2010-11-21T09:30:58Z</time>
      </trkpt>
      <trkpt lat="47.3134" lon="0.04642">
        <ele>72.24</ele>
        <time>2010-11-21T09:31:01Z</time>
      </trkpt>
      <trkpt lat="47.31336" lon="0.04633">
        <ele>71.27</ele>
        <time>2010-11-21T09:31:02Z</time>
      </trkpt>
      <trkpt lat="47.31326" lon="0.04615">
        <ele>71.76</ele>
        <time>2010-11-21T09:31:04Z</time>
      </trkpt>
      <trkpt lat="47.31321" lon="0.04606">
        <ele>71.27</ele>
        <time>2010-11-21T09:31:05Z</time>
      </trkpt>
      <trkpt lat="47.31316" lon="0.04597">
        <ele>71.76</ele>
        <time>2010-11-21T09:31:06Z</time>
      </trkpt>
      <trkpt lat="47.31311" lon="0.04589">
        <ele>70.79</ele>
        <time>2010-11-21T09:31:07Z</time>
      </trkpt>
      <trkpt lat="47.31306" lon="0.0458">
        <ele>71.27</ele>
        <time>2010-11-21T09:31:08Z</time>
      </trkpt>
      <trkpt lat="47.31301" lon="0.04573">
        <ele>71.27</ele>
        <time>2010-11-21T09:31:09Z</time>
      </trkpt>
      <trkpt lat="47.31295" lon="0.04567">
        <ele>71.27</ele>
        <time>2010-11-21T09:31:10Z</time>
      </trkpt>
      <trkpt lat="47.31288" lon="0.04562">
        <ele>71.27</ele>
        <time>2010-11-21T09:31:11Z</time>
      </trkpt>
      <trkpt lat="47.31283" lon="0.04557">
        <ele>71.76</ele>
        <time>2010-11-21T09:31:12Z</time>
      </trkpt>
      <trkpt lat="47.31279" lon="0.04552">
        <ele>71.27</ele>
        <time>2010-11-21T09:31:13Z</time>
      </trkpt>
      <trkpt lat="47.31274" lon="0.04548">
        <ele>71.76</ele>
        <time>2010-11-21T09:31:14Z</time>
      </trkpt>
      <trkpt lat="47.3127" lon="0.04543">
        <ele>71.76</ele>
        <time>2010-11-21T09:31:15Z</time>
      </trkpt>
      <trkpt lat="47.31261" lon="0.04534">
        <ele>71.27</ele>
        <time>2010-11-21T09:31:17Z</time>
      </trkpt>
      <trkpt lat="47.31256" lon="0.04529">
        <ele>71.27</ele>
        <time>2010-11-21T09:31:18Z</time>
      </trkpt>
      <trkpt lat="47.31243" lon="0.04512">
        <ele>71.27</ele>
        <time>2010-11-21T09:31:21Z</time>
      </trkpt>
      <trkpt lat="47.3124" lon="0.04505">
        <ele>70.79</ele>
        <time>2010-11-21T09:31:22Z</time>
      </trkpt>
      <trkpt lat="47.31226" lon="0.04478">
        <ele>70.79</ele>
        <time>2010-11-21T09:31:26Z</time>
      </trkpt>
      <trkpt lat="47.31222" lon="0.04465">
        <ele>70.79</ele>
        <time>2010-11-21T09:31:28Z</time>
      </trkpt>
      <trkpt lat="47.31219" lon="0.04459">
        <ele>71.27</ele>
        <time>2010-11-21T09:31:29Z</time>
      </trkpt>
      <trkpt lat="47.31217" lon="0.04453">
        <ele>70.79</ele>
        <time>2010-11-21T09:31:30Z</time>
      </trkpt>
      <trkpt lat="47.31214" lon="0.04448">
        <ele>71.27</ele>
        <time>2010-11-21T09:31:31Z</time>
      </trkpt>
      <trkpt lat="47.31212" lon="0.04442">
        <ele>70.79</ele>
        <time>2010-11-21T09:31:32Z</time>
      </trkpt>
      <trkpt lat="47.3121" lon="0.04435">
        <ele>70.31</ele>
        <time>2010-11-21T09:31:33Z</time>
      </trkpt>
      <trkpt lat="47.31205" lon="0.0442">
        <ele>70.31</ele>
        <time>2010-11-21T09:31:35Z</time>
      </trkpt>
      <trkpt lat="47.31204" lon="0.04412">
        <ele>69.83</ele>
        <time>2010-11-21T09:31:36Z</time>
      </trkpt>
      <trkpt lat="47.31201" lon="0.04396">
        <ele>70.31</ele>
        <time>2010-11-21T09:31:38Z</time>
      </trkpt>
      <trkpt lat="47.312" lon="0.04389">
        <ele>69.83</ele>
        <time>2010-11-21T09:31:39Z</time>
      </trkpt>
      <trkpt lat="47.31196" lon="0.04374">
        <ele>69.83</ele>
        <time>2010-11-21T09:31:41Z</time>
      </trkpt>
      <trkpt lat="47.31194" lon="0.04367">
        <ele>69.35</ele>
        <time>2010-11-21T09:31:42Z</time>
      </trkpt>
      <trkpt lat="47.31193" lon="0.04361">
        <ele>69.35</ele>
        <time>2010-11-21T09:31:43Z</time>
      </trkpt>
      <trkpt lat="47.3119" lon="0.04357">
        <ele>69.35</ele>
        <time>2010-11-21T09:31:44Z</time>
      </trkpt>
      <trkpt lat="47.31188" lon="0.04352">
        <ele>68.87</ele>
        <time>2010-11-21T09:31:45Z</time>
      </trkpt>
      <trkpt lat="47.31185" lon="0.04346">
        <ele>68.39</ele>
        <time>2010-11-21T09:31:46Z</time>
      </trkpt>
      <trkpt lat="47.31183" lon="0.04339">
        <ele>67.43</ele>
        <time>2010-11-21T09:31:47Z</time>
      </trkpt>
      <trkpt lat="47.31181" lon="0.04332">
        <ele>67.43</ele>
        <time>2010-11-21T09:31:48Z</time>
      </trkpt>
      <trkpt lat="47.31172" lon="0.04311">
        <ele>66.95</ele>
        <time>2010-11-21T09:31:51Z</time>
      </trkpt>
      <trkpt lat="47.31164" lon="0.04291">
        <ele>65.99</ele>
        <time>2010-11-21T09:31:54Z</time>
      </trkpt>
      <trkpt lat="47.3116" lon="0.04285">
        <ele>65.51</ele>
        <time>2010-11-21T09:31:55Z</time>
      </trkpt>
      <trkpt lat="47.31158" lon="0.04279">
        <ele>65.03</ele>
        <time>2010-11-21T09:31:56Z</time>
      </trkpt>
      <trkpt lat="47.31154" lon="0.04271">
        <ele>65.03</ele>
        <time>2010-11-21T09:31:57Z</time>
      </trkpt>
      <trkpt lat="47.31151" lon="0.04264">
        <ele>64.55</ele>
        <time>2010-11-21T09:31:58Z</time>
      </trkpt>
      <trkpt lat="47.3114" lon="0.04241">
        <ele>64.07</ele>
        <time>2010-11-21T09:32:02Z</time>
      </trkpt>
      <trkpt lat="47.31137" lon="0.04239">
        <ele>64.07</ele>
        <time>2010-11-21T09:32:03Z</time>
      </trkpt>
      <trkpt lat="47.31135" lon="0.04237">
        <ele>64.07</ele>
        <time>2010-11-21T09:32:04Z</time>
      </trkpt>
      <trkpt lat="47.31134" lon="0.04237">
        <ele>64.07</ele>
        <time>2010-11-21T09:32:05Z</time>
      </trkpt>
      <trkpt lat="47.31131" lon="0.04237">
        <ele>64.07</ele>
        <time>2010-11-21T09:32:06Z</time>
      </trkpt>
      <trkpt lat="47.31129" lon="0.04237">
        <ele>63.58</ele>
        <time>2010-11-21T09:32:07Z</time>
      </trkpt>
      <trkpt lat="47.31126" lon="0.04237">
        <ele>63.58</ele>
        <time>2010-11-21T09:32:08Z</time>
      </trkpt>
      <trkpt lat="47.31123" lon="0.04238">
        <ele>63.1</ele>
        <time>2010-11-21T09:32:09Z</time>
      </trkpt>
      <trkpt lat="47.31121" lon="0.04238">
        <ele>63.58</ele>
        <time>2010-11-21T09:32:10Z</time>
      </trkpt>
      <trkpt lat="47.3112" lon="0.04239">
        <ele>62.62</ele>
        <time>2010-11-21T09:32:11Z</time>
      </trkpt>
      <trkpt lat="47.31117" lon="0.0424">
        <ele>62.62</ele>
        <time>2010-11-21T09:32:12Z</time>
      </trkpt>
      <trkpt lat="47.31113" lon="0.04241">
        <ele>62.14</ele>
        <time>2010-11-21T09:32:13Z</time>
      </trkpt>
      <trkpt lat="47.31102" lon="0.04246">
        <ele>60.7</ele>
        <time>2010-11-21T09:32:16Z</time>
      </trkpt>
      <trkpt lat="47.31099" lon="0.04248">
        <ele>60.22</ele>
        <time>2010-11-21T09:32:17Z</time>
      </trkpt>
      <trkpt lat="47.31097" lon="0.04252">
        <ele>60.22</ele>
        <time>2010-11-21T09:32:18Z</time>
      </trkpt>
      <trkpt lat="47.31095" lon="0.04256">
        <ele>60.22</ele>
        <time>2010-11-21T09:32:19Z</time>
      </trkpt>
      <trkpt lat="47.31092" lon="0.04259">
        <ele>60.22</ele>
        <time>2010-11-21T09:32:20Z</time>
      </trkpt>
      <trkpt lat="47.31088" lon="0.04263">
        <ele>60.7</ele>
        <time>2010-11-21T09:32:21Z</time>
      </trkpt>
      <trkpt lat="47.31084" lon="0.04267">
        <ele>60.22</ele>
        <time>2010-11-21T09:32:22Z</time>
      </trkpt>
      <trkpt lat="47.3108" lon="0.04272">
        <ele>59.74</ele>
        <time>2010-11-21T09:32:23Z</time>
      </trkpt>
      <trkpt lat="47.31071" lon="0.04283">
        <ele>58.3</ele>
        <time>2010-11-21T09:32:25Z</time>
      </trkpt>
      <trkpt lat="47.31056" lon="0.04299">
        <ele>58.78</ele>
        <time>2010-11-21T09:32:28Z</time>
      </trkpt>
      <trkpt lat="47.31052" lon="0.04306">
        <ele>58.78</ele>
        <time>2010-11-21T09:32:29Z</time>
      </trkpt>
      <trkpt lat="47.3105" lon="0.04313">
        <ele>58.78</ele>
        <time>2010-11-21T09:32:30Z</time>
      </trkpt>
      <trkpt lat="47.31047" lon="0.04331">
        <ele>57.82</ele>
        <time>2010-11-21T09:32:32Z</time>
      </trkpt>
      <trkpt lat="47.31045" lon="0.04354">
        <ele>57.82</ele>
        <time>2010-11-21T09:32:35Z</time>
      </trkpt>
      <trkpt lat="47.31044" lon="0.04362">
        <ele>57.82</ele>
        <time>2010-11-21T09:32:36Z</time>
      </trkpt>
      <trkpt lat="47.31043" lon="0.0437">
        <ele>57.82</ele>
        <time>2010-11-21T09:32:37Z</time>
      </trkpt>
      <trkpt lat="47.31043" lon="0.04378">
        <ele>58.3</ele>
        <time>2010-11-21T09:32:38Z</time>
      </trkpt>
      <trkpt lat="47.31043" lon="0.04385">
        <ele>57.82</ele>
        <time>2010-11-21T09:32:39Z</time>
      </trkpt>
      <trkpt lat="47.31042" lon="0.04392">
        <ele>57.34</ele>
        <time>2010-11-21T09:32:40Z</time>
      </trkpt>
      <trkpt lat="47.31041" lon="0.04399">
        <ele>57.82</ele>
        <time>2010-11-21T09:32:41Z</time>
      </trkpt>
      <trkpt lat="47.31041" lon="0.04407">
        <ele>57.82</ele>
        <time>2010-11-21T09:32:42Z</time>
      </trkpt>
      <trkpt lat="47.31038" lon="0.04452">
        <ele>57.34</ele>
        <time>2010-11-21T09:32:48Z</time>
      </trkpt>
      <trkpt lat="47.31037" lon="0.04482">
        <ele>57.34</ele>
        <time>2010-11-21T09:32:53Z</time>
      </trkpt>
      <trkpt lat="47.31036" lon="0.04486">
        <ele>57.34</ele>
        <time>2010-11-21T09:32:54Z</time>
      </trkpt>
      <trkpt lat="47.31037" lon="0.0449">
        <ele>57.34</ele>
        <time>2010-11-21T09:32:55Z</time>
      </trkpt>
      <trkpt lat="47.31037" lon="0.04493">
        <ele>57.34</ele>
        <time>2010-11-21T09:32:56Z</time>
      </trkpt>
      <trkpt lat="47.31039" lon="0.04498">
        <ele>57.34</ele>
        <time>2010-11-21T09:33:02Z</time>
      </trkpt>
      <trkpt lat="47.31037" lon="0.04502">
        <ele>54.45</ele>
        <time>2010-11-21T09:35:43Z</time>
      </trkpt>
      <trkpt lat="47.31045" lon="0.04501">
        <ele>53.97</ele>
        <time>2010-11-21T09:37:17Z</time>
      </trkpt>
      <trkpt lat="47.31046" lon="0.04501">
        <ele>54.45</ele>
        <time>2010-11-21T09:37:18Z</time>
      </trkpt>
      <trkpt lat="47.31049" lon="0.045">
        <ele>54.45</ele>
        <time>2010-11-21T09:37:20Z</time>
      </trkpt>
      <trkpt lat="47.31066" lon="0.04502">
        <ele>55.89</ele>
        <time>2010-11-21T09:37:26Z</time>
      </trkpt>
      <trkpt lat="47.31078" lon="0.04508">
        <ele>56.86</ele>
        <time>2010-11-21T09:37:31Z</time>
      </trkpt>
      <trkpt lat="47.31089" lon="0.04525">
        <ele>56.37</ele>
        <time>2010-11-21T09:37:37Z</time>
      </trkpt>
      <trkpt lat="47.31102" lon="0.04543">
        <ele>56.86</ele>
        <time>2010-11-21T09:37:43Z</time>
      </trkpt>
      <trkpt lat="47.31114" lon="0.04563">
        <ele>56.86</ele>
        <time>2010-11-21T09:37:49Z</time>
      </trkpt>
      <trkpt lat="47.31131" lon="0.04586">
        <ele>56.86</ele>
        <time>2010-11-21T09:37:56Z</time>
      </trkpt>
      <trkpt lat="47.31146" lon="0.04606">
        <ele>57.34</ele>
        <time>2010-11-21T09:38:02Z</time>
      </trkpt>
      <trkpt lat="47.31153" lon="0.04635">
        <ele>56.37</ele>
        <time>2010-11-21T09:38:07Z</time>
      </trkpt>
      <trkpt lat="47.31167" lon="0.04655">
        <ele>56.86</ele>
        <time>2010-11-21T09:38:12Z</time>
      </trkpt>
      <trkpt lat="47.31177" lon="0.04676">
        <ele>56.37</ele>
        <time>2010-11-21T09:38:17Z</time>
      </trkpt>
      <trkpt lat="47.31179" lon="0.0468">
        <ele>55.89</ele>
        <time>2010-11-21T09:38:18Z</time>
      </trkpt>
      <trkpt lat="47.31192" lon="0.04698">
        <ele>56.86</ele>
        <time>2010-11-21T09:38:23Z</time>
      </trkpt>
      <trkpt lat="47.31209" lon="0.04719">
        <ele>57.82</ele>
        <time>2010-11-21T09:38:30Z</time>
      </trkpt>
      <trkpt lat="47.31217" lon="0.04728">
        <ele>58.78</ele>
        <time>2010-11-21T09:38:34Z</time>
      </trkpt>
      <trkpt lat="47.31218" lon="0.04734">
        <ele>58.78</ele>
        <time>2010-11-21T09:38:35Z</time>
      </trkpt>
      <trkpt lat="47.31219" lon="0.04739">
        <ele>58.3</ele>
        <time>2010-11-21T09:38:36Z</time>
      </trkpt>
      <trkpt lat="47.3122" lon="0.04744">
        <ele>58.78</ele>
        <time>2010-11-21T09:38:37Z</time>
      </trkpt>
      <trkpt lat="47.3122" lon="0.04749">
        <ele>59.74</ele>
        <time>2010-11-21T09:38:38Z</time>
      </trkpt>
      <trkpt lat="47.3122" lon="0.04752">
        <ele>59.26</ele>
        <time>2010-11-21T09:38:39Z</time>
      </trkpt>
      <trkpt lat="47.31221" lon="0.04756">
        <ele>59.74</ele>
        <time>2010-11-21T09:38:40Z</time>
      </trkpt>
      <trkpt lat="47.31222" lon="0.04759">
        <ele>60.22</ele>
        <time>2010-11-21T09:38:41Z</time>
      </trkpt>
      <trkpt lat="47.31229" lon="0.04776">
        <ele>60.7</ele>
        <time>2010-11-21T09:38:47Z</time>
      </trkpt>
      <trkpt lat="47.31235" lon="0.04788">
        <ele>62.62</ele>
        <time>2010-11-21T09:38:53Z</time>
      </trkpt>
      <trkpt lat="47.31241" lon="0.04799">
        <ele>63.58</ele>
        <time>2010-11-21T09:38:59Z</time>
      </trkpt>
      <trkpt lat="47.31246" lon="0.04806">
        <ele>64.55</ele>
        <time>2010-11-21T09:39:04Z</time>
      </trkpt>
      <trkpt lat="47.31254" lon="0.04819">
        <ele>66.47</ele>
        <time>2010-11-21T09:39:11Z</time>
      </trkpt>
      <trkpt lat="47.31256" lon="0.04825">
        <ele>66.95</ele>
        <time>2010-11-21T09:39:14Z</time>
      </trkpt>
      <trkpt lat="47.31257" lon="0.04827">
        <ele>67.43</ele>
        <time>2010-11-21T09:39:15Z</time>
      </trkpt>
      <trkpt lat="47.31258" lon="0.04828">
        <ele>67.43</ele>
        <time>2010-11-21T09:39:16Z</time>
      </trkpt>
      <trkpt lat="47.31259" lon="0.0483">
        <ele>67.43</ele>
        <time>2010-11-21T09:39:17Z</time>
      </trkpt>
      <trkpt lat="47.3126" lon="0.04832">
        <ele>67.91</ele>
        <time>2010-11-21T09:39:18Z</time>
      </trkpt>
      <trkpt lat="47.31261" lon="0.04834">
        <ele>67.43</ele>
        <time>2010-11-21T09:39:19Z</time>
      </trkpt>
      <trkpt lat="47.31262" lon="0.04836">
        <ele>67.91</ele>
        <time>2010-11-21T09:39:20Z</time>
      </trkpt>
      <trkpt lat="47.31267" lon="0.04842">
        <ele>69.35</ele>
        <time>2010-11-21T09:39:25Z</time>
      </trkpt>
      <trkpt lat="47.31268" lon="0.04844">
        <ele>69.35</ele>
        <time>2010-11-21T09:39:26Z</time>
      </trkpt>
      <trkpt lat="47.31271" lon="0.0485">
        <ele>70.79</ele>
        <time>2010-11-21T09:39:31Z</time>
      </trkpt>
      <trkpt lat="47.31277" lon="0.04861">
        <ele>72.24</ele>
        <time>2010-11-21T09:39:39Z</time>
      </trkpt>
      <trkpt lat="47.31283" lon="0.04871">
        <ele>72.72</ele>
        <time>2010-11-21T09:39:47Z</time>
      </trkpt>
      <trkpt lat="47.31284" lon="0.04874">
        <ele>73.68</ele>
        <time>2010-11-21T09:39:50Z</time>
      </trkpt>
      <trkpt lat="47.31288" lon="0.04878">
        <ele>74.16</ele>
        <time>2010-11-21T09:39:53Z</time>
      </trkpt>
      <trkpt lat="47.31289" lon="0.0488">
        <ele>75.6</ele>
        <time>2010-11-21T09:39:54Z</time>
      </trkpt>
      <trkpt lat="47.3129" lon="0.04882">
        <ele>75.12</ele>
        <time>2010-11-21T09:39:55Z</time>
      </trkpt>
      <trkpt lat="47.31291" lon="0.04884">
        <ele>75.12</ele>
        <time>2010-11-21T09:39:56Z</time>
      </trkpt>
      <trkpt lat="47.31292" lon="0.04885">
        <ele>75.12</ele>
        <time>2010-11-21T09:39:57Z</time>
      </trkpt>
      <trkpt lat="47.31292" lon="0.04886">
        <ele>75.12</ele>
        <time>2010-11-21T09:39:58Z</time>
      </trkpt>
      <trkpt lat="47.31293" lon="0.04888">
        <ele>76.08</ele>
        <time>2010-11-21T09:39:59Z</time>
      </trkpt>
      <trkpt lat="47.31294" lon="0.04889">
        <ele>75.6</ele>
        <time>2010-11-21T09:40:00Z</time>
      </trkpt>
      <trkpt lat="47.31295" lon="0.04891">
        <ele>76.08</ele>
        <time>2010-11-21T09:40:01Z</time>
      </trkpt>
      <trkpt lat="47.31296" lon="0.04892">
        <ele>76.56</ele>
        <time>2010-11-21T09:40:02Z</time>
      </trkpt>
      <trkpt lat="47.313" lon="0.04901">
        <ele>77.52</ele>
        <time>2010-11-21T09:40:07Z</time>
      </trkpt>
      <trkpt lat="47.31306" lon="0.04911">
        <ele>79.45</ele>
        <time>2010-11-21T09:40:14Z</time>
      </trkpt>
      <trkpt lat="47.3131" lon="0.04917">
        <ele>78.97</ele>
        <time>2010-11-21T09:40:18Z</time>
      </trkpt>
      <trkpt lat="47.31311" lon="0.04919">
        <ele>78.48</ele>
        <time>2010-11-21T09:40:19Z</time>
      </trkpt>
      <trkpt lat="47.31317" lon="0.04927">
        <ele>79.93</ele>
        <time>2010-11-21T09:40:25Z</time>
      </trkpt>
      <trkpt lat="47.31323" lon="0.04939">
        <ele>81.37</ele>
        <time>2010-11-21T09:40:33Z</time>
      </trkpt>
      <trkpt lat="47.31331" lon="0.04952">
        <ele>81.85</ele>
        <time>2010-11-21T09:40:42Z</time>
      </trkpt>
      <trkpt lat="47.31332" lon="0.04953">
        <ele>82.33</ele>
        <time>2010-11-21T09:40:43Z</time>
      </trkpt>
      <trkpt lat="47.31333" lon="0.04955">
        <ele>83.29</ele>
        <time>2010-11-21T09:40:44Z</time>
      </trkpt>
      <trkpt lat="47.31334" lon="0.04956">
        <ele>82.81</ele>
        <time>2010-11-21T09:40:45Z</time>
      </trkpt>
      <trkpt lat="47.31335" lon="0.04957">
        <ele>83.29</ele>
        <time>2010-11-21T09:40:46Z</time>
      </trkpt>
      <trkpt lat="47.31336" lon="0.04958">
        <ele>84.25</ele>
        <time>2010-11-21T09:40:47Z</time>
      </trkpt>
      <trkpt lat="47.31336" lon="0.0496">
        <ele>83.77</ele>
        <time>2010-11-21T09:40:48Z</time>
      </trkpt>
      <trkpt lat="47.3134" lon="0.04968">
        <ele>85.69</ele>
        <time>2010-11-21T09:40:54Z</time>
      </trkpt>
      <trkpt lat="47.31341" lon="0.0497">
        <ele>86.18</ele>
        <time>2010-11-21T09:40:55Z</time>
      </trkpt>
      <trkpt lat="47.31342" lon="0.04972">
        <ele>86.18</ele>
        <time>2010-11-21T09:40:56Z</time>
      </trkpt>
      <trkpt lat="47.31343" lon="0.04973">
        <ele>86.18</ele>
        <time>2010-11-21T09:40:57Z</time>
      </trkpt>
      <trkpt lat="47.31343" lon="0.04974">
        <ele>85.69</ele>
        <time>2010-11-21T09:40:58Z</time>
      </trkpt>
      <trkpt lat="47.31344" lon="0.04976">
        <ele>86.18</ele>
        <time>2010-11-21T09:40:59Z</time>
      </trkpt>
      <trkpt lat="47.31345" lon="0.04978">
        <ele>86.66</ele>
        <time>2010-11-21T09:41:00Z</time>
      </trkpt>
      <trkpt lat="47.31345" lon="0.04979">
        <ele>87.14</ele>
        <time>2010-11-21T09:41:01Z</time>
      </trkpt>
      <trkpt lat="47.31346" lon="0.04981">
        <ele>87.14</ele>
        <time>2010-11-21T09:41:02Z</time>
      </trkpt>
      <trkpt lat="47.31347" lon="0.04982">
        <ele>87.14</ele>
        <time>2010-11-21T09:41:03Z</time>
      </trkpt>
      <trkpt lat="47.31348" lon="0.04984">
        <ele>87.14</ele>
        <time>2010-11-21T09:41:04Z</time>
      </trkpt>
      <trkpt lat="47.31349" lon="0.04985">
        <ele>87.14</ele>
        <time>2010-11-21T09:41:05Z</time>
      </trkpt>
      <trkpt lat="47.3135" lon="0.04986">
        <ele>87.62</ele>
        <time>2010-11-21T09:41:06Z</time>
      </trkpt>
      <trkpt lat="47.31351" lon="0.04988">
        <ele>88.1</ele>
        <time>2010-11-21T09:41:07Z</time>
      </trkpt>
      <trkpt lat="47.31355" lon="0.04994">
        <ele>88.58</ele>
        <time>2010-11-21T09:41:12Z</time>
      </trkpt>
      <trkpt lat="47.31355" lon="0.04996">
        <ele>88.1</ele>
        <time>2010-11-21T09:41:13Z</time>
      </trkpt>
      <trkpt lat="47.31356" lon="0.04997">
        <ele>88.58</ele>
        <time>2010-11-21T09:41:14Z</time>
      </trkpt>
      <trkpt lat="47.31357" lon="0.04999">
        <ele>89.06</ele>
        <time>2010-11-21T09:41:15Z</time>
      </trkpt>
      <trkpt lat="47.31358" lon="0.05001">
        <ele>89.06</ele>
        <time>2010-11-21T09:41:16Z</time>
      </trkpt>
      <trkpt lat="47.31359" lon="0.05003">
        <ele>89.06</ele>
        <time>2010-11-21T09:41:17Z</time>
      </trkpt>
      <trkpt lat="47.3136" lon="0.05004">
        <ele>89.54</ele>
        <time>2010-11-21T09:41:18Z</time>
      </trkpt>
      <trkpt lat="47.31361" lon="0.05006">
        <ele>90.02</ele>
        <time>2010-11-21T09:41:19Z</time>
      </trkpt>
      <trkpt lat="47.31369" lon="0.0502">
        <ele>90.02</ele>
        <time>2010-11-21T09:41:26Z</time>
      </trkpt>
      <trkpt lat="47.31373" lon="0.05029">
        <ele>89.54</ele>
        <time>2010-11-21T09:41:31Z</time>
      </trkpt>
      <trkpt lat="47.31374" lon="0.05031">
        <ele>90.02</ele>
        <time>2010-11-21T09:41:32Z</time>
      </trkpt>
      <trkpt lat="47.31375" lon="0.05032">
        <ele>90.5</ele>
        <time>2010-11-21T09:41:33Z</time>
      </trkpt>
      <trkpt lat="47.31386" lon="0.0505">
        <ele>91.46</ele>
        <time>2010-11-21T09:41:41Z</time>
      </trkpt>
      <trkpt lat="47.31397" lon="0.05069">
        <ele>91.46</ele>
        <time>2010-11-21T09:41:49Z</time>
      </trkpt>
      <trkpt lat="47.31409" lon="0.05088">
        <ele>91.94</ele>
        <time>2010-11-21T09:41:56Z</time>
      </trkpt>
      <trkpt lat="47.31427" lon="0.05119">
        <ele>90.5</ele>
        <time>2010-11-21T09:42:04Z</time>
      </trkpt>
      <trkpt lat="47.31442" lon="0.0514">
        <ele>89.54</ele>
        <time>2010-11-21T09:42:09Z</time>
      </trkpt>
      <trkpt lat="47.31446" lon="0.05145">
        <ele>88.58</ele>
        <time>2010-11-21T09:42:10Z</time>
      </trkpt>
      <trkpt lat="47.31449" lon="0.05149">
        <ele>89.06</ele>
        <time>2010-11-21T09:42:11Z</time>
      </trkpt>
      <trkpt lat="47.31479" lon="0.05195">
        <ele>86.66</ele>
        <time>2010-11-21T09:42:21Z</time>
      </trkpt>
      <trkpt lat="47.31489" lon="0.05207">
        <ele>85.21</ele>
        <time>2010-11-21T09:42:24Z</time>
      </trkpt>
      <trkpt lat="47.31492" lon="0.05211">
        <ele>84.73</ele>
        <time>2010-11-21T09:42:25Z</time>
      </trkpt>
      <trkpt lat="47.31495" lon="0.05215">
        <ele>85.21</ele>
        <time>2010-11-21T09:42:26Z</time>
      </trkpt>
      <trkpt lat="47.31509" lon="0.05236">
        <ele>81.85</ele>
        <time>2010-11-21T09:42:31Z</time>
      </trkpt>
      <trkpt lat="47.31511" lon="0.05241">
        <ele>81.37</ele>
        <time>2010-11-21T09:42:32Z</time>
      </trkpt>
      <trkpt lat="47.31512" lon="0.05247">
        <ele>80.89</ele>
        <time>2010-11-21T09:42:33Z</time>
      </trkpt>
      <trkpt lat="47.31511" lon="0.05254">
        <ele>81.37</ele>
        <time>2010-11-21T09:42:34Z</time>
      </trkpt>
      <trkpt lat="47.3151" lon="0.0526">
        <ele>80.41</ele>
        <time>2010-11-21T09:42:35Z</time>
      </trkpt>
      <trkpt lat="47.31508" lon="0.05265">
        <ele>80.41</ele>
        <time>2010-11-21T09:42:36Z</time>
      </trkpt>
      <trkpt lat="47.31506" lon="0.05269">
        <ele>79.45</ele>
        <time>2010-11-21T09:42:37Z</time>
      </trkpt>
      <trkpt lat="47.31505" lon="0.05273">
        <ele>79.45</ele>
        <time>2010-11-21T09:42:38Z</time>
      </trkpt>
      <trkpt lat="47.31504" lon="0.05275">
        <ele>78</ele>
        <time>2010-11-21T09:42:39Z</time>
      </trkpt>
      <trkpt lat="47.31501" lon="0.05276">
        <ele>78</ele>
        <time>2010-11-21T09:42:40Z</time>
      </trkpt>
      <trkpt lat="47.31499" lon="0.05277">
        <ele>78</ele>
        <time>2010-11-21T09:42:42Z</time>
      </trkpt>
      <trkpt lat="47.31498" lon="0.05279">
        <ele>78</ele>
        <time>2010-11-21T09:42:43Z</time>
      </trkpt>
      <trkpt lat="47.31497" lon="0.05281">
        <ele>78.48</ele>
        <time>2010-11-21T09:42:44Z</time>
      </trkpt>
      <trkpt lat="47.31497" lon="0.05283">
        <ele>78</ele>
        <time>2010-11-21T09:42:45Z</time>
      </trkpt>
      <trkpt lat="47.31498" lon="0.05286">
        <ele>77.04</ele>
        <time>2010-11-21T09:42:46Z</time>
      </trkpt>
      <trkpt lat="47.31498" lon="0.05288">
        <ele>77.04</ele>
        <time>2010-11-21T09:42:47Z</time>
      </trkpt>
      <trkpt lat="47.31495" lon="0.05313">
        <ele>75.12</ele>
        <time>2010-11-21T09:42:52Z</time>
      </trkpt>
      <trkpt lat="47.31492" lon="0.05326">
        <ele>74.16</ele>
        <time>2010-11-21T09:42:54Z</time>
      </trkpt>
      <trkpt lat="47.31489" lon="0.0534">
        <ele>72.72</ele>
        <time>2010-11-21T09:42:56Z</time>
      </trkpt>
      <trkpt lat="47.31489" lon="0.05346">
        <ele>71.76</ele>
        <time>2010-11-21T09:42:57Z</time>
      </trkpt>
      <trkpt lat="47.31489" lon="0.05353">
        <ele>71.27</ele>
        <time>2010-11-21T09:42:58Z</time>
      </trkpt>
      <trkpt lat="47.31489" lon="0.05359">
        <ele>71.76</ele>
        <time>2010-11-21T09:42:59Z</time>
      </trkpt>
      <trkpt lat="47.3149" lon="0.05364">
        <ele>71.76</ele>
        <time>2010-11-21T09:43:00Z</time>
      </trkpt>
      <trkpt lat="47.31491" lon="0.05368">
        <ele>71.27</ele>
        <time>2010-11-21T09:43:01Z</time>
      </trkpt>
      <trkpt lat="47.3149" lon="0.05373">
        <ele>69.83</ele>
        <time>2010-11-21T09:43:02Z</time>
      </trkpt>
      <trkpt lat="47.31488" lon="0.05376">
        <ele>70.31</ele>
        <time>2010-11-21T09:43:03Z</time>
      </trkpt>
      <trkpt lat="47.31486" lon="0.05377">
        <ele>70.79</ele>
        <time>2010-11-21T09:43:04Z</time>
      </trkpt>
      <trkpt lat="47.31483" lon="0.05379">
        <ele>70.31</ele>
        <time>2010-11-21T09:43:05Z</time>
      </trkpt>
      <trkpt lat="47.31477" lon="0.05395">
        <ele>69.35</ele>
        <time>2010-11-21T09:43:10Z</time>
      </trkpt>
      <trkpt lat="47.3147" lon="0.05426">
        <ele>68.39</ele>
        <time>2010-11-21T09:43:16Z</time>
      </trkpt>
      <trkpt lat="47.31466" lon="0.05438">
        <ele>67.43</ele>
        <time>2010-11-21T09:43:18Z</time>
      </trkpt>
      <trkpt lat="47.31463" lon="0.05444">
        <ele>67.91</ele>
        <time>2010-11-21T09:43:19Z</time>
      </trkpt>
      <trkpt lat="47.3146" lon="0.05451">
        <ele>67.43</ele>
        <time>2010-11-21T09:43:20Z</time>
      </trkpt>
      <trkpt lat="47.31451" lon="0.0547">
        <ele>66.47</ele>
        <time>2010-11-21T09:43:23Z</time>
      </trkpt>
      <trkpt lat="47.31448" lon="0.05476">
        <ele>66.95</ele>
        <time>2010-11-21T09:43:24Z</time>
      </trkpt>
      <trkpt lat="47.31444" lon="0.0548">
        <ele>66.95</ele>
        <time>2010-11-21T09:43:25Z</time>
      </trkpt>
      <trkpt lat="47.31441" lon="0.05484">
        <ele>65.99</ele>
        <time>2010-11-21T09:43:26Z</time>
      </trkpt>
      <trkpt lat="47.31437" lon="0.05488">
        <ele>65.51</ele>
        <time>2010-11-21T09:43:27Z</time>
      </trkpt>
      <trkpt lat="47.31433" lon="0.05492">
        <ele>66.47</ele>
        <time>2010-11-21T09:43:28Z</time>
      </trkpt>
      <trkpt lat="47.3143" lon="0.05496">
        <ele>65.99</ele>
        <time>2010-11-21T09:43:29Z</time>
      </trkpt>
      <trkpt lat="47.31419" lon="0.05509">
        <ele>64.55</ele>
        <time>2010-11-21T09:43:32Z</time>
      </trkpt>
      <trkpt lat="47.31415" lon="0.05513">
        <ele>64.07</ele>
        <time>2010-11-21T09:43:33Z</time>
      </trkpt>
      <trkpt lat="47.31412" lon="0.05518">
        <ele>63.58</ele>
        <time>2010-11-21T09:43:34Z</time>
      </trkpt>
      <trkpt lat="47.31398" lon="0.05538">
        <ele>63.1</ele>
        <time>2010-11-21T09:43:39Z</time>
      </trkpt>
      <trkpt lat="47.31398" lon="0.05541">
        <ele>63.1</ele>
        <time>2010-11-21T09:43:40Z</time>
      </trkpt>
      <trkpt lat="47.314" lon="0.05544">
        <ele>62.62</ele>
        <time>2010-11-21T09:43:41Z</time>
      </trkpt>
      <trkpt lat="47.31401" lon="0.05546">
        <ele>62.14</ele>
        <time>2010-11-21T09:43:42Z</time>
      </trkpt>
      <trkpt lat="47.31403" lon="0.0555">
        <ele>64.07</ele>
        <time>2010-11-21T09:43:45Z</time>
      </trkpt>
      <trkpt lat="47.31404" lon="0.05552">
        <ele>63.58</ele>
        <time>2010-11-21T09:43:46Z</time>
      </trkpt>
      <trkpt lat="47.31406" lon="0.05553">
        <ele>64.07</ele>
        <time>2010-11-21T09:43:48Z</time>
      </trkpt>
      <trkpt lat="47.31416" lon="0.0556">
        <ele>65.51</ele>
        <time>2010-11-21T09:43:53Z</time>
      </trkpt>
      <trkpt lat="47.31424" lon="0.05563">
        <ele>67.43</ele>
        <time>2010-11-21T09:43:58Z</time>
      </trkpt>
      <trkpt lat="47.31426" lon="0.05564">
        <ele>66.47</ele>
        <time>2010-11-21T09:43:59Z</time>
      </trkpt>
      <trkpt lat="47.31428" lon="0.05565">
        <ele>66.95</ele>
        <time>2010-11-21T09:44:00Z</time>
      </trkpt>
      <trkpt lat="47.3143" lon="0.05566">
        <ele>67.43</ele>
        <time>2010-11-21T09:44:01Z</time>
      </trkpt>
      <trkpt lat="47.31431" lon="0.05566">
        <ele>67.43</ele>
        <time>2010-11-21T09:44:02Z</time>
      </trkpt>
      <trkpt lat="47.31442" lon="0.0557">
        <ele>69.83</ele>
        <time>2010-11-21T09:44:09Z</time>
      </trkpt>
      <trkpt lat="47.31447" lon="0.05571">
        <ele>70.79</ele>
        <time>2010-11-21T09:44:14Z</time>
      </trkpt>
      <trkpt lat="47.31455" lon="0.05574">
        <ele>72.24</ele>
        <time>2010-11-21T09:44:20Z</time>
      </trkpt>
      <trkpt lat="47.31458" lon="0.05574">
        <ele>72.72</ele>
        <time>2010-11-21T09:44:22Z</time>
      </trkpt>
      <trkpt lat="47.31464" lon="0.05577">
        <ele>74.64</ele>
        <time>2010-11-21T09:44:28Z</time>
      </trkpt>
      <trkpt lat="47.31469" lon="0.05579">
        <ele>75.12</ele>
        <time>2010-11-21T09:44:34Z</time>
      </trkpt>
      <trkpt lat="47.31471" lon="0.0558">
        <ele>76.08</ele>
        <time>2010-11-21T09:44:35Z</time>
      </trkpt>
      <trkpt lat="47.31475" lon="0.05583">
        <ele>76.56</ele>
        <time>2010-11-21T09:44:39Z</time>
      </trkpt>
      <trkpt lat="47.31483" lon="0.05588">
        <ele>78</ele>
        <time>2010-11-21T09:44:46Z</time>
      </trkpt>
      <trkpt lat="47.31489" lon="0.05593">
        <ele>79.45</ele>
        <time>2010-11-21T09:44:54Z</time>
      </trkpt>
      <trkpt lat="47.31493" lon="0.05596">
        <ele>79.45</ele>
        <time>2010-11-21T09:44:59Z</time>
      </trkpt>
      <trkpt lat="47.315" lon="0.05601">
        <ele>80.89</ele>
        <time>2010-11-21T09:45:06Z</time>
      </trkpt>
      <trkpt lat="47.31503" lon="0.05605">
        <ele>81.37</ele>
        <time>2010-11-21T09:45:09Z</time>
      </trkpt>
      <trkpt lat="47.31504" lon="0.05606">
        <ele>81.37</ele>
        <time>2010-11-21T09:45:10Z</time>
      </trkpt>
      <trkpt lat="47.31505" lon="0.05607">
        <ele>81.37</ele>
        <time>2010-11-21T09:45:11Z</time>
      </trkpt>
      <trkpt lat="47.31507" lon="0.05607">
        <ele>81.37</ele>
        <time>2010-11-21T09:45:12Z</time>
      </trkpt>
      <trkpt lat="47.31516" lon="0.05613">
        <ele>82.33</ele>
        <time>2010-11-21T09:45:18Z</time>
      </trkpt>
      <trkpt lat="47.31526" lon="0.05617">
        <ele>82.81</ele>
        <time>2010-11-21T09:45:24Z</time>
      </trkpt>
      <trkpt lat="47.31533" lon="0.05621">
        <ele>84.25</ele>
        <time>2010-11-21T09:45:29Z</time>
      </trkpt>
      <trkpt lat="47.31535" lon="0.05622">
        <ele>84.25</ele>
        <time>2010-11-21T09:45:30Z</time>
      </trkpt>
      <trkpt lat="47.31536" lon="0.05623">
        <ele>84.25</ele>
        <time>2010-11-21T09:45:31Z</time>
      </trkpt>
      <trkpt lat="47.31538" lon="0.05623">
        <ele>85.21</ele>
        <time>2010-11-21T09:45:32Z</time>
      </trkpt>
      <trkpt lat="47.3154" lon="0.05625">
        <ele>85.21</ele>
        <time>2010-11-21T09:45:33Z</time>
      </trkpt>
      <trkpt lat="47.31541" lon="0.05625">
        <ele>85.21</ele>
        <time>2010-11-21T09:45:34Z</time>
      </trkpt>
      <trkpt lat="47.31543" lon="0.05626">
        <ele>85.21</ele>
        <time>2010-11-21T09:45:35Z</time>
      </trkpt>
      <trkpt lat="47.31547" lon="0.05626">
        <ele>85.69</ele>
        <time>2010-11-21T09:45:39Z</time>
      </trkpt>
      <trkpt lat="47.31549" lon="0.05626">
        <ele>86.18</ele>
        <time>2010-11-21T09:45:40Z</time>
      </trkpt>
      <trkpt lat="47.3155" lon="0.05627">
        <ele>86.18</ele>
        <time>2010-11-21T09:45:41Z</time>
      </trkpt>
      <trkpt lat="47.31558" lon="0.0563">
        <ele>87.14</ele>
        <time>2010-11-21T09:45:46Z</time>
      </trkpt>
      <trkpt lat="47.3157" lon="0.05635">
        <ele>87.62</ele>
        <time>2010-11-21T09:45:53Z</time>
      </trkpt>
      <trkpt lat="47.31585" lon="0.05641">
        <ele>89.06</ele>
        <time>2010-11-21T09:46:00Z</time>
      </trkpt>
      <trkpt lat="47.31598" lon="0.05648">
        <ele>89.54</ele>
        <time>2010-11-21T09:46:06Z</time>
      </trkpt>
      <trkpt lat="47.31614" lon="0.05658">
        <ele>90.02</ele>
        <time>2010-11-21T09:46:14Z</time>
      </trkpt>
      <trkpt lat="47.31621" lon="0.05661">
        <ele>90.5</ele>
        <time>2010-11-21T09:46:17Z</time>
      </trkpt>
      <trkpt lat="47.31623" lon="0.05662">
        <ele>90.98</ele>
        <time>2010-11-21T09:46:18Z</time>
      </trkpt>
      <trkpt lat="47.31626" lon="0.05664">
        <ele>90.98</ele>
        <time>2010-11-21T09:46:19Z</time>
      </trkpt>
      <trkpt lat="47.31629" lon="0.05664">
        <ele>90.02</ele>
        <time>2010-11-21T09:46:20Z</time>
      </trkpt>
      <trkpt lat="47.3163" lon="0.05665">
        <ele>90.5</ele>
        <time>2010-11-21T09:46:21Z</time>
      </trkpt>
      <trkpt lat="47.31633" lon="0.05665">
        <ele>90.98</ele>
        <time>2010-11-21T09:46:22Z</time>
      </trkpt>
      <trkpt lat="47.31635" lon="0.05666">
        <ele>90.5</ele>
        <time>2010-11-21T09:46:23Z</time>
      </trkpt>
      <trkpt lat="47.31637" lon="0.05668">
        <ele>90.98</ele>
        <time>2010-11-21T09:46:24Z</time>
      </trkpt>
      <trkpt lat="47.31639" lon="0.05669">
        <ele>90.02</ele>
        <time>2010-11-21T09:46:25Z</time>
      </trkpt>
      <trkpt lat="47.31652" lon="0.05672">
        <ele>91.46</ele>
        <time>2010-11-21T09:46:30Z</time>
      </trkpt>
      <trkpt lat="47.31666" lon="0.05678">
        <ele>91.46</ele>
        <time>2010-11-21T09:46:36Z</time>
      </trkpt>
      <trkpt lat="47.31675" lon="0.05696">
        <ele>90.98</ele>
        <time>2010-11-21T09:46:42Z</time>
      </trkpt>
      <trkpt lat="47.31681" lon="0.05715">
        <ele>91.46</ele>
        <time>2010-11-21T09:46:48Z</time>
      </trkpt>
      <trkpt lat="47.31685" lon="0.05719">
        <ele>90.98</ele>
        <time>2010-11-21T09:46:50Z</time>
      </trkpt>
      <trkpt lat="47.31687" lon="0.05722">
        <ele>90.98</ele>
        <time>2010-11-21T09:46:51Z</time>
      </trkpt>
      <trkpt lat="47.31688" lon="0.05725">
        <ele>90.98</ele>
        <time>2010-11-21T09:46:52Z</time>
      </trkpt>
      <trkpt lat="47.31693" lon="0.0574">
        <ele>90.5</ele>
        <time>2010-11-21T09:46:58Z</time>
      </trkpt>
      <trkpt lat="47.31695" lon="0.05747">
        <ele>91.94</ele>
        <time>2010-11-21T09:47:01Z</time>
      </trkpt>
      <trkpt lat="47.31697" lon="0.0575">
        <ele>91.46</ele>
        <time>2010-11-21T09:47:02Z</time>
      </trkpt>
      <trkpt lat="47.31698" lon="0.05754">
        <ele>90.98</ele>
        <time>2010-11-21T09:47:03Z</time>
      </trkpt>
      <trkpt lat="47.31699" lon="0.05756">
        <ele>91.94</ele>
        <time>2010-11-21T09:47:04Z</time>
      </trkpt>
      <trkpt lat="47.31701" lon="0.05758">
        <ele>90.98</ele>
        <time>2010-11-21T09:47:05Z</time>
      </trkpt>
      <trkpt lat="47.31702" lon="0.05761">
        <ele>91.46</ele>
        <time>2010-11-21T09:47:06Z</time>
      </trkpt>
      <trkpt lat="47.31704" lon="0.05765">
        <ele>91.46</ele>
        <time>2010-11-21T09:47:07Z</time>
      </trkpt>
      <trkpt lat="47.31713" lon="0.05783">
        <ele>90.98</ele>
        <time>2010-11-21T09:47:12Z</time>
      </trkpt>
      <trkpt lat="47.31724" lon="0.05807">
        <ele>91.94</ele>
        <time>2010-11-21T09:47:19Z</time>
      </trkpt>
      <trkpt lat="47.3173" lon="0.05823">
        <ele>90.98</ele>
        <time>2010-11-21T09:47:23Z</time>
      </trkpt>
      <trkpt lat="47.3173" lon="0.05826">
        <ele>90.98</ele>
        <time>2010-11-21T09:47:30Z</time>
      </trkpt>
      <trkpt lat="47.31732" lon="0.05833">
        <ele>90.5</ele>
        <time>2010-11-21T09:47:38Z</time>
      </trkpt>
      <trkpt lat="47.31733" lon="0.05837">
        <ele>91.46</ele>
        <time>2010-11-21T09:47:39Z</time>
      </trkpt>
      <trkpt lat="47.31736" lon="0.05841">
        <ele>91.94</ele>
        <time>2010-11-21T09:47:40Z</time>
      </trkpt>
      <trkpt lat="47.31738" lon="0.05846">
        <ele>92.42</ele>
        <time>2010-11-21T09:47:41Z</time>
      </trkpt>
      <trkpt lat="47.3174" lon="0.05851">
        <ele>92.42</ele>
        <time>2010-11-21T09:47:42Z</time>
      </trkpt>
      <trkpt lat="47.31749" lon="0.05877">
        <ele>92.42</ele>
        <time>2010-11-21T09:47:48Z</time>
      </trkpt>
      <trkpt lat="47.31751" lon="0.05887">
        <ele>92.9</ele>
        <time>2010-11-21T09:47:50Z</time>
      </trkpt>
      <trkpt lat="47.31754" lon="0.05892">
        <ele>92.42</ele>
        <time>2010-11-21T09:47:51Z</time>
      </trkpt>
      <trkpt lat="47.31755" lon="0.05896">
        <ele>92.42</ele>
        <time>2010-11-21T09:47:52Z</time>
      </trkpt>
      <trkpt lat="47.31756" lon="0.059">
        <ele>92.42</ele>
        <time>2010-11-21T09:47:53Z</time>
      </trkpt>
      <trkpt lat="47.31757" lon="0.05903">
        <ele>92.42</ele>
        <time>2010-11-21T09:47:54Z</time>
      </trkpt>
      <trkpt lat="47.31759" lon="0.05907">
        <ele>92.42</ele>
        <time>2010-11-21T09:47:55Z</time>
      </trkpt>
      <trkpt lat="47.31759" lon="0.05925">
        <ele>93.39</ele>
        <time>2010-11-21T09:47:59Z</time>
      </trkpt>
      <trkpt lat="47.31766" lon="0.05949">
        <ele>93.39</ele>
        <time>2010-11-21T09:48:05Z</time>
      </trkpt>
      <trkpt lat="47.31778" lon="0.05968">
        <ele>92.9</ele>
        <time>2010-11-21T09:48:10Z</time>
      </trkpt>
      <trkpt lat="47.31802" lon="0.05994">
        <ele>93.87</ele>
        <time>2010-11-21T09:48:17Z</time>
      </trkpt>
      <trkpt lat="47.31834" lon="0.06024">
        <ele>93.39</ele>
        <time>2010-11-21T09:48:26Z</time>
      </trkpt>
      <trkpt lat="47.31851" lon="0.06038">
        <ele>92.9</ele>
        <time>2010-11-21T09:48:31Z</time>
      </trkpt>
      <trkpt lat="47.31864" lon="0.06048">
        <ele>93.39</ele>
        <time>2010-11-21T09:48:35Z</time>
      </trkpt>
      <trkpt lat="47.31879" lon="0.06055">
        <ele>93.87</ele>
        <time>2010-11-21T09:48:39Z</time>
      </trkpt>
      <trkpt lat="47.31901" lon="0.06065">
        <ele>92.9</ele>
        <time>2010-11-21T09:48:44Z</time>
      </trkpt>
      <trkpt lat="47.31911" lon="0.06071">
        <ele>93.39</ele>
        <time>2010-11-21T09:48:46Z</time>
      </trkpt>
      <trkpt lat="47.31916" lon="0.06074">
        <ele>92.42</ele>
        <time>2010-11-21T09:48:47Z</time>
      </trkpt>
      <trkpt lat="47.31921" lon="0.06077">
        <ele>92.9</ele>
        <time>2010-11-21T09:48:48Z</time>
      </trkpt>
      <trkpt lat="47.31946" lon="0.0609">
        <ele>93.39</ele>
        <time>2010-11-21T09:48:54Z</time>
      </trkpt>
      <trkpt lat="47.3195" lon="0.06092">
        <ele>93.39</ele>
        <time>2010-11-21T09:48:55Z</time>
      </trkpt>
      <trkpt lat="47.31954" lon="0.06094">
        <ele>93.87</ele>
        <time>2010-11-21T09:48:56Z</time>
      </trkpt>
      <trkpt lat="47.31978" lon="0.06109">
        <ele>94.35</ele>
        <time>2010-11-21T09:49:02Z</time>
      </trkpt>
      <trkpt lat="47.31999" lon="0.06121">
        <ele>95.31</ele>
        <time>2010-11-21T09:49:08Z</time>
      </trkpt>
      <trkpt lat="47.3202" lon="0.06131">
        <ele>96.27</ele>
        <time>2010-11-21T09:49:14Z</time>
      </trkpt>
      <trkpt lat="47.32042" lon="0.06143">
        <ele>96.27</ele>
        <time>2010-11-21T09:49:20Z</time>
      </trkpt>
      <trkpt lat="47.32066" lon="0.06153">
        <ele>97.23</ele>
        <time>2010-11-21T09:49:26Z</time>
      </trkpt>
      <trkpt lat="47.32093" lon="0.06167">
        <ele>97.23</ele>
        <time>2010-11-21T09:49:33Z</time>
      </trkpt>
      <trkpt lat="47.32126" lon="0.06187">
        <ele>98.67</ele>
        <time>2010-11-21T09:49:41Z</time>
      </trkpt>
      <trkpt lat="47.3214" lon="0.06195">
        <ele>96.75</ele>
        <time>2010-11-21T09:49:44Z</time>
      </trkpt>
      <trkpt lat="47.32182" lon="0.06209">
        <ele>97.23</ele>
        <time>2010-11-21T09:49:52Z</time>
      </trkpt>
      <trkpt lat="47.32227" lon="0.06225">
        <ele>94.35</ele>
        <time>2010-11-21T09:50:00Z</time>
      </trkpt>
      <trkpt lat="47.32266" lon="0.06236">
        <ele>93.87</ele>
        <time>2010-11-21T09:50:07Z</time>
      </trkpt>
      <trkpt lat="47.32277" lon="0.06237">
        <ele>93.87</ele>
        <time>2010-11-21T09:50:09Z</time>
      </trkpt>
      <trkpt lat="47.32282" lon="0.06238">
        <ele>93.87</ele>
        <time>2010-11-21T09:50:10Z</time>
      </trkpt>
      <trkpt lat="47.32286" lon="0.06239">
        <ele>93.87</ele>
        <time>2010-11-21T09:50:11Z</time>
      </trkpt>
      <trkpt lat="47.3229" lon="0.06241">
        <ele>92.9</ele>
        <time>2010-11-21T09:50:12Z</time>
      </trkpt>
      <trkpt lat="47.32295" lon="0.06242">
        <ele>93.87</ele>
        <time>2010-11-21T09:50:13Z</time>
      </trkpt>
      <trkpt lat="47.32304" lon="0.06244">
        <ele>93.39</ele>
        <time>2010-11-21T09:50:15Z</time>
      </trkpt>
      <trkpt lat="47.32309" lon="0.06245">
        <ele>93.39</ele>
        <time>2010-11-21T09:50:16Z</time>
      </trkpt>
      <trkpt lat="47.3233" lon="0.06248">
        <ele>93.39</ele>
        <time>2010-11-21T09:50:20Z</time>
      </trkpt>
      <trkpt lat="47.32345" lon="0.0625">
        <ele>92.9</ele>
        <time>2010-11-21T09:50:23Z</time>
      </trkpt>
      <trkpt lat="47.32372" lon="0.06253">
        <ele>93.39</ele>
        <time>2010-11-21T09:50:28Z</time>
      </trkpt>
      <trkpt lat="47.32377" lon="0.06253">
        <ele>92.9</ele>
        <time>2010-11-21T09:50:29Z</time>
      </trkpt>
      <trkpt lat="47.32382" lon="0.06253">
        <ele>92.9</ele>
        <time>2010-11-21T09:50:30Z</time>
      </trkpt>
      <trkpt lat="47.32392" lon="0.06253">
        <ele>93.87</ele>
        <time>2010-11-21T09:50:32Z</time>
      </trkpt>
      <trkpt lat="47.32402" lon="0.06253">
        <ele>93.87</ele>
        <time>2010-11-21T09:50:34Z</time>
      </trkpt>
      <trkpt lat="47.32413" lon="0.0625">
        <ele>94.35</ele>
        <time>2010-11-21T09:50:36Z</time>
      </trkpt>
      <trkpt lat="47.32434" lon="0.06246">
        <ele>94.83</ele>
        <time>2010-11-21T09:50:40Z</time>
      </trkpt>
      <trkpt lat="47.3244" lon="0.06245">
        <ele>95.31</ele>
        <time>2010-11-21T09:50:41Z</time>
      </trkpt>
      <trkpt lat="47.32445" lon="0.06245">
        <ele>95.31</ele>
        <time>2010-11-21T09:50:42Z</time>
      </trkpt>
      <trkpt lat="47.32454" lon="0.06243">
        <ele>95.31</ele>
        <time>2010-11-21T09:50:44Z</time>
      </trkpt>
      <trkpt lat="47.32459" lon="0.06242">
        <ele>96.27</ele>
        <time>2010-11-21T09:50:45Z</time>
      </trkpt>
      <trkpt lat="47.32464" lon="0.06241">
        <ele>95.79</ele>
        <time>2010-11-21T09:50:46Z</time>
      </trkpt>
      <trkpt lat="47.32496" lon="0.06232">
        <ele>95.79</ele>
        <time>2010-11-21T09:50:52Z</time>
      </trkpt>
      <trkpt lat="47.32501" lon="0.06231">
        <ele>96.27</ele>
        <time>2010-11-21T09:50:53Z</time>
      </trkpt>
      <trkpt lat="47.32506" lon="0.06229">
        <ele>96.75</ele>
        <time>2010-11-21T09:50:54Z</time>
      </trkpt>
      <trkpt lat="47.32511" lon="0.06229">
        <ele>96.75</ele>
        <time>2010-11-21T09:50:55Z</time>
      </trkpt>
      <trkpt lat="47.32525" lon="0.06225">
        <ele>96.75</ele>
        <time>2010-11-21T09:50:58Z</time>
      </trkpt>
      <trkpt lat="47.3253" lon="0.06224">
        <ele>96.27</ele>
        <time>2010-11-21T09:50:59Z</time>
      </trkpt>
      <trkpt lat="47.32535" lon="0.06222">
        <ele>97.23</ele>
        <time>2010-11-21T09:51:00Z</time>
      </trkpt>
      <trkpt lat="47.32541" lon="0.0622">
        <ele>96.27</ele>
        <time>2010-11-21T09:51:01Z</time>
      </trkpt>
      <trkpt lat="47.32546" lon="0.06219">
        <ele>96.75</ele>
        <time>2010-11-21T09:51:02Z</time>
      </trkpt>
      <trkpt lat="47.32551" lon="0.06218">
        <ele>96.27</ele>
        <time>2010-11-21T09:51:03Z</time>
      </trkpt>
      <trkpt lat="47.32579" lon="0.06213">
        <ele>96.75</ele>
        <time>2010-11-21T09:51:09Z</time>
      </trkpt>
      <trkpt lat="47.32603" lon="0.06207">
        <ele>96.27</ele>
        <time>2010-11-21T09:51:14Z</time>
      </trkpt>
      <trkpt lat="47.32635" lon="0.06207">
        <ele>96.75</ele>
        <time>2010-11-21T09:51:20Z</time>
      </trkpt>
      <trkpt lat="47.32649" lon="0.06207">
        <ele>97.23</ele>
        <time>2010-11-21T09:51:23Z</time>
      </trkpt>
      <trkpt lat="47.32675" lon="0.06212">
        <ele>95.79</ele>
        <time>2010-11-21T09:51:28Z</time>
      </trkpt>
      <trkpt lat="47.32681" lon="0.06214">
        <ele>96.27</ele>
        <time>2010-11-21T09:51:29Z</time>
      </trkpt>
      <trkpt lat="47.32724" lon="0.06224">
        <ele>95.79</ele>
        <time>2010-11-21T09:51:36Z</time>
      </trkpt>
      <trkpt lat="47.32751" lon="0.06229">
        <ele>95.31</ele>
        <time>2010-11-21T09:51:41Z</time>
      </trkpt>
      <trkpt lat="47.32783" lon="0.06239">
        <ele>95.31</ele>
        <time>2010-11-21T09:51:47Z</time>
      </trkpt>
      <trkpt lat="47.32795" lon="0.06243">
        <ele>95.79</ele>
        <time>2010-11-21T09:51:49Z</time>
      </trkpt>
      <trkpt lat="47.32814" lon="0.06249">
        <ele>95.79</ele>
        <time>2010-11-21T09:51:52Z</time>
      </trkpt>
      <trkpt lat="47.32825" lon="0.06251">
        <ele>95.79</ele>
        <time>2010-11-21T09:51:54Z</time>
      </trkpt>
      <trkpt lat="47.3286" lon="0.06263">
        <ele>95.79</ele>
        <time>2010-11-21T09:52:00Z</time>
      </trkpt>
      <trkpt lat="47.32914" lon="0.06282">
        <ele>94.83</ele>
        <time>2010-11-21T09:52:10Z</time>
      </trkpt>
      <trkpt lat="47.3292" lon="0.06285">
        <ele>94.35</ele>
        <time>2010-11-21T09:52:11Z</time>
      </trkpt>
      <trkpt lat="47.32925" lon="0.06287">
        <ele>95.31</ele>
        <time>2010-11-21T09:52:12Z</time>
      </trkpt>
      <trkpt lat="47.32964" lon="0.06298">
        <ele>94.83</ele>
        <time>2010-11-21T09:52:20Z</time>
      </trkpt>
      <trkpt lat="47.32976" lon="0.06303">
        <ele>95.79</ele>
        <time>2010-11-21T09:52:23Z</time>
      </trkpt>
      <trkpt lat="47.32981" lon="0.06304">
        <ele>95.31</ele>
        <time>2010-11-21T09:52:24Z</time>
      </trkpt>
      <trkpt lat="47.32984" lon="0.06305">
        <ele>95.79</ele>
        <time>2010-11-21T09:52:25Z</time>
      </trkpt>
      <trkpt lat="47.32988" lon="0.06307">
        <ele>95.79</ele>
        <time>2010-11-21T09:52:26Z</time>
      </trkpt>
      <trkpt lat="47.32992" lon="0.06308">
        <ele>94.83</ele>
        <time>2010-11-21T09:52:27Z</time>
      </trkpt>
      <trkpt lat="47.33011" lon="0.06318">
        <ele>94.83</ele>
        <time>2010-11-21T09:52:32Z</time>
      </trkpt>
      <trkpt lat="47.3302" lon="0.06321">
        <ele>94.83</ele>
        <time>2010-11-21T09:52:34Z</time>
      </trkpt>
      <trkpt lat="47.33047" lon="0.06326">
        <ele>95.31</ele>
        <time>2010-11-21T09:52:39Z</time>
      </trkpt>
      <trkpt lat="47.33058" lon="0.06328">
        <ele>94.83</ele>
        <time>2010-11-21T09:52:41Z</time>
      </trkpt>
      <trkpt lat="47.33063" lon="0.0633">
        <ele>94.83</ele>
        <time>2010-11-21T09:52:42Z</time>
      </trkpt>
      <trkpt lat="47.33068" lon="0.06332">
        <ele>94.83</ele>
        <time>2010-11-21T09:52:43Z</time>
      </trkpt>
      <trkpt lat="47.33073" lon="0.06334">
        <ele>94.83</ele>
        <time>2010-11-21T09:52:44Z</time>
      </trkpt>
      <trkpt lat="47.33078" lon="0.06337">
        <ele>94.83</ele>
        <time>2010-11-21T09:52:45Z</time>
      </trkpt>
      <trkpt lat="47.33083" lon="0.06339">
        <ele>94.35</ele>
        <time>2010-11-21T09:52:46Z</time>
      </trkpt>
      <trkpt lat="47.33088" lon="0.06341">
        <ele>94.35</ele>
        <time>2010-11-21T09:52:47Z</time>
      </trkpt>
      <trkpt lat="47.33094" lon="0.06343">
        <ele>94.83</ele>
        <time>2010-11-21T09:52:48Z</time>
      </trkpt>
      <trkpt lat="47.33099" lon="0.06345">
        <ele>94.35</ele>
        <time>2010-11-21T09:52:49Z</time>
      </trkpt>
      <trkpt lat="47.33105" lon="0.06347">
        <ele>94.83</ele>
        <time>2010-11-21T09:52:50Z</time>
      </trkpt>
      <trkpt lat="47.33128" lon="0.06354">
        <ele>93.87</ele>
        <time>2010-11-21T09:52:54Z</time>
      </trkpt>
      <trkpt lat="47.33162" lon="0.0636">
        <ele>92.9</ele>
        <time>2010-11-21T09:53:00Z</time>
      </trkpt>
      <trkpt lat="47.33168" lon="0.06362">
        <ele>92.9</ele>
        <time>2010-11-21T09:53:01Z</time>
      </trkpt>
      <trkpt lat="47.33178" lon="0.06366">
        <ele>92.9</ele>
        <time>2010-11-21T09:53:03Z</time>
      </trkpt>
      <trkpt lat="47.33203" lon="0.0638">
        <ele>92.9</ele>
        <time>2010-11-21T09:53:08Z</time>
      </trkpt>
      <trkpt lat="47.33213" lon="0.06387">
        <ele>92.9</ele>
        <time>2010-11-21T09:53:10Z</time>
      </trkpt>
      <trkpt lat="47.33218" lon="0.0639">
        <ele>92.9</ele>
        <time>2010-11-21T09:53:11Z</time>
      </trkpt>
      <trkpt lat="47.33222" lon="0.06393">
        <ele>92.9</ele>
        <time>2010-11-21T09:53:12Z</time>
      </trkpt>
      <trkpt lat="47.33244" lon="0.06407">
        <ele>92.9</ele>
        <time>2010-11-21T09:53:17Z</time>
      </trkpt>
      <trkpt lat="47.33249" lon="0.06411">
        <ele>92.9</ele>
        <time>2010-11-21T09:53:18Z</time>
      </trkpt>
      <trkpt lat="47.33271" lon="0.06425">
        <ele>92.9</ele>
        <time>2010-11-21T09:53:22Z</time>
      </trkpt>
      <trkpt lat="47.33276" lon="0.06428">
        <ele>92.9</ele>
        <time>2010-11-21T09:53:23Z</time>
      </trkpt>
      <trkpt lat="47.33287" lon="0.06435">
        <ele>91.94</ele>
        <time>2010-11-21T09:53:25Z</time>
      </trkpt>
      <trkpt lat="47.33292" lon="0.06439">
        <ele>91.94</ele>
        <time>2010-11-21T09:53:26Z</time>
      </trkpt>
      <trkpt lat="47.33304" lon="0.06446">
        <ele>91.46</ele>
        <time>2010-11-21T09:53:28Z</time>
      </trkpt>
      <trkpt lat="47.33309" lon="0.0645">
        <ele>91.94</ele>
        <time>2010-11-21T09:53:29Z</time>
      </trkpt>
      <trkpt lat="47.33332" lon="0.06462">
        <ele>90.98</ele>
        <time>2010-11-21T09:53:33Z</time>
      </trkpt>
      <trkpt lat="47.33337" lon="0.06465">
        <ele>90.98</ele>
        <time>2010-11-21T09:53:34Z</time>
      </trkpt>
      <trkpt lat="47.33349" lon="0.06471">
        <ele>90.98</ele>
        <time>2010-11-21T09:53:36Z</time>
      </trkpt>
      <trkpt lat="47.33405" lon="0.06503">
        <ele>89.06</ele>
        <time>2010-11-21T09:53:46Z</time>
      </trkpt>
      <trkpt lat="47.33423" lon="0.06516">
        <ele>88.58</ele>
        <time>2010-11-21T09:53:49Z</time>
      </trkpt>
      <trkpt lat="47.33465" lon="0.06557">
        <ele>88.58</ele>
        <time>2010-11-21T09:53:57Z</time>
      </trkpt>
      <trkpt lat="47.33503" lon="0.06593">
        <ele>88.58</ele>
        <time>2010-11-21T09:54:05Z</time>
      </trkpt>
      <trkpt lat="47.33535" lon="0.06626">
        <ele>88.58</ele>
        <time>2010-11-21T09:54:12Z</time>
      </trkpt>
      <trkpt lat="47.33576" lon="0.06662">
        <ele>90.02</ele>
        <time>2010-11-21T09:54:21Z</time>
      </trkpt>
      <trkpt lat="47.33612" lon="0.06688">
        <ele>90.02</ele>
        <time>2010-11-21T09:54:29Z</time>
      </trkpt>
      <trkpt lat="47.33661" lon="0.06717">
        <ele>91.46</ele>
        <time>2010-11-21T09:54:40Z</time>
      </trkpt>
      <trkpt lat="47.33679" lon="0.06725">
        <ele>90.5</ele>
        <time>2010-11-21T09:54:44Z</time>
      </trkpt>
      <trkpt lat="47.33696" lon="0.06732">
        <ele>91.94</ele>
        <time>2010-11-21T09:54:48Z</time>
      </trkpt>
      <trkpt lat="47.33709" lon="0.06736">
        <ele>91.94</ele>
        <time>2010-11-21T09:54:51Z</time>
      </trkpt>
      <trkpt lat="47.33741" lon="0.06735">
        <ele>92.42</ele>
        <time>2010-11-21T09:54:59Z</time>
      </trkpt>
      <trkpt lat="47.33784" lon="0.06713">
        <ele>91.94</ele>
        <time>2010-11-21T09:55:09Z</time>
      </trkpt>
      <trkpt lat="47.33824" lon="0.06694">
        <ele>92.42</ele>
        <time>2010-11-21T09:55:18Z</time>
      </trkpt>
      <trkpt lat="47.33866" lon="0.06673">
        <ele>91.94</ele>
        <time>2010-11-21T09:55:27Z</time>
      </trkpt>
      <trkpt lat="47.33878" lon="0.06665">
        <ele>92.9</ele>
        <time>2010-11-21T09:55:30Z</time>
      </trkpt>
      <trkpt lat="47.3391" lon="0.06637">
        <ele>92.42</ele>
        <time>2010-11-21T09:55:38Z</time>
      </trkpt>
      <trkpt lat="47.33936" lon="0.0661">
        <ele>92.9</ele>
        <time>2010-11-21T09:55:46Z</time>
      </trkpt>
      <trkpt lat="47.33946" lon="0.066">
        <ele>93.39</ele>
        <time>2010-11-21T09:55:51Z</time>
      </trkpt>
      <trkpt lat="47.33947" lon="0.06599">
        <ele>92.9</ele>
        <time>2010-11-21T09:55:52Z</time>
      </trkpt>
      <trkpt lat="47.33948" lon="0.06594">
        <ele>93.39</ele>
        <time>2010-11-21T09:55:56Z</time>
      </trkpt>
      <trkpt lat="47.3395" lon="0.06591">
        <ele>93.39</ele>
        <time>2010-11-21T09:55:58Z</time>
      </trkpt>
      <trkpt lat="47.33951" lon="0.0659">
        <ele>93.87</ele>
        <time>2010-11-21T09:55:59Z</time>
      </trkpt>
      <trkpt lat="47.33952" lon="0.06589">
        <ele>93.39</ele>
        <time>2010-11-21T09:56:00Z</time>
      </trkpt>
      <trkpt lat="47.33954" lon="0.06588">
        <ele>92.9</ele>
        <time>2010-11-21T09:56:01Z</time>
      </trkpt>
      <trkpt lat="47.33955" lon="0.06586">
        <ele>92.9</ele>
        <time>2010-11-21T09:56:02Z</time>
      </trkpt>
      <trkpt lat="47.33956" lon="0.06585">
        <ele>93.39</ele>
        <time>2010-11-21T09:56:03Z</time>
      </trkpt>
      <trkpt lat="47.33958" lon="0.06584">
        <ele>93.87</ele>
        <time>2010-11-21T09:56:04Z</time>
      </trkpt>
      <trkpt lat="47.33959" lon="0.06583">
        <ele>93.39</ele>
        <time>2010-11-21T09:56:05Z</time>
      </trkpt>
      <trkpt lat="47.33976" lon="0.06565">
        <ele>93.87</ele>
        <time>2010-11-21T09:56:13Z</time>
      </trkpt>
      <trkpt lat="47.34001" lon="0.06538">
        <ele>94.35</ele>
        <time>2010-11-21T09:56:21Z</time>
      </trkpt>
      <trkpt lat="47.34038" lon="0.06507">
        <ele>93.39</ele>
        <time>2010-11-21T09:56:30Z</time>
      </trkpt>
      <trkpt lat="47.34069" lon="0.06486">
        <ele>93.39</ele>
        <time>2010-11-21T09:56:37Z</time>
      </trkpt>
      <trkpt lat="47.3409" lon="0.06474">
        <ele>91.94</ele>
        <time>2010-11-21T09:56:42Z</time>
      </trkpt>
      <trkpt lat="47.34094" lon="0.06471">
        <ele>92.42</ele>
        <time>2010-11-21T09:56:43Z</time>
      </trkpt>
      <trkpt lat="47.34097" lon="0.06466">
        <ele>91.46</ele>
        <time>2010-11-21T09:56:44Z</time>
      </trkpt>
      <trkpt lat="47.341" lon="0.06461">
        <ele>91.46</ele>
        <time>2010-11-21T09:56:45Z</time>
      </trkpt>
      <trkpt lat="47.34102" lon="0.06455">
        <ele>91.46</ele>
        <time>2010-11-21T09:56:46Z</time>
      </trkpt>
      <trkpt lat="47.34104" lon="0.06448">
        <ele>91.46</ele>
        <time>2010-11-21T09:56:47Z</time>
      </trkpt>
      <trkpt lat="47.34106" lon="0.06441">
        <ele>90.98</ele>
        <time>2010-11-21T09:56:48Z</time>
      </trkpt>
      <trkpt lat="47.34119" lon="0.06375">
        <ele>88.1</ele>
        <time>2010-11-21T09:56:56Z</time>
      </trkpt>
      <trkpt lat="47.34122" lon="0.0636">
        <ele>87.62</ele>
        <time>2010-11-21T09:56:58Z</time>
      </trkpt>
      <trkpt lat="47.34124" lon="0.06351">
        <ele>87.14</ele>
        <time>2010-11-21T09:56:59Z</time>
      </trkpt>
      <trkpt lat="47.34128" lon="0.06334">
        <ele>86.18</ele>
        <time>2010-11-21T09:57:01Z</time>
      </trkpt>
      <trkpt lat="47.34132" lon="0.06315">
        <ele>84.73</ele>
        <time>2010-11-21T09:57:03Z</time>
      </trkpt>
      <trkpt lat="47.34151" lon="0.06233">
        <ele>81.85</ele>
        <time>2010-11-21T09:57:10Z</time>
      </trkpt>
      <trkpt lat="47.34169" lon="0.06156">
        <ele>78.97</ele>
        <time>2010-11-21T09:57:17Z</time>
      </trkpt>
      <trkpt lat="47.34173" lon="0.06146">
        <ele>78.97</ele>
        <time>2010-11-21T09:57:18Z</time>
      </trkpt>
      <trkpt lat="47.34181" lon="0.06126">
        <ele>77.52</ele>
        <time>2010-11-21T09:57:20Z</time>
      </trkpt>
      <trkpt lat="47.34215" lon="0.06074">
        <ele>75.12</ele>
        <time>2010-11-21T09:57:26Z</time>
      </trkpt>
      <trkpt lat="47.34228" lon="0.06057">
        <ele>74.16</ele>
        <time>2010-11-21T09:57:28Z</time>
      </trkpt>
      <trkpt lat="47.34248" lon="0.0603">
        <ele>73.2</ele>
        <time>2010-11-21T09:57:31Z</time>
      </trkpt>
      <trkpt lat="47.34284" lon="0.05988">
        <ele>70.31</ele>
        <time>2010-11-21T09:57:37Z</time>
      </trkpt>
      <trkpt lat="47.34289" lon="0.05982">
        <ele>69.35</ele>
        <time>2010-11-21T09:57:38Z</time>
      </trkpt>
      <trkpt lat="47.34294" lon="0.05976">
        <ele>68.87</ele>
        <time>2010-11-21T09:57:39Z</time>
      </trkpt>
      <trkpt lat="47.34298" lon="0.05971">
        <ele>69.35</ele>
        <time>2010-11-21T09:57:40Z</time>
      </trkpt>
      <trkpt lat="47.34312" lon="0.05959">
        <ele>68.39</ele>
        <time>2010-11-21T09:57:43Z</time>
      </trkpt>
      <trkpt lat="47.34317" lon="0.05954">
        <ele>68.39</ele>
        <time>2010-11-21T09:57:44Z</time>
      </trkpt>
      <trkpt lat="47.34327" lon="0.05944">
        <ele>67.43</ele>
        <time>2010-11-21T09:57:46Z</time>
      </trkpt>
      <trkpt lat="47.34364" lon="0.05911">
        <ele>65.51</ele>
        <time>2010-11-21T09:57:53Z</time>
      </trkpt>
      <trkpt lat="47.34382" lon="0.05895">
        <ele>64.07</ele>
        <time>2010-11-21T09:57:57Z</time>
      </trkpt>
      <trkpt lat="47.34386" lon="0.05891">
        <ele>64.07</ele>
        <time>2010-11-21T09:57:58Z</time>
      </trkpt>
      <trkpt lat="47.34388" lon="0.05888">
        <ele>64.07</ele>
        <time>2010-11-21T09:57:59Z</time>
      </trkpt>
      <trkpt lat="47.3439" lon="0.05886">
        <ele>63.58</ele>
        <time>2010-11-21T09:58:00Z</time>
      </trkpt>
      <trkpt lat="47.3439" lon="0.05883">
        <ele>63.1</ele>
        <time>2010-11-21T09:58:01Z</time>
      </trkpt>
      <trkpt lat="47.34381" lon="0.05879">
        <ele>62.62</ele>
        <time>2010-11-21T09:58:07Z</time>
      </trkpt>
      <trkpt lat="47.34365" lon="0.05883">
        <ele>62.62</ele>
        <time>2010-11-21T09:58:13Z</time>
      </trkpt>
      <trkpt lat="47.3436" lon="0.05885">
        <ele>63.1</ele>
        <time>2010-11-21T09:58:17Z</time>
      </trkpt>
      <trkpt lat="47.34359" lon="0.05886">
        <ele>62.62</ele>
        <time>2010-11-21T09:58:28Z</time>
      </trkpt>
      <trkpt lat="47.34373" lon="0.05882">
        <ele>62.62</ele>
        <time>2010-11-21T09:58:35Z</time>
      </trkpt>
      <trkpt lat="47.3439" lon="0.0588">
        <ele>63.1</ele>
        <time>2010-11-21T09:58:41Z</time>
      </trkpt>
      <trkpt lat="47.34396" lon="0.05879">
        <ele>63.58</ele>
        <time>2010-11-21T09:58:46Z</time>
      </trkpt>
      <trkpt lat="47.34397" lon="0.05879">
        <ele>63.1</ele>
        <time>2010-11-21T09:58:47Z</time>
      </trkpt>
      <trkpt lat="47.34408" lon="0.05876">
        <ele>63.58</ele>
        <time>2010-11-21T09:58:52Z</time>
      </trkpt>
      <trkpt lat="47.34415" lon="0.0587">
        <ele>63.58</ele>
        <time>2010-11-21T09:58:55Z</time>
      </trkpt>
      <trkpt lat="47.34448" lon="0.05846">
        <ele>62.62</ele>
        <time>2010-11-21T09:59:03Z</time>
      </trkpt>
      <trkpt lat="47.34477" lon="0.05823">
        <ele>62.14</ele>
        <time>2010-11-21T09:59:10Z</time>
      </trkpt>
      <trkpt lat="47.34512" lon="0.05796">
        <ele>61.66</ele>
        <time>2010-11-21T09:59:17Z</time>
      </trkpt>
      <trkpt lat="47.34553" lon="0.05764">
        <ele>60.22</ele>
        <time>2010-11-21T09:59:25Z</time>
      </trkpt>
      <trkpt lat="47.34591" lon="0.05733">
        <ele>58.78</ele>
        <time>2010-11-21T09:59:32Z</time>
      </trkpt>
      <trkpt lat="47.3461" lon="0.05717">
        <ele>57.82</ele>
        <time>2010-11-21T09:59:36Z</time>
      </trkpt>
      <trkpt lat="47.34646" lon="0.05689">
        <ele>56.37</ele>
        <time>2010-11-21T09:59:43Z</time>
      </trkpt>
      <trkpt lat="47.34673" lon="0.05667">
        <ele>54.93</ele>
        <time>2010-11-21T09:59:48Z</time>
      </trkpt>
      <trkpt lat="47.34678" lon="0.05664">
        <ele>54.45</ele>
        <time>2010-11-21T09:59:49Z</time>
      </trkpt>
      <trkpt lat="47.34683" lon="0.05661">
        <ele>53.97</ele>
        <time>2010-11-21T09:59:50Z</time>
      </trkpt>
      <trkpt lat="47.34686" lon="0.05657">
        <ele>53.97</ele>
        <time>2010-11-21T09:59:51Z</time>
      </trkpt>
      <trkpt lat="47.34688" lon="0.05653">
        <ele>53.49</ele>
        <time>2010-11-21T09:59:52Z</time>
      </trkpt>
      <trkpt lat="47.34689" lon="0.05648">
        <ele>53.01</ele>
        <time>2010-11-21T09:59:53Z</time>
      </trkpt>
      <trkpt lat="47.34688" lon="0.05643">
        <ele>54.45</ele>
        <time>2010-11-21T09:59:54Z</time>
      </trkpt>
      <trkpt lat="47.34686" lon="0.05639">
        <ele>53.49</ele>
        <time>2010-11-21T09:59:55Z</time>
      </trkpt>
      <trkpt lat="47.34683" lon="0.05634">
        <ele>53.49</ele>
        <time>2010-11-21T09:59:56Z</time>
      </trkpt>
      <trkpt lat="47.34679" lon="0.0563">
        <ele>53.49</ele>
        <time>2010-11-21T09:59:57Z</time>
      </trkpt>
      <trkpt lat="47.34676" lon="0.05626">
        <ele>53.49</ele>
        <time>2010-11-21T09:59:58Z</time>
      </trkpt>
      <trkpt lat="47.34661" lon="0.05611">
        <ele>53.97</ele>
        <time>2010-11-21T10:00:02Z</time>
      </trkpt>
      <trkpt lat="47.34649" lon="0.05599">
        <ele>54.45</ele>
        <time>2010-11-21T10:00:05Z</time>
      </trkpt>
      <trkpt lat="47.34645" lon="0.05596">
        <ele>54.45</ele>
        <time>2010-11-21T10:00:06Z</time>
      </trkpt>
      <trkpt lat="47.34641" lon="0.05593">
        <ele>54.45</ele>
        <time>2010-11-21T10:00:07Z</time>
      </trkpt>
      <trkpt lat="47.3462" lon="0.05578">
        <ele>54.93</ele>
        <time>2010-11-21T10:00:12Z</time>
      </trkpt>
      <trkpt lat="47.34616" lon="0.05574">
        <ele>54.93</ele>
        <time>2010-11-21T10:00:13Z</time>
      </trkpt>
      <trkpt lat="47.34591" lon="0.05554">
        <ele>54.45</ele>
        <time>2010-11-21T10:00:19Z</time>
      </trkpt>
      <trkpt lat="47.34587" lon="0.0555">
        <ele>54.93</ele>
        <time>2010-11-21T10:00:20Z</time>
      </trkpt>
      <trkpt lat="47.34565" lon="0.05532">
        <ele>54.93</ele>
        <time>2010-11-21T10:00:25Z</time>
      </trkpt>
      <trkpt lat="47.34539" lon="0.05512">
        <ele>55.41</ele>
        <time>2010-11-21T10:00:31Z</time>
      </trkpt>
      <trkpt lat="47.34529" lon="0.05507">
        <ele>55.41</ele>
        <time>2010-11-21T10:00:33Z</time>
      </trkpt>
      <trkpt lat="47.34501" lon="0.05488">
        <ele>55.89</ele>
        <time>2010-11-21T10:00:39Z</time>
      </trkpt>
      <trkpt lat="47.34488" lon="0.05477">
        <ele>54.93</ele>
        <time>2010-11-21T10:00:42Z</time>
      </trkpt>
      <trkpt lat="47.34458" lon="0.05448">
        <ele>53.49</ele>
        <time>2010-11-21T10:00:48Z</time>
      </trkpt>
      <trkpt lat="47.34414" lon="0.05406">
        <ele>53.49</ele>
        <time>2010-11-21T10:00:56Z</time>
      </trkpt>
      <trkpt lat="47.34391" lon="0.05375">
        <ele>53.01</ele>
        <time>2010-11-21T10:01:01Z</time>
      </trkpt>
      <trkpt lat="47.34373" lon="0.05345">
        <ele>53.01</ele>
        <time>2010-11-21T10:01:05Z</time>
      </trkpt>
      <trkpt lat="47.34361" lon="0.05322">
        <ele>52.53</ele>
        <time>2010-11-21T10:01:08Z</time>
      </trkpt>
      <trkpt lat="47.34349" lon="0.05299">
        <ele>53.01</ele>
        <time>2010-11-21T10:01:11Z</time>
      </trkpt>
      <trkpt lat="47.34346" lon="0.05291">
        <ele>52.53</ele>
        <time>2010-11-21T10:01:12Z</time>
      </trkpt>
      <trkpt lat="47.3434" lon="0.05277">
        <ele>53.49</ele>
        <time>2010-11-21T10:01:14Z</time>
      </trkpt>
      <trkpt lat="47.34333" lon="0.05257">
        <ele>53.49</ele>
        <time>2010-11-21T10:01:17Z</time>
      </trkpt>
      <trkpt lat="47.3432" lon="0.05225">
        <ele>54.45</ele>
        <time>2010-11-21T10:01:22Z</time>
      </trkpt>
      <trkpt lat="47.34317" lon="0.05218">
        <ele>54.93</ele>
        <time>2010-11-21T10:01:23Z</time>
      </trkpt>
      <trkpt lat="47.34313" lon="0.05212">
        <ele>54.45</ele>
        <time>2010-11-21T10:01:24Z</time>
      </trkpt>
      <trkpt lat="47.34286" lon="0.05165">
        <ele>56.37</ele>
        <time>2010-11-21T10:01:32Z</time>
      </trkpt>
      <trkpt lat="47.34263" lon="0.0513">
        <ele>54.93</ele>
        <time>2010-11-21T10:01:38Z</time>
      </trkpt>
      <trkpt lat="47.34227" lon="0.05081">
        <ele>53.01</ele>
        <time>2010-11-21T10:01:46Z</time>
      </trkpt>
      <trkpt lat="47.34204" lon="0.05037">
        <ele>53.97</ele>
        <time>2010-11-21T10:01:52Z</time>
      </trkpt>
      <trkpt lat="47.34201" lon="0.05028">
        <ele>53.49</ele>
        <time>2010-11-21T10:01:53Z</time>
      </trkpt>
      <trkpt lat="47.3418" lon="0.04966">
        <ele>53.97</ele>
        <time>2010-11-21T10:02:00Z</time>
      </trkpt>
      <trkpt lat="47.34149" lon="0.0491">
        <ele>52.53</ele>
        <time>2010-11-21T10:02:07Z</time>
      </trkpt>
      <trkpt lat="47.3413" lon="0.04874">
        <ele>52.53</ele>
        <time>2010-11-21T10:02:12Z</time>
      </trkpt>
      <trkpt lat="47.34098" lon="0.04823">
        <ele>51.57</ele>
        <time>2010-11-21T10:02:19Z</time>
      </trkpt>
      <trkpt lat="47.34064" lon="0.04772">
        <ele>50.13</ele>
        <time>2010-11-21T10:02:26Z</time>
      </trkpt>
      <trkpt lat="47.34058" lon="0.04765">
        <ele>50.13</ele>
        <time>2010-11-21T10:02:27Z</time>
      </trkpt>
      <trkpt lat="47.34031" lon="0.0474">
        <ele>49.16</ele>
        <time>2010-11-21T10:02:32Z</time>
      </trkpt>
      <trkpt lat="47.34027" lon="0.04735">
        <ele>49.65</ele>
        <time>2010-11-21T10:02:33Z</time>
      </trkpt>
      <trkpt lat="47.34022" lon="0.0473">
        <ele>49.65</ele>
        <time>2010-11-21T10:02:34Z</time>
      </trkpt>
      <trkpt lat="47.34007" lon="0.04717">
        <ele>49.65</ele>
        <time>2010-11-21T10:02:37Z</time>
      </trkpt>
      <trkpt lat="47.34002" lon="0.04714">
        <ele>49.65</ele>
        <time>2010-11-21T10:02:38Z</time>
      </trkpt>
      <trkpt lat="47.3399" lon="0.04704">
        <ele>50.13</ele>
        <time>2010-11-21T10:02:41Z</time>
      </trkpt>
      <trkpt lat="47.33981" lon="0.04695">
        <ele>50.61</ele>
        <time>2010-11-21T10:02:43Z</time>
      </trkpt>
      <trkpt lat="47.33977" lon="0.04691">
        <ele>51.09</ele>
        <time>2010-11-21T10:02:44Z</time>
      </trkpt>
      <trkpt lat="47.33968" lon="0.04682">
        <ele>51.57</ele>
        <time>2010-11-21T10:02:46Z</time>
      </trkpt>
      <trkpt lat="47.33965" lon="0.04678">
        <ele>51.09</ele>
        <time>2010-11-21T10:02:47Z</time>
      </trkpt>
      <trkpt lat="47.33948" lon="0.04658">
        <ele>51.09</ele>
        <time>2010-11-21T10:02:51Z</time>
      </trkpt>
      <trkpt lat="47.33933" lon="0.04642">
        <ele>51.09</ele>
        <time>2010-11-21T10:02:54Z</time>
      </trkpt>
      <trkpt lat="47.33928" lon="0.04637">
        <ele>50.61</ele>
        <time>2010-11-21T10:02:55Z</time>
      </trkpt>
      <trkpt lat="47.33919" lon="0.04626">
        <ele>50.61</ele>
        <time>2010-11-21T10:02:57Z</time>
      </trkpt>
      <trkpt lat="47.33915" lon="0.04621">
        <ele>50.61</ele>
        <time>2010-11-21T10:02:58Z</time>
      </trkpt>
      <trkpt lat="47.33881" lon="0.04582">
        <ele>50.13</ele>
        <time>2010-11-21T10:03:05Z</time>
      </trkpt>
      <trkpt lat="47.33866" lon="0.04565">
        <ele>49.16</ele>
        <time>2010-11-21T10:03:08Z</time>
      </trkpt>
      <trkpt lat="47.33862" lon="0.04559">
        <ele>49.16</ele>
        <time>2010-11-21T10:03:09Z</time>
      </trkpt>
      <trkpt lat="47.33844" lon="0.04527">
        <ele>49.16</ele>
        <time>2010-11-21T10:03:14Z</time>
      </trkpt>
      <trkpt lat="47.33832" lon="0.04507">
        <ele>48.2</ele>
        <time>2010-11-21T10:03:17Z</time>
      </trkpt>
      <trkpt lat="47.33827" lon="0.04501">
        <ele>48.2</ele>
        <time>2010-11-21T10:03:18Z</time>
      </trkpt>
      <trkpt lat="47.33799" lon="0.04463">
        <ele>48.2</ele>
        <time>2010-11-21T10:03:24Z</time>
      </trkpt>
      <trkpt lat="47.33794" lon="0.04457">
        <ele>48.2</ele>
        <time>2010-11-21T10:03:25Z</time>
      </trkpt>
      <trkpt lat="47.33762" lon="0.04411">
        <ele>48.68</ele>
        <time>2010-11-21T10:03:32Z</time>
      </trkpt>
      <trkpt lat="47.3374" lon="0.04379">
        <ele>47.24</ele>
        <time>2010-11-21T10:03:37Z</time>
      </trkpt>
      <trkpt lat="47.33736" lon="0.04374">
        <ele>47.72</ele>
        <time>2010-11-21T10:03:38Z</time>
      </trkpt>
      <trkpt lat="47.33722" lon="0.0435">
        <ele>48.2</ele>
        <time>2010-11-21T10:03:43Z</time>
      </trkpt>
      <trkpt lat="47.33719" lon="0.04343">
        <ele>48.68</ele>
        <time>2010-11-21T10:03:46Z</time>
      </trkpt>
      <trkpt lat="47.33719" lon="0.04338">
        <ele>48.68</ele>
        <time>2010-11-21T10:03:49Z</time>
      </trkpt>
      <trkpt lat="47.33721" lon="0.04336">
        <ele>48.68</ele>
        <time>2010-11-21T10:03:50Z</time>
      </trkpt>
      <trkpt lat="47.33722" lon="0.04334">
        <ele>49.16</ele>
        <time>2010-11-21T10:03:52Z</time>
      </trkpt>
      <trkpt lat="47.33723" lon="0.04332">
        <ele>49.16</ele>
        <time>2010-11-21T10:03:53Z</time>
      </trkpt>
      <trkpt lat="47.33724" lon="0.04331">
        <ele>48.68</ele>
        <time>2010-11-21T10:03:54Z</time>
      </trkpt>
      <trkpt lat="47.33725" lon="0.04329">
        <ele>48.68</ele>
        <time>2010-11-21T10:03:55Z</time>
      </trkpt>
      <trkpt lat="47.33725" lon="0.04327">
        <ele>48.68</ele>
        <time>2010-11-21T10:03:56Z</time>
      </trkpt>
      <trkpt lat="47.33726" lon="0.04324">
        <ele>48.2</ele>
        <time>2010-11-21T10:03:58Z</time>
      </trkpt>
      <trkpt lat="47.3373" lon="0.04314">
        <ele>49.16</ele>
        <time>2010-11-21T10:04:03Z</time>
      </trkpt>
      <trkpt lat="47.3373" lon="0.0431">
        <ele>48.2</ele>
        <time>2010-11-21T10:04:04Z</time>
      </trkpt>
      <trkpt lat="47.3373" lon="0.04307">
        <ele>48.2</ele>
        <time>2010-11-21T10:04:05Z</time>
      </trkpt>
      <trkpt lat="47.3373" lon="0.04303">
        <ele>48.68</ele>
        <time>2010-11-21T10:04:06Z</time>
      </trkpt>
      <trkpt lat="47.33729" lon="0.043">
        <ele>48.68</ele>
        <time>2010-11-21T10:04:07Z</time>
      </trkpt>
      <trkpt lat="47.33729" lon="0.04284">
        <ele>48.68</ele>
        <time>2010-11-21T10:04:12Z</time>
      </trkpt>
      <trkpt lat="47.3373" lon="0.04281">
        <ele>49.16</ele>
        <time>2010-11-21T10:04:13Z</time>
      </trkpt>
      <trkpt lat="47.33731" lon="0.04278">
        <ele>49.16</ele>
        <time>2010-11-21T10:04:14Z</time>
      </trkpt>
      <trkpt lat="47.33733" lon="0.04275">
        <ele>48.68</ele>
        <time>2010-11-21T10:04:15Z</time>
      </trkpt>
      <trkpt lat="47.33734" lon="0.04271">
        <ele>48.68</ele>
        <time>2010-11-21T10:04:16Z</time>
      </trkpt>
      <trkpt lat="47.33737" lon="0.04244">
        <ele>47.72</ele>
        <time>2010-11-21T10:04:22Z</time>
      </trkpt>
      <trkpt lat="47.33735" lon="0.04238">
        <ele>48.2</ele>
        <time>2010-11-21T10:04:23Z</time>
      </trkpt>
      <trkpt lat="47.33733" lon="0.04232">
        <ele>48.2</ele>
        <time>2010-11-21T10:04:24Z</time>
      </trkpt>
      <trkpt lat="47.3373" lon="0.04226">
        <ele>47.24</ele>
        <time>2010-11-21T10:04:25Z</time>
      </trkpt>
      <trkpt lat="47.33728" lon="0.0422">
        <ele>47.72</ele>
        <time>2010-11-21T10:04:26Z</time>
      </trkpt>
      <trkpt lat="47.33725" lon="0.04215">
        <ele>48.2</ele>
        <time>2010-11-21T10:04:27Z</time>
      </trkpt>
      <trkpt lat="47.33722" lon="0.04211">
        <ele>47.72</ele>
        <time>2010-11-21T10:04:28Z</time>
      </trkpt>
      <trkpt lat="47.3372" lon="0.04205">
        <ele>47.72</ele>
        <time>2010-11-21T10:04:29Z</time>
      </trkpt>
      <trkpt lat="47.33717" lon="0.04199">
        <ele>48.2</ele>
        <time>2010-11-21T10:04:30Z</time>
      </trkpt>
      <trkpt lat="47.33714" lon="0.04193">
        <ele>47.72</ele>
        <time>2010-11-21T10:04:31Z</time>
      </trkpt>
      <trkpt lat="47.33712" lon="0.04187">
        <ele>47.72</ele>
        <time>2010-11-21T10:04:32Z</time>
      </trkpt>
      <trkpt lat="47.33709" lon="0.04182">
        <ele>48.68</ele>
        <time>2010-11-21T10:04:33Z</time>
      </trkpt>
      <trkpt lat="47.33707" lon="0.04177">
        <ele>48.2</ele>
        <time>2010-11-21T10:04:34Z</time>
      </trkpt>
      <trkpt lat="47.33695" lon="0.04151">
        <ele>49.16</ele>
        <time>2010-11-21T10:04:39Z</time>
      </trkpt>
      <trkpt lat="47.33682" lon="0.04121">
        <ele>48.68</ele>
        <time>2010-11-21T10:04:45Z</time>
      </trkpt>
      <trkpt lat="47.33673" lon="0.041">
        <ele>48.68</ele>
        <time>2010-11-21T10:04:49Z</time>
      </trkpt>
      <trkpt lat="47.33671" lon="0.04094">
        <ele>49.16</ele>
        <time>2010-11-21T10:04:50Z</time>
      </trkpt>
      <trkpt lat="47.33669" lon="0.04088">
        <ele>48.68</ele>
        <time>2010-11-21T10:04:51Z</time>
      </trkpt>
      <trkpt lat="47.33666" lon="0.04082">
        <ele>48.68</ele>
        <time>2010-11-21T10:04:52Z</time>
      </trkpt>
      <trkpt lat="47.33664" lon="0.04076">
        <ele>48.68</ele>
        <time>2010-11-21T10:04:53Z</time>
      </trkpt>
      <trkpt lat="47.33661" lon="0.04069">
        <ele>48.68</ele>
        <time>2010-11-21T10:04:54Z</time>
      </trkpt>
      <trkpt lat="47.33653" lon="0.04052">
        <ele>48.68</ele>
        <time>2010-11-21T10:04:57Z</time>
      </trkpt>
      <trkpt lat="47.33633" lon="0.04016">
        <ele>47.72</ele>
        <time>2010-11-21T10:05:03Z</time>
      </trkpt>
      <trkpt lat="47.33625" lon="0.03995">
        <ele>49.16</ele>
        <time>2010-11-21T10:05:06Z</time>
      </trkpt>
      <trkpt lat="47.33621" lon="0.03982">
        <ele>47.72</ele>
        <time>2010-11-21T10:05:08Z</time>
      </trkpt>
      <trkpt lat="47.33603" lon="0.03931">
        <ele>49.16</ele>
        <time>2010-11-21T10:05:16Z</time>
      </trkpt>
      <trkpt lat="47.33595" lon="0.03894">
        <ele>49.16</ele>
        <time>2010-11-21T10:05:24Z</time>
      </trkpt>
      <trkpt lat="47.33592" lon="0.0387">
        <ele>50.13</ele>
        <time>2010-11-21T10:05:31Z</time>
      </trkpt>
      <trkpt lat="47.33588" lon="0.03835">
        <ele>49.16</ele>
        <time>2010-11-21T10:05:38Z</time>
      </trkpt>
      <trkpt lat="47.33587" lon="0.03789">
        <ele>48.68</ele>
        <time>2010-11-21T10:05:46Z</time>
      </trkpt>
      <trkpt lat="47.33598" lon="0.03769">
        <ele>47.72</ele>
        <time>2010-11-21T10:05:51Z</time>
      </trkpt>
      <trkpt lat="47.33625" lon="0.03736">
        <ele>45.32</ele>
        <time>2010-11-21T10:05:58Z</time>
      </trkpt>
      <trkpt lat="47.33657" lon="0.03692">
        <ele>41.95</ele>
        <time>2010-11-21T10:06:05Z</time>
      </trkpt>
      <trkpt lat="47.33677" lon="0.03665">
        <ele>39.07</ele>
        <time>2010-11-21T10:06:09Z</time>
      </trkpt>
      <trkpt lat="47.33682" lon="0.03659">
        <ele>39.07</ele>
        <time>2010-11-21T10:06:10Z</time>
      </trkpt>
      <trkpt lat="47.33719" lon="0.03612">
        <ele>37.63</ele>
        <time>2010-11-21T10:06:18Z</time>
      </trkpt>
      <trkpt lat="47.33745" lon="0.03576">
        <ele>38.11</ele>
        <time>2010-11-21T10:06:25Z</time>
      </trkpt>
      <trkpt lat="47.33775" lon="0.03542">
        <ele>39.07</ele>
        <time>2010-11-21T10:06:33Z</time>
      </trkpt>
      <trkpt lat="47.33789" lon="0.03529">
        <ele>40.03</ele>
        <time>2010-11-21T10:06:38Z</time>
      </trkpt>
      <trkpt lat="47.33791" lon="0.0353">
        <ele>39.55</ele>
        <time>2010-11-21T10:06:39Z</time>
      </trkpt>
      <trkpt lat="47.33793" lon="0.03532">
        <ele>40.51</ele>
        <time>2010-11-21T10:06:40Z</time>
      </trkpt>
      <trkpt lat="47.33809" lon="0.0356">
        <ele>40.99</ele>
        <time>2010-11-21T10:06:47Z</time>
      </trkpt>
      <trkpt lat="47.33831" lon="0.03597">
        <ele>41.47</ele>
        <time>2010-11-21T10:06:56Z</time>
      </trkpt>
      <trkpt lat="47.33859" lon="0.03642">
        <ele>41.95</ele>
        <time>2010-11-21T10:07:06Z</time>
      </trkpt>
      <trkpt lat="47.33881" lon="0.03675">
        <ele>41.47</ele>
        <time>2010-11-21T10:07:15Z</time>
      </trkpt>
      <trkpt lat="47.33885" lon="0.03675">
        <ele>41.95</ele>
        <time>2010-11-21T10:07:16Z</time>
      </trkpt>
      <trkpt lat="47.33888" lon="0.03674">
        <ele>41.95</ele>
        <time>2010-11-21T10:07:17Z</time>
      </trkpt>
      <trkpt lat="47.33891" lon="0.03672">
        <ele>41.95</ele>
        <time>2010-11-21T10:07:18Z</time>
      </trkpt>
      <trkpt lat="47.33893" lon="0.0367">
        <ele>41.95</ele>
        <time>2010-11-21T10:07:19Z</time>
      </trkpt>
      <trkpt lat="47.33895" lon="0.03667">
        <ele>42.44</ele>
        <time>2010-11-21T10:07:20Z</time>
      </trkpt>
      <trkpt lat="47.33897" lon="0.03665">
        <ele>42.44</ele>
        <time>2010-11-21T10:07:21Z</time>
      </trkpt>
      <trkpt lat="47.33899" lon="0.03661">
        <ele>42.44</ele>
        <time>2010-11-21T10:07:22Z</time>
      </trkpt>
      <trkpt lat="47.33901" lon="0.03658">
        <ele>42.44</ele>
        <time>2010-11-21T10:07:23Z</time>
      </trkpt>
      <trkpt lat="47.33917" lon="0.03631">
        <ele>43.4</ele>
        <time>2010-11-21T10:07:31Z</time>
      </trkpt>
      <trkpt lat="47.33935" lon="0.03601">
        <ele>44.36</ele>
        <time>2010-11-21T10:07:38Z</time>
      </trkpt>
      <trkpt lat="47.33949" lon="0.03584">
        <ele>45.32</ele>
        <time>2010-11-21T10:07:44Z</time>
      </trkpt>
      <trkpt lat="47.33958" lon="0.03572">
        <ele>46.28</ele>
        <time>2010-11-21T10:07:49Z</time>
      </trkpt>
      <trkpt lat="47.33971" lon="0.03553">
        <ele>46.28</ele>
        <time>2010-11-21T10:07:54Z</time>
      </trkpt>
      <trkpt lat="47.33986" lon="0.03535">
        <ele>47.72</ele>
        <time>2010-11-21T10:07:59Z</time>
      </trkpt>
      <trkpt lat="47.33999" lon="0.03517">
        <ele>48.2</ele>
        <time>2010-11-21T10:08:04Z</time>
      </trkpt>
      <trkpt lat="47.34012" lon="0.035">
        <ele>48.68</ele>
        <time>2010-11-21T10:08:09Z</time>
      </trkpt>
      <trkpt lat="47.34014" lon="0.03495">
        <ele>49.16</ele>
        <time>2010-11-21T10:08:10Z</time>
      </trkpt>
      <trkpt lat="47.34016" lon="0.03492">
        <ele>49.65</ele>
        <time>2010-11-21T10:08:11Z</time>
      </trkpt>
      <trkpt lat="47.34027" lon="0.03466">
        <ele>49.65</ele>
        <time>2010-11-21T10:08:18Z</time>
      </trkpt>
      <trkpt lat="47.34039" lon="0.03448">
        <ele>50.61</ele>
        <time>2010-11-21T10:08:23Z</time>
      </trkpt>
      <trkpt lat="47.34043" lon="0.03443">
        <ele>51.09</ele>
        <time>2010-11-21T10:08:24Z</time>
      </trkpt>
      <trkpt lat="47.34045" lon="0.03438">
        <ele>51.09</ele>
        <time>2010-11-21T10:08:25Z</time>
      </trkpt>
      <trkpt lat="47.34049" lon="0.03433">
        <ele>51.09</ele>
        <time>2010-11-21T10:08:26Z</time>
      </trkpt>
      <trkpt lat="47.34053" lon="0.03428">
        <ele>51.57</ele>
        <time>2010-11-21T10:08:27Z</time>
      </trkpt>
      <trkpt lat="47.34058" lon="0.03424">
        <ele>51.09</ele>
        <time>2010-11-21T10:08:28Z</time>
      </trkpt>
      <trkpt lat="47.34076" lon="0.03411">
        <ele>51.57</ele>
        <time>2010-11-21T10:08:34Z</time>
      </trkpt>
      <trkpt lat="47.34077" lon="0.03409">
        <ele>51.57</ele>
        <time>2010-11-21T10:08:45Z</time>
      </trkpt>
      <trkpt lat="47.34082" lon="0.03403">
        <ele>51.57</ele>
        <time>2010-11-21T10:08:49Z</time>
      </trkpt>
      <trkpt lat="47.34094" lon="0.03389">
        <ele>53.01</ele>
        <time>2010-11-21T10:08:55Z</time>
      </trkpt>
      <trkpt lat="47.34109" lon="0.03365">
        <ele>53.01</ele>
        <time>2010-11-21T10:09:01Z</time>
      </trkpt>
      <trkpt lat="47.34124" lon="0.03347">
        <ele>53.49</ele>
        <time>2010-11-21T10:09:06Z</time>
      </trkpt>
      <trkpt lat="47.34127" lon="0.03343">
        <ele>53.97</ele>
        <time>2010-11-21T10:09:07Z</time>
      </trkpt>
      <trkpt lat="47.34129" lon="0.03339">
        <ele>53.97</ele>
        <time>2010-11-21T10:09:08Z</time>
      </trkpt>
      <trkpt lat="47.34131" lon="0.03335">
        <ele>53.97</ele>
        <time>2010-11-21T10:09:09Z</time>
      </trkpt>
      <trkpt lat="47.34134" lon="0.03332">
        <ele>53.97</ele>
        <time>2010-11-21T10:09:10Z</time>
      </trkpt>
      <trkpt lat="47.34137" lon="0.03329">
        <ele>54.45</ele>
        <time>2010-11-21T10:09:11Z</time>
      </trkpt>
      <trkpt lat="47.3414" lon="0.03327">
        <ele>54.45</ele>
        <time>2010-11-21T10:09:12Z</time>
      </trkpt>
      <trkpt lat="47.34143" lon="0.03324">
        <ele>53.97</ele>
        <time>2010-11-21T10:09:13Z</time>
      </trkpt>
      <trkpt lat="47.34146" lon="0.03323">
        <ele>54.45</ele>
        <time>2010-11-21T10:09:14Z</time>
      </trkpt>
      <trkpt lat="47.34149" lon="0.0332">
        <ele>54.45</ele>
        <time>2010-11-21T10:09:15Z</time>
      </trkpt>
      <trkpt lat="47.34152" lon="0.03318">
        <ele>54.45</ele>
        <time>2010-11-21T10:09:16Z</time>
      </trkpt>
      <trkpt lat="47.34154" lon="0.03316">
        <ele>54.45</ele>
        <time>2010-11-21T10:09:17Z</time>
      </trkpt>
      <trkpt lat="47.34172" lon="0.03288">
        <ele>55.41</ele>
        <time>2010-11-21T10:09:23Z</time>
      </trkpt>
      <trkpt lat="47.34195" lon="0.03252">
        <ele>55.89</ele>
        <time>2010-11-21T10:09:30Z</time>
      </trkpt>
      <trkpt lat="47.34212" lon="0.03236">
        <ele>56.86</ele>
        <time>2010-11-21T10:09:36Z</time>
      </trkpt>
      <trkpt lat="47.34228" lon="0.03203">
        <ele>57.82</ele>
        <time>2010-11-21T10:09:41Z</time>
      </trkpt>
      <trkpt lat="47.34239" lon="0.03178">
        <ele>58.78</ele>
        <time>2010-11-21T10:09:46Z</time>
      </trkpt>
      <trkpt lat="47.34242" lon="0.03173">
        <ele>59.26</ele>
        <time>2010-11-21T10:09:47Z</time>
      </trkpt>
      <trkpt lat="47.34264" lon="0.03145">
        <ele>59.74</ele>
        <time>2010-11-21T10:09:54Z</time>
      </trkpt>
      <trkpt lat="47.3428" lon="0.0312">
        <ele>60.7</ele>
        <time>2010-11-21T10:10:01Z</time>
      </trkpt>
      <trkpt lat="47.34297" lon="0.03091">
        <ele>61.66</ele>
        <time>2010-11-21T10:10:08Z</time>
      </trkpt>
      <trkpt lat="47.34309" lon="0.03074">
        <ele>62.62</ele>
        <time>2010-11-21T10:10:13Z</time>
      </trkpt>
      <trkpt lat="47.34319" lon="0.03061">
        <ele>63.58</ele>
        <time>2010-11-21T10:10:18Z</time>
      </trkpt>
      <trkpt lat="47.34334" lon="0.03041">
        <ele>64.07</ele>
        <time>2010-11-21T10:10:25Z</time>
      </trkpt>
      <trkpt lat="47.34334" lon="0.03033">
        <ele>64.55</ele>
        <time>2010-11-21T10:10:31Z</time>
      </trkpt>
      <trkpt lat="47.34335" lon="0.03033">
        <ele>64.07</ele>
        <time>2010-11-21T10:12:06Z</time>
      </trkpt>
      <trkpt lat="47.34337" lon="0.0303">
        <ele>64.55</ele>
        <time>2010-11-21T10:12:52Z</time>
      </trkpt>
      <trkpt lat="47.34339" lon="0.03029">
        <ele>64.07</ele>
        <time>2010-11-21T10:12:53Z</time>
      </trkpt>
      <trkpt lat="47.34341" lon="0.03026">
        <ele>64.55</ele>
        <time>2010-11-21T10:12:54Z</time>
      </trkpt>
      <trkpt lat="47.34354" lon="0.03005">
        <ele>65.03</ele>
        <time>2010-11-21T10:13:00Z</time>
      </trkpt>
      <trkpt lat="47.34363" lon="0.02993">
        <ele>65.99</ele>
        <time>2010-11-21T10:13:04Z</time>
      </trkpt>
      <trkpt lat="47.34365" lon="0.0299">
        <ele>65.03</ele>
        <time>2010-11-21T10:13:05Z</time>
      </trkpt>
      <trkpt lat="47.34367" lon="0.02987">
        <ele>65.51</ele>
        <time>2010-11-21T10:13:06Z</time>
      </trkpt>
      <trkpt lat="47.34368" lon="0.02984">
        <ele>65.51</ele>
        <time>2010-11-21T10:13:07Z</time>
      </trkpt>
      <trkpt lat="47.3437" lon="0.02982">
        <ele>65.03</ele>
        <time>2010-11-21T10:13:08Z</time>
      </trkpt>
      <trkpt lat="47.34372" lon="0.02975">
        <ele>65.51</ele>
        <time>2010-11-21T10:13:11Z</time>
      </trkpt>
      <trkpt lat="47.34383" lon="0.02959">
        <ele>66.95</ele>
        <time>2010-11-21T10:13:18Z</time>
      </trkpt>
      <trkpt lat="47.3439" lon="0.02941">
        <ele>67.91</ele>
        <time>2010-11-21T10:13:24Z</time>
      </trkpt>
      <trkpt lat="47.34394" lon="0.02922">
        <ele>68.39</ele>
        <time>2010-11-21T10:13:30Z</time>
      </trkpt>
      <trkpt lat="47.34403" lon="0.0291">
        <ele>68.87</ele>
        <time>2010-11-21T10:13:37Z</time>
      </trkpt>
      <trkpt lat="47.34418" lon="0.02904">
        <ele>70.31</ele>
        <time>2010-11-21T10:13:44Z</time>
      </trkpt>
      <trkpt lat="47.34428" lon="0.02894">
        <ele>69.83</ele>
        <time>2010-11-21T10:13:50Z</time>
      </trkpt>
      <trkpt lat="47.34438" lon="0.02885">
        <ele>71.27</ele>
        <time>2010-11-21T10:13:56Z</time>
      </trkpt>
      <trkpt lat="47.34449" lon="0.02869">
        <ele>72.72</ele>
        <time>2010-11-21T10:14:03Z</time>
      </trkpt>
      <trkpt lat="47.3445" lon="0.02867">
        <ele>72.24</ele>
        <time>2010-11-21T10:14:04Z</time>
      </trkpt>
      <trkpt lat="47.34456" lon="0.02853">
        <ele>74.16</ele>
        <time>2010-11-21T10:14:09Z</time>
      </trkpt>
      <trkpt lat="47.34459" lon="0.02847">
        <ele>74.16</ele>
        <time>2010-11-21T10:14:12Z</time>
      </trkpt>
      <trkpt lat="47.34466" lon="0.02836">
        <ele>76.08</ele>
        <time>2010-11-21T10:14:19Z</time>
      </trkpt>
      <trkpt lat="47.34466" lon="0.02834">
        <ele>75.6</ele>
        <time>2010-11-21T10:14:20Z</time>
      </trkpt>
      <trkpt lat="47.34472" lon="0.02825">
        <ele>77.52</ele>
        <time>2010-11-21T10:14:27Z</time>
      </trkpt>
      <trkpt lat="47.34477" lon="0.02818">
        <ele>77.52</ele>
        <time>2010-11-21T10:14:33Z</time>
      </trkpt>
      <trkpt lat="47.34478" lon="0.02817">
        <ele>78</ele>
        <time>2010-11-21T10:14:34Z</time>
      </trkpt>
      <trkpt lat="47.34483" lon="0.02808">
        <ele>79.93</ele>
        <time>2010-11-21T10:14:40Z</time>
      </trkpt>
      <trkpt lat="47.34492" lon="0.02798">
        <ele>80.89</ele>
        <time>2010-11-21T10:14:46Z</time>
      </trkpt>
      <trkpt lat="47.34495" lon="0.02792">
        <ele>80.89</ele>
        <time>2010-11-21T10:14:49Z</time>
      </trkpt>
      <trkpt lat="47.34504" lon="0.02776">
        <ele>82.81</ele>
        <time>2010-11-21T10:14:57Z</time>
      </trkpt>
      <trkpt lat="47.34512" lon="0.02765">
        <ele>83.77</ele>
        <time>2010-11-21T10:15:03Z</time>
      </trkpt>
      <trkpt lat="47.34517" lon="0.02761">
        <ele>84.25</ele>
        <time>2010-11-21T10:15:06Z</time>
      </trkpt>
      <trkpt lat="47.34521" lon="0.02747">
        <ele>85.69</ele>
        <time>2010-11-21T10:15:12Z</time>
      </trkpt>
      <trkpt lat="47.34521" lon="0.02744">
        <ele>85.69</ele>
        <time>2010-11-21T10:15:13Z</time>
      </trkpt>
      <trkpt lat="47.34523" lon="0.02733">
        <ele>86.66</ele>
        <time>2010-11-21T10:15:18Z</time>
      </trkpt>
      <trkpt lat="47.34527" lon="0.02722">
        <ele>87.62</ele>
        <time>2010-11-21T10:15:22Z</time>
      </trkpt>
      <trkpt lat="47.34531" lon="0.02713">
        <ele>88.58</ele>
        <time>2010-11-21T10:15:26Z</time>
      </trkpt>
      <trkpt lat="47.34531" lon="0.02705">
        <ele>88.1</ele>
        <time>2010-11-21T10:15:29Z</time>
      </trkpt>
      <trkpt lat="47.34533" lon="0.02693">
        <ele>89.06</ele>
        <time>2010-11-21T10:15:35Z</time>
      </trkpt>
      <trkpt lat="47.34538" lon="0.02688">
        <ele>90.02</ele>
        <time>2010-11-21T10:15:38Z</time>
      </trkpt>
      <trkpt lat="47.34549" lon="0.02669">
        <ele>90.02</ele>
        <time>2010-11-21T10:15:47Z</time>
      </trkpt>
      <trkpt lat="47.34559" lon="0.02646">
        <ele>91.94</ele>
        <time>2010-11-21T10:15:55Z</time>
      </trkpt>
      <trkpt lat="47.34565" lon="0.02629">
        <ele>91.46</ele>
        <time>2010-11-21T10:16:01Z</time>
      </trkpt>
      <trkpt lat="47.34569" lon="0.02608">
        <ele>92.42</ele>
        <time>2010-11-21T10:16:06Z</time>
      </trkpt>
      <trkpt lat="47.34573" lon="0.02592">
        <ele>92.42</ele>
        <time>2010-11-21T10:16:10Z</time>
      </trkpt>
      <trkpt lat="47.34572" lon="0.0255">
        <ele>93.39</ele>
        <time>2010-11-21T10:16:20Z</time>
      </trkpt>
      <trkpt lat="47.34569" lon="0.02509">
        <ele>91.94</ele>
        <time>2010-11-21T10:16:27Z</time>
      </trkpt>
      <trkpt lat="47.34565" lon="0.02459">
        <ele>92.9</ele>
        <time>2010-11-21T10:16:34Z</time>
      </trkpt>
      <trkpt lat="47.34563" lon="0.02445">
        <ele>91.46</ele>
        <time>2010-11-21T10:16:36Z</time>
      </trkpt>
      <trkpt lat="47.34568" lon="0.02424">
        <ele>91.94</ele>
        <time>2010-11-21T10:16:40Z</time>
      </trkpt>
      <trkpt lat="47.34583" lon="0.02373">
        <ele>89.54</ele>
        <time>2010-11-21T10:16:47Z</time>
      </trkpt>
      <trkpt lat="47.34596" lon="0.02316">
        <ele>87.62</ele>
        <time>2010-11-21T10:16:53Z</time>
      </trkpt>
      <trkpt lat="47.34601" lon="0.02294">
        <ele>86.66</ele>
        <time>2010-11-21T10:16:55Z</time>
      </trkpt>
      <trkpt lat="47.34617" lon="0.02255">
        <ele>84.73</ele>
        <time>2010-11-21T10:16:59Z</time>
      </trkpt>
      <trkpt lat="47.34621" lon="0.02246">
        <ele>83.77</ele>
        <time>2010-11-21T10:17:00Z</time>
      </trkpt>
      <trkpt lat="47.34636" lon="0.02195">
        <ele>81.85</ele>
        <time>2010-11-21T10:17:05Z</time>
      </trkpt>
      <trkpt lat="47.34644" lon="0.02171">
        <ele>81.85</ele>
        <time>2010-11-21T10:17:08Z</time>
      </trkpt>
      <trkpt lat="47.34648" lon="0.02165">
        <ele>81.37</ele>
        <time>2010-11-21T10:17:09Z</time>
      </trkpt>
      <trkpt lat="47.34653" lon="0.02162">
        <ele>80.89</ele>
        <time>2010-11-21T10:17:10Z</time>
      </trkpt>
      <trkpt lat="47.34659" lon="0.02158">
        <ele>80.89</ele>
        <time>2010-11-21T10:17:11Z</time>
      </trkpt>
      <trkpt lat="47.34686" lon="0.0214">
        <ele>78.48</ele>
        <time>2010-11-21T10:17:15Z</time>
      </trkpt>
      <trkpt lat="47.34721" lon="0.02109">
        <ele>76.56</ele>
        <time>2010-11-21T10:17:20Z</time>
      </trkpt>
      <trkpt lat="47.34744" lon="0.02092">
        <ele>75.12</ele>
        <time>2010-11-21T10:17:23Z</time>
      </trkpt>
      <trkpt lat="47.34759" lon="0.02083">
        <ele>74.64</ele>
        <time>2010-11-21T10:17:25Z</time>
      </trkpt>
      <trkpt lat="47.34796" lon="0.02066">
        <ele>73.68</ele>
        <time>2010-11-21T10:17:30Z</time>
      </trkpt>
      <trkpt lat="47.3482" lon="0.02052">
        <ele>72.24</ele>
        <time>2010-11-21T10:17:34Z</time>
      </trkpt>
      <trkpt lat="47.34842" lon="0.02039">
        <ele>71.76</ele>
        <time>2010-11-21T10:17:39Z</time>
      </trkpt>
      <trkpt lat="47.34845" lon="0.02036">
        <ele>71.27</ele>
        <time>2010-11-21T10:17:40Z</time>
      </trkpt>
      <trkpt lat="47.34848" lon="0.02033">
        <ele>71.76</ele>
        <time>2010-11-21T10:17:41Z</time>
      </trkpt>
      <trkpt lat="47.34852" lon="0.0203">
        <ele>71.76</ele>
        <time>2010-11-21T10:17:42Z</time>
      </trkpt>
      <trkpt lat="47.34856" lon="0.02026">
        <ele>70.79</ele>
        <time>2010-11-21T10:17:43Z</time>
      </trkpt>
      <trkpt lat="47.34861" lon="0.02023">
        <ele>71.27</ele>
        <time>2010-11-21T10:17:44Z</time>
      </trkpt>
      <trkpt lat="47.34876" lon="0.02014">
        <ele>70.79</ele>
        <time>2010-11-21T10:17:47Z</time>
      </trkpt>
      <trkpt lat="47.34882" lon="0.0201">
        <ele>70.79</ele>
        <time>2010-11-21T10:17:48Z</time>
      </trkpt>
      <trkpt lat="47.34887" lon="0.02006">
        <ele>70.31</ele>
        <time>2010-11-21T10:17:49Z</time>
      </trkpt>
      <trkpt lat="47.34892" lon="0.02003">
        <ele>70.31</ele>
        <time>2010-11-21T10:17:50Z</time>
      </trkpt>
      <trkpt lat="47.34897" lon="0.02">
        <ele>70.79</ele>
        <time>2010-11-21T10:17:51Z</time>
      </trkpt>
      <trkpt lat="47.34901" lon="0.01997">
        <ele>70.31</ele>
        <time>2010-11-21T10:17:52Z</time>
      </trkpt>
      <trkpt lat="47.34929" lon="0.01977">
        <ele>68.87</ele>
        <time>2010-11-21T10:17:57Z</time>
      </trkpt>
      <trkpt lat="47.34936" lon="0.01973">
        <ele>69.35</ele>
        <time>2010-11-21T10:17:58Z</time>
      </trkpt>
      <trkpt lat="47.34942" lon="0.01967">
        <ele>69.35</ele>
        <time>2010-11-21T10:17:59Z</time>
      </trkpt>
      <trkpt lat="47.3498" lon="0.01928">
        <ele>67.91</ele>
        <time>2010-11-21T10:18:06Z</time>
      </trkpt>
      <trkpt lat="47.35007" lon="0.01893">
        <ele>66.95</ele>
        <time>2010-11-21T10:18:12Z</time>
      </trkpt>
      <trkpt lat="47.35046" lon="0.01838">
        <ele>66.47</ele>
        <time>2010-11-21T10:18:20Z</time>
      </trkpt>
      <trkpt lat="47.35059" lon="0.0182">
        <ele>65.03</ele>
        <time>2010-11-21T10:18:23Z</time>
      </trkpt>
      <trkpt lat="47.35064" lon="0.01814">
        <ele>65.51</ele>
        <time>2010-11-21T10:18:24Z</time>
      </trkpt>
      <trkpt lat="47.35077" lon="0.01797">
        <ele>64.07</ele>
        <time>2010-11-21T10:18:27Z</time>
      </trkpt>
      <trkpt lat="47.35089" lon="0.01779">
        <ele>64.55</ele>
        <time>2010-11-21T10:18:30Z</time>
      </trkpt>
      <trkpt lat="47.35093" lon="0.01773">
        <ele>64.07</ele>
        <time>2010-11-21T10:18:31Z</time>
      </trkpt>
      <trkpt lat="47.3512" lon="0.01735">
        <ele>63.58</ele>
        <time>2010-11-21T10:18:39Z</time>
      </trkpt>
      <trkpt lat="47.35126" lon="0.01728">
        <ele>64.07</ele>
        <time>2010-11-21T10:18:44Z</time>
      </trkpt>
      <trkpt lat="47.35127" lon="0.01724">
        <ele>64.07</ele>
        <time>2010-11-21T10:19:07Z</time>
      </trkpt>
      <trkpt lat="47.35127" lon="0.01722">
        <ele>64.55</ele>
        <time>2010-11-21T10:19:08Z</time>
      </trkpt>
      <trkpt lat="47.35127" lon="0.01718">
        <ele>64.55</ele>
        <time>2010-11-21T10:19:09Z</time>
      </trkpt>
      <trkpt lat="47.35126" lon="0.01714">
        <ele>64.07</ele>
        <time>2010-11-21T10:19:10Z</time>
      </trkpt>
      <trkpt lat="47.35124" lon="0.01709">
        <ele>64.55</ele>
        <time>2010-11-21T10:19:11Z</time>
      </trkpt>
      <trkpt lat="47.35121" lon="0.01704">
        <ele>65.03</ele>
        <time>2010-11-21T10:19:12Z</time>
      </trkpt>
      <trkpt lat="47.35118" lon="0.01699">
        <ele>65.03</ele>
        <time>2010-11-21T10:19:13Z</time>
      </trkpt>
      <trkpt lat="47.35103" lon="0.01676">
        <ele>65.03</ele>
        <time>2010-11-21T10:19:18Z</time>
      </trkpt>
      <trkpt lat="47.35091" lon="0.01649">
        <ele>65.99</ele>
        <time>2010-11-21T10:19:24Z</time>
      </trkpt>
      <trkpt lat="47.35092" lon="0.01646">
        <ele>65.03</ele>
        <time>2010-11-21T10:19:25Z</time>
      </trkpt>
      <trkpt lat="47.35096" lon="0.01622">
        <ele>65.03</ele>
        <time>2010-11-21T10:19:31Z</time>
      </trkpt>
      <trkpt lat="47.35093" lon="0.01611">
        <ele>65.99</ele>
        <time>2010-11-21T10:19:35Z</time>
      </trkpt>
      <trkpt lat="47.35094" lon="0.01604">
        <ele>65.99</ele>
        <time>2010-11-21T10:19:43Z</time>
      </trkpt>
      <trkpt lat="47.35096" lon="0.01601">
        <ele>66.47</ele>
        <time>2010-11-21T10:20:05Z</time>
      </trkpt>
      <trkpt lat="47.35099" lon="0.01596">
        <ele>65.99</ele>
        <time>2010-11-21T10:20:11Z</time>
      </trkpt>
      <trkpt lat="47.35099" lon="0.01596">
        <ele>65.99</ele>
        <time>2010-11-21T10:20:27Z</time>
      </trkpt>
      <trkpt lat="47.35099" lon="0.01595">
        <ele>66.47</ele>
        <time>2010-11-21T10:21:07Z</time>
      </trkpt>
      <trkpt lat="47.35095" lon="0.01582">
        <ele>66.95</ele>
        <time>2010-11-21T10:21:14Z</time>
      </trkpt>
      <trkpt lat="47.35088" lon="0.01565">
        <ele>67.91</ele>
        <time>2010-11-21T10:21:21Z</time>
      </trkpt>
      <trkpt lat="47.3508" lon="0.0155">
        <ele>68.39</ele>
        <time>2010-11-21T10:21:28Z</time>
      </trkpt>
      <trkpt lat="47.35075" lon="0.0154">
        <ele>69.35</ele>
        <time>2010-11-21T10:21:32Z</time>
      </trkpt>
      <trkpt lat="47.35071" lon="0.01522">
        <ele>70.31</ele>
        <time>2010-11-21T10:21:40Z</time>
      </trkpt>
      <trkpt lat="47.35072" lon="0.01521">
        <ele>70.31</ele>
        <time>2010-11-21T10:21:41Z</time>
      </trkpt>
      <trkpt lat="47.35071" lon="0.01502">
        <ele>71.27</ele>
        <time>2010-11-21T10:21:47Z</time>
      </trkpt>
      <trkpt lat="47.35071" lon="0.01476">
        <ele>73.2</ele>
        <time>2010-11-21T10:21:55Z</time>
      </trkpt>
      <trkpt lat="47.3507" lon="0.01464">
        <ele>74.16</ele>
        <time>2010-11-21T10:22:01Z</time>
      </trkpt>
      <trkpt lat="47.3507" lon="0.01457">
        <ele>74.16</ele>
        <time>2010-11-21T10:22:06Z</time>
      </trkpt>
      <trkpt lat="47.35068" lon="0.01451">
        <ele>74.16</ele>
        <time>2010-11-21T10:22:10Z</time>
      </trkpt>
      <trkpt lat="47.35064" lon="0.01446">
        <ele>75.6</ele>
        <time>2010-11-21T10:22:13Z</time>
      </trkpt>
      <trkpt lat="47.35051" lon="0.01443">
        <ele>75.6</ele>
        <time>2010-11-21T10:22:20Z</time>
      </trkpt>
      <trkpt lat="47.35046" lon="0.01442">
        <ele>76.08</ele>
        <time>2010-11-21T10:22:26Z</time>
      </trkpt>
      <trkpt lat="47.35047" lon="0.01443">
        <ele>76.08</ele>
        <time>2010-11-21T10:22:29Z</time>
      </trkpt>
      <trkpt lat="47.35041" lon="0.01447">
        <ele>75.6</ele>
        <time>2010-11-21T10:22:34Z</time>
      </trkpt>
      <trkpt lat="47.35035" lon="0.01446">
        <ele>76.08</ele>
        <time>2010-11-21T10:22:41Z</time>
      </trkpt>
      <trkpt lat="47.35029" lon="0.01438">
        <ele>75.6</ele>
        <time>2010-11-21T10:22:46Z</time>
      </trkpt>
      <trkpt lat="47.35028" lon="0.01436">
        <ele>77.04</ele>
        <time>2010-11-21T10:22:47Z</time>
      </trkpt>
      <trkpt lat="47.35025" lon="0.01427">
        <ele>76.56</ele>
        <time>2010-11-21T10:22:52Z</time>
      </trkpt>
      <trkpt lat="47.35023" lon="0.01413">
        <ele>77.52</ele>
        <time>2010-11-21T10:22:58Z</time>
      </trkpt>
      <trkpt lat="47.35023" lon="0.01406">
        <ele>78</ele>
        <time>2010-11-21T10:23:01Z</time>
      </trkpt>
      <trkpt lat="47.35013" lon="0.0139">
        <ele>77.52</ele>
        <time>2010-11-21T10:23:09Z</time>
      </trkpt>
      <trkpt lat="47.35009" lon="0.01381">
        <ele>78.97</ele>
        <time>2010-11-21T10:23:14Z</time>
      </trkpt>
      <trkpt lat="47.35007" lon="0.0137">
        <ele>79.45</ele>
        <time>2010-11-21T10:23:21Z</time>
      </trkpt>
      <trkpt lat="47.35002" lon="0.01357">
        <ele>79.93</ele>
        <time>2010-11-21T10:23:27Z</time>
      </trkpt>
      <trkpt lat="47.35" lon="0.01352">
        <ele>79.45</ele>
        <time>2010-11-21T10:23:29Z</time>
      </trkpt>
      <trkpt lat="47.34999" lon="0.01342">
        <ele>79.93</ele>
        <time>2010-11-21T10:23:33Z</time>
      </trkpt>
      <trkpt lat="47.34991" lon="0.01321">
        <ele>80.89</ele>
        <time>2010-11-21T10:23:41Z</time>
      </trkpt>
      <trkpt lat="47.34986" lon="0.01312">
        <ele>80.89</ele>
        <time>2010-11-21T10:23:45Z</time>
      </trkpt>
      <trkpt lat="47.3498" lon="0.01302">
        <ele>81.37</ele>
        <time>2010-11-21T10:23:51Z</time>
      </trkpt>
      <trkpt lat="47.34971" lon="0.01292">
        <ele>82.33</ele>
        <time>2010-11-21T10:23:58Z</time>
      </trkpt>
      <trkpt lat="47.3496" lon="0.01289">
        <ele>81.85</ele>
        <time>2010-11-21T10:24:05Z</time>
      </trkpt>
      <trkpt lat="47.34948" lon="0.01284">
        <ele>81.85</ele>
        <time>2010-11-21T10:24:11Z</time>
      </trkpt>
      <trkpt lat="47.34943" lon="0.01278">
        <ele>82.33</ele>
        <time>2010-11-21T10:24:17Z</time>
      </trkpt>
      <trkpt lat="47.34943" lon="0.01273">
        <ele>81.85</ele>
        <time>2010-11-21T10:24:26Z</time>
      </trkpt>
      <trkpt lat="47.34939" lon="0.0127">
        <ele>82.33</ele>
        <time>2010-11-21T10:24:31Z</time>
      </trkpt>
      <trkpt lat="47.34931" lon="0.01259">
        <ele>82.33</ele>
        <time>2010-11-21T10:24:35Z</time>
      </trkpt>
      <trkpt lat="47.34926" lon="0.01247">
        <ele>83.29</ele>
        <time>2010-11-21T10:24:40Z</time>
      </trkpt>
      <trkpt lat="47.34925" lon="0.01242">
        <ele>82.81</ele>
        <time>2010-11-21T10:24:42Z</time>
      </trkpt>
      <trkpt lat="47.34915" lon="0.0123">
        <ele>83.29</ele>
        <time>2010-11-21T10:24:49Z</time>
      </trkpt>
      <trkpt lat="47.3491" lon="0.01227">
        <ele>83.77</ele>
        <time>2010-11-21T10:24:52Z</time>
      </trkpt>
      <trkpt lat="47.34899" lon="0.01212">
        <ele>82.81</ele>
        <time>2010-11-21T10:24:59Z</time>
      </trkpt>
      <trkpt lat="47.34896" lon="0.01204">
        <ele>81.85</ele>
        <time>2010-11-21T10:25:04Z</time>
      </trkpt>
      <trkpt lat="47.3489" lon="0.01189">
        <ele>83.29</ele>
        <time>2010-11-21T10:25:11Z</time>
      </trkpt>
      <trkpt lat="47.34887" lon="0.01176">
        <ele>83.29</ele>
        <time>2010-11-21T10:25:18Z</time>
      </trkpt>
      <trkpt lat="47.34885" lon="0.01169">
        <ele>84.25</ele>
        <time>2010-11-21T10:25:28Z</time>
      </trkpt>
      <trkpt lat="47.34885" lon="0.01161">
        <ele>84.73</ele>
        <time>2010-11-21T10:25:39Z</time>
      </trkpt>
      <trkpt lat="47.34884" lon="0.01152">
        <ele>84.25</ele>
        <time>2010-11-21T10:25:45Z</time>
      </trkpt>
      <trkpt lat="47.34887" lon="0.01146">
        <ele>84.25</ele>
        <time>2010-11-21T10:25:55Z</time>
      </trkpt>
      <trkpt lat="47.34886" lon="0.01146">
        <ele>84.25</ele>
        <time>2010-11-21T10:25:59Z</time>
      </trkpt>
      <trkpt lat="47.34871" lon="0.01142">
        <ele>83.29</ele>
        <time>2010-11-21T10:26:06Z</time>
      </trkpt>
      <trkpt lat="47.3485" lon="0.01136">
        <ele>83.29</ele>
        <time>2010-11-21T10:26:12Z</time>
      </trkpt>
      <trkpt lat="47.34843" lon="0.01122">
        <ele>82.81</ele>
        <time>2010-11-21T10:26:17Z</time>
      </trkpt>
      <trkpt lat="47.34842" lon="0.01114">
        <ele>83.29</ele>
        <time>2010-11-21T10:26:20Z</time>
      </trkpt>
      <trkpt lat="47.34846" lon="0.01089">
        <ele>84.25</ele>
        <time>2010-11-21T10:26:27Z</time>
      </trkpt>
      <trkpt lat="47.34847" lon="0.01086">
        <ele>83.29</ele>
        <time>2010-11-21T10:26:28Z</time>
      </trkpt>
      <trkpt lat="47.34846" lon="0.01072">
        <ele>84.25</ele>
        <time>2010-11-21T10:26:32Z</time>
      </trkpt>
      <trkpt lat="47.34846" lon="0.01055">
        <ele>84.73</ele>
        <time>2010-11-21T10:26:36Z</time>
      </trkpt>
      <trkpt lat="47.34854" lon="0.01036">
        <ele>84.73</ele>
        <time>2010-11-21T10:26:43Z</time>
      </trkpt>
      <trkpt lat="47.34869" lon="0.01023">
        <ele>84.25</ele>
        <time>2010-11-21T10:26:50Z</time>
      </trkpt>
      <trkpt lat="47.34875" lon="0.01014">
        <ele>85.21</ele>
        <time>2010-11-21T10:26:54Z</time>
      </trkpt>
      <trkpt lat="47.34891" lon="0.01002">
        <ele>84.73</ele>
        <time>2010-11-21T10:26:59Z</time>
      </trkpt>
      <trkpt lat="47.34902" lon="0.00986">
        <ele>84.25</ele>
        <time>2010-11-21T10:27:04Z</time>
      </trkpt>
      <trkpt lat="47.34926" lon="0.00959">
        <ele>83.29</ele>
        <time>2010-11-21T10:27:10Z</time>
      </trkpt>
      <trkpt lat="47.34937" lon="0.00949">
        <ele>82.81</ele>
        <time>2010-11-21T10:27:13Z</time>
      </trkpt>
      <trkpt lat="47.34959" lon="0.00926">
        <ele>81.85</ele>
        <time>2010-11-21T10:27:19Z</time>
      </trkpt>
      <trkpt lat="47.34963" lon="0.00921">
        <ele>81.85</ele>
        <time>2010-11-21T10:27:20Z</time>
      </trkpt>
      <trkpt lat="47.34967" lon="0.00917">
        <ele>81.85</ele>
        <time>2010-11-21T10:27:21Z</time>
      </trkpt>
      <trkpt lat="47.34983" lon="0.009">
        <ele>80.41</ele>
        <time>2010-11-21T10:27:26Z</time>
      </trkpt>
      <trkpt lat="47.34991" lon="0.00881">
        <ele>78</ele>
        <time>2010-11-21T10:27:31Z</time>
      </trkpt>
      <trkpt lat="47.34999" lon="0.00867">
        <ele>77.04</ele>
        <time>2010-11-21T10:27:34Z</time>
      </trkpt>
      <trkpt lat="47.35004" lon="0.00861">
        <ele>76.08</ele>
        <time>2010-11-21T10:27:35Z</time>
      </trkpt>
      <trkpt lat="47.35009" lon="0.00856">
        <ele>75.12</ele>
        <time>2010-11-21T10:27:36Z</time>
      </trkpt>
      <trkpt lat="47.35015" lon="0.00852">
        <ele>75.12</ele>
        <time>2010-11-21T10:27:37Z</time>
      </trkpt>
      <trkpt lat="47.35026" lon="0.00842">
        <ele>73.2</ele>
        <time>2010-11-21T10:27:39Z</time>
      </trkpt>
      <trkpt lat="47.35032" lon="0.00839">
        <ele>72.72</ele>
        <time>2010-11-21T10:27:40Z</time>
      </trkpt>
      <trkpt lat="47.35039" lon="0.00838">
        <ele>72.24</ele>
        <time>2010-11-21T10:27:41Z</time>
      </trkpt>
      <trkpt lat="47.35044" lon="0.00837">
        <ele>71.76</ele>
        <time>2010-11-21T10:27:42Z</time>
      </trkpt>
      <trkpt lat="47.35049" lon="0.00837">
        <ele>70.79</ele>
        <time>2010-11-21T10:27:43Z</time>
      </trkpt>
      <trkpt lat="47.35054" lon="0.00839">
        <ele>70.31</ele>
        <time>2010-11-21T10:27:44Z</time>
      </trkpt>
      <trkpt lat="47.35059" lon="0.00841">
        <ele>68.87</ele>
        <time>2010-11-21T10:27:45Z</time>
      </trkpt>
      <trkpt lat="47.35064" lon="0.00843">
        <ele>68.87</ele>
        <time>2010-11-21T10:27:46Z</time>
      </trkpt>
      <trkpt lat="47.35069" lon="0.00842">
        <ele>67.91</ele>
        <time>2010-11-21T10:27:47Z</time>
      </trkpt>
      <trkpt lat="47.35076" lon="0.00838">
        <ele>67.91</ele>
        <time>2010-11-21T10:27:48Z</time>
      </trkpt>
      <trkpt lat="47.35082" lon="0.00835">
        <ele>66.95</ele>
        <time>2010-11-21T10:27:49Z</time>
      </trkpt>
      <trkpt lat="47.35087" lon="0.0083">
        <ele>65.99</ele>
        <time>2010-11-21T10:27:50Z</time>
      </trkpt>
      <trkpt lat="47.35092" lon="0.00824">
        <ele>65.03</ele>
        <time>2010-11-21T10:27:51Z</time>
      </trkpt>
      <trkpt lat="47.35091" lon="0.00808">
        <ele>64.07</ele>
        <time>2010-11-21T10:27:53Z</time>
      </trkpt>
      <trkpt lat="47.35092" lon="0.008">
        <ele>63.58</ele>
        <time>2010-11-21T10:27:54Z</time>
      </trkpt>
      <trkpt lat="47.35096" lon="0.00791">
        <ele>62.62</ele>
        <time>2010-11-21T10:27:55Z</time>
      </trkpt>
      <trkpt lat="47.35101" lon="0.00782">
        <ele>61.66</ele>
        <time>2010-11-21T10:27:56Z</time>
      </trkpt>
      <trkpt lat="47.35104" lon="0.00773">
        <ele>62.14</ele>
        <time>2010-11-21T10:27:57Z</time>
      </trkpt>
      <trkpt lat="47.35106" lon="0.00764">
        <ele>61.18</ele>
        <time>2010-11-21T10:27:58Z</time>
      </trkpt>
      <trkpt lat="47.35109" lon="0.00756">
        <ele>61.66</ele>
        <time>2010-11-21T10:27:59Z</time>
      </trkpt>
      <trkpt lat="47.35111" lon="0.00748">
        <ele>60.7</ele>
        <time>2010-11-21T10:28:00Z</time>
      </trkpt>
      <trkpt lat="47.35116" lon="0.00729">
        <ele>59.74</ele>
        <time>2010-11-21T10:28:02Z</time>
      </trkpt>
      <trkpt lat="47.3512" lon="0.00715">
        <ele>58.78</ele>
        <time>2010-11-21T10:28:04Z</time>
      </trkpt>
      <trkpt lat="47.35127" lon="0.00698">
        <ele>59.26</ele>
        <time>2010-11-21T10:28:09Z</time>
      </trkpt>
      <trkpt lat="47.35127" lon="0.00694">
        <ele>59.74</ele>
        <time>2010-11-21T10:28:10Z</time>
      </trkpt>
      <trkpt lat="47.35127" lon="0.00691">
        <ele>58.78</ele>
        <time>2010-11-21T10:28:15Z</time>
      </trkpt>
      <trkpt lat="47.35127" lon="0.00694">
        <ele>59.26</ele>
        <time>2010-11-21T10:28:21Z</time>
      </trkpt>
      <trkpt lat="47.35127" lon="0.00694">
        <ele>59.26</ele>
        <time>2010-11-21T10:28:31Z</time>
      </trkpt>
      <trkpt lat="47.35127" lon="0.00694">
        <ele>59.26</ele>
        <time>2010-11-21T10:28:50Z</time>
      </trkpt>
      <trkpt lat="47.35129" lon="0.00691">
        <ele>58.3</ele>
        <time>2010-11-21T10:28:57Z</time>
      </trkpt>
      <trkpt lat="47.35137" lon="0.00685">
        <ele>58.78</ele>
        <time>2010-11-21T10:29:03Z</time>
      </trkpt>
      <trkpt lat="47.35138" lon="0.00685">
        <ele>58.3</ele>
        <time>2010-11-21T10:29:04Z</time>
      </trkpt>
      <trkpt lat="47.3514" lon="0.00685">
        <ele>58.78</ele>
        <time>2010-11-21T10:29:05Z</time>
      </trkpt>
      <trkpt lat="47.35142" lon="0.00685">
        <ele>58.3</ele>
        <time>2010-11-21T10:29:06Z</time>
      </trkpt>
      <trkpt lat="47.35144" lon="0.00684">
        <ele>57.82</ele>
        <time>2010-11-21T10:29:07Z</time>
      </trkpt>
      <trkpt lat="47.35146" lon="0.00684">
        <ele>58.78</ele>
        <time>2010-11-21T10:29:08Z</time>
      </trkpt>
      <trkpt lat="47.35147" lon="0.00683">
        <ele>58.3</ele>
        <time>2010-11-21T10:29:09Z</time>
      </trkpt>
      <trkpt lat="47.35165" lon="0.0068">
        <ele>57.82</ele>
        <time>2010-11-21T10:29:17Z</time>
      </trkpt>
      <trkpt lat="47.35182" lon="0.00674">
        <ele>56.37</ele>
        <time>2010-11-21T10:29:22Z</time>
      </trkpt>
      <trkpt lat="47.35189" lon="0.0064">
        <ele>55.41</ele>
        <time>2010-11-21T10:29:29Z</time>
      </trkpt>
      <trkpt lat="47.35189" lon="0.00634">
        <ele>55.41</ele>
        <time>2010-11-21T10:29:30Z</time>
      </trkpt>
      <trkpt lat="47.3519" lon="0.00627">
        <ele>55.41</ele>
        <time>2010-11-21T10:29:31Z</time>
      </trkpt>
      <trkpt lat="47.3519" lon="0.00621">
        <ele>55.41</ele>
        <time>2010-11-21T10:29:32Z</time>
      </trkpt>
      <trkpt lat="47.3519" lon="0.00614">
        <ele>54.93</ele>
        <time>2010-11-21T10:29:33Z</time>
      </trkpt>
      <trkpt lat="47.3519" lon="0.00608">
        <ele>54.45</ele>
        <time>2010-11-21T10:29:34Z</time>
      </trkpt>
      <trkpt lat="47.35181" lon="0.00547">
        <ele>53.49</ele>
        <time>2010-11-21T10:29:42Z</time>
      </trkpt>
      <trkpt lat="47.35179" lon="0.00539">
        <ele>53.01</ele>
        <time>2010-11-21T10:29:43Z</time>
      </trkpt>
      <trkpt lat="47.35177" lon="0.00532">
        <ele>53.01</ele>
        <time>2010-11-21T10:29:44Z</time>
      </trkpt>
      <trkpt lat="47.35174" lon="0.00518">
        <ele>52.05</ele>
        <time>2010-11-21T10:29:46Z</time>
      </trkpt>
      <trkpt lat="47.35166" lon="0.00467">
        <ele>51.09</ele>
        <time>2010-11-21T10:29:53Z</time>
      </trkpt>
      <trkpt lat="47.35157" lon="0.004">
        <ele>49.65</ele>
        <time>2010-11-21T10:30:01Z</time>
      </trkpt>
      <trkpt lat="47.35149" lon="0.0033">
        <ele>49.65</ele>
        <time>2010-11-21T10:30:09Z</time>
      </trkpt>
      <trkpt lat="47.35148" lon="0.00311">
        <ele>48.68</ele>
        <time>2010-11-21T10:30:11Z</time>
      </trkpt>
      <trkpt lat="47.35138" lon="0.0022">
        <ele>48.2</ele>
        <time>2010-11-21T10:30:21Z</time>
      </trkpt>
      <trkpt lat="47.35131" lon="0.0015">
        <ele>47.24</ele>
        <time>2010-11-21T10:30:29Z</time>
      </trkpt>
      <trkpt lat="47.35128" lon="0.00099">
        <ele>47.24</ele>
        <time>2010-11-21T10:30:35Z</time>
      </trkpt>
      <trkpt lat="47.35121" lon="0.00017">
        <ele>46.28</ele>
        <time>2010-11-21T10:30:44Z</time>
      </trkpt>
      <trkpt lat="47.35102" lon="-0.00068">
        <ele>45.32</ele>
        <time>2010-11-21T10:30:53Z</time>
      </trkpt>
      <trkpt lat="47.35084" lon="-0.00134">
        <ele>45.32</ele>
        <time>2010-11-21T10:31:01Z</time>
      </trkpt>
      <trkpt lat="47.35068" lon="-0.00205">
        <ele>45.8</ele>
        <time>2010-11-21T10:31:09Z</time>
      </trkpt>
      <trkpt lat="47.35053" lon="-0.00288">
        <ele>44.84</ele>
        <time>2010-11-21T10:31:18Z</time>
      </trkpt>
      <trkpt lat="47.35036" lon="-0.00368">
        <ele>44.36</ele>
        <time>2010-11-21T10:31:27Z</time>
      </trkpt>
      <trkpt lat="47.35031" lon="-0.00386">
        <ele>44.84</ele>
        <time>2010-11-21T10:31:29Z</time>
      </trkpt>
      <trkpt lat="47.35028" lon="-0.00394">
        <ele>44.84</ele>
        <time>2010-11-21T10:31:30Z</time>
      </trkpt>
      <trkpt lat="47.35005" lon="-0.00473">
        <ele>45.32</ele>
        <time>2010-11-21T10:31:39Z</time>
      </trkpt>
      <trkpt lat="47.35003" lon="-0.00481">
        <ele>44.36</ele>
        <time>2010-11-21T10:31:40Z</time>
      </trkpt>
      <trkpt lat="47.34998" lon="-0.00499">
        <ele>44.36</ele>
        <time>2010-11-21T10:31:42Z</time>
      </trkpt>
      <trkpt lat="47.34996" lon="-0.00508">
        <ele>44.36</ele>
        <time>2010-11-21T10:31:43Z</time>
      </trkpt>
      <trkpt lat="47.34976" lon="-0.0059">
        <ele>44.84</ele>
        <time>2010-11-21T10:31:52Z</time>
      </trkpt>
      <trkpt lat="47.34968" lon="-0.00649">
        <ele>44.84</ele>
        <time>2010-11-21T10:31:58Z</time>
      </trkpt>
      <trkpt lat="47.34968" lon="-0.00659">
        <ele>44.84</ele>
        <time>2010-11-21T10:31:59Z</time>
      </trkpt>
      <trkpt lat="47.34958" lon="-0.00749">
        <ele>43.4</ele>
        <time>2010-11-21T10:32:08Z</time>
      </trkpt>
      <trkpt lat="47.34938" lon="-0.00816">
        <ele>43.88</ele>
        <time>2010-11-21T10:32:15Z</time>
      </trkpt>
      <trkpt lat="47.34905" lon="-0.00887">
        <ele>43.4</ele>
        <time>2010-11-21T10:32:23Z</time>
      </trkpt>
      <trkpt lat="47.34864" lon="-0.00977">
        <ele>42.92</ele>
        <time>2010-11-21T10:32:33Z</time>
      </trkpt>
      <trkpt lat="47.34826" lon="-0.01046">
        <ele>42.92</ele>
        <time>2010-11-21T10:32:41Z</time>
      </trkpt>
      <trkpt lat="47.34789" lon="-0.01114">
        <ele>43.4</ele>
        <time>2010-11-21T10:32:49Z</time>
      </trkpt>
      <trkpt lat="47.34752" lon="-0.01191">
        <ele>41.95</ele>
        <time>2010-11-21T10:32:58Z</time>
      </trkpt>
      <trkpt lat="47.34716" lon="-0.01258">
        <ele>41.47</ele>
        <time>2010-11-21T10:33:06Z</time>
      </trkpt>
      <trkpt lat="47.34669" lon="-0.01344">
        <ele>40.51</ele>
        <time>2010-11-21T10:33:16Z</time>
      </trkpt>
      <trkpt lat="47.34628" lon="-0.0142">
        <ele>40.99</ele>
        <time>2010-11-21T10:33:25Z</time>
      </trkpt>
      <trkpt lat="47.34591" lon="-0.01486">
        <ele>40.99</ele>
        <time>2010-11-21T10:33:33Z</time>
      </trkpt>
      <trkpt lat="47.34549" lon="-0.0156">
        <ele>40.51</ele>
        <time>2010-11-21T10:33:42Z</time>
      </trkpt>
      <trkpt lat="47.34513" lon="-0.01626">
        <ele>40.03</ele>
        <time>2010-11-21T10:33:50Z</time>
      </trkpt>
      <trkpt lat="47.34475" lon="-0.0169">
        <ele>40.03</ele>
        <time>2010-11-21T10:33:58Z</time>
      </trkpt>
      <trkpt lat="47.3443" lon="-0.01759">
        <ele>39.07</ele>
        <time>2010-11-21T10:34:07Z</time>
      </trkpt>
      <trkpt lat="47.34388" lon="-0.01818">
        <ele>39.07</ele>
        <time>2010-11-21T10:34:15Z</time>
      </trkpt>
      <trkpt lat="47.3436" lon="-0.01855">
        <ele>37.63</ele>
        <time>2010-11-21T10:34:21Z</time>
      </trkpt>
      <trkpt lat="47.34357" lon="-0.01862">
        <ele>38.11</ele>
        <time>2010-11-21T10:34:22Z</time>
      </trkpt>
      <trkpt lat="47.34356" lon="-0.0187">
        <ele>38.11</ele>
        <time>2010-11-21T10:34:23Z</time>
      </trkpt>
      <trkpt lat="47.34357" lon="-0.01879">
        <ele>38.11</ele>
        <time>2010-11-21T10:34:24Z</time>
      </trkpt>
      <trkpt lat="47.34357" lon="-0.01888">
        <ele>37.63</ele>
        <time>2010-11-21T10:34:25Z</time>
      </trkpt>
      <trkpt lat="47.34362" lon="-0.01938">
        <ele>38.11</ele>
        <time>2010-11-21T10:34:31Z</time>
      </trkpt>
      <trkpt lat="47.34364" lon="-0.01944">
        <ele>38.59</ele>
        <time>2010-11-21T10:34:32Z</time>
      </trkpt>
      <trkpt lat="47.34368" lon="-0.01948">
        <ele>39.07</ele>
        <time>2010-11-21T10:34:33Z</time>
      </trkpt>
      <trkpt lat="47.34372" lon="-0.01949">
        <ele>38.59</ele>
        <time>2010-11-21T10:34:34Z</time>
      </trkpt>
      <trkpt lat="47.34376" lon="-0.01947">
        <ele>38.59</ele>
        <time>2010-11-21T10:34:35Z</time>
      </trkpt>
      <trkpt lat="47.3438" lon="-0.01945">
        <ele>39.07</ele>
        <time>2010-11-21T10:34:36Z</time>
      </trkpt>
      <trkpt lat="47.3442" lon="-0.01925">
        <ele>40.51</ele>
        <time>2010-11-21T10:34:45Z</time>
      </trkpt>
      <trkpt lat="47.34425" lon="-0.01925">
        <ele>40.03</ele>
        <time>2010-11-21T10:34:46Z</time>
      </trkpt>
      <trkpt lat="47.34429" lon="-0.01927">
        <ele>40.51</ele>
        <time>2010-11-21T10:34:47Z</time>
      </trkpt>
      <trkpt lat="47.34433" lon="-0.0193">
        <ele>40.99</ele>
        <time>2010-11-21T10:34:48Z</time>
      </trkpt>
      <trkpt lat="47.34436" lon="-0.01935">
        <ele>40.99</ele>
        <time>2010-11-21T10:34:49Z</time>
      </trkpt>
      <trkpt lat="47.34439" lon="-0.0194">
        <ele>40.51</ele>
        <time>2010-11-21T10:34:50Z</time>
      </trkpt>
      <trkpt lat="47.34441" lon="-0.01947">
        <ele>40.99</ele>
        <time>2010-11-21T10:34:51Z</time>
      </trkpt>
      <trkpt lat="47.34443" lon="-0.01952">
        <ele>40.99</ele>
        <time>2010-11-21T10:34:52Z</time>
      </trkpt>
      <trkpt lat="47.34446" lon="-0.01958">
        <ele>40.99</ele>
        <time>2010-11-21T10:34:53Z</time>
      </trkpt>
      <trkpt lat="47.34456" lon="-0.01973">
        <ele>41.95</ele>
        <time>2010-11-21T10:34:56Z</time>
      </trkpt>
      <trkpt lat="47.34462" lon="-0.01983">
        <ele>41.95</ele>
        <time>2010-11-21T10:34:58Z</time>
      </trkpt>
      <trkpt lat="47.34472" lon="-0.01997">
        <ele>42.44</ele>
        <time>2010-11-21T10:35:01Z</time>
      </trkpt>
      <trkpt lat="47.34482" lon="-0.02012">
        <ele>42.92</ele>
        <time>2010-11-21T10:35:04Z</time>
      </trkpt>
      <trkpt lat="47.34509" lon="-0.02054">
        <ele>43.88</ele>
        <time>2010-11-21T10:35:13Z</time>
      </trkpt>
      <trkpt lat="47.34536" lon="-0.02093">
        <ele>44.84</ele>
        <time>2010-11-21T10:35:21Z</time>
      </trkpt>
      <trkpt lat="47.34559" lon="-0.02126">
        <ele>44.84</ele>
        <time>2010-11-21T10:35:28Z</time>
      </trkpt>
      <trkpt lat="47.3459" lon="-0.02173">
        <ele>46.76</ele>
        <time>2010-11-21T10:35:38Z</time>
      </trkpt>
      <trkpt lat="47.34603" lon="-0.0219">
        <ele>46.28</ele>
        <time>2010-11-21T10:35:44Z</time>
      </trkpt>
      <trkpt lat="47.3461" lon="-0.02202">
        <ele>47.24</ele>
        <time>2010-11-21T10:35:51Z</time>
      </trkpt>
      <trkpt lat="47.3461" lon="-0.02202">
        <ele>47.24</ele>
        <time>2010-11-21T10:35:57Z</time>
      </trkpt>
      <trkpt lat="47.3461" lon="-0.02202">
        <ele>46.76</ele>
        <time>2010-11-21T10:36:16Z</time>
      </trkpt>
      <trkpt lat="47.34612" lon="-0.02205">
        <ele>47.24</ele>
        <time>2010-11-21T10:36:35Z</time>
      </trkpt>
      <trkpt lat="47.34611" lon="-0.02206">
        <ele>47.72</ele>
        <time>2010-11-21T10:36:49Z</time>
      </trkpt>
      <trkpt lat="47.34614" lon="-0.02208">
        <ele>47.24</ele>
        <time>2010-11-21T10:37:21Z</time>
      </trkpt>
      <trkpt lat="47.34617" lon="-0.0221">
        <ele>47.72</ele>
        <time>2010-11-21T10:37:24Z</time>
      </trkpt>
      <trkpt lat="47.34614" lon="-0.0221">
        <ele>47.24</ele>
        <time>2010-11-21T10:37:38Z</time>
      </trkpt>
      <trkpt lat="47.34614" lon="-0.02213">
        <ele>47.72</ele>
        <time>2010-11-21T10:37:44Z</time>
      </trkpt>
      <trkpt lat="47.34613" lon="-0.0221">
        <ele>50.61</ele>
        <time>2010-11-21T10:44:05Z</time>
      </trkpt>
      <trkpt lat="47.34613" lon="-0.0221">
        <ele>49.16</ele>
        <time>2010-11-21T10:44:19Z</time>
      </trkpt>
      <trkpt lat="47.34613" lon="-0.0221">
        <ele>50.61</ele>
        <time>2010-11-21T10:44:22Z</time>
      </trkpt>
      <trkpt lat="47.34613" lon="-0.02214">
        <ele>53.97</ele>
        <time>2010-11-21T10:52:26Z</time>
      </trkpt>
      <trkpt lat="47.34611" lon="-0.02213">
        <ele>53.49</ele>
        <time>2010-11-21T10:53:01Z</time>
      </trkpt>
      <trkpt lat="47.34611" lon="-0.02208">
        <ele>53.01</ele>
        <time>2010-11-21T10:53:08Z</time>
      </trkpt>
      <trkpt lat="47.34611" lon="-0.02208">
        <ele>53.49</ele>
        <time>2010-11-21T10:53:36Z</time>
      </trkpt>
      <trkpt lat="47.34611" lon="-0.02208">
        <ele>53.01</ele>
        <time>2010-11-21T10:53:47Z</time>
      </trkpt>
      <trkpt lat="47.34612" lon="-0.02207">
        <ele>53.49</ele>
        <time>2010-11-21T10:54:24Z</time>
      </trkpt>
      <trkpt lat="47.34619" lon="-0.02209">
        <ele>53.49</ele>
        <time>2010-11-21T10:54:28Z</time>
      </trkpt>
      <trkpt lat="47.3463" lon="-0.02225">
        <ele>53.97</ele>
        <time>2010-11-21T10:54:34Z</time>
      </trkpt>
      <trkpt lat="47.34647" lon="-0.02254">
        <ele>54.45</ele>
        <time>2010-11-21T10:54:42Z</time>
      </trkpt>
      <trkpt lat="47.34667" lon="-0.02288">
        <ele>55.41</ele>
        <time>2010-11-21T10:54:51Z</time>
      </trkpt>
      <trkpt lat="47.34683" lon="-0.02308">
        <ele>56.86</ele>
        <time>2010-11-21T10:54:57Z</time>
      </trkpt>
      <trkpt lat="47.34701" lon="-0.0233">
        <ele>57.82</ele>
        <time>2010-11-21T10:55:04Z</time>
      </trkpt>
      <trkpt lat="47.34722" lon="-0.02356">
        <ele>59.26</ele>
        <time>2010-11-21T10:55:13Z</time>
      </trkpt>
      <trkpt lat="47.3474" lon="-0.0238">
        <ele>60.7</ele>
        <time>2010-11-21T10:55:21Z</time>
      </trkpt>
      <trkpt lat="47.34758" lon="-0.02398">
        <ele>60.7</ele>
        <time>2010-11-21T10:55:28Z</time>
      </trkpt>
      <trkpt lat="47.34782" lon="-0.02423">
        <ele>62.62</ele>
        <time>2010-11-21T10:55:38Z</time>
      </trkpt>
      <trkpt lat="47.34806" lon="-0.02447">
        <ele>65.51</ele>
        <time>2010-11-21T10:55:48Z</time>
      </trkpt>
      <trkpt lat="47.34823" lon="-0.02461">
        <ele>67.43</ele>
        <time>2010-11-21T10:55:56Z</time>
      </trkpt>
      <trkpt lat="47.34835" lon="-0.02467">
        <ele>68.39</ele>
        <time>2010-11-21T10:56:01Z</time>
      </trkpt>
      <trkpt lat="47.34858" lon="-0.02475">
        <ele>69.83</ele>
        <time>2010-11-21T10:56:09Z</time>
      </trkpt>
      <trkpt lat="47.34881" lon="-0.02485">
        <ele>70.79</ele>
        <time>2010-11-21T10:56:17Z</time>
      </trkpt>
      <trkpt lat="47.349" lon="-0.02493">
        <ele>71.76</ele>
        <time>2010-11-21T10:56:24Z</time>
      </trkpt>
      <trkpt lat="47.34919" lon="-0.02502">
        <ele>73.2</ele>
        <time>2010-11-21T10:56:31Z</time>
      </trkpt>
      <trkpt lat="47.3493" lon="-0.02506">
        <ele>74.16</ele>
        <time>2010-11-21T10:56:35Z</time>
      </trkpt>
      <trkpt lat="47.34952" lon="-0.02517">
        <ele>75.12</ele>
        <time>2010-11-21T10:56:43Z</time>
      </trkpt>
      <trkpt lat="47.34968" lon="-0.02525">
        <ele>75.6</ele>
        <time>2010-11-21T10:56:49Z</time>
      </trkpt>
      <trkpt lat="47.34997" lon="-0.02535">
        <ele>76.08</ele>
        <time>2010-11-21T10:56:58Z</time>
      </trkpt>
      <trkpt lat="47.35014" lon="-0.02543">
        <ele>77.04</ele>
        <time>2010-11-21T10:57:04Z</time>
      </trkpt>
      <trkpt lat="47.3503" lon="-0.02548">
        <ele>78</ele>
        <time>2010-11-21T10:57:10Z</time>
      </trkpt>
      <trkpt lat="47.3505" lon="-0.02548">
        <ele>78.48</ele>
        <time>2010-11-21T10:57:16Z</time>
      </trkpt>
      <trkpt lat="47.35068" lon="-0.02551">
        <ele>79.45</ele>
        <time>2010-11-21T10:57:22Z</time>
      </trkpt>
      <trkpt lat="47.35089" lon="-0.02551">
        <ele>80.89</ele>
        <time>2010-11-21T10:57:29Z</time>
      </trkpt>
      <trkpt lat="47.35105" lon="-0.0255">
        <ele>82.33</ele>
        <time>2010-11-21T10:57:34Z</time>
      </trkpt>
      <trkpt lat="47.35121" lon="-0.02551">
        <ele>84.25</ele>
        <time>2010-11-21T10:57:41Z</time>
      </trkpt>
      <trkpt lat="47.35135" lon="-0.02551">
        <ele>84.25</ele>
        <time>2010-11-21T10:57:47Z</time>
      </trkpt>
      <trkpt lat="47.35158" lon="-0.02549">
        <ele>86.18</ele>
        <time>2010-11-21T10:57:55Z</time>
      </trkpt>
      <trkpt lat="47.35172" lon="-0.02547">
        <ele>87.14</ele>
        <time>2010-11-21T10:58:01Z</time>
      </trkpt>
      <trkpt lat="47.35184" lon="-0.0255">
        <ele>88.1</ele>
        <time>2010-11-21T10:58:06Z</time>
      </trkpt>
      <trkpt lat="47.35197" lon="-0.02559">
        <ele>89.54</ele>
        <time>2010-11-21T10:58:12Z</time>
      </trkpt>
      <trkpt lat="47.35211" lon="-0.02566">
        <ele>90.98</ele>
        <time>2010-11-21T10:58:18Z</time>
      </trkpt>
      <trkpt lat="47.35216" lon="-0.02567">
        <ele>90.98</ele>
        <time>2010-11-21T10:58:20Z</time>
      </trkpt>
      <trkpt lat="47.3523" lon="-0.02574">
        <ele>92.42</ele>
        <time>2010-11-21T10:58:27Z</time>
      </trkpt>
      <trkpt lat="47.35247" lon="-0.02585">
        <ele>91.94</ele>
        <time>2010-11-21T10:58:35Z</time>
      </trkpt>
      <trkpt lat="47.3527" lon="-0.02597">
        <ele>93.87</ele>
        <time>2010-11-21T10:58:43Z</time>
      </trkpt>
      <trkpt lat="47.35282" lon="-0.02605">
        <ele>94.83</ele>
        <time>2010-11-21T10:58:48Z</time>
      </trkpt>
      <trkpt lat="47.35287" lon="-0.02611">
        <ele>95.31</ele>
        <time>2010-11-21T10:58:55Z</time>
      </trkpt>
      <trkpt lat="47.3529" lon="-0.02613">
        <ele>95.31</ele>
        <time>2010-11-21T10:59:00Z</time>
      </trkpt>
      <trkpt lat="47.35291" lon="-0.02612">
        <ele>95.31</ele>
        <time>2010-11-21T10:59:09Z</time>
      </trkpt>
      <trkpt lat="47.35293" lon="-0.0261">
        <ele>95.31</ele>
        <time>2010-11-21T10:59:45Z</time>
      </trkpt>
      <trkpt lat="47.35298" lon="-0.02608">
        <ele>96.27</ele>
        <time>2010-11-21T10:59:47Z</time>
      </trkpt>
      <trkpt lat="47.35303" lon="-0.02604">
        <ele>95.31</ele>
        <time>2010-11-21T10:59:49Z</time>
      </trkpt>
      <trkpt lat="47.35318" lon="-0.02593">
        <ele>96.27</ele>
        <time>2010-11-21T10:59:55Z</time>
      </trkpt>
      <trkpt lat="47.35333" lon="-0.02578">
        <ele>96.27</ele>
        <time>2010-11-21T11:00:01Z</time>
      </trkpt>
      <trkpt lat="47.35342" lon="-0.02563">
        <ele>96.27</ele>
        <time>2010-11-21T11:00:07Z</time>
      </trkpt>
      <trkpt lat="47.35356" lon="-0.02541">
        <ele>96.27</ele>
        <time>2010-11-21T11:00:13Z</time>
      </trkpt>
      <trkpt lat="47.35371" lon="-0.02518">
        <ele>98.19</ele>
        <time>2010-11-21T11:00:20Z</time>
      </trkpt>
      <trkpt lat="47.35386" lon="-0.02494">
        <ele>98.19</ele>
        <time>2010-11-21T11:00:27Z</time>
      </trkpt>
      <trkpt lat="47.35396" lon="-0.02476">
        <ele>99.15</ele>
        <time>2010-11-21T11:00:32Z</time>
      </trkpt>
      <trkpt lat="47.35403" lon="-0.02461">
        <ele>99.15</ele>
        <time>2010-11-21T11:00:36Z</time>
      </trkpt>
      <trkpt lat="47.35411" lon="-0.0244">
        <ele>99.63</ele>
        <time>2010-11-21T11:00:42Z</time>
      </trkpt>
      <trkpt lat="47.35417" lon="-0.02427">
        <ele>99.63</ele>
        <time>2010-11-21T11:00:46Z</time>
      </trkpt>
      <trkpt lat="47.3543" lon="-0.02404">
        <ele>100.11</ele>
        <time>2010-11-21T11:00:53Z</time>
      </trkpt>
      <trkpt lat="47.35438" lon="-0.02386">
        <ele>100.6</ele>
        <time>2010-11-21T11:00:58Z</time>
      </trkpt>
      <trkpt lat="47.35451" lon="-0.02363">
        <ele>101.56</ele>
        <time>2010-11-21T11:01:04Z</time>
      </trkpt>
      <trkpt lat="47.35467" lon="-0.02339">
        <ele>102.04</ele>
        <time>2010-11-21T11:01:11Z</time>
      </trkpt>
      <trkpt lat="47.35477" lon="-0.02319">
        <ele>101.56</ele>
        <time>2010-11-21T11:01:17Z</time>
      </trkpt>
      <trkpt lat="47.35489" lon="-0.02297">
        <ele>102.04</ele>
        <time>2010-11-21T11:01:23Z</time>
      </trkpt>
      <trkpt lat="47.35509" lon="-0.02267">
        <ele>102.52</ele>
        <time>2010-11-21T11:01:31Z</time>
      </trkpt>
      <trkpt lat="47.35526" lon="-0.02238">
        <ele>103</ele>
        <time>2010-11-21T11:01:39Z</time>
      </trkpt>
      <trkpt lat="47.35538" lon="-0.02218">
        <ele>102.52</ele>
        <time>2010-11-21T11:01:45Z</time>
      </trkpt>
      <trkpt lat="47.35545" lon="-0.02206">
        <ele>102.52</ele>
        <time>2010-11-21T11:01:48Z</time>
      </trkpt>
      <trkpt lat="47.35559" lon="-0.02183">
        <ele>102.52</ele>
        <time>2010-11-21T11:01:54Z</time>
      </trkpt>
      <trkpt lat="47.35568" lon="-0.02165">
        <ele>103.48</ele>
        <time>2010-11-21T11:01:59Z</time>
      </trkpt>
      <trkpt lat="47.35581" lon="-0.0214">
        <ele>103</ele>
        <time>2010-11-21T11:02:06Z</time>
      </trkpt>
      <trkpt lat="47.35592" lon="-0.02116">
        <ele>103</ele>
        <time>2010-11-21T11:02:12Z</time>
      </trkpt>
      <trkpt lat="47.35601" lon="-0.02095">
        <ele>103</ele>
        <time>2010-11-21T11:02:18Z</time>
      </trkpt>
      <trkpt lat="47.35606" lon="-0.02083">
        <ele>103</ele>
        <time>2010-11-21T11:02:23Z</time>
      </trkpt>
      <trkpt lat="47.35611" lon="-0.02069">
        <ele>103</ele>
        <time>2010-11-21T11:02:28Z</time>
      </trkpt>
      <trkpt lat="47.35619" lon="-0.02053">
        <ele>103.96</ele>
        <time>2010-11-21T11:02:33Z</time>
      </trkpt>
      <trkpt lat="47.3563" lon="-0.02031">
        <ele>103.48</ele>
        <time>2010-11-21T11:02:39Z</time>
      </trkpt>
      <trkpt lat="47.35639" lon="-0.02016">
        <ele>103.96</ele>
        <time>2010-11-21T11:02:45Z</time>
      </trkpt>
      <trkpt lat="47.35642" lon="-0.02015">
        <ele>103.96</ele>
        <time>2010-11-21T11:02:47Z</time>
      </trkpt>
      <trkpt lat="47.35643" lon="-0.02015">
        <ele>104.44</ele>
        <time>2010-11-21T11:02:48Z</time>
      </trkpt>
      <trkpt lat="47.35644" lon="-0.02016">
        <ele>103.96</ele>
        <time>2010-11-21T11:02:49Z</time>
      </trkpt>
      <trkpt lat="47.35644" lon="-0.02019">
        <ele>103.48</ele>
        <time>2010-11-21T11:02:50Z</time>
      </trkpt>
      <trkpt lat="47.35645" lon="-0.02022">
        <ele>104.44</ele>
        <time>2010-11-21T11:02:51Z</time>
      </trkpt>
      <trkpt lat="47.35651" lon="-0.02046">
        <ele>103.48</ele>
        <time>2010-11-21T11:02:57Z</time>
      </trkpt>
      <trkpt lat="47.3566" lon="-0.02084">
        <ele>103.48</ele>
        <time>2010-11-21T11:03:04Z</time>
      </trkpt>
      <trkpt lat="47.35663" lon="-0.02095">
        <ele>103.48</ele>
        <time>2010-11-21T11:03:06Z</time>
      </trkpt>
      <trkpt lat="47.35663" lon="-0.02101">
        <ele>103.48</ele>
        <time>2010-11-21T11:03:07Z</time>
      </trkpt>
      <trkpt lat="47.35664" lon="-0.02107">
        <ele>103</ele>
        <time>2010-11-21T11:03:08Z</time>
      </trkpt>
      <trkpt lat="47.35665" lon="-0.02112">
        <ele>103</ele>
        <time>2010-11-21T11:03:09Z</time>
      </trkpt>
      <trkpt lat="47.35668" lon="-0.02118">
        <ele>103</ele>
        <time>2010-11-21T11:03:10Z</time>
      </trkpt>
      <trkpt lat="47.35672" lon="-0.02124">
        <ele>102.52</ele>
        <time>2010-11-21T11:03:11Z</time>
      </trkpt>
      <trkpt lat="47.35674" lon="-0.02129">
        <ele>103</ele>
        <time>2010-11-21T11:03:12Z</time>
      </trkpt>
      <trkpt lat="47.35676" lon="-0.02135">
        <ele>102.52</ele>
        <time>2010-11-21T11:03:13Z</time>
      </trkpt>
      <trkpt lat="47.35678" lon="-0.02142">
        <ele>102.52</ele>
        <time>2010-11-21T11:03:14Z</time>
      </trkpt>
      <trkpt lat="47.35683" lon="-0.02153">
        <ele>102.52</ele>
        <time>2010-11-21T11:03:16Z</time>
      </trkpt>
      <trkpt lat="47.35684" lon="-0.0216">
        <ele>103</ele>
        <time>2010-11-21T11:03:17Z</time>
      </trkpt>
      <trkpt lat="47.35692" lon="-0.02195">
        <ele>101.56</ele>
        <time>2010-11-21T11:03:23Z</time>
      </trkpt>
      <trkpt lat="47.35694" lon="-0.02209">
        <ele>101.56</ele>
        <time>2010-11-21T11:03:25Z</time>
      </trkpt>
      <trkpt lat="47.35696" lon="-0.02216">
        <ele>102.04</ele>
        <time>2010-11-21T11:03:26Z</time>
      </trkpt>
      <trkpt lat="47.35697" lon="-0.02223">
        <ele>102.04</ele>
        <time>2010-11-21T11:03:27Z</time>
      </trkpt>
      <trkpt lat="47.35704" lon="-0.02275">
        <ele>100.6</ele>
        <time>2010-11-21T11:03:34Z</time>
      </trkpt>
      <trkpt lat="47.35704" lon="-0.02289">
        <ele>100.11</ele>
        <time>2010-11-21T11:03:36Z</time>
      </trkpt>
      <trkpt lat="47.35704" lon="-0.02296">
        <ele>100.6</ele>
        <time>2010-11-21T11:03:37Z</time>
      </trkpt>
      <trkpt lat="47.35704" lon="-0.02333">
        <ele>100.11</ele>
        <time>2010-11-21T11:03:42Z</time>
      </trkpt>
      <trkpt lat="47.35705" lon="-0.02341">
        <ele>100.11</ele>
        <time>2010-11-21T11:03:43Z</time>
      </trkpt>
      <trkpt lat="47.35708" lon="-0.02407">
        <ele>99.63</ele>
        <time>2010-11-21T11:03:51Z</time>
      </trkpt>
      <trkpt lat="47.35713" lon="-0.02463">
        <ele>98.19</ele>
        <time>2010-11-21T11:03:58Z</time>
      </trkpt>
      <trkpt lat="47.35714" lon="-0.02471">
        <ele>98.19</ele>
        <time>2010-11-21T11:03:59Z</time>
      </trkpt>
      <trkpt lat="47.35715" lon="-0.02479">
        <ele>97.71</ele>
        <time>2010-11-21T11:04:00Z</time>
      </trkpt>
      <trkpt lat="47.35718" lon="-0.0252">
        <ele>96.27</ele>
        <time>2010-11-21T11:04:05Z</time>
      </trkpt>
      <trkpt lat="47.35718" lon="-0.02529">
        <ele>96.75</ele>
        <time>2010-11-21T11:04:06Z</time>
      </trkpt>
      <trkpt lat="47.3572" lon="-0.02594">
        <ele>95.31</ele>
        <time>2010-11-21T11:04:13Z</time>
      </trkpt>
      <trkpt lat="47.35723" lon="-0.02633">
        <ele>93.39</ele>
        <time>2010-11-21T11:04:17Z</time>
      </trkpt>
      <trkpt lat="47.35725" lon="-0.02651">
        <ele>93.39</ele>
        <time>2010-11-21T11:04:19Z</time>
      </trkpt>
      <trkpt lat="47.35737" lon="-0.0271">
        <ele>91.94</ele>
        <time>2010-11-21T11:04:26Z</time>
      </trkpt>
      <trkpt lat="47.35739" lon="-0.02718">
        <ele>91.94</ele>
        <time>2010-11-21T11:04:27Z</time>
      </trkpt>
      <trkpt lat="47.35743" lon="-0.02734">
        <ele>92.42</ele>
        <time>2010-11-21T11:04:29Z</time>
      </trkpt>
      <trkpt lat="47.35745" lon="-0.02741">
        <ele>91.94</ele>
        <time>2010-11-21T11:04:30Z</time>
      </trkpt>
      <trkpt lat="47.35748" lon="-0.02747">
        <ele>92.42</ele>
        <time>2010-11-21T11:04:31Z</time>
      </trkpt>
      <trkpt lat="47.35756" lon="-0.02759">
        <ele>90.98</ele>
        <time>2010-11-21T11:04:33Z</time>
      </trkpt>
      <trkpt lat="47.35792" lon="-0.02799">
        <ele>90.98</ele>
        <time>2010-11-21T11:04:41Z</time>
      </trkpt>
      <trkpt lat="47.35826" lon="-0.02827">
        <ele>90.5</ele>
        <time>2010-11-21T11:04:48Z</time>
      </trkpt>
      <trkpt lat="47.35868" lon="-0.02837">
        <ele>90.5</ele>
        <time>2010-11-21T11:04:56Z</time>
      </trkpt>
      <trkpt lat="47.35903" lon="-0.02854">
        <ele>89.54</ele>
        <time>2010-11-21T11:05:04Z</time>
      </trkpt>
      <trkpt lat="47.35931" lon="-0.02877">
        <ele>88.1</ele>
        <time>2010-11-21T11:05:10Z</time>
      </trkpt>
      <trkpt lat="47.35959" lon="-0.02901">
        <ele>86.66</ele>
        <time>2010-11-21T11:05:16Z</time>
      </trkpt>
      <trkpt lat="47.35964" lon="-0.02906">
        <ele>86.66</ele>
        <time>2010-11-21T11:05:17Z</time>
      </trkpt>
      <trkpt lat="47.35988" lon="-0.02929">
        <ele>84.73</ele>
        <time>2010-11-21T11:05:22Z</time>
      </trkpt>
      <trkpt lat="47.35992" lon="-0.02933">
        <ele>84.73</ele>
        <time>2010-11-21T11:05:23Z</time>
      </trkpt>
      <trkpt lat="47.35997" lon="-0.02938">
        <ele>84.25</ele>
        <time>2010-11-21T11:05:24Z</time>
      </trkpt>
      <trkpt lat="47.36005" lon="-0.02948">
        <ele>84.25</ele>
        <time>2010-11-21T11:05:26Z</time>
      </trkpt>
      <trkpt lat="47.36018" lon="-0.0297">
        <ele>82.33</ele>
        <time>2010-11-21T11:05:30Z</time>
      </trkpt>
      <trkpt lat="47.36021" lon="-0.02976">
        <ele>82.33</ele>
        <time>2010-11-21T11:05:31Z</time>
      </trkpt>
      <trkpt lat="47.36027" lon="-0.02988">
        <ele>82.33</ele>
        <time>2010-11-21T11:05:33Z</time>
      </trkpt>
      <trkpt lat="47.36029" lon="-0.02994">
        <ele>81.37</ele>
        <time>2010-11-21T11:05:34Z</time>
      </trkpt>
      <trkpt lat="47.36031" lon="-0.03">
        <ele>81.37</ele>
        <time>2010-11-21T11:05:35Z</time>
      </trkpt>
      <trkpt lat="47.36034" lon="-0.03006">
        <ele>80.89</ele>
        <time>2010-11-21T11:05:36Z</time>
      </trkpt>
      <trkpt lat="47.36038" lon="-0.03012">
        <ele>79.93</ele>
        <time>2010-11-21T11:05:37Z</time>
      </trkpt>
      <trkpt lat="47.36041" lon="-0.03019">
        <ele>79.93</ele>
        <time>2010-11-21T11:05:38Z</time>
      </trkpt>
      <trkpt lat="47.36044" lon="-0.03026">
        <ele>78.97</ele>
        <time>2010-11-21T11:05:39Z</time>
      </trkpt>
      <trkpt lat="47.36047" lon="-0.03033">
        <ele>78</ele>
        <time>2010-11-21T11:05:40Z</time>
      </trkpt>
      <trkpt lat="47.3605" lon="-0.0304">
        <ele>78.97</ele>
        <time>2010-11-21T11:05:41Z</time>
      </trkpt>
      <trkpt lat="47.36054" lon="-0.03046">
        <ele>77.52</ele>
        <time>2010-11-21T11:05:42Z</time>
      </trkpt>
      <trkpt lat="47.36057" lon="-0.03052">
        <ele>77.52</ele>
        <time>2010-11-21T11:05:43Z</time>
      </trkpt>
      <trkpt lat="47.3606" lon="-0.03058">
        <ele>77.04</ele>
        <time>2010-11-21T11:05:44Z</time>
      </trkpt>
      <trkpt lat="47.36069" lon="-0.03074">
        <ele>76.08</ele>
        <time>2010-11-21T11:05:47Z</time>
      </trkpt>
      <trkpt lat="47.3607" lon="-0.03081">
        <ele>76.08</ele>
        <time>2010-11-21T11:05:48Z</time>
      </trkpt>
      <trkpt lat="47.36071" lon="-0.0309">
        <ele>76.08</ele>
        <time>2010-11-21T11:05:49Z</time>
      </trkpt>
      <trkpt lat="47.36073" lon="-0.03098">
        <ele>75.6</ele>
        <time>2010-11-21T11:05:50Z</time>
      </trkpt>
      <trkpt lat="47.36074" lon="-0.03107">
        <ele>74.64</ele>
        <time>2010-11-21T11:05:51Z</time>
      </trkpt>
      <trkpt lat="47.36074" lon="-0.03117">
        <ele>74.64</ele>
        <time>2010-11-21T11:05:52Z</time>
      </trkpt>
      <trkpt lat="47.36074" lon="-0.03126">
        <ele>75.12</ele>
        <time>2010-11-21T11:05:53Z</time>
      </trkpt>
      <trkpt lat="47.36075" lon="-0.03133">
        <ele>75.12</ele>
        <time>2010-11-21T11:05:54Z</time>
      </trkpt>
      <trkpt lat="47.36077" lon="-0.03142">
        <ele>74.16</ele>
        <time>2010-11-21T11:05:55Z</time>
      </trkpt>
      <trkpt lat="47.3608" lon="-0.0315">
        <ele>73.68</ele>
        <time>2010-11-21T11:05:56Z</time>
      </trkpt>
      <trkpt lat="47.36082" lon="-0.03158">
        <ele>73.68</ele>
        <time>2010-11-21T11:05:57Z</time>
      </trkpt>
      <trkpt lat="47.36083" lon="-0.03166">
        <ele>73.2</ele>
        <time>2010-11-21T11:05:58Z</time>
      </trkpt>
      <trkpt lat="47.36084" lon="-0.03175">
        <ele>73.2</ele>
        <time>2010-11-21T11:05:59Z</time>
      </trkpt>
      <trkpt lat="47.36083" lon="-0.03206">
        <ele>72.72</ele>
        <time>2010-11-21T11:06:03Z</time>
      </trkpt>
      <trkpt lat="47.36083" lon="-0.03214">
        <ele>72.24</ele>
        <time>2010-11-21T11:06:04Z</time>
      </trkpt>
      <trkpt lat="47.36082" lon="-0.03236">
        <ele>71.76</ele>
        <time>2010-11-21T11:06:07Z</time>
      </trkpt>
      <trkpt lat="47.3608" lon="-0.03244">
        <ele>72.24</ele>
        <time>2010-11-21T11:06:08Z</time>
      </trkpt>
      <trkpt lat="47.36078" lon="-0.03259">
        <ele>71.76</ele>
        <time>2010-11-21T11:06:10Z</time>
      </trkpt>
      <trkpt lat="47.36075" lon="-0.03267">
        <ele>72.72</ele>
        <time>2010-11-21T11:06:11Z</time>
      </trkpt>
      <trkpt lat="47.36074" lon="-0.03275">
        <ele>72.72</ele>
        <time>2010-11-21T11:06:12Z</time>
      </trkpt>
      <trkpt lat="47.36072" lon="-0.03283">
        <ele>71.76</ele>
        <time>2010-11-21T11:06:13Z</time>
      </trkpt>
      <trkpt lat="47.3607" lon="-0.0329">
        <ele>72.72</ele>
        <time>2010-11-21T11:06:14Z</time>
      </trkpt>
      <trkpt lat="47.3607" lon="-0.03297">
        <ele>72.24</ele>
        <time>2010-11-21T11:06:15Z</time>
      </trkpt>
      <trkpt lat="47.36069" lon="-0.03304">
        <ele>72.24</ele>
        <time>2010-11-21T11:06:16Z</time>
      </trkpt>
      <trkpt lat="47.36068" lon="-0.03312">
        <ele>72.72</ele>
        <time>2010-11-21T11:06:17Z</time>
      </trkpt>
      <trkpt lat="47.36067" lon="-0.03319">
        <ele>71.76</ele>
        <time>2010-11-21T11:06:18Z</time>
      </trkpt>
      <trkpt lat="47.36067" lon="-0.03325">
        <ele>72.24</ele>
        <time>2010-11-21T11:06:19Z</time>
      </trkpt>
      <trkpt lat="47.36067" lon="-0.03332">
        <ele>71.27</ele>
        <time>2010-11-21T11:06:20Z</time>
      </trkpt>
      <trkpt lat="47.36066" lon="-0.03338">
        <ele>71.76</ele>
        <time>2010-11-21T11:06:21Z</time>
      </trkpt>
      <trkpt lat="47.36065" lon="-0.03356">
        <ele>71.76</ele>
        <time>2010-11-21T11:06:24Z</time>
      </trkpt>
      <trkpt lat="47.36064" lon="-0.03362">
        <ele>71.27</ele>
        <time>2010-11-21T11:06:25Z</time>
      </trkpt>
      <trkpt lat="47.36064" lon="-0.03368">
        <ele>70.79</ele>
        <time>2010-11-21T11:06:26Z</time>
      </trkpt>
      <trkpt lat="47.36064" lon="-0.03374">
        <ele>70.79</ele>
        <time>2010-11-21T11:06:27Z</time>
      </trkpt>
      <trkpt lat="47.36064" lon="-0.0338">
        <ele>71.27</ele>
        <time>2010-11-21T11:06:28Z</time>
      </trkpt>
      <trkpt lat="47.36062" lon="-0.03386">
        <ele>71.27</ele>
        <time>2010-11-21T11:06:29Z</time>
      </trkpt>
      <trkpt lat="47.36062" lon="-0.03391">
        <ele>70.31</ele>
        <time>2010-11-21T11:06:30Z</time>
      </trkpt>
      <trkpt lat="47.36063" lon="-0.03397">
        <ele>70.31</ele>
        <time>2010-11-21T11:06:31Z</time>
      </trkpt>
      <trkpt lat="47.36063" lon="-0.03402">
        <ele>69.83</ele>
        <time>2010-11-21T11:06:32Z</time>
      </trkpt>
      <trkpt lat="47.36064" lon="-0.03408">
        <ele>70.31</ele>
        <time>2010-11-21T11:06:33Z</time>
      </trkpt>
      <trkpt lat="47.36066" lon="-0.03414">
        <ele>69.83</ele>
        <time>2010-11-21T11:06:34Z</time>
      </trkpt>
      <trkpt lat="47.36068" lon="-0.0342">
        <ele>69.35</ele>
        <time>2010-11-21T11:06:35Z</time>
      </trkpt>
      <trkpt lat="47.36072" lon="-0.03425">
        <ele>69.35</ele>
        <time>2010-11-21T11:06:36Z</time>
      </trkpt>
      <trkpt lat="47.3608" lon="-0.0343">
        <ele>67.91</ele>
        <time>2010-11-21T11:06:37Z</time>
      </trkpt>
      <trkpt lat="47.36086" lon="-0.03432">
        <ele>68.87</ele>
        <time>2010-11-21T11:06:38Z</time>
      </trkpt>
      <trkpt lat="47.36091" lon="-0.03434">
        <ele>67.43</ele>
        <time>2010-11-21T11:06:39Z</time>
      </trkpt>
      <trkpt lat="47.36097" lon="-0.03436">
        <ele>67.43</ele>
        <time>2010-11-21T11:06:40Z</time>
      </trkpt>
      <trkpt lat="47.36125" lon="-0.03442">
        <ele>65.51</ele>
        <time>2010-11-21T11:06:45Z</time>
      </trkpt>
      <trkpt lat="47.3613" lon="-0.03445">
        <ele>65.03</ele>
        <time>2010-11-21T11:06:46Z</time>
      </trkpt>
      <trkpt lat="47.36133" lon="-0.03448">
        <ele>65.03</ele>
        <time>2010-11-21T11:06:47Z</time>
      </trkpt>
      <trkpt lat="47.36136" lon="-0.03453">
        <ele>64.55</ele>
        <time>2010-11-21T11:06:48Z</time>
      </trkpt>
      <trkpt lat="47.36137" lon="-0.03458">
        <ele>65.03</ele>
        <time>2010-11-21T11:06:49Z</time>
      </trkpt>
      <trkpt lat="47.36137" lon="-0.03463">
        <ele>64.55</ele>
        <time>2010-11-21T11:06:50Z</time>
      </trkpt>
      <trkpt lat="47.36137" lon="-0.03468">
        <ele>64.07</ele>
        <time>2010-11-21T11:06:51Z</time>
      </trkpt>
      <trkpt lat="47.36137" lon="-0.03473">
        <ele>64.07</ele>
        <time>2010-11-21T11:06:52Z</time>
      </trkpt>
      <trkpt lat="47.36136" lon="-0.03477">
        <ele>64.55</ele>
        <time>2010-11-21T11:06:53Z</time>
      </trkpt>
      <trkpt lat="47.36135" lon="-0.0348">
        <ele>64.07</ele>
        <time>2010-11-21T11:06:54Z</time>
      </trkpt>
      <trkpt lat="47.36134" lon="-0.03482">
        <ele>64.55</ele>
        <time>2010-11-21T11:06:55Z</time>
      </trkpt>
      <trkpt lat="47.36131" lon="-0.03487">
        <ele>64.55</ele>
        <time>2010-11-21T11:07:02Z</time>
      </trkpt>
      <trkpt lat="47.3613" lon="-0.03487">
        <ele>64.07</ele>
        <time>2010-11-21T11:07:21Z</time>
      </trkpt>
      <trkpt lat="47.36121" lon="-0.03486">
        <ele>64.55</ele>
        <time>2010-11-21T11:07:27Z</time>
      </trkpt>
      <trkpt lat="47.36106" lon="-0.03484">
        <ele>65.51</ele>
        <time>2010-11-21T11:07:32Z</time>
      </trkpt>
      <trkpt lat="47.36102" lon="-0.03486">
        <ele>65.51</ele>
        <time>2010-11-21T11:07:34Z</time>
      </trkpt>
      <trkpt lat="47.36101" lon="-0.03488">
        <ele>65.51</ele>
        <time>2010-11-21T11:07:35Z</time>
      </trkpt>
      <trkpt lat="47.361" lon="-0.03491">
        <ele>65.03</ele>
        <time>2010-11-21T11:07:36Z</time>
      </trkpt>
      <trkpt lat="47.361" lon="-0.03494">
        <ele>65.51</ele>
        <time>2010-11-21T11:07:41Z</time>
      </trkpt>
      <trkpt lat="47.361" lon="-0.03494">
        <ele>66.47</ele>
        <time>2010-11-21T11:08:12Z</time>
      </trkpt>
      <trkpt lat="47.36099" lon="-0.03494">
        <ele>65.51</ele>
        <time>2010-11-21T11:08:39Z</time>
      </trkpt>
      <trkpt lat="47.36099" lon="-0.03495">
        <ele>65.99</ele>
        <time>2010-11-21T11:09:25Z</time>
      </trkpt>
      <trkpt lat="47.36098" lon="-0.03496">
        <ele>65.51</ele>
        <time>2010-11-21T11:11:47Z</time>
      </trkpt>
      <trkpt lat="47.36098" lon="-0.03496">
        <ele>65.99</ele>
        <time>2010-11-21T11:12:10Z</time>
      </trkpt>
      <trkpt lat="47.36098" lon="-0.03497">
        <ele>66.47</ele>
        <time>2010-11-21T11:15:19Z</time>
      </trkpt>
      <trkpt lat="47.36098" lon="-0.03493">
        <ele>67.43</ele>
        <time>2010-11-21T11:17:15Z</time>
      </trkpt>
      <trkpt lat="47.36099" lon="-0.03482">
        <ele>66.95</ele>
        <time>2010-11-21T11:17:22Z</time>
      </trkpt>
      <trkpt lat="47.36098" lon="-0.03481">
        <ele>67.43</ele>
        <time>2010-11-21T11:17:23Z</time>
      </trkpt>
      <trkpt lat="47.36095" lon="-0.03481">
        <ele>67.91</ele>
        <time>2010-11-21T11:17:26Z</time>
      </trkpt>
      <trkpt lat="47.36094" lon="-0.03481">
        <ele>67.43</ele>
        <time>2010-11-21T11:17:27Z</time>
      </trkpt>
      <trkpt lat="47.36092" lon="-0.03481">
        <ele>67.43</ele>
        <time>2010-11-21T11:17:28Z</time>
      </trkpt>
      <trkpt lat="47.36091" lon="-0.0348">
        <ele>67.43</ele>
        <time>2010-11-21T11:17:29Z</time>
      </trkpt>
      <trkpt lat="47.36082" lon="-0.03478">
        <ele>68.39</ele>
        <time>2010-11-21T11:17:38Z</time>
      </trkpt>
      <trkpt lat="47.3608" lon="-0.03479">
        <ele>68.87</ele>
        <time>2010-11-21T11:17:46Z</time>
      </trkpt>
      <trkpt lat="47.36079" lon="-0.03481">
        <ele>68.87</ele>
        <time>2010-11-21T11:17:57Z</time>
      </trkpt>
      <trkpt lat="47.36079" lon="-0.03481">
        <ele>67.91</ele>
        <time>2010-11-21T11:18:03Z</time>
      </trkpt>
      <trkpt lat="47.36079" lon="-0.03481">
        <ele>72.24</ele>
        <time>2010-11-21T11:19:43Z</time>
      </trkpt>
      <trkpt lat="47.36079" lon="-0.03481">
        <ele>76.08</ele>
        <time>2010-11-21T11:19:45Z</time>
      </trkpt>
      <trkpt lat="47.36079" lon="-0.03481">
        <ele>77.04</ele>
        <time>2010-11-21T11:19:47Z</time>
      </trkpt>
      <trkpt lat="47.36079" lon="-0.03481">
        <ele>70.31</ele>
        <time>2010-11-21T11:19:50Z</time>
      </trkpt>
      <trkpt lat="47.36079" lon="-0.03481">
        <ele>69.35</ele>
        <time>2010-11-21T11:19:52Z</time>
      </trkpt>
      <trkpt lat="47.36081" lon="-0.03482">
        <ele>68.39</ele>
        <time>2010-11-21T11:20:02Z</time>
      </trkpt>
      <trkpt lat="47.36081" lon="-0.03482">
        <ele>69.35</ele>
        <time>2010-11-21T11:22:01Z</time>
      </trkpt>
      <trkpt lat="47.36081" lon="-0.0348">
        <ele>69.83</ele>
        <time>2010-11-21T11:23:45Z</time>
      </trkpt>
      <trkpt lat="47.36083" lon="-0.0348">
        <ele>69.83</ele>
        <time>2010-11-21T11:23:50Z</time>
      </trkpt>
      <trkpt lat="47.36085" lon="-0.0348">
        <ele>69.83</ele>
        <time>2010-11-21T11:23:52Z</time>
      </trkpt>
      <trkpt lat="47.36093" lon="-0.03482">
        <ele>69.35</ele>
        <time>2010-11-21T11:24:02Z</time>
      </trkpt>
      <trkpt lat="47.36099" lon="-0.03487">
        <ele>69.35</ele>
        <time>2010-11-21T11:24:10Z</time>
      </trkpt>
      <trkpt lat="47.36099" lon="-0.03488">
        <ele>68.87</ele>
        <time>2010-11-21T11:24:11Z</time>
      </trkpt>
      <trkpt lat="47.36099" lon="-0.0349">
        <ele>68.87</ele>
        <time>2010-11-21T11:24:12Z</time>
      </trkpt>
      <trkpt lat="47.36099" lon="-0.03496">
        <ele>68.87</ele>
        <time>2010-11-21T11:24:20Z</time>
      </trkpt>
    </trkseg>
  </trk>
</gpx>